<?xml version="1.0" encoding="UTF-8" standalone="no" ?>
<gpx xmlns="http://www.topografix.com/GPX/1/1" xmlns:xsi="http://www.w3.org/2001/XMLSchema-instance" xsi:schemaLocation="http://www.topografix.com/GPX/1/1 http://www.topografix.com/GPX/1/1/gpx.xsd" version="1.1" creator="VisuGPX - https://www.visugpx.com">
  <metadata>
    <name>tour de miribel par jonage</name>
    <desc><![CDATA[21 kms en nature dans le parc de miribel.
]]></desc>
  </metadata>
  <trk>
    <name><![CDATA[2011-06-13-01]]></name>
    <trkseg>
      <trkpt lat="45.78722" lon="5.01306">
        <ele>181.6</ele>
        <time>2011-06-13T07:46:10Z</time>
      </trkpt>
      <trkpt lat="45.78722" lon="5.01306">
        <ele>181.6</ele>
        <time>2011-06-13T07:46:11Z</time>
      </trkpt>
      <trkpt lat="45.78721" lon="5.01309">
        <ele>181.6</ele>
        <time>2011-06-13T07:46:12Z</time>
      </trkpt>
      <trkpt lat="45.78721" lon="5.0131">
        <ele>182.5</ele>
        <time>2011-06-13T07:46:13Z</time>
      </trkpt>
      <trkpt lat="45.78723" lon="5.01311">
        <ele>182.5</ele>
        <time>2011-06-13T07:46:14Z</time>
      </trkpt>
      <trkpt lat="45.78725" lon="5.01311">
        <ele>182.5</ele>
        <time>2011-06-13T07:46:15Z</time>
      </trkpt>
      <trkpt lat="45.78723" lon="5.01315">
        <ele>182.5</ele>
        <time>2011-06-13T07:46:16Z</time>
      </trkpt>
      <trkpt lat="45.78721" lon="5.0132">
        <ele>182.5</ele>
        <time>2011-06-13T07:46:17Z</time>
      </trkpt>
      <trkpt lat="45.7872" lon="5.01323">
        <ele>182.5</ele>
        <time>2011-06-13T07:46:18Z</time>
      </trkpt>
      <trkpt lat="45.78721" lon="5.01326">
        <ele>181</ele>
        <time>2011-06-13T07:46:19Z</time>
      </trkpt>
      <trkpt lat="45.78721" lon="5.01328">
        <ele>179.8</ele>
        <time>2011-06-13T07:46:20Z</time>
      </trkpt>
      <trkpt lat="45.78716" lon="5.01343">
        <ele>181.6</ele>
        <time>2011-06-13T07:46:23Z</time>
      </trkpt>
      <trkpt lat="45.78715" lon="5.01351">
        <ele>182.3</ele>
        <time>2011-06-13T07:46:25Z</time>
      </trkpt>
      <trkpt lat="45.78712" lon="5.0136">
        <ele>183.3</ele>
        <time>2011-06-13T07:46:27Z</time>
      </trkpt>
      <trkpt lat="45.78712" lon="5.01362">
        <ele>182.1</ele>
        <time>2011-06-13T07:46:28Z</time>
      </trkpt>
      <trkpt lat="45.78709" lon="5.01368">
        <ele>183.3</ele>
        <time>2011-06-13T07:46:29Z</time>
      </trkpt>
      <trkpt lat="45.78709" lon="5.0137">
        <ele>182.5</ele>
        <time>2011-06-13T07:46:30Z</time>
      </trkpt>
      <trkpt lat="45.78708" lon="5.01373">
        <ele>182.1</ele>
        <time>2011-06-13T07:46:31Z</time>
      </trkpt>
      <trkpt lat="45.78708" lon="5.01375">
        <ele>181.6</ele>
        <time>2011-06-13T07:46:32Z</time>
      </trkpt>
      <trkpt lat="45.78707" lon="5.01378">
        <ele>180.6</ele>
        <time>2011-06-13T07:46:33Z</time>
      </trkpt>
      <trkpt lat="45.78705" lon="5.01382">
        <ele>180.6</ele>
        <time>2011-06-13T07:46:34Z</time>
      </trkpt>
      <trkpt lat="45.78705" lon="5.01391">
        <ele>180.3</ele>
        <time>2011-06-13T07:46:36Z</time>
      </trkpt>
      <trkpt lat="45.78704" lon="5.01394">
        <ele>179.6</ele>
        <time>2011-06-13T07:46:37Z</time>
      </trkpt>
      <trkpt lat="45.78696" lon="5.01431">
        <ele>174.8</ele>
        <time>2011-06-13T07:46:48Z</time>
      </trkpt>
      <trkpt lat="45.78698" lon="5.01436">
        <ele>174.1</ele>
        <time>2011-06-13T07:46:49Z</time>
      </trkpt>
      <trkpt lat="45.78697" lon="5.01439">
        <ele>173.6</ele>
        <time>2011-06-13T07:46:50Z</time>
      </trkpt>
      <trkpt lat="45.78698" lon="5.01442">
        <ele>173.1</ele>
        <time>2011-06-13T07:46:51Z</time>
      </trkpt>
      <trkpt lat="45.78699" lon="5.01445">
        <ele>172.6</ele>
        <time>2011-06-13T07:46:52Z</time>
      </trkpt>
      <trkpt lat="45.78698" lon="5.01447">
        <ele>172.1</ele>
        <time>2011-06-13T07:46:53Z</time>
      </trkpt>
      <trkpt lat="45.78698" lon="5.0145">
        <ele>171.5</ele>
        <time>2011-06-13T07:46:54Z</time>
      </trkpt>
      <trkpt lat="45.78698" lon="5.01452">
        <ele>170.8</ele>
        <time>2011-06-13T07:46:55Z</time>
      </trkpt>
      <trkpt lat="45.78699" lon="5.01455">
        <ele>170.1</ele>
        <time>2011-06-13T07:46:56Z</time>
      </trkpt>
      <trkpt lat="45.78698" lon="5.01457">
        <ele>169.3</ele>
        <time>2011-06-13T07:46:57Z</time>
      </trkpt>
      <trkpt lat="45.78696" lon="5.01476">
        <ele>163.8</ele>
        <time>2011-06-13T07:47:04Z</time>
      </trkpt>
      <trkpt lat="45.78696" lon="5.01486">
        <ele>160.6</ele>
        <time>2011-06-13T07:47:08Z</time>
      </trkpt>
      <trkpt lat="45.78692" lon="5.01489">
        <ele>159.6</ele>
        <time>2011-06-13T07:47:09Z</time>
      </trkpt>
      <trkpt lat="45.78693" lon="5.01492">
        <ele>158.8</ele>
        <time>2011-06-13T07:47:10Z</time>
      </trkpt>
      <trkpt lat="45.78693" lon="5.01494">
        <ele>158</ele>
        <time>2011-06-13T07:47:11Z</time>
      </trkpt>
      <trkpt lat="45.78687" lon="5.01498">
        <ele>157.1</ele>
        <time>2011-06-13T07:47:12Z</time>
      </trkpt>
      <trkpt lat="45.78688" lon="5.01501">
        <ele>157.1</ele>
        <time>2011-06-13T07:47:13Z</time>
      </trkpt>
      <trkpt lat="45.78687" lon="5.01504">
        <ele>156</ele>
        <time>2011-06-13T07:47:14Z</time>
      </trkpt>
      <trkpt lat="45.78701" lon="5.01531">
        <ele>151.8</ele>
        <time>2011-06-13T07:47:22Z</time>
      </trkpt>
      <trkpt lat="45.7872" lon="5.01533">
        <ele>149.8</ele>
        <time>2011-06-13T07:47:24Z</time>
      </trkpt>
      <trkpt lat="45.78721" lon="5.01534">
        <ele>149.8</ele>
        <time>2011-06-13T07:47:25Z</time>
      </trkpt>
      <trkpt lat="45.78726" lon="5.01536">
        <ele>147.8</ele>
        <time>2011-06-13T07:47:26Z</time>
      </trkpt>
      <trkpt lat="45.78729" lon="5.01537">
        <ele>147.8</ele>
        <time>2011-06-13T07:47:27Z</time>
      </trkpt>
      <trkpt lat="45.78732" lon="5.01538">
        <ele>146</ele>
        <time>2011-06-13T07:47:28Z</time>
      </trkpt>
      <trkpt lat="45.78695" lon="5.01572">
        <ele>146</ele>
        <time>2011-06-13T07:47:29Z</time>
      </trkpt>
      <trkpt lat="45.78675" lon="5.0159">
        <ele>167</ele>
        <time>2011-06-13T07:47:30Z</time>
      </trkpt>
      <trkpt lat="45.7866" lon="5.01608">
        <ele>167</ele>
        <time>2011-06-13T07:47:31Z</time>
      </trkpt>
      <trkpt lat="45.78656" lon="5.01615">
        <ele>176.3</ele>
        <time>2011-06-13T07:47:32Z</time>
      </trkpt>
      <trkpt lat="45.78652" lon="5.01622">
        <ele>178.3</ele>
        <time>2011-06-13T07:47:33Z</time>
      </trkpt>
      <trkpt lat="45.78653" lon="5.01627">
        <ele>179.3</ele>
        <time>2011-06-13T07:47:34Z</time>
      </trkpt>
      <trkpt lat="45.78653" lon="5.0163">
        <ele>180.1</ele>
        <time>2011-06-13T07:47:35Z</time>
      </trkpt>
      <trkpt lat="45.78653" lon="5.01636">
        <ele>181.6</ele>
        <time>2011-06-13T07:47:36Z</time>
      </trkpt>
      <trkpt lat="45.78654" lon="5.01645">
        <ele>182.8</ele>
        <time>2011-06-13T07:47:38Z</time>
      </trkpt>
      <trkpt lat="45.78652" lon="5.01651">
        <ele>184.1</ele>
        <time>2011-06-13T07:47:39Z</time>
      </trkpt>
      <trkpt lat="45.78651" lon="5.01657">
        <ele>185.8</ele>
        <time>2011-06-13T07:47:40Z</time>
      </trkpt>
      <trkpt lat="45.78649" lon="5.01661">
        <ele>186</ele>
        <time>2011-06-13T07:47:41Z</time>
      </trkpt>
      <trkpt lat="45.78649" lon="5.01664">
        <ele>184.8</ele>
        <time>2011-06-13T07:47:42Z</time>
      </trkpt>
      <trkpt lat="45.78648" lon="5.01667">
        <ele>184</ele>
        <time>2011-06-13T07:47:43Z</time>
      </trkpt>
      <trkpt lat="45.78646" lon="5.01687">
        <ele>181.5</ele>
        <time>2011-06-13T07:47:49Z</time>
      </trkpt>
      <trkpt lat="45.78648" lon="5.01691">
        <ele>181.5</ele>
        <time>2011-06-13T07:47:50Z</time>
      </trkpt>
      <trkpt lat="45.78648" lon="5.01695">
        <ele>181.1</ele>
        <time>2011-06-13T07:47:51Z</time>
      </trkpt>
      <trkpt lat="45.78648" lon="5.01699">
        <ele>180.6</ele>
        <time>2011-06-13T07:47:52Z</time>
      </trkpt>
      <trkpt lat="45.78667" lon="5.01698">
        <ele>172.5</ele>
        <time>2011-06-13T07:47:56Z</time>
      </trkpt>
      <trkpt lat="45.78664" lon="5.01705">
        <ele>173.5</ele>
        <time>2011-06-13T07:47:57Z</time>
      </trkpt>
      <trkpt lat="45.78658" lon="5.01714">
        <ele>175.6</ele>
        <time>2011-06-13T07:47:58Z</time>
      </trkpt>
      <trkpt lat="45.78658" lon="5.01717">
        <ele>175</ele>
        <time>2011-06-13T07:47:59Z</time>
      </trkpt>
      <trkpt lat="45.78657" lon="5.01731">
        <ele>175.8</ele>
        <time>2011-06-13T07:48:02Z</time>
      </trkpt>
      <trkpt lat="45.78656" lon="5.01741">
        <ele>177.5</ele>
        <time>2011-06-13T07:48:04Z</time>
      </trkpt>
      <trkpt lat="45.78656" lon="5.01746">
        <ele>178.1</ele>
        <time>2011-06-13T07:48:05Z</time>
      </trkpt>
      <trkpt lat="45.78653" lon="5.01762">
        <ele>181.6</ele>
        <time>2011-06-13T07:48:07Z</time>
      </trkpt>
      <trkpt lat="45.7865" lon="5.01771">
        <ele>182.1</ele>
        <time>2011-06-13T07:48:09Z</time>
      </trkpt>
      <trkpt lat="45.78651" lon="5.01773">
        <ele>182.1</ele>
        <time>2011-06-13T07:48:10Z</time>
      </trkpt>
      <trkpt lat="45.78653" lon="5.01776">
        <ele>180.1</ele>
        <time>2011-06-13T07:48:11Z</time>
      </trkpt>
      <trkpt lat="45.78655" lon="5.0178">
        <ele>180.1</ele>
        <time>2011-06-13T07:48:12Z</time>
      </trkpt>
      <trkpt lat="45.7866" lon="5.01794">
        <ele>181.6</ele>
        <time>2011-06-13T07:48:15Z</time>
      </trkpt>
      <trkpt lat="45.78661" lon="5.01798">
        <ele>181.6</ele>
        <time>2011-06-13T07:48:16Z</time>
      </trkpt>
      <trkpt lat="45.7866" lon="5.01804">
        <ele>183.1</ele>
        <time>2011-06-13T07:48:17Z</time>
      </trkpt>
      <trkpt lat="45.78661" lon="5.01808">
        <ele>183</ele>
        <time>2011-06-13T07:48:18Z</time>
      </trkpt>
      <trkpt lat="45.78664" lon="5.01815">
        <ele>183.1</ele>
        <time>2011-06-13T07:48:20Z</time>
      </trkpt>
      <trkpt lat="45.78663" lon="5.01821">
        <ele>184.6</ele>
        <time>2011-06-13T07:48:21Z</time>
      </trkpt>
      <trkpt lat="45.78664" lon="5.01825">
        <ele>185.1</ele>
        <time>2011-06-13T07:48:22Z</time>
      </trkpt>
      <trkpt lat="45.78664" lon="5.0183">
        <ele>186</ele>
        <time>2011-06-13T07:48:23Z</time>
      </trkpt>
      <trkpt lat="45.78664" lon="5.01836">
        <ele>186.8</ele>
        <time>2011-06-13T07:48:24Z</time>
      </trkpt>
      <trkpt lat="45.78663" lon="5.0184">
        <ele>187.3</ele>
        <time>2011-06-13T07:48:25Z</time>
      </trkpt>
      <trkpt lat="45.78664" lon="5.01844">
        <ele>187.3</ele>
        <time>2011-06-13T07:48:26Z</time>
      </trkpt>
      <trkpt lat="45.78665" lon="5.01854">
        <ele>188.3</ele>
        <time>2011-06-13T07:48:28Z</time>
      </trkpt>
      <trkpt lat="45.78667" lon="5.01868">
        <ele>189.6</ele>
        <time>2011-06-13T07:48:31Z</time>
      </trkpt>
      <trkpt lat="45.7867" lon="5.01872">
        <ele>190.1</ele>
        <time>2011-06-13T07:48:32Z</time>
      </trkpt>
      <trkpt lat="45.7867" lon="5.01876">
        <ele>190.8</ele>
        <time>2011-06-13T07:48:33Z</time>
      </trkpt>
      <trkpt lat="45.78673" lon="5.01882">
        <ele>189.1</ele>
        <time>2011-06-13T07:48:35Z</time>
      </trkpt>
      <trkpt lat="45.78674" lon="5.01885">
        <ele>189.3</ele>
        <time>2011-06-13T07:48:36Z</time>
      </trkpt>
      <trkpt lat="45.78674" lon="5.0191">
        <ele>189.5</ele>
        <time>2011-06-13T07:48:41Z</time>
      </trkpt>
      <trkpt lat="45.78673" lon="5.01917">
        <ele>189.6</ele>
        <time>2011-06-13T07:48:42Z</time>
      </trkpt>
      <trkpt lat="45.78671" lon="5.01924">
        <ele>191.1</ele>
        <time>2011-06-13T07:48:43Z</time>
      </trkpt>
      <trkpt lat="45.78669" lon="5.01934">
        <ele>192.3</ele>
        <time>2011-06-13T07:48:44Z</time>
      </trkpt>
      <trkpt lat="45.78673" lon="5.01931">
        <ele>191.1</ele>
        <time>2011-06-13T07:48:45Z</time>
      </trkpt>
      <trkpt lat="45.78679" lon="5.0193">
        <ele>190.1</ele>
        <time>2011-06-13T07:48:46Z</time>
      </trkpt>
      <trkpt lat="45.78678" lon="5.01932">
        <ele>188.8</ele>
        <time>2011-06-13T07:48:47Z</time>
      </trkpt>
      <trkpt lat="45.78679" lon="5.01934">
        <ele>188.8</ele>
        <time>2011-06-13T07:48:48Z</time>
      </trkpt>
      <trkpt lat="45.78681" lon="5.0194">
        <ele>187.6</ele>
        <time>2011-06-13T07:48:50Z</time>
      </trkpt>
      <trkpt lat="45.78696" lon="5.01961">
        <ele>180.3</ele>
        <time>2011-06-13T07:48:59Z</time>
      </trkpt>
      <trkpt lat="45.78698" lon="5.01963">
        <ele>180.3</ele>
        <time>2011-06-13T07:49:00Z</time>
      </trkpt>
      <trkpt lat="45.78701" lon="5.01967">
        <ele>180.3</ele>
        <time>2011-06-13T07:49:01Z</time>
      </trkpt>
      <trkpt lat="45.78708" lon="5.01985">
        <ele>181</ele>
        <time>2011-06-13T07:49:06Z</time>
      </trkpt>
      <trkpt lat="45.78712" lon="5.01992">
        <ele>181.3</ele>
        <time>2011-06-13T07:49:08Z</time>
      </trkpt>
      <trkpt lat="45.78723" lon="5.02007">
        <ele>185.6</ele>
        <time>2011-06-13T07:49:12Z</time>
      </trkpt>
      <trkpt lat="45.78724" lon="5.0201">
        <ele>185.1</ele>
        <time>2011-06-13T07:49:13Z</time>
      </trkpt>
      <trkpt lat="45.78725" lon="5.02013">
        <ele>184.8</ele>
        <time>2011-06-13T07:49:14Z</time>
      </trkpt>
      <trkpt lat="45.78726" lon="5.02019">
        <ele>185</ele>
        <time>2011-06-13T07:49:15Z</time>
      </trkpt>
      <trkpt lat="45.78728" lon="5.02022">
        <ele>185.1</ele>
        <time>2011-06-13T07:49:16Z</time>
      </trkpt>
      <trkpt lat="45.7873" lon="5.02024">
        <ele>185.3</ele>
        <time>2011-06-13T07:49:17Z</time>
      </trkpt>
      <trkpt lat="45.78732" lon="5.02028">
        <ele>186</ele>
        <time>2011-06-13T07:49:18Z</time>
      </trkpt>
      <trkpt lat="45.78736" lon="5.02033">
        <ele>186.8</ele>
        <time>2011-06-13T07:49:20Z</time>
      </trkpt>
      <trkpt lat="45.78738" lon="5.02037">
        <ele>187.1</ele>
        <time>2011-06-13T07:49:21Z</time>
      </trkpt>
      <trkpt lat="45.7874" lon="5.02039">
        <ele>187.3</ele>
        <time>2011-06-13T07:49:22Z</time>
      </trkpt>
      <trkpt lat="45.78742" lon="5.02043">
        <ele>187.8</ele>
        <time>2011-06-13T07:49:23Z</time>
      </trkpt>
      <trkpt lat="45.78749" lon="5.02052">
        <ele>188.6</ele>
        <time>2011-06-13T07:49:26Z</time>
      </trkpt>
      <trkpt lat="45.7877" lon="5.02094">
        <ele>187.6</ele>
        <time>2011-06-13T07:49:39Z</time>
      </trkpt>
      <trkpt lat="45.78773" lon="5.02097">
        <ele>188.3</ele>
        <time>2011-06-13T07:49:40Z</time>
      </trkpt>
      <trkpt lat="45.78798" lon="5.02119">
        <ele>188.6</ele>
        <time>2011-06-13T07:49:50Z</time>
      </trkpt>
      <trkpt lat="45.7882" lon="5.02148">
        <ele>190</ele>
        <time>2011-06-13T07:50:00Z</time>
      </trkpt>
      <trkpt lat="45.78831" lon="5.0216">
        <ele>189.6</ele>
        <time>2011-06-13T07:50:05Z</time>
      </trkpt>
      <trkpt lat="45.78853" lon="5.02182">
        <ele>189.6</ele>
        <time>2011-06-13T07:50:14Z</time>
      </trkpt>
      <trkpt lat="45.78854" lon="5.02186">
        <ele>188.1</ele>
        <time>2011-06-13T07:50:15Z</time>
      </trkpt>
      <trkpt lat="45.78854" lon="5.02189">
        <ele>186.8</ele>
        <time>2011-06-13T07:50:16Z</time>
      </trkpt>
      <trkpt lat="45.78854" lon="5.02191">
        <ele>185.1</ele>
        <time>2011-06-13T07:50:17Z</time>
      </trkpt>
      <trkpt lat="45.78855" lon="5.02195">
        <ele>185.3</ele>
        <time>2011-06-13T07:50:18Z</time>
      </trkpt>
      <trkpt lat="45.78859" lon="5.02199">
        <ele>184.5</ele>
        <time>2011-06-13T07:50:20Z</time>
      </trkpt>
      <trkpt lat="45.78861" lon="5.02202">
        <ele>185.1</ele>
        <time>2011-06-13T07:50:21Z</time>
      </trkpt>
      <trkpt lat="45.78864" lon="5.02204">
        <ele>184.8</ele>
        <time>2011-06-13T07:50:22Z</time>
      </trkpt>
      <trkpt lat="45.78865" lon="5.02206">
        <ele>183.8</ele>
        <time>2011-06-13T07:50:23Z</time>
      </trkpt>
      <trkpt lat="45.78868" lon="5.02208">
        <ele>184</ele>
        <time>2011-06-13T07:50:24Z</time>
      </trkpt>
      <trkpt lat="45.78868" lon="5.02211">
        <ele>182.8</ele>
        <time>2011-06-13T07:50:25Z</time>
      </trkpt>
      <trkpt lat="45.7887" lon="5.02214">
        <ele>182.8</ele>
        <time>2011-06-13T07:50:26Z</time>
      </trkpt>
      <trkpt lat="45.78873" lon="5.02216">
        <ele>182.1</ele>
        <time>2011-06-13T07:50:27Z</time>
      </trkpt>
      <trkpt lat="45.7888" lon="5.02218">
        <ele>183.3</ele>
        <time>2011-06-13T07:50:29Z</time>
      </trkpt>
      <trkpt lat="45.78881" lon="5.0222">
        <ele>182.6</ele>
        <time>2011-06-13T07:50:30Z</time>
      </trkpt>
      <trkpt lat="45.78885" lon="5.02221">
        <ele>183.1</ele>
        <time>2011-06-13T07:50:31Z</time>
      </trkpt>
      <trkpt lat="45.7889" lon="5.02222">
        <ele>184.8</ele>
        <time>2011-06-13T07:50:32Z</time>
      </trkpt>
      <trkpt lat="45.78893" lon="5.02224">
        <ele>186</ele>
        <time>2011-06-13T07:50:33Z</time>
      </trkpt>
      <trkpt lat="45.78895" lon="5.02227">
        <ele>186</ele>
        <time>2011-06-13T07:50:34Z</time>
      </trkpt>
      <trkpt lat="45.78898" lon="5.02229">
        <ele>186</ele>
        <time>2011-06-13T07:50:35Z</time>
      </trkpt>
      <trkpt lat="45.78902" lon="5.02229">
        <ele>186</ele>
        <time>2011-06-13T07:50:36Z</time>
      </trkpt>
      <trkpt lat="45.78905" lon="5.02232">
        <ele>187.1</ele>
        <time>2011-06-13T07:50:37Z</time>
      </trkpt>
      <trkpt lat="45.78908" lon="5.02233">
        <ele>187.1</ele>
        <time>2011-06-13T07:50:38Z</time>
      </trkpt>
      <trkpt lat="45.7891" lon="5.02236">
        <ele>188.3</ele>
        <time>2011-06-13T07:50:39Z</time>
      </trkpt>
      <trkpt lat="45.78911" lon="5.02241">
        <ele>188.3</ele>
        <time>2011-06-13T07:50:40Z</time>
      </trkpt>
      <trkpt lat="45.78915" lon="5.02242">
        <ele>188.3</ele>
        <time>2011-06-13T07:50:41Z</time>
      </trkpt>
      <trkpt lat="45.78917" lon="5.02246">
        <ele>188.3</ele>
        <time>2011-06-13T07:50:42Z</time>
      </trkpt>
      <trkpt lat="45.78921" lon="5.02247">
        <ele>190.6</ele>
        <time>2011-06-13T07:50:43Z</time>
      </trkpt>
      <trkpt lat="45.78923" lon="5.02251">
        <ele>191.1</ele>
        <time>2011-06-13T07:50:44Z</time>
      </trkpt>
      <trkpt lat="45.78925" lon="5.02254">
        <ele>190.6</ele>
        <time>2011-06-13T07:50:45Z</time>
      </trkpt>
      <trkpt lat="45.78949" lon="5.02284">
        <ele>190.6</ele>
        <time>2011-06-13T07:50:57Z</time>
      </trkpt>
      <trkpt lat="45.78953" lon="5.02284">
        <ele>189</ele>
        <time>2011-06-13T07:50:58Z</time>
      </trkpt>
      <trkpt lat="45.78956" lon="5.02284">
        <ele>188.3</ele>
        <time>2011-06-13T07:50:59Z</time>
      </trkpt>
      <trkpt lat="45.78962" lon="5.02287">
        <ele>187.3</ele>
        <time>2011-06-13T07:51:01Z</time>
      </trkpt>
      <trkpt lat="45.78962" lon="5.02291">
        <ele>188</ele>
        <time>2011-06-13T07:51:02Z</time>
      </trkpt>
      <trkpt lat="45.78963" lon="5.02295">
        <ele>188.6</ele>
        <time>2011-06-13T07:51:03Z</time>
      </trkpt>
      <trkpt lat="45.78965" lon="5.02294">
        <ele>187.3</ele>
        <time>2011-06-13T07:51:04Z</time>
      </trkpt>
      <trkpt lat="45.78968" lon="5.02297">
        <ele>187.8</ele>
        <time>2011-06-13T07:51:05Z</time>
      </trkpt>
      <trkpt lat="45.7897" lon="5.02299">
        <ele>187.6</ele>
        <time>2011-06-13T07:51:06Z</time>
      </trkpt>
      <trkpt lat="45.78973" lon="5.023">
        <ele>187</ele>
        <time>2011-06-13T07:51:07Z</time>
      </trkpt>
      <trkpt lat="45.78977" lon="5.02301">
        <ele>186.8</ele>
        <time>2011-06-13T07:51:08Z</time>
      </trkpt>
      <trkpt lat="45.7898" lon="5.02304">
        <ele>187.3</ele>
        <time>2011-06-13T07:51:09Z</time>
      </trkpt>
      <trkpt lat="45.78982" lon="5.02307">
        <ele>187.6</ele>
        <time>2011-06-13T07:51:10Z</time>
      </trkpt>
      <trkpt lat="45.78983" lon="5.02315">
        <ele>188.5</ele>
        <time>2011-06-13T07:51:12Z</time>
      </trkpt>
      <trkpt lat="45.78983" lon="5.0232">
        <ele>188.5</ele>
        <time>2011-06-13T07:51:13Z</time>
      </trkpt>
      <trkpt lat="45.78984" lon="5.02324">
        <ele>189.8</ele>
        <time>2011-06-13T07:51:14Z</time>
      </trkpt>
      <trkpt lat="45.78983" lon="5.02329">
        <ele>189.8</ele>
        <time>2011-06-13T07:51:15Z</time>
      </trkpt>
      <trkpt lat="45.78984" lon="5.02332">
        <ele>192.5</ele>
        <time>2011-06-13T07:51:16Z</time>
      </trkpt>
      <trkpt lat="45.78988" lon="5.02338">
        <ele>193.3</ele>
        <time>2011-06-13T07:51:18Z</time>
      </trkpt>
      <trkpt lat="45.78992" lon="5.0234">
        <ele>193.6</ele>
        <time>2011-06-13T07:51:19Z</time>
      </trkpt>
      <trkpt lat="45.78992" lon="5.02345">
        <ele>195</ele>
        <time>2011-06-13T07:51:20Z</time>
      </trkpt>
      <trkpt lat="45.78994" lon="5.02349">
        <ele>195.1</ele>
        <time>2011-06-13T07:51:21Z</time>
      </trkpt>
      <trkpt lat="45.78995" lon="5.02351">
        <ele>194</ele>
        <time>2011-06-13T07:51:22Z</time>
      </trkpt>
      <trkpt lat="45.79006" lon="5.02363">
        <ele>195.3</ele>
        <time>2011-06-13T07:51:26Z</time>
      </trkpt>
      <trkpt lat="45.79047" lon="5.02388">
        <ele>192.1</ele>
        <time>2011-06-13T07:51:39Z</time>
      </trkpt>
      <trkpt lat="45.79077" lon="5.02405">
        <ele>191.1</ele>
        <time>2011-06-13T07:51:48Z</time>
      </trkpt>
      <trkpt lat="45.79079" lon="5.02407">
        <ele>191.1</ele>
        <time>2011-06-13T07:51:49Z</time>
      </trkpt>
      <trkpt lat="45.79091" lon="5.02436">
        <ele>187.6</ele>
        <time>2011-06-13T07:51:57Z</time>
      </trkpt>
      <trkpt lat="45.79093" lon="5.0244">
        <ele>188</ele>
        <time>2011-06-13T07:51:58Z</time>
      </trkpt>
      <trkpt lat="45.79097" lon="5.02441">
        <ele>188.1</ele>
        <time>2011-06-13T07:51:59Z</time>
      </trkpt>
      <trkpt lat="45.79099" lon="5.02444">
        <ele>187.6</ele>
        <time>2011-06-13T07:52:00Z</time>
      </trkpt>
      <trkpt lat="45.79103" lon="5.02447">
        <ele>185.6</ele>
        <time>2011-06-13T07:52:02Z</time>
      </trkpt>
      <trkpt lat="45.79121" lon="5.02465">
        <ele>185.1</ele>
        <time>2011-06-13T07:52:09Z</time>
      </trkpt>
      <trkpt lat="45.79138" lon="5.0248">
        <ele>186.6</ele>
        <time>2011-06-13T07:52:15Z</time>
      </trkpt>
      <trkpt lat="45.79144" lon="5.02483">
        <ele>190.3</ele>
        <time>2011-06-13T07:52:16Z</time>
      </trkpt>
      <trkpt lat="45.79163" lon="5.02508">
        <ele>192.6</ele>
        <time>2011-06-13T07:52:23Z</time>
      </trkpt>
      <trkpt lat="45.79167" lon="5.0251">
        <ele>193.8</ele>
        <time>2011-06-13T07:52:24Z</time>
      </trkpt>
      <trkpt lat="45.79179" lon="5.02518">
        <ele>189.1</ele>
        <time>2011-06-13T07:52:30Z</time>
      </trkpt>
      <trkpt lat="45.79181" lon="5.0252">
        <ele>188.1</ele>
        <time>2011-06-13T07:52:31Z</time>
      </trkpt>
      <trkpt lat="45.79196" lon="5.02533">
        <ele>186.3</ele>
        <time>2011-06-13T07:52:37Z</time>
      </trkpt>
      <trkpt lat="45.79219" lon="5.02557">
        <ele>190.8</ele>
        <time>2011-06-13T07:52:45Z</time>
      </trkpt>
      <trkpt lat="45.79221" lon="5.02559">
        <ele>190.8</ele>
        <time>2011-06-13T07:52:46Z</time>
      </trkpt>
      <trkpt lat="45.79224" lon="5.02561">
        <ele>189.8</ele>
        <time>2011-06-13T07:52:47Z</time>
      </trkpt>
      <trkpt lat="45.79234" lon="5.0257">
        <ele>187.1</ele>
        <time>2011-06-13T07:52:52Z</time>
      </trkpt>
      <trkpt lat="45.79236" lon="5.0257">
        <ele>185.1</ele>
        <time>2011-06-13T07:52:53Z</time>
      </trkpt>
      <trkpt lat="45.79238" lon="5.02573">
        <ele>185.6</ele>
        <time>2011-06-13T07:52:54Z</time>
      </trkpt>
      <trkpt lat="45.79257" lon="5.0261">
        <ele>187.8</ele>
        <time>2011-06-13T07:53:04Z</time>
      </trkpt>
      <trkpt lat="45.79261" lon="5.02613">
        <ele>189.1</ele>
        <time>2011-06-13T07:53:05Z</time>
      </trkpt>
      <trkpt lat="45.79264" lon="5.02617">
        <ele>189.5</ele>
        <time>2011-06-13T07:53:06Z</time>
      </trkpt>
      <trkpt lat="45.79334" lon="5.02702">
        <ele>195.5</ele>
        <time>2011-06-13T07:53:36Z</time>
      </trkpt>
      <trkpt lat="45.79336" lon="5.02704">
        <ele>195</ele>
        <time>2011-06-13T07:53:37Z</time>
      </trkpt>
      <trkpt lat="45.79351" lon="5.02726">
        <ele>196.6</ele>
        <time>2011-06-13T07:53:45Z</time>
      </trkpt>
      <trkpt lat="45.79353" lon="5.0273">
        <ele>197.5</ele>
        <time>2011-06-13T07:53:46Z</time>
      </trkpt>
      <trkpt lat="45.79358" lon="5.0274">
        <ele>198.6</ele>
        <time>2011-06-13T07:53:49Z</time>
      </trkpt>
      <trkpt lat="45.79359" lon="5.02742">
        <ele>198.3</ele>
        <time>2011-06-13T07:53:50Z</time>
      </trkpt>
      <trkpt lat="45.7936" lon="5.02743">
        <ele>196.6</ele>
        <time>2011-06-13T07:53:51Z</time>
      </trkpt>
      <trkpt lat="45.79361" lon="5.02743">
        <ele>195</ele>
        <time>2011-06-13T07:53:52Z</time>
      </trkpt>
      <trkpt lat="45.79361" lon="5.02745">
        <ele>193.8</ele>
        <time>2011-06-13T07:53:53Z</time>
      </trkpt>
      <trkpt lat="45.79363" lon="5.02749">
        <ele>194.3</ele>
        <time>2011-06-13T07:53:54Z</time>
      </trkpt>
      <trkpt lat="45.79365" lon="5.02752">
        <ele>194.3</ele>
        <time>2011-06-13T07:53:55Z</time>
      </trkpt>
      <trkpt lat="45.79367" lon="5.02753">
        <ele>193.6</ele>
        <time>2011-06-13T07:53:56Z</time>
      </trkpt>
      <trkpt lat="45.79368" lon="5.02753">
        <ele>193.6</ele>
        <time>2011-06-13T07:53:57Z</time>
      </trkpt>
      <trkpt lat="45.79369" lon="5.02755">
        <ele>190.6</ele>
        <time>2011-06-13T07:53:58Z</time>
      </trkpt>
      <trkpt lat="45.79393" lon="5.02795">
        <ele>184.3</ele>
        <time>2011-06-13T07:54:12Z</time>
      </trkpt>
      <trkpt lat="45.79394" lon="5.02798">
        <ele>183.8</ele>
        <time>2011-06-13T07:54:13Z</time>
      </trkpt>
      <trkpt lat="45.79396" lon="5.02801">
        <ele>183.6</ele>
        <time>2011-06-13T07:54:14Z</time>
      </trkpt>
      <trkpt lat="45.79397" lon="5.02804">
        <ele>183.3</ele>
        <time>2011-06-13T07:54:15Z</time>
      </trkpt>
      <trkpt lat="45.79399" lon="5.02807">
        <ele>183.6</ele>
        <time>2011-06-13T07:54:16Z</time>
      </trkpt>
      <trkpt lat="45.79411" lon="5.0282">
        <ele>186.3</ele>
        <time>2011-06-13T07:54:20Z</time>
      </trkpt>
      <trkpt lat="45.79431" lon="5.0285">
        <ele>186.6</ele>
        <time>2011-06-13T07:54:30Z</time>
      </trkpt>
      <trkpt lat="45.79498" lon="5.02948">
        <ele>185.3</ele>
        <time>2011-06-13T07:55:04Z</time>
      </trkpt>
      <trkpt lat="45.79501" lon="5.0295">
        <ele>186.1</ele>
        <time>2011-06-13T07:55:05Z</time>
      </trkpt>
      <trkpt lat="45.79509" lon="5.02951">
        <ele>189.1</ele>
        <time>2011-06-13T07:55:07Z</time>
      </trkpt>
      <trkpt lat="45.7951" lon="5.02953">
        <ele>188.8</ele>
        <time>2011-06-13T07:55:08Z</time>
      </trkpt>
      <trkpt lat="45.7951" lon="5.02954">
        <ele>186.6</ele>
        <time>2011-06-13T07:55:09Z</time>
      </trkpt>
      <trkpt lat="45.79512" lon="5.02959">
        <ele>187.1</ele>
        <time>2011-06-13T07:55:10Z</time>
      </trkpt>
      <trkpt lat="45.79515" lon="5.02961">
        <ele>187.3</ele>
        <time>2011-06-13T07:55:11Z</time>
      </trkpt>
      <trkpt lat="45.79516" lon="5.02965">
        <ele>187.1</ele>
        <time>2011-06-13T07:55:12Z</time>
      </trkpt>
      <trkpt lat="45.79516" lon="5.0297">
        <ele>185.1</ele>
        <time>2011-06-13T07:55:13Z</time>
      </trkpt>
      <trkpt lat="45.79519" lon="5.02972">
        <ele>185.5</ele>
        <time>2011-06-13T07:55:14Z</time>
      </trkpt>
      <trkpt lat="45.79525" lon="5.02976">
        <ele>186.1</ele>
        <time>2011-06-13T07:55:16Z</time>
      </trkpt>
      <trkpt lat="45.79538" lon="5.02989">
        <ele>188.5</ele>
        <time>2011-06-13T07:55:21Z</time>
      </trkpt>
      <trkpt lat="45.79538" lon="5.02994">
        <ele>187.1</ele>
        <time>2011-06-13T07:55:22Z</time>
      </trkpt>
      <trkpt lat="45.79539" lon="5.02999">
        <ele>187.1</ele>
        <time>2011-06-13T07:55:23Z</time>
      </trkpt>
      <trkpt lat="45.79541" lon="5.03003">
        <ele>187</ele>
        <time>2011-06-13T07:55:24Z</time>
      </trkpt>
      <trkpt lat="45.79559" lon="5.03041">
        <ele>189.1</ele>
        <time>2011-06-13T07:55:34Z</time>
      </trkpt>
      <trkpt lat="45.79562" lon="5.03049">
        <ele>189.6</ele>
        <time>2011-06-13T07:55:36Z</time>
      </trkpt>
      <trkpt lat="45.79564" lon="5.03053">
        <ele>189.6</ele>
        <time>2011-06-13T07:55:37Z</time>
      </trkpt>
      <trkpt lat="45.79567" lon="5.03056">
        <ele>190.5</ele>
        <time>2011-06-13T07:55:38Z</time>
      </trkpt>
      <trkpt lat="45.79579" lon="5.03081">
        <ele>190.3</ele>
        <time>2011-06-13T07:55:46Z</time>
      </trkpt>
      <trkpt lat="45.79588" lon="5.03104">
        <ele>191</ele>
        <time>2011-06-13T07:55:52Z</time>
      </trkpt>
      <trkpt lat="45.79605" lon="5.03143">
        <ele>188.1</ele>
        <time>2011-06-13T07:56:05Z</time>
      </trkpt>
      <trkpt lat="45.79607" lon="5.03146">
        <ele>188.1</ele>
        <time>2011-06-13T07:56:06Z</time>
      </trkpt>
      <trkpt lat="45.7961" lon="5.03147">
        <ele>187.8</ele>
        <time>2011-06-13T07:56:07Z</time>
      </trkpt>
      <trkpt lat="45.79609" lon="5.03154">
        <ele>189.1</ele>
        <time>2011-06-13T07:56:08Z</time>
      </trkpt>
      <trkpt lat="45.7961" lon="5.03158">
        <ele>189.5</ele>
        <time>2011-06-13T07:56:09Z</time>
      </trkpt>
      <trkpt lat="45.79612" lon="5.03161">
        <ele>189.3</ele>
        <time>2011-06-13T07:56:10Z</time>
      </trkpt>
      <trkpt lat="45.79613" lon="5.03166">
        <ele>189.8</ele>
        <time>2011-06-13T07:56:11Z</time>
      </trkpt>
      <trkpt lat="45.79613" lon="5.03172">
        <ele>190.8</ele>
        <time>2011-06-13T07:56:12Z</time>
      </trkpt>
      <trkpt lat="45.79611" lon="5.03178">
        <ele>192.1</ele>
        <time>2011-06-13T07:56:13Z</time>
      </trkpt>
      <trkpt lat="45.79613" lon="5.03179">
        <ele>191.3</ele>
        <time>2011-06-13T07:56:14Z</time>
      </trkpt>
      <trkpt lat="45.79613" lon="5.03183">
        <ele>191.1</ele>
        <time>2011-06-13T07:56:15Z</time>
      </trkpt>
      <trkpt lat="45.79614" lon="5.03187">
        <ele>191.6</ele>
        <time>2011-06-13T07:56:16Z</time>
      </trkpt>
      <trkpt lat="45.79627" lon="5.03236">
        <ele>189.6</ele>
        <time>2011-06-13T07:56:30Z</time>
      </trkpt>
      <trkpt lat="45.79629" lon="5.03247">
        <ele>191.1</ele>
        <time>2011-06-13T07:56:32Z</time>
      </trkpt>
      <trkpt lat="45.79634" lon="5.0326">
        <ele>190.5</ele>
        <time>2011-06-13T07:56:36Z</time>
      </trkpt>
      <trkpt lat="45.79636" lon="5.03263">
        <ele>190.6</ele>
        <time>2011-06-13T07:56:37Z</time>
      </trkpt>
      <trkpt lat="45.79636" lon="5.03268">
        <ele>191.3</ele>
        <time>2011-06-13T07:56:38Z</time>
      </trkpt>
      <trkpt lat="45.79637" lon="5.03271">
        <ele>191.6</ele>
        <time>2011-06-13T07:56:39Z</time>
      </trkpt>
      <trkpt lat="45.79643" lon="5.03301">
        <ele>191.1</ele>
        <time>2011-06-13T07:56:47Z</time>
      </trkpt>
      <trkpt lat="45.79674" lon="5.03507">
        <ele>190.1</ele>
        <time>2011-06-13T07:57:42Z</time>
      </trkpt>
      <trkpt lat="45.79675" lon="5.03511">
        <ele>190.1</ele>
        <time>2011-06-13T07:57:43Z</time>
      </trkpt>
      <trkpt lat="45.79684" lon="5.0355">
        <ele>190.3</ele>
        <time>2011-06-13T07:57:53Z</time>
      </trkpt>
      <trkpt lat="45.79685" lon="5.03555">
        <ele>190.3</ele>
        <time>2011-06-13T07:57:54Z</time>
      </trkpt>
      <trkpt lat="45.79692" lon="5.03598">
        <ele>190.6</ele>
        <time>2011-06-13T07:58:05Z</time>
      </trkpt>
      <trkpt lat="45.79694" lon="5.03602">
        <ele>191.5</ele>
        <time>2011-06-13T07:58:06Z</time>
      </trkpt>
      <trkpt lat="45.79717" lon="5.03663">
        <ele>191.1</ele>
        <time>2011-06-13T07:58:23Z</time>
      </trkpt>
      <trkpt lat="45.79718" lon="5.03665">
        <ele>191.1</ele>
        <time>2011-06-13T07:58:24Z</time>
      </trkpt>
      <trkpt lat="45.79719" lon="5.03667">
        <ele>190.6</ele>
        <time>2011-06-13T07:58:25Z</time>
      </trkpt>
      <trkpt lat="45.79728" lon="5.03688">
        <ele>188.3</ele>
        <time>2011-06-13T07:58:33Z</time>
      </trkpt>
      <trkpt lat="45.79732" lon="5.03695">
        <ele>187.5</ele>
        <time>2011-06-13T07:58:36Z</time>
      </trkpt>
      <trkpt lat="45.7974" lon="5.03709">
        <ele>186.3</ele>
        <time>2011-06-13T07:58:41Z</time>
      </trkpt>
      <trkpt lat="45.79742" lon="5.03712">
        <ele>186.3</ele>
        <time>2011-06-13T07:58:42Z</time>
      </trkpt>
      <trkpt lat="45.79751" lon="5.03724">
        <ele>185.3</ele>
        <time>2011-06-13T07:58:46Z</time>
      </trkpt>
      <trkpt lat="45.79754" lon="5.03728">
        <ele>185.8</ele>
        <time>2011-06-13T07:58:47Z</time>
      </trkpt>
      <trkpt lat="45.79766" lon="5.03749">
        <ele>185.6</ele>
        <time>2011-06-13T07:58:54Z</time>
      </trkpt>
      <trkpt lat="45.79768" lon="5.03752">
        <ele>186.1</ele>
        <time>2011-06-13T07:58:55Z</time>
      </trkpt>
      <trkpt lat="45.79801" lon="5.03798">
        <ele>193.8</ele>
        <time>2011-06-13T07:59:08Z</time>
      </trkpt>
      <trkpt lat="45.79803" lon="5.038">
        <ele>193.6</ele>
        <time>2011-06-13T07:59:09Z</time>
      </trkpt>
      <trkpt lat="45.79804" lon="5.03801">
        <ele>192.8</ele>
        <time>2011-06-13T07:59:10Z</time>
      </trkpt>
      <trkpt lat="45.79803" lon="5.03801">
        <ele>190.5</ele>
        <time>2011-06-13T07:59:11Z</time>
      </trkpt>
      <trkpt lat="45.79806" lon="5.03803">
        <ele>190.8</ele>
        <time>2011-06-13T07:59:12Z</time>
      </trkpt>
      <trkpt lat="45.79813" lon="5.03813">
        <ele>192.1</ele>
        <time>2011-06-13T07:59:15Z</time>
      </trkpt>
      <trkpt lat="45.79815" lon="5.03819">
        <ele>190.6</ele>
        <time>2011-06-13T07:59:17Z</time>
      </trkpt>
      <trkpt lat="45.79819" lon="5.0382">
        <ele>191.1</ele>
        <time>2011-06-13T07:59:18Z</time>
      </trkpt>
      <trkpt lat="45.79827" lon="5.03828">
        <ele>193</ele>
        <time>2011-06-13T07:59:21Z</time>
      </trkpt>
      <trkpt lat="45.7985" lon="5.03848">
        <ele>189.3</ele>
        <time>2011-06-13T07:59:31Z</time>
      </trkpt>
      <trkpt lat="45.79851" lon="5.03846">
        <ele>187.6</ele>
        <time>2011-06-13T07:59:32Z</time>
      </trkpt>
      <trkpt lat="45.79852" lon="5.03846">
        <ele>185</ele>
        <time>2011-06-13T07:59:33Z</time>
      </trkpt>
      <trkpt lat="45.79853" lon="5.03848">
        <ele>184.1</ele>
        <time>2011-06-13T07:59:34Z</time>
      </trkpt>
      <trkpt lat="45.79856" lon="5.0385">
        <ele>184.1</ele>
        <time>2011-06-13T07:59:35Z</time>
      </trkpt>
      <trkpt lat="45.79858" lon="5.03853">
        <ele>183.5</ele>
        <time>2011-06-13T07:59:36Z</time>
      </trkpt>
      <trkpt lat="45.79865" lon="5.03869">
        <ele>185.1</ele>
        <time>2011-06-13T07:59:40Z</time>
      </trkpt>
      <trkpt lat="45.7987" lon="5.03876">
        <ele>187.3</ele>
        <time>2011-06-13T07:59:42Z</time>
      </trkpt>
      <trkpt lat="45.79882" lon="5.03896">
        <ele>186.1</ele>
        <time>2011-06-13T07:59:49Z</time>
      </trkpt>
      <trkpt lat="45.79884" lon="5.03897">
        <ele>185.3</ele>
        <time>2011-06-13T07:59:50Z</time>
      </trkpt>
      <trkpt lat="45.79886" lon="5.039">
        <ele>184.8</ele>
        <time>2011-06-13T07:59:51Z</time>
      </trkpt>
      <trkpt lat="45.79889" lon="5.03903">
        <ele>185.1</ele>
        <time>2011-06-13T07:59:52Z</time>
      </trkpt>
      <trkpt lat="45.79895" lon="5.03906">
        <ele>185.3</ele>
        <time>2011-06-13T07:59:54Z</time>
      </trkpt>
      <trkpt lat="45.79899" lon="5.03908">
        <ele>185.6</ele>
        <time>2011-06-13T07:59:55Z</time>
      </trkpt>
      <trkpt lat="45.79901" lon="5.03909">
        <ele>185.1</ele>
        <time>2011-06-13T07:59:56Z</time>
      </trkpt>
      <trkpt lat="45.79954" lon="5.03956">
        <ele>178.6</ele>
        <time>2011-06-13T08:00:18Z</time>
      </trkpt>
      <trkpt lat="45.79984" lon="5.03982">
        <ele>181.6</ele>
        <time>2011-06-13T08:00:29Z</time>
      </trkpt>
      <trkpt lat="45.79986" lon="5.03983">
        <ele>181.6</ele>
        <time>2011-06-13T08:00:30Z</time>
      </trkpt>
      <trkpt lat="45.8" lon="5.03997">
        <ele>181</ele>
        <time>2011-06-13T08:00:36Z</time>
      </trkpt>
      <trkpt lat="45.80009" lon="5.04007">
        <ele>180.8</ele>
        <time>2011-06-13T08:00:40Z</time>
      </trkpt>
      <trkpt lat="45.80013" lon="5.04012">
        <ele>181.3</ele>
        <time>2011-06-13T08:00:42Z</time>
      </trkpt>
      <trkpt lat="45.80015" lon="5.04014">
        <ele>180.3</ele>
        <time>2011-06-13T08:00:43Z</time>
      </trkpt>
      <trkpt lat="45.80016" lon="5.04017">
        <ele>179.5</ele>
        <time>2011-06-13T08:00:44Z</time>
      </trkpt>
      <trkpt lat="45.80019" lon="5.04016">
        <ele>179.6</ele>
        <time>2011-06-13T08:00:45Z</time>
      </trkpt>
      <trkpt lat="45.80023" lon="5.04016">
        <ele>180.6</ele>
        <time>2011-06-13T08:00:46Z</time>
      </trkpt>
      <trkpt lat="45.80026" lon="5.04017">
        <ele>180.8</ele>
        <time>2011-06-13T08:00:47Z</time>
      </trkpt>
      <trkpt lat="45.80044" lon="5.04036">
        <ele>178.5</ele>
        <time>2011-06-13T08:00:56Z</time>
      </trkpt>
      <trkpt lat="45.80045" lon="5.04039">
        <ele>177.1</ele>
        <time>2011-06-13T08:00:57Z</time>
      </trkpt>
      <trkpt lat="45.80045" lon="5.04045">
        <ele>176.6</ele>
        <time>2011-06-13T08:00:58Z</time>
      </trkpt>
      <trkpt lat="45.80045" lon="5.04048">
        <ele>175.5</ele>
        <time>2011-06-13T08:00:59Z</time>
      </trkpt>
      <trkpt lat="45.80047" lon="5.04049">
        <ele>175.5</ele>
        <time>2011-06-13T08:01:00Z</time>
      </trkpt>
      <trkpt lat="45.8005" lon="5.0405">
        <ele>175.3</ele>
        <time>2011-06-13T08:01:01Z</time>
      </trkpt>
      <trkpt lat="45.80055" lon="5.04053">
        <ele>175.3</ele>
        <time>2011-06-13T08:01:03Z</time>
      </trkpt>
      <trkpt lat="45.80058" lon="5.04054">
        <ele>175.3</ele>
        <time>2011-06-13T08:01:04Z</time>
      </trkpt>
      <trkpt lat="45.80061" lon="5.04055">
        <ele>175.8</ele>
        <time>2011-06-13T08:01:05Z</time>
      </trkpt>
      <trkpt lat="45.80062" lon="5.0406">
        <ele>175.3</ele>
        <time>2011-06-13T08:01:06Z</time>
      </trkpt>
      <trkpt lat="45.80066" lon="5.04087">
        <ele>175.3</ele>
        <time>2011-06-13T08:01:11Z</time>
      </trkpt>
      <trkpt lat="45.80068" lon="5.0409">
        <ele>175.1</ele>
        <time>2011-06-13T08:01:12Z</time>
      </trkpt>
      <trkpt lat="45.80098" lon="5.04108">
        <ele>178.1</ele>
        <time>2011-06-13T08:01:24Z</time>
      </trkpt>
      <trkpt lat="45.80109" lon="5.04114">
        <ele>177.3</ele>
        <time>2011-06-13T08:01:28Z</time>
      </trkpt>
      <trkpt lat="45.80131" lon="5.0413">
        <ele>179.8</ele>
        <time>2011-06-13T08:01:36Z</time>
      </trkpt>
      <trkpt lat="45.80132" lon="5.04134">
        <ele>179.3</ele>
        <time>2011-06-13T08:01:37Z</time>
      </trkpt>
      <trkpt lat="45.80135" lon="5.04134">
        <ele>179.8</ele>
        <time>2011-06-13T08:01:38Z</time>
      </trkpt>
      <trkpt lat="45.80138" lon="5.04137">
        <ele>180.1</ele>
        <time>2011-06-13T08:01:39Z</time>
      </trkpt>
      <trkpt lat="45.80161" lon="5.04168">
        <ele>181.6</ele>
        <time>2011-06-13T08:01:50Z</time>
      </trkpt>
      <trkpt lat="45.80164" lon="5.04174">
        <ele>180.3</ele>
        <time>2011-06-13T08:01:52Z</time>
      </trkpt>
      <trkpt lat="45.80166" lon="5.04174">
        <ele>180.3</ele>
        <time>2011-06-13T08:01:53Z</time>
      </trkpt>
      <trkpt lat="45.80168" lon="5.04176">
        <ele>179.3</ele>
        <time>2011-06-13T08:01:54Z</time>
      </trkpt>
      <trkpt lat="45.80171" lon="5.04178">
        <ele>180</ele>
        <time>2011-06-13T08:01:55Z</time>
      </trkpt>
      <trkpt lat="45.80173" lon="5.0418">
        <ele>179.3</ele>
        <time>2011-06-13T08:01:56Z</time>
      </trkpt>
      <trkpt lat="45.80175" lon="5.04182">
        <ele>179</ele>
        <time>2011-06-13T08:01:57Z</time>
      </trkpt>
      <trkpt lat="45.80178" lon="5.04181">
        <ele>178.5</ele>
        <time>2011-06-13T08:01:58Z</time>
      </trkpt>
      <trkpt lat="45.80181" lon="5.04182">
        <ele>179</ele>
        <time>2011-06-13T08:01:59Z</time>
      </trkpt>
      <trkpt lat="45.80184" lon="5.04185">
        <ele>179.3</ele>
        <time>2011-06-13T08:02:00Z</time>
      </trkpt>
      <trkpt lat="45.80185" lon="5.04189">
        <ele>178.8</ele>
        <time>2011-06-13T08:02:01Z</time>
      </trkpt>
      <trkpt lat="45.80187" lon="5.04192">
        <ele>178.8</ele>
        <time>2011-06-13T08:02:02Z</time>
      </trkpt>
      <trkpt lat="45.80189" lon="5.04195">
        <ele>178.6</ele>
        <time>2011-06-13T08:02:03Z</time>
      </trkpt>
      <trkpt lat="45.80191" lon="5.04198">
        <ele>179.1</ele>
        <time>2011-06-13T08:02:04Z</time>
      </trkpt>
      <trkpt lat="45.80194" lon="5.04197">
        <ele>178.6</ele>
        <time>2011-06-13T08:02:05Z</time>
      </trkpt>
      <trkpt lat="45.80195" lon="5.042">
        <ele>177.5</ele>
        <time>2011-06-13T08:02:06Z</time>
      </trkpt>
      <trkpt lat="45.802" lon="5.04199">
        <ele>179.1</ele>
        <time>2011-06-13T08:02:07Z</time>
      </trkpt>
      <trkpt lat="45.80204" lon="5.04198">
        <ele>180</ele>
        <time>2011-06-13T08:02:08Z</time>
      </trkpt>
      <trkpt lat="45.80205" lon="5.04199">
        <ele>179.5</ele>
        <time>2011-06-13T08:02:09Z</time>
      </trkpt>
      <trkpt lat="45.80215" lon="5.04211">
        <ele>180.6</ele>
        <time>2011-06-13T08:02:13Z</time>
      </trkpt>
      <trkpt lat="45.80215" lon="5.04216">
        <ele>180.3</ele>
        <time>2011-06-13T08:02:14Z</time>
      </trkpt>
      <trkpt lat="45.80215" lon="5.0422">
        <ele>179.8</ele>
        <time>2011-06-13T08:02:15Z</time>
      </trkpt>
      <trkpt lat="45.80217" lon="5.04225">
        <ele>179.3</ele>
        <time>2011-06-13T08:02:16Z</time>
      </trkpt>
      <trkpt lat="45.80218" lon="5.04229">
        <ele>178.8</ele>
        <time>2011-06-13T08:02:17Z</time>
      </trkpt>
      <trkpt lat="45.8022" lon="5.04232">
        <ele>179.1</ele>
        <time>2011-06-13T08:02:18Z</time>
      </trkpt>
      <trkpt lat="45.80221" lon="5.04234">
        <ele>179.1</ele>
        <time>2011-06-13T08:02:19Z</time>
      </trkpt>
      <trkpt lat="45.80224" lon="5.04237">
        <ele>179.6</ele>
        <time>2011-06-13T08:02:20Z</time>
      </trkpt>
      <trkpt lat="45.80226" lon="5.0424">
        <ele>180</ele>
        <time>2011-06-13T08:02:21Z</time>
      </trkpt>
      <trkpt lat="45.80226" lon="5.04244">
        <ele>179.1</ele>
        <time>2011-06-13T08:02:22Z</time>
      </trkpt>
      <trkpt lat="45.8023" lon="5.04244">
        <ele>179.3</ele>
        <time>2011-06-13T08:02:23Z</time>
      </trkpt>
      <trkpt lat="45.80233" lon="5.04246">
        <ele>179.6</ele>
        <time>2011-06-13T08:02:24Z</time>
      </trkpt>
      <trkpt lat="45.80235" lon="5.04247">
        <ele>179.6</ele>
        <time>2011-06-13T08:02:25Z</time>
      </trkpt>
      <trkpt lat="45.80238" lon="5.04249">
        <ele>179.8</ele>
        <time>2011-06-13T08:02:26Z</time>
      </trkpt>
      <trkpt lat="45.8024" lon="5.0425">
        <ele>179.6</ele>
        <time>2011-06-13T08:02:27Z</time>
      </trkpt>
      <trkpt lat="45.80242" lon="5.04253">
        <ele>179</ele>
        <time>2011-06-13T08:02:28Z</time>
      </trkpt>
      <trkpt lat="45.80244" lon="5.04255">
        <ele>178.5</ele>
        <time>2011-06-13T08:02:29Z</time>
      </trkpt>
      <trkpt lat="45.80245" lon="5.04258">
        <ele>178.5</ele>
        <time>2011-06-13T08:02:30Z</time>
      </trkpt>
      <trkpt lat="45.80253" lon="5.04268">
        <ele>178.1</ele>
        <time>2011-06-13T08:02:35Z</time>
      </trkpt>
      <trkpt lat="45.80255" lon="5.04269">
        <ele>177.3</ele>
        <time>2011-06-13T08:02:36Z</time>
      </trkpt>
      <trkpt lat="45.80256" lon="5.04271">
        <ele>176.8</ele>
        <time>2011-06-13T08:02:37Z</time>
      </trkpt>
      <trkpt lat="45.80259" lon="5.04272">
        <ele>176.8</ele>
        <time>2011-06-13T08:02:38Z</time>
      </trkpt>
      <trkpt lat="45.80261" lon="5.04274">
        <ele>177.1</ele>
        <time>2011-06-13T08:02:39Z</time>
      </trkpt>
      <trkpt lat="45.80262" lon="5.04277">
        <ele>177</ele>
        <time>2011-06-13T08:02:40Z</time>
      </trkpt>
      <trkpt lat="45.80273" lon="5.04316">
        <ele>173.1</ele>
        <time>2011-06-13T08:02:51Z</time>
      </trkpt>
      <trkpt lat="45.80274" lon="5.0432">
        <ele>172.8</ele>
        <time>2011-06-13T08:02:52Z</time>
      </trkpt>
      <trkpt lat="45.80276" lon="5.04324">
        <ele>172.6</ele>
        <time>2011-06-13T08:02:53Z</time>
      </trkpt>
      <trkpt lat="45.80286" lon="5.0434">
        <ele>171.8</ele>
        <time>2011-06-13T08:02:58Z</time>
      </trkpt>
      <trkpt lat="45.80288" lon="5.04344">
        <ele>171.6</ele>
        <time>2011-06-13T08:02:59Z</time>
      </trkpt>
      <trkpt lat="45.8029" lon="5.04347">
        <ele>171.8</ele>
        <time>2011-06-13T08:03:00Z</time>
      </trkpt>
      <trkpt lat="45.80303" lon="5.04362">
        <ele>173.1</ele>
        <time>2011-06-13T08:03:05Z</time>
      </trkpt>
      <trkpt lat="45.80304" lon="5.04366">
        <ele>173</ele>
        <time>2011-06-13T08:03:06Z</time>
      </trkpt>
      <trkpt lat="45.80306" lon="5.04369">
        <ele>171.8</ele>
        <time>2011-06-13T08:03:07Z</time>
      </trkpt>
      <trkpt lat="45.80308" lon="5.04372">
        <ele>172.3</ele>
        <time>2011-06-13T08:03:08Z</time>
      </trkpt>
      <trkpt lat="45.80335" lon="5.04417">
        <ele>166</ele>
        <time>2011-06-13T08:03:22Z</time>
      </trkpt>
      <trkpt lat="45.80336" lon="5.04419">
        <ele>166</ele>
        <time>2011-06-13T08:03:23Z</time>
      </trkpt>
      <trkpt lat="45.80337" lon="5.04422">
        <ele>164.1</ele>
        <time>2011-06-13T08:03:24Z</time>
      </trkpt>
      <trkpt lat="45.80345" lon="5.04432">
        <ele>159.8</ele>
        <time>2011-06-13T08:03:28Z</time>
      </trkpt>
      <trkpt lat="45.80346" lon="5.04434">
        <ele>158.3</ele>
        <time>2011-06-13T08:03:29Z</time>
      </trkpt>
      <trkpt lat="45.80348" lon="5.04437">
        <ele>157.5</ele>
        <time>2011-06-13T08:03:30Z</time>
      </trkpt>
      <trkpt lat="45.80349" lon="5.04439">
        <ele>157</ele>
        <time>2011-06-13T08:03:31Z</time>
      </trkpt>
      <trkpt lat="45.8035" lon="5.04442">
        <ele>155.8</ele>
        <time>2011-06-13T08:03:32Z</time>
      </trkpt>
      <trkpt lat="45.80352" lon="5.04444">
        <ele>154.8</ele>
        <time>2011-06-13T08:03:33Z</time>
      </trkpt>
      <trkpt lat="45.80353" lon="5.04447">
        <ele>154.3</ele>
        <time>2011-06-13T08:03:34Z</time>
      </trkpt>
      <trkpt lat="45.80353" lon="5.0445">
        <ele>154</ele>
        <time>2011-06-13T08:03:35Z</time>
      </trkpt>
      <trkpt lat="45.80353" lon="5.04454">
        <ele>152.8</ele>
        <time>2011-06-13T08:03:36Z</time>
      </trkpt>
      <trkpt lat="45.80353" lon="5.04458">
        <ele>151.1</ele>
        <time>2011-06-13T08:03:37Z</time>
      </trkpt>
      <trkpt lat="45.80355" lon="5.04462">
        <ele>150.1</ele>
        <time>2011-06-13T08:03:38Z</time>
      </trkpt>
      <trkpt lat="45.80357" lon="5.04465">
        <ele>149.3</ele>
        <time>2011-06-13T08:03:39Z</time>
      </trkpt>
      <trkpt lat="45.80361" lon="5.04472">
        <ele>147.3</ele>
        <time>2011-06-13T08:03:41Z</time>
      </trkpt>
      <trkpt lat="45.80364" lon="5.04473">
        <ele>146.8</ele>
        <time>2011-06-13T08:03:42Z</time>
      </trkpt>
      <trkpt lat="45.80367" lon="5.04475">
        <ele>146.1</ele>
        <time>2011-06-13T08:03:43Z</time>
      </trkpt>
      <trkpt lat="45.80378" lon="5.04489">
        <ele>143.3</ele>
        <time>2011-06-13T08:03:49Z</time>
      </trkpt>
      <trkpt lat="45.80386" lon="5.04503">
        <ele>140.6</ele>
        <time>2011-06-13T08:03:54Z</time>
      </trkpt>
      <trkpt lat="45.80396" lon="5.04528">
        <ele>141.3</ele>
        <time>2011-06-13T08:04:02Z</time>
      </trkpt>
      <trkpt lat="45.80398" lon="5.04531">
        <ele>141.3</ele>
        <time>2011-06-13T08:04:03Z</time>
      </trkpt>
      <trkpt lat="45.80408" lon="5.04543">
        <ele>138.5</ele>
        <time>2011-06-13T08:04:07Z</time>
      </trkpt>
      <trkpt lat="45.80409" lon="5.04545">
        <ele>138.5</ele>
        <time>2011-06-13T08:04:08Z</time>
      </trkpt>
      <trkpt lat="45.80412" lon="5.04547">
        <ele>137.6</ele>
        <time>2011-06-13T08:04:09Z</time>
      </trkpt>
      <trkpt lat="45.80414" lon="5.04551">
        <ele>138</ele>
        <time>2011-06-13T08:04:11Z</time>
      </trkpt>
      <trkpt lat="45.80413" lon="5.04553">
        <ele>139.8</ele>
        <time>2011-06-13T08:04:12Z</time>
      </trkpt>
      <trkpt lat="45.80412" lon="5.04559">
        <ele>140.6</ele>
        <time>2011-06-13T08:04:13Z</time>
      </trkpt>
      <trkpt lat="45.80413" lon="5.04563">
        <ele>139.1</ele>
        <time>2011-06-13T08:04:14Z</time>
      </trkpt>
      <trkpt lat="45.80414" lon="5.04569">
        <ele>139</ele>
        <time>2011-06-13T08:04:16Z</time>
      </trkpt>
      <trkpt lat="45.80415" lon="5.04576">
        <ele>139.5</ele>
        <time>2011-06-13T08:04:18Z</time>
      </trkpt>
      <trkpt lat="45.80416" lon="5.04579">
        <ele>139.1</ele>
        <time>2011-06-13T08:04:19Z</time>
      </trkpt>
      <trkpt lat="45.80418" lon="5.04583">
        <ele>138.6</ele>
        <time>2011-06-13T08:04:20Z</time>
      </trkpt>
      <trkpt lat="45.80418" lon="5.04587">
        <ele>139.5</ele>
        <time>2011-06-13T08:04:21Z</time>
      </trkpt>
      <trkpt lat="45.8042" lon="5.04591">
        <ele>140.8</ele>
        <time>2011-06-13T08:04:22Z</time>
      </trkpt>
      <trkpt lat="45.80423" lon="5.04593">
        <ele>140.8</ele>
        <time>2011-06-13T08:04:23Z</time>
      </trkpt>
      <trkpt lat="45.80422" lon="5.04598">
        <ele>141.8</ele>
        <time>2011-06-13T08:04:24Z</time>
      </trkpt>
      <trkpt lat="45.80423" lon="5.04602">
        <ele>142.8</ele>
        <time>2011-06-13T08:04:25Z</time>
      </trkpt>
      <trkpt lat="45.80424" lon="5.04606">
        <ele>143.6</ele>
        <time>2011-06-13T08:04:26Z</time>
      </trkpt>
      <trkpt lat="45.80431" lon="5.04622">
        <ele>149.8</ele>
        <time>2011-06-13T08:04:30Z</time>
      </trkpt>
      <trkpt lat="45.80435" lon="5.04631">
        <ele>151.1</ele>
        <time>2011-06-13T08:04:33Z</time>
      </trkpt>
      <trkpt lat="45.80434" lon="5.04634">
        <ele>150.6</ele>
        <time>2011-06-13T08:04:34Z</time>
      </trkpt>
      <trkpt lat="45.80436" lon="5.04638">
        <ele>151.6</ele>
        <time>2011-06-13T08:04:35Z</time>
      </trkpt>
      <trkpt lat="45.80439" lon="5.04641">
        <ele>152.3</ele>
        <time>2011-06-13T08:04:36Z</time>
      </trkpt>
      <trkpt lat="45.80451" lon="5.04649">
        <ele>157.1</ele>
        <time>2011-06-13T08:04:39Z</time>
      </trkpt>
      <trkpt lat="45.80476" lon="5.04666">
        <ele>163</ele>
        <time>2011-06-13T08:04:47Z</time>
      </trkpt>
      <trkpt lat="45.80482" lon="5.04671">
        <ele>161.5</ele>
        <time>2011-06-13T08:04:50Z</time>
      </trkpt>
      <trkpt lat="45.80486" lon="5.04676">
        <ele>161.3</ele>
        <time>2011-06-13T08:04:52Z</time>
      </trkpt>
      <trkpt lat="45.80488" lon="5.04679">
        <ele>161.3</ele>
        <time>2011-06-13T08:04:53Z</time>
      </trkpt>
      <trkpt lat="45.80489" lon="5.04682">
        <ele>162.8</ele>
        <time>2011-06-13T08:04:54Z</time>
      </trkpt>
      <trkpt lat="45.80493" lon="5.04687">
        <ele>161.6</ele>
        <time>2011-06-13T08:04:56Z</time>
      </trkpt>
      <trkpt lat="45.80498" lon="5.04695">
        <ele>161.8</ele>
        <time>2011-06-13T08:04:58Z</time>
      </trkpt>
      <trkpt lat="45.80499" lon="5.04702">
        <ele>162.5</ele>
        <time>2011-06-13T08:05:00Z</time>
      </trkpt>
      <trkpt lat="45.80501" lon="5.04706">
        <ele>162.8</ele>
        <time>2011-06-13T08:05:01Z</time>
      </trkpt>
      <trkpt lat="45.80503" lon="5.04709">
        <ele>163.1</ele>
        <time>2011-06-13T08:05:02Z</time>
      </trkpt>
      <trkpt lat="45.8052" lon="5.04733">
        <ele>168.1</ele>
        <time>2011-06-13T08:05:10Z</time>
      </trkpt>
      <trkpt lat="45.80524" lon="5.04735">
        <ele>168.8</ele>
        <time>2011-06-13T08:05:11Z</time>
      </trkpt>
      <trkpt lat="45.80526" lon="5.04737">
        <ele>168.8</ele>
        <time>2011-06-13T08:05:12Z</time>
      </trkpt>
      <trkpt lat="45.80544" lon="5.0475">
        <ele>170.6</ele>
        <time>2011-06-13T08:05:19Z</time>
      </trkpt>
      <trkpt lat="45.80548" lon="5.04751">
        <ele>171.3</ele>
        <time>2011-06-13T08:05:20Z</time>
      </trkpt>
      <trkpt lat="45.80555" lon="5.04748">
        <ele>171.5</ele>
        <time>2011-06-13T08:05:23Z</time>
      </trkpt>
      <trkpt lat="45.8056" lon="5.04747">
        <ele>171.6</ele>
        <time>2011-06-13T08:05:25Z</time>
      </trkpt>
      <trkpt lat="45.80563" lon="5.04747">
        <ele>171.3</ele>
        <time>2011-06-13T08:05:26Z</time>
      </trkpt>
      <trkpt lat="45.80566" lon="5.04747">
        <ele>170.6</ele>
        <time>2011-06-13T08:05:27Z</time>
      </trkpt>
      <trkpt lat="45.80574" lon="5.04749">
        <ele>169</ele>
        <time>2011-06-13T08:05:29Z</time>
      </trkpt>
      <trkpt lat="45.80579" lon="5.0475">
        <ele>168</ele>
        <time>2011-06-13T08:05:31Z</time>
      </trkpt>
      <trkpt lat="45.80582" lon="5.04751">
        <ele>167</ele>
        <time>2011-06-13T08:05:32Z</time>
      </trkpt>
      <trkpt lat="45.80583" lon="5.04749">
        <ele>166.6</ele>
        <time>2011-06-13T08:05:33Z</time>
      </trkpt>
      <trkpt lat="45.80585" lon="5.04749">
        <ele>166.1</ele>
        <time>2011-06-13T08:05:34Z</time>
      </trkpt>
      <trkpt lat="45.80593" lon="5.04748">
        <ele>164.8</ele>
        <time>2011-06-13T08:05:37Z</time>
      </trkpt>
      <trkpt lat="45.80596" lon="5.04748">
        <ele>164.8</ele>
        <time>2011-06-13T08:05:38Z</time>
      </trkpt>
      <trkpt lat="45.80604" lon="5.04747">
        <ele>162.3</ele>
        <time>2011-06-13T08:05:41Z</time>
      </trkpt>
      <trkpt lat="45.80655" lon="5.04734">
        <ele>150.5</ele>
        <time>2011-06-13T08:06:04Z</time>
      </trkpt>
      <trkpt lat="45.80659" lon="5.04734">
        <ele>149.8</ele>
        <time>2011-06-13T08:06:05Z</time>
      </trkpt>
      <trkpt lat="45.8067" lon="5.04733">
        <ele>148.5</ele>
        <time>2011-06-13T08:06:09Z</time>
      </trkpt>
      <trkpt lat="45.80698" lon="5.04726">
        <ele>149.1</ele>
        <time>2011-06-13T08:06:17Z</time>
      </trkpt>
      <trkpt lat="45.80698" lon="5.04723">
        <ele>150.1</ele>
        <time>2011-06-13T08:06:18Z</time>
      </trkpt>
      <trkpt lat="45.807" lon="5.04721">
        <ele>151.5</ele>
        <time>2011-06-13T08:06:20Z</time>
      </trkpt>
      <trkpt lat="45.80704" lon="5.04723">
        <ele>152.1</ele>
        <time>2011-06-13T08:06:21Z</time>
      </trkpt>
      <trkpt lat="45.80708" lon="5.04724">
        <ele>152.6</ele>
        <time>2011-06-13T08:06:22Z</time>
      </trkpt>
      <trkpt lat="45.80711" lon="5.04723">
        <ele>152.6</ele>
        <time>2011-06-13T08:06:23Z</time>
      </trkpt>
      <trkpt lat="45.80712" lon="5.04723">
        <ele>153</ele>
        <time>2011-06-13T08:06:24Z</time>
      </trkpt>
      <trkpt lat="45.80718" lon="5.04725">
        <ele>153</ele>
        <time>2011-06-13T08:06:25Z</time>
      </trkpt>
      <trkpt lat="45.80722" lon="5.04724">
        <ele>153.5</ele>
        <time>2011-06-13T08:06:26Z</time>
      </trkpt>
      <trkpt lat="45.80729" lon="5.04721">
        <ele>153.5</ele>
        <time>2011-06-13T08:06:29Z</time>
      </trkpt>
      <trkpt lat="45.80731" lon="5.04717">
        <ele>159.1</ele>
        <time>2011-06-13T08:06:30Z</time>
      </trkpt>
      <trkpt lat="45.80754" lon="5.04705">
        <ele>162.6</ele>
        <time>2011-06-13T08:06:44Z</time>
      </trkpt>
      <trkpt lat="45.80765" lon="5.04714">
        <ele>164.3</ele>
        <time>2011-06-13T08:06:45Z</time>
      </trkpt>
      <trkpt lat="45.8077" lon="5.04711">
        <ele>164.8</ele>
        <time>2011-06-13T08:06:46Z</time>
      </trkpt>
      <trkpt lat="45.80772" lon="5.04708">
        <ele>165.3</ele>
        <time>2011-06-13T08:06:47Z</time>
      </trkpt>
      <trkpt lat="45.80774" lon="5.04705">
        <ele>165.6</ele>
        <time>2011-06-13T08:06:48Z</time>
      </trkpt>
      <trkpt lat="45.80779" lon="5.04708">
        <ele>167.1</ele>
        <time>2011-06-13T08:06:49Z</time>
      </trkpt>
      <trkpt lat="45.80787" lon="5.04715">
        <ele>169.8</ele>
        <time>2011-06-13T08:06:50Z</time>
      </trkpt>
      <trkpt lat="45.80791" lon="5.04716">
        <ele>170.5</ele>
        <time>2011-06-13T08:06:51Z</time>
      </trkpt>
      <trkpt lat="45.80794" lon="5.04717">
        <ele>170.6</ele>
        <time>2011-06-13T08:06:52Z</time>
      </trkpt>
      <trkpt lat="45.80806" lon="5.04722">
        <ele>172.3</ele>
        <time>2011-06-13T08:06:55Z</time>
      </trkpt>
      <trkpt lat="45.80809" lon="5.04722">
        <ele>172.6</ele>
        <time>2011-06-13T08:06:56Z</time>
      </trkpt>
      <trkpt lat="45.80811" lon="5.04723">
        <ele>173.3</ele>
        <time>2011-06-13T08:06:57Z</time>
      </trkpt>
      <trkpt lat="45.80811" lon="5.04722">
        <ele>174.8</ele>
        <time>2011-06-13T08:06:58Z</time>
      </trkpt>
      <trkpt lat="45.8081" lon="5.04726">
        <ele>176.5</ele>
        <time>2011-06-13T08:06:59Z</time>
      </trkpt>
      <trkpt lat="45.80809" lon="5.04729">
        <ele>177.1</ele>
        <time>2011-06-13T08:07:00Z</time>
      </trkpt>
      <trkpt lat="45.80808" lon="5.0473">
        <ele>175.6</ele>
        <time>2011-06-13T08:07:01Z</time>
      </trkpt>
      <trkpt lat="45.8081" lon="5.04731">
        <ele>175.5</ele>
        <time>2011-06-13T08:07:02Z</time>
      </trkpt>
      <trkpt lat="45.80811" lon="5.04732">
        <ele>175.3</ele>
        <time>2011-06-13T08:07:03Z</time>
      </trkpt>
      <trkpt lat="45.80814" lon="5.04733">
        <ele>176.3</ele>
        <time>2011-06-13T08:07:04Z</time>
      </trkpt>
      <trkpt lat="45.80818" lon="5.04734">
        <ele>177</ele>
        <time>2011-06-13T08:07:05Z</time>
      </trkpt>
      <trkpt lat="45.80823" lon="5.04736">
        <ele>178.5</ele>
        <time>2011-06-13T08:07:07Z</time>
      </trkpt>
      <trkpt lat="45.80827" lon="5.04736">
        <ele>178.8</ele>
        <time>2011-06-13T08:07:08Z</time>
      </trkpt>
      <trkpt lat="45.80828" lon="5.04736">
        <ele>178.6</ele>
        <time>2011-06-13T08:07:09Z</time>
      </trkpt>
      <trkpt lat="45.80842" lon="5.04736">
        <ele>179.5</ele>
        <time>2011-06-13T08:07:14Z</time>
      </trkpt>
      <trkpt lat="45.80847" lon="5.04737">
        <ele>180</ele>
        <time>2011-06-13T08:07:16Z</time>
      </trkpt>
      <trkpt lat="45.80852" lon="5.04737">
        <ele>180.1</ele>
        <time>2011-06-13T08:07:18Z</time>
      </trkpt>
      <trkpt lat="45.80855" lon="5.04736">
        <ele>180.1</ele>
        <time>2011-06-13T08:07:19Z</time>
      </trkpt>
      <trkpt lat="45.80864" lon="5.04736">
        <ele>180.3</ele>
        <time>2011-06-13T08:07:22Z</time>
      </trkpt>
      <trkpt lat="45.80873" lon="5.04736">
        <ele>180.6</ele>
        <time>2011-06-13T08:07:25Z</time>
      </trkpt>
      <trkpt lat="45.80895" lon="5.04736">
        <ele>180.6</ele>
        <time>2011-06-13T08:07:31Z</time>
      </trkpt>
      <trkpt lat="45.80898" lon="5.04736">
        <ele>180.6</ele>
        <time>2011-06-13T08:07:32Z</time>
      </trkpt>
      <trkpt lat="45.80905" lon="5.04739">
        <ele>180.6</ele>
        <time>2011-06-13T08:07:35Z</time>
      </trkpt>
      <trkpt lat="45.80908" lon="5.04739">
        <ele>180.6</ele>
        <time>2011-06-13T08:07:36Z</time>
      </trkpt>
      <trkpt lat="45.80909" lon="5.04739">
        <ele>180.6</ele>
        <time>2011-06-13T08:07:37Z</time>
      </trkpt>
      <trkpt lat="45.80912" lon="5.04737">
        <ele>180.6</ele>
        <time>2011-06-13T08:07:38Z</time>
      </trkpt>
      <trkpt lat="45.80915" lon="5.04735">
        <ele>180.6</ele>
        <time>2011-06-13T08:07:39Z</time>
      </trkpt>
      <trkpt lat="45.80918" lon="5.04734">
        <ele>180.5</ele>
        <time>2011-06-13T08:07:40Z</time>
      </trkpt>
      <trkpt lat="45.80922" lon="5.04732">
        <ele>180.3</ele>
        <time>2011-06-13T08:07:42Z</time>
      </trkpt>
      <trkpt lat="45.80928" lon="5.04729">
        <ele>180.3</ele>
        <time>2011-06-13T08:07:44Z</time>
      </trkpt>
      <trkpt lat="45.80936" lon="5.04728">
        <ele>179.8</ele>
        <time>2011-06-13T08:07:52Z</time>
      </trkpt>
      <trkpt lat="45.80954" lon="5.04727">
        <ele>179.6</ele>
        <time>2011-06-13T08:07:57Z</time>
      </trkpt>
      <trkpt lat="45.80955" lon="5.04727">
        <ele>179.6</ele>
        <time>2011-06-13T08:07:58Z</time>
      </trkpt>
      <trkpt lat="45.80957" lon="5.04725">
        <ele>179.8</ele>
        <time>2011-06-13T08:07:59Z</time>
      </trkpt>
      <trkpt lat="45.80961" lon="5.04724">
        <ele>179.8</ele>
        <time>2011-06-13T08:08:00Z</time>
      </trkpt>
      <trkpt lat="45.80966" lon="5.04723">
        <ele>179.8</ele>
        <time>2011-06-13T08:08:02Z</time>
      </trkpt>
      <trkpt lat="45.80975" lon="5.04721">
        <ele>179.8</ele>
        <time>2011-06-13T08:08:04Z</time>
      </trkpt>
      <trkpt lat="45.80979" lon="5.04722">
        <ele>180.1</ele>
        <time>2011-06-13T08:08:05Z</time>
      </trkpt>
      <trkpt lat="45.80994" lon="5.04728">
        <ele>181</ele>
        <time>2011-06-13T08:08:10Z</time>
      </trkpt>
      <trkpt lat="45.80998" lon="5.04737">
        <ele>180.3</ele>
        <time>2011-06-13T08:08:13Z</time>
      </trkpt>
      <trkpt lat="45.80999" lon="5.0474">
        <ele>180.3</ele>
        <time>2011-06-13T08:08:14Z</time>
      </trkpt>
      <trkpt lat="45.80999" lon="5.04744">
        <ele>179.8</ele>
        <time>2011-06-13T08:08:15Z</time>
      </trkpt>
      <trkpt lat="45.81" lon="5.04746">
        <ele>179.8</ele>
        <time>2011-06-13T08:08:16Z</time>
      </trkpt>
      <trkpt lat="45.81003" lon="5.04749">
        <ele>179.8</ele>
        <time>2011-06-13T08:08:17Z</time>
      </trkpt>
      <trkpt lat="45.81005" lon="5.0475">
        <ele>180.3</ele>
        <time>2011-06-13T08:08:18Z</time>
      </trkpt>
      <trkpt lat="45.81014" lon="5.04751">
        <ele>180.8</ele>
        <time>2011-06-13T08:08:21Z</time>
      </trkpt>
      <trkpt lat="45.81019" lon="5.04753">
        <ele>180.8</ele>
        <time>2011-06-13T08:08:22Z</time>
      </trkpt>
      <trkpt lat="45.81024" lon="5.0475">
        <ele>180.3</ele>
        <time>2011-06-13T08:08:24Z</time>
      </trkpt>
      <trkpt lat="45.81028" lon="5.04751">
        <ele>180.5</ele>
        <time>2011-06-13T08:08:25Z</time>
      </trkpt>
      <trkpt lat="45.81034" lon="5.04751">
        <ele>180.5</ele>
        <time>2011-06-13T08:08:27Z</time>
      </trkpt>
      <trkpt lat="45.81036" lon="5.04749">
        <ele>180.8</ele>
        <time>2011-06-13T08:08:28Z</time>
      </trkpt>
      <trkpt lat="45.81039" lon="5.04748">
        <ele>180.8</ele>
        <time>2011-06-13T08:08:29Z</time>
      </trkpt>
      <trkpt lat="45.81049" lon="5.04747">
        <ele>180.6</ele>
        <time>2011-06-13T08:08:32Z</time>
      </trkpt>
      <trkpt lat="45.81054" lon="5.04746">
        <ele>180.8</ele>
        <time>2011-06-13T08:08:34Z</time>
      </trkpt>
      <trkpt lat="45.81056" lon="5.04745">
        <ele>180.6</ele>
        <time>2011-06-13T08:08:35Z</time>
      </trkpt>
      <trkpt lat="45.81062" lon="5.0474">
        <ele>180.6</ele>
        <time>2011-06-13T08:08:38Z</time>
      </trkpt>
      <trkpt lat="45.81065" lon="5.0474">
        <ele>180.3</ele>
        <time>2011-06-13T08:08:39Z</time>
      </trkpt>
      <trkpt lat="45.81086" lon="5.04736">
        <ele>179.5</ele>
        <time>2011-06-13T08:08:47Z</time>
      </trkpt>
      <trkpt lat="45.81091" lon="5.04728">
        <ele>179.6</ele>
        <time>2011-06-13T08:08:50Z</time>
      </trkpt>
      <trkpt lat="45.81092" lon="5.04727">
        <ele>179.6</ele>
        <time>2011-06-13T08:08:51Z</time>
      </trkpt>
      <trkpt lat="45.81093" lon="5.04721">
        <ele>180</ele>
        <time>2011-06-13T08:08:56Z</time>
      </trkpt>
      <trkpt lat="45.81098" lon="5.04717">
        <ele>179.8</ele>
        <time>2011-06-13T08:08:57Z</time>
      </trkpt>
      <trkpt lat="45.81102" lon="5.04715">
        <ele>179.8</ele>
        <time>2011-06-13T08:08:58Z</time>
      </trkpt>
      <trkpt lat="45.81104" lon="5.04715">
        <ele>179.6</ele>
        <time>2011-06-13T08:08:59Z</time>
      </trkpt>
      <trkpt lat="45.81109" lon="5.04716">
        <ele>179.6</ele>
        <time>2011-06-13T08:09:00Z</time>
      </trkpt>
      <trkpt lat="45.81113" lon="5.04717">
        <ele>179.1</ele>
        <time>2011-06-13T08:09:01Z</time>
      </trkpt>
      <trkpt lat="45.81116" lon="5.04717">
        <ele>179.1</ele>
        <time>2011-06-13T08:09:02Z</time>
      </trkpt>
      <trkpt lat="45.8112" lon="5.04716">
        <ele>178.6</ele>
        <time>2011-06-13T08:09:03Z</time>
      </trkpt>
      <trkpt lat="45.81143" lon="5.04711">
        <ele>179.1</ele>
        <time>2011-06-13T08:09:11Z</time>
      </trkpt>
      <trkpt lat="45.8116" lon="5.04708">
        <ele>178.8</ele>
        <time>2011-06-13T08:09:16Z</time>
      </trkpt>
      <trkpt lat="45.81164" lon="5.04708">
        <ele>178.8</ele>
        <time>2011-06-13T08:09:17Z</time>
      </trkpt>
      <trkpt lat="45.81213" lon="5.0458">
        <ele>178.6</ele>
        <time>2011-06-13T08:09:59Z</time>
      </trkpt>
      <trkpt lat="45.81202" lon="5.0458">
        <ele>178.3</ele>
        <time>2011-06-13T08:10:00Z</time>
      </trkpt>
      <trkpt lat="45.81202" lon="5.04576">
        <ele>178.3</ele>
        <time>2011-06-13T08:10:01Z</time>
      </trkpt>
      <trkpt lat="45.812" lon="5.04568">
        <ele>178.3</ele>
        <time>2011-06-13T08:10:03Z</time>
      </trkpt>
      <trkpt lat="45.81184" lon="5.04555">
        <ele>182.3</ele>
        <time>2011-06-13T08:10:06Z</time>
      </trkpt>
      <trkpt lat="45.81186" lon="5.04551">
        <ele>186</ele>
        <time>2011-06-13T08:10:07Z</time>
      </trkpt>
      <trkpt lat="45.81186" lon="5.04546">
        <ele>185.3</ele>
        <time>2011-06-13T08:10:08Z</time>
      </trkpt>
      <trkpt lat="45.81187" lon="5.04543">
        <ele>186.3</ele>
        <time>2011-06-13T08:10:09Z</time>
      </trkpt>
      <trkpt lat="45.81187" lon="5.04538">
        <ele>186.3</ele>
        <time>2011-06-13T08:10:10Z</time>
      </trkpt>
      <trkpt lat="45.8119" lon="5.04527">
        <ele>192.3</ele>
        <time>2011-06-13T08:10:13Z</time>
      </trkpt>
      <trkpt lat="45.81189" lon="5.04523">
        <ele>192.3</ele>
        <time>2011-06-13T08:10:14Z</time>
      </trkpt>
      <trkpt lat="45.81185" lon="5.04519">
        <ele>198.6</ele>
        <time>2011-06-13T08:10:17Z</time>
      </trkpt>
      <trkpt lat="45.81184" lon="5.04517">
        <ele>199.1</ele>
        <time>2011-06-13T08:10:18Z</time>
      </trkpt>
      <trkpt lat="45.8118" lon="5.04519">
        <ele>199.8</ele>
        <time>2011-06-13T08:10:19Z</time>
      </trkpt>
      <trkpt lat="45.8118" lon="5.04515">
        <ele>200.1</ele>
        <time>2011-06-13T08:10:20Z</time>
      </trkpt>
      <trkpt lat="45.81176" lon="5.04514">
        <ele>199.1</ele>
        <time>2011-06-13T08:10:22Z</time>
      </trkpt>
      <trkpt lat="45.81175" lon="5.04511">
        <ele>200.8</ele>
        <time>2011-06-13T08:10:23Z</time>
      </trkpt>
      <trkpt lat="45.81173" lon="5.04507">
        <ele>200</ele>
        <time>2011-06-13T08:10:24Z</time>
      </trkpt>
      <trkpt lat="45.81174" lon="5.04503">
        <ele>199.8</ele>
        <time>2011-06-13T08:10:25Z</time>
      </trkpt>
      <trkpt lat="45.81171" lon="5.04489">
        <ele>194.8</ele>
        <time>2011-06-13T08:10:28Z</time>
      </trkpt>
      <trkpt lat="45.81169" lon="5.0448">
        <ele>195.1</ele>
        <time>2011-06-13T08:10:30Z</time>
      </trkpt>
      <trkpt lat="45.81167" lon="5.04475">
        <ele>193.8</ele>
        <time>2011-06-13T08:10:31Z</time>
      </trkpt>
      <trkpt lat="45.81167" lon="5.04471">
        <ele>194.8</ele>
        <time>2011-06-13T08:10:32Z</time>
      </trkpt>
      <trkpt lat="45.81168" lon="5.04468">
        <ele>195</ele>
        <time>2011-06-13T08:10:33Z</time>
      </trkpt>
      <trkpt lat="45.81168" lon="5.04465">
        <ele>195.8</ele>
        <time>2011-06-13T08:10:34Z</time>
      </trkpt>
      <trkpt lat="45.81168" lon="5.04463">
        <ele>196.3</ele>
        <time>2011-06-13T08:10:35Z</time>
      </trkpt>
      <trkpt lat="45.8117" lon="5.04461">
        <ele>196.6</ele>
        <time>2011-06-13T08:10:36Z</time>
      </trkpt>
      <trkpt lat="45.8117" lon="5.0446">
        <ele>197.5</ele>
        <time>2011-06-13T08:10:37Z</time>
      </trkpt>
      <trkpt lat="45.81162" lon="5.04455">
        <ele>198.5</ele>
        <time>2011-06-13T08:10:40Z</time>
      </trkpt>
      <trkpt lat="45.81158" lon="5.04455">
        <ele>198.6</ele>
        <time>2011-06-13T08:10:41Z</time>
      </trkpt>
      <trkpt lat="45.81159" lon="5.0445">
        <ele>198.3</ele>
        <time>2011-06-13T08:10:42Z</time>
      </trkpt>
      <trkpt lat="45.81161" lon="5.04443">
        <ele>197.5</ele>
        <time>2011-06-13T08:10:43Z</time>
      </trkpt>
      <trkpt lat="45.81156" lon="5.04442">
        <ele>197.6</ele>
        <time>2011-06-13T08:10:44Z</time>
      </trkpt>
      <trkpt lat="45.81154" lon="5.0444">
        <ele>197.5</ele>
        <time>2011-06-13T08:10:45Z</time>
      </trkpt>
      <trkpt lat="45.81155" lon="5.04434">
        <ele>196.8</ele>
        <time>2011-06-13T08:10:46Z</time>
      </trkpt>
      <trkpt lat="45.81159" lon="5.04425">
        <ele>196.3</ele>
        <time>2011-06-13T08:10:47Z</time>
      </trkpt>
      <trkpt lat="45.81158" lon="5.04421">
        <ele>197.3</ele>
        <time>2011-06-13T08:10:48Z</time>
      </trkpt>
      <trkpt lat="45.81151" lon="5.04415">
        <ele>197</ele>
        <time>2011-06-13T08:10:51Z</time>
      </trkpt>
      <trkpt lat="45.81149" lon="5.04411">
        <ele>197.1</ele>
        <time>2011-06-13T08:10:52Z</time>
      </trkpt>
      <trkpt lat="45.81148" lon="5.04408">
        <ele>197</ele>
        <time>2011-06-13T08:10:53Z</time>
      </trkpt>
      <trkpt lat="45.8113" lon="5.04386">
        <ele>197</ele>
        <time>2011-06-13T08:10:58Z</time>
      </trkpt>
      <trkpt lat="45.81128" lon="5.04384">
        <ele>197</ele>
        <time>2011-06-13T08:10:59Z</time>
      </trkpt>
      <trkpt lat="45.81127" lon="5.04379">
        <ele>178.8</ele>
        <time>2011-06-13T08:11:00Z</time>
      </trkpt>
      <trkpt lat="45.81126" lon="5.04375">
        <ele>178.8</ele>
        <time>2011-06-13T08:11:01Z</time>
      </trkpt>
      <trkpt lat="45.81122" lon="5.04367">
        <ele>178.3</ele>
        <time>2011-06-13T08:11:04Z</time>
      </trkpt>
      <trkpt lat="45.81118" lon="5.04363">
        <ele>178.1</ele>
        <time>2011-06-13T08:11:06Z</time>
      </trkpt>
      <trkpt lat="45.81116" lon="5.04361">
        <ele>178</ele>
        <time>2011-06-13T08:11:07Z</time>
      </trkpt>
      <trkpt lat="45.81114" lon="5.0436">
        <ele>177.5</ele>
        <time>2011-06-13T08:11:08Z</time>
      </trkpt>
      <trkpt lat="45.81113" lon="5.04357">
        <ele>177.8</ele>
        <time>2011-06-13T08:11:09Z</time>
      </trkpt>
      <trkpt lat="45.81111" lon="5.04354">
        <ele>177.6</ele>
        <time>2011-06-13T08:11:10Z</time>
      </trkpt>
      <trkpt lat="45.81111" lon="5.04348">
        <ele>177.6</ele>
        <time>2011-06-13T08:11:11Z</time>
      </trkpt>
      <trkpt lat="45.81109" lon="5.04347">
        <ele>177.6</ele>
        <time>2011-06-13T08:11:12Z</time>
      </trkpt>
      <trkpt lat="45.81106" lon="5.04346">
        <ele>177.1</ele>
        <time>2011-06-13T08:11:13Z</time>
      </trkpt>
      <trkpt lat="45.81106" lon="5.04341">
        <ele>177.3</ele>
        <time>2011-06-13T08:11:14Z</time>
      </trkpt>
      <trkpt lat="45.81105" lon="5.04337">
        <ele>177.3</ele>
        <time>2011-06-13T08:11:15Z</time>
      </trkpt>
      <trkpt lat="45.811" lon="5.04328">
        <ele>176.8</ele>
        <time>2011-06-13T08:11:18Z</time>
      </trkpt>
      <trkpt lat="45.81089" lon="5.04317">
        <ele>176.1</ele>
        <time>2011-06-13T08:11:23Z</time>
      </trkpt>
      <trkpt lat="45.81077" lon="5.04306">
        <ele>176.1</ele>
        <time>2011-06-13T08:11:29Z</time>
      </trkpt>
      <trkpt lat="45.81071" lon="5.04291">
        <ele>176.1</ele>
        <time>2011-06-13T08:11:33Z</time>
      </trkpt>
      <trkpt lat="45.81066" lon="5.04292">
        <ele>175.8</ele>
        <time>2011-06-13T08:11:34Z</time>
      </trkpt>
      <trkpt lat="45.81065" lon="5.04288">
        <ele>175.8</ele>
        <time>2011-06-13T08:11:35Z</time>
      </trkpt>
      <trkpt lat="45.81068" lon="5.04259">
        <ele>170.6</ele>
        <time>2011-06-13T08:11:40Z</time>
      </trkpt>
      <trkpt lat="45.81066" lon="5.04255">
        <ele>170.8</ele>
        <time>2011-06-13T08:11:41Z</time>
      </trkpt>
      <trkpt lat="45.81063" lon="5.04249">
        <ele>169.1</ele>
        <time>2011-06-13T08:11:43Z</time>
      </trkpt>
      <trkpt lat="45.81054" lon="5.04236">
        <ele>168.8</ele>
        <time>2011-06-13T08:11:48Z</time>
      </trkpt>
      <trkpt lat="45.81042" lon="5.04234">
        <ele>168.8</ele>
        <time>2011-06-13T08:11:52Z</time>
      </trkpt>
      <trkpt lat="45.8104" lon="5.04232">
        <ele>169.5</ele>
        <time>2011-06-13T08:11:53Z</time>
      </trkpt>
      <trkpt lat="45.81042" lon="5.04225">
        <ele>169.6</ele>
        <time>2011-06-13T08:11:54Z</time>
      </trkpt>
      <trkpt lat="45.81042" lon="5.04221">
        <ele>170.8</ele>
        <time>2011-06-13T08:11:55Z</time>
      </trkpt>
      <trkpt lat="45.81043" lon="5.04205">
        <ele>175</ele>
        <time>2011-06-13T08:11:59Z</time>
      </trkpt>
      <trkpt lat="45.81045" lon="5.04193">
        <ele>171.8</ele>
        <time>2011-06-13T08:12:02Z</time>
      </trkpt>
      <trkpt lat="45.81044" lon="5.04189">
        <ele>173.1</ele>
        <time>2011-06-13T08:12:03Z</time>
      </trkpt>
      <trkpt lat="45.81043" lon="5.04186">
        <ele>173.8</ele>
        <time>2011-06-13T08:12:04Z</time>
      </trkpt>
      <trkpt lat="45.81039" lon="5.04181">
        <ele>175</ele>
        <time>2011-06-13T08:12:06Z</time>
      </trkpt>
      <trkpt lat="45.81034" lon="5.04173">
        <ele>178.1</ele>
        <time>2011-06-13T08:12:09Z</time>
      </trkpt>
      <trkpt lat="45.81032" lon="5.0417">
        <ele>178.3</ele>
        <time>2011-06-13T08:12:10Z</time>
      </trkpt>
      <trkpt lat="45.81025" lon="5.04153">
        <ele>179.8</ele>
        <time>2011-06-13T08:12:15Z</time>
      </trkpt>
      <trkpt lat="45.81024" lon="5.04149">
        <ele>180.3</ele>
        <time>2011-06-13T08:12:16Z</time>
      </trkpt>
      <trkpt lat="45.81023" lon="5.04147">
        <ele>179.6</ele>
        <time>2011-06-13T08:12:17Z</time>
      </trkpt>
      <trkpt lat="45.81021" lon="5.04144">
        <ele>179.3</ele>
        <time>2011-06-13T08:12:18Z</time>
      </trkpt>
      <trkpt lat="45.81017" lon="5.04131">
        <ele>180.1</ele>
        <time>2011-06-13T08:12:22Z</time>
      </trkpt>
      <trkpt lat="45.81016" lon="5.04127">
        <ele>179.3</ele>
        <time>2011-06-13T08:12:23Z</time>
      </trkpt>
      <trkpt lat="45.81015" lon="5.04124">
        <ele>178.6</ele>
        <time>2011-06-13T08:12:24Z</time>
      </trkpt>
      <trkpt lat="45.81014" lon="5.04121">
        <ele>178.8</ele>
        <time>2011-06-13T08:12:25Z</time>
      </trkpt>
      <trkpt lat="45.81013" lon="5.04119">
        <ele>178.8</ele>
        <time>2011-06-13T08:12:26Z</time>
      </trkpt>
      <trkpt lat="45.8101" lon="5.04114">
        <ele>178.8</ele>
        <time>2011-06-13T08:12:28Z</time>
      </trkpt>
      <trkpt lat="45.81008" lon="5.0411">
        <ele>178.8</ele>
        <time>2011-06-13T08:12:29Z</time>
      </trkpt>
      <trkpt lat="45.81006" lon="5.04097">
        <ele>181.3</ele>
        <time>2011-06-13T08:12:32Z</time>
      </trkpt>
      <trkpt lat="45.81005" lon="5.04093">
        <ele>182.1</ele>
        <time>2011-06-13T08:12:33Z</time>
      </trkpt>
      <trkpt lat="45.81003" lon="5.0409">
        <ele>182.3</ele>
        <time>2011-06-13T08:12:34Z</time>
      </trkpt>
      <trkpt lat="45.81001" lon="5.04084">
        <ele>181.3</ele>
        <time>2011-06-13T08:12:36Z</time>
      </trkpt>
      <trkpt lat="45.80998" lon="5.04071">
        <ele>178.8</ele>
        <time>2011-06-13T08:12:40Z</time>
      </trkpt>
      <trkpt lat="45.80997" lon="5.04067">
        <ele>178.3</ele>
        <time>2011-06-13T08:12:41Z</time>
      </trkpt>
      <trkpt lat="45.80997" lon="5.04063">
        <ele>178.6</ele>
        <time>2011-06-13T08:12:42Z</time>
      </trkpt>
      <trkpt lat="45.80995" lon="5.04061">
        <ele>178.5</ele>
        <time>2011-06-13T08:12:43Z</time>
      </trkpt>
      <trkpt lat="45.80989" lon="5.04046">
        <ele>178.5</ele>
        <time>2011-06-13T08:12:48Z</time>
      </trkpt>
      <trkpt lat="45.80966" lon="5.03988">
        <ele>180.1</ele>
        <time>2011-06-13T08:13:06Z</time>
      </trkpt>
      <trkpt lat="45.80964" lon="5.03985">
        <ele>180.8</ele>
        <time>2011-06-13T08:13:07Z</time>
      </trkpt>
      <trkpt lat="45.80961" lon="5.03981">
        <ele>182</ele>
        <time>2011-06-13T08:13:09Z</time>
      </trkpt>
      <trkpt lat="45.80959" lon="5.03978">
        <ele>182</ele>
        <time>2011-06-13T08:13:10Z</time>
      </trkpt>
      <trkpt lat="45.80958" lon="5.03976">
        <ele>181.3</ele>
        <time>2011-06-13T08:13:11Z</time>
      </trkpt>
      <trkpt lat="45.80955" lon="5.0397">
        <ele>181.5</ele>
        <time>2011-06-13T08:13:13Z</time>
      </trkpt>
      <trkpt lat="45.8095" lon="5.03955">
        <ele>183.1</ele>
        <time>2011-06-13T08:13:17Z</time>
      </trkpt>
      <trkpt lat="45.80946" lon="5.03941">
        <ele>182.1</ele>
        <time>2011-06-13T08:13:21Z</time>
      </trkpt>
      <trkpt lat="45.80944" lon="5.03931">
        <ele>179.3</ele>
        <time>2011-06-13T08:13:24Z</time>
      </trkpt>
      <trkpt lat="45.80942" lon="5.03929">
        <ele>179.6</ele>
        <time>2011-06-13T08:13:25Z</time>
      </trkpt>
      <trkpt lat="45.80941" lon="5.03926">
        <ele>179.3</ele>
        <time>2011-06-13T08:13:26Z</time>
      </trkpt>
      <trkpt lat="45.80937" lon="5.03901">
        <ele>179</ele>
        <time>2011-06-13T08:13:32Z</time>
      </trkpt>
      <trkpt lat="45.80936" lon="5.03894">
        <ele>177.3</ele>
        <time>2011-06-13T08:13:34Z</time>
      </trkpt>
      <trkpt lat="45.80936" lon="5.03889">
        <ele>176.1</ele>
        <time>2011-06-13T08:13:35Z</time>
      </trkpt>
      <trkpt lat="45.80935" lon="5.03886">
        <ele>175.3</ele>
        <time>2011-06-13T08:13:36Z</time>
      </trkpt>
      <trkpt lat="45.80933" lon="5.03882">
        <ele>176.3</ele>
        <time>2011-06-13T08:13:37Z</time>
      </trkpt>
      <trkpt lat="45.80932" lon="5.03869">
        <ele>174.6</ele>
        <time>2011-06-13T08:13:40Z</time>
      </trkpt>
      <trkpt lat="45.8093" lon="5.03862">
        <ele>175.3</ele>
        <time>2011-06-13T08:13:42Z</time>
      </trkpt>
      <trkpt lat="45.80903" lon="5.03754">
        <ele>174.6</ele>
        <time>2011-06-13T08:14:10Z</time>
      </trkpt>
      <trkpt lat="45.80901" lon="5.03752">
        <ele>175</ele>
        <time>2011-06-13T08:14:11Z</time>
      </trkpt>
      <trkpt lat="45.809" lon="5.0375">
        <ele>173.6</ele>
        <time>2011-06-13T08:14:12Z</time>
      </trkpt>
      <trkpt lat="45.80898" lon="5.03747">
        <ele>173.8</ele>
        <time>2011-06-13T08:14:13Z</time>
      </trkpt>
      <trkpt lat="45.80897" lon="5.03744">
        <ele>173.8</ele>
        <time>2011-06-13T08:14:14Z</time>
      </trkpt>
      <trkpt lat="45.80891" lon="5.03714">
        <ele>176.1</ele>
        <time>2011-06-13T08:14:22Z</time>
      </trkpt>
      <trkpt lat="45.80889" lon="5.03707">
        <ele>176.3</ele>
        <time>2011-06-13T08:14:24Z</time>
      </trkpt>
      <trkpt lat="45.80883" lon="5.03674">
        <ele>175.1</ele>
        <time>2011-06-13T08:14:33Z</time>
      </trkpt>
      <trkpt lat="45.80883" lon="5.03669">
        <ele>175.1</ele>
        <time>2011-06-13T08:14:34Z</time>
      </trkpt>
      <trkpt lat="45.80882" lon="5.03666">
        <ele>174</ele>
        <time>2011-06-13T08:14:35Z</time>
      </trkpt>
      <trkpt lat="45.80881" lon="5.03645">
        <ele>177.6</ele>
        <time>2011-06-13T08:14:40Z</time>
      </trkpt>
      <trkpt lat="45.80882" lon="5.03634">
        <ele>177.5</ele>
        <time>2011-06-13T08:14:43Z</time>
      </trkpt>
      <trkpt lat="45.80882" lon="5.03625">
        <ele>177.8</ele>
        <time>2011-06-13T08:14:45Z</time>
      </trkpt>
      <trkpt lat="45.80883" lon="5.0357">
        <ele>174.3</ele>
        <time>2011-06-13T08:14:58Z</time>
      </trkpt>
      <trkpt lat="45.80882" lon="5.03563">
        <ele>173.3</ele>
        <time>2011-06-13T08:14:59Z</time>
      </trkpt>
      <trkpt lat="45.80883" lon="5.03552">
        <ele>174.3</ele>
        <time>2011-06-13T08:15:01Z</time>
      </trkpt>
      <trkpt lat="45.80885" lon="5.03547">
        <ele>173.6</ele>
        <time>2011-06-13T08:15:03Z</time>
      </trkpt>
      <trkpt lat="45.80896" lon="5.03518">
        <ele>178</ele>
        <time>2011-06-13T08:15:12Z</time>
      </trkpt>
      <trkpt lat="45.80897" lon="5.03514">
        <ele>177.3</ele>
        <time>2011-06-13T08:15:13Z</time>
      </trkpt>
      <trkpt lat="45.80898" lon="5.03507">
        <ele>175.3</ele>
        <time>2011-06-13T08:15:15Z</time>
      </trkpt>
      <trkpt lat="45.80899" lon="5.03495">
        <ele>174.3</ele>
        <time>2011-06-13T08:15:18Z</time>
      </trkpt>
      <trkpt lat="45.80901" lon="5.03481">
        <ele>174.3</ele>
        <time>2011-06-13T08:15:22Z</time>
      </trkpt>
      <trkpt lat="45.809" lon="5.03474">
        <ele>177.5</ele>
        <time>2011-06-13T08:15:24Z</time>
      </trkpt>
      <trkpt lat="45.80901" lon="5.03466">
        <ele>177.6</ele>
        <time>2011-06-13T08:15:26Z</time>
      </trkpt>
      <trkpt lat="45.80903" lon="5.03444">
        <ele>179.3</ele>
        <time>2011-06-13T08:15:32Z</time>
      </trkpt>
      <trkpt lat="45.80904" lon="5.0344">
        <ele>179.3</ele>
        <time>2011-06-13T08:15:33Z</time>
      </trkpt>
      <trkpt lat="45.80906" lon="5.03429">
        <ele>179.8</ele>
        <time>2011-06-13T08:15:36Z</time>
      </trkpt>
      <trkpt lat="45.80911" lon="5.03363">
        <ele>177.8</ele>
        <time>2011-06-13T08:15:52Z</time>
      </trkpt>
      <trkpt lat="45.80911" lon="5.03361">
        <ele>178</ele>
        <time>2011-06-13T08:15:53Z</time>
      </trkpt>
      <trkpt lat="45.80912" lon="5.03358">
        <ele>177.3</ele>
        <time>2011-06-13T08:15:54Z</time>
      </trkpt>
      <trkpt lat="45.80913" lon="5.03352">
        <ele>174.8</ele>
        <time>2011-06-13T08:15:56Z</time>
      </trkpt>
      <trkpt lat="45.80916" lon="5.03328">
        <ele>174.5</ele>
        <time>2011-06-13T08:16:02Z</time>
      </trkpt>
      <trkpt lat="45.80916" lon="5.03324">
        <ele>175.5</ele>
        <time>2011-06-13T08:16:03Z</time>
      </trkpt>
      <trkpt lat="45.80917" lon="5.03316">
        <ele>174.6</ele>
        <time>2011-06-13T08:16:05Z</time>
      </trkpt>
      <trkpt lat="45.80917" lon="5.03304">
        <ele>174.6</ele>
        <time>2011-06-13T08:16:08Z</time>
      </trkpt>
      <trkpt lat="45.8092" lon="5.03295">
        <ele>174.3</ele>
        <time>2011-06-13T08:16:11Z</time>
      </trkpt>
      <trkpt lat="45.80921" lon="5.03292">
        <ele>174.8</ele>
        <time>2011-06-13T08:16:12Z</time>
      </trkpt>
      <trkpt lat="45.80921" lon="5.03287">
        <ele>174.8</ele>
        <time>2011-06-13T08:16:13Z</time>
      </trkpt>
      <trkpt lat="45.80922" lon="5.03283">
        <ele>174.8</ele>
        <time>2011-06-13T08:16:14Z</time>
      </trkpt>
      <trkpt lat="45.8093" lon="5.03254">
        <ele>175</ele>
        <time>2011-06-13T08:16:22Z</time>
      </trkpt>
      <trkpt lat="45.80933" lon="5.03238">
        <ele>175.1</ele>
        <time>2011-06-13T08:16:27Z</time>
      </trkpt>
      <trkpt lat="45.80933" lon="5.03232">
        <ele>175.3</ele>
        <time>2011-06-13T08:16:28Z</time>
      </trkpt>
      <trkpt lat="45.80933" lon="5.03217">
        <ele>177.8</ele>
        <time>2011-06-13T08:16:31Z</time>
      </trkpt>
      <trkpt lat="45.80934" lon="5.03213">
        <ele>177.8</ele>
        <time>2011-06-13T08:16:32Z</time>
      </trkpt>
      <trkpt lat="45.80933" lon="5.03211">
        <ele>177.8</ele>
        <time>2011-06-13T08:16:34Z</time>
      </trkpt>
      <trkpt lat="45.80935" lon="5.03206">
        <ele>178.1</ele>
        <time>2011-06-13T08:16:35Z</time>
      </trkpt>
      <trkpt lat="45.80934" lon="5.03203">
        <ele>178.6</ele>
        <time>2011-06-13T08:16:36Z</time>
      </trkpt>
      <trkpt lat="45.80937" lon="5.03193">
        <ele>179.3</ele>
        <time>2011-06-13T08:16:37Z</time>
      </trkpt>
      <trkpt lat="45.80938" lon="5.03189">
        <ele>179.5</ele>
        <time>2011-06-13T08:16:38Z</time>
      </trkpt>
      <trkpt lat="45.80941" lon="5.03125">
        <ele>181.5</ele>
        <time>2011-06-13T08:16:51Z</time>
      </trkpt>
      <trkpt lat="45.80969" lon="5.03103">
        <ele>181.5</ele>
        <time>2011-06-13T08:16:58Z</time>
      </trkpt>
      <trkpt lat="45.80952" lon="5.03105">
        <ele>181.5</ele>
        <time>2011-06-13T08:16:59Z</time>
      </trkpt>
      <trkpt lat="45.80946" lon="5.03105">
        <ele>181.5</ele>
        <time>2011-06-13T08:17:00Z</time>
      </trkpt>
      <trkpt lat="45.80948" lon="5.031">
        <ele>181.5</ele>
        <time>2011-06-13T08:17:01Z</time>
      </trkpt>
      <trkpt lat="45.80952" lon="5.03094">
        <ele>181.5</ele>
        <time>2011-06-13T08:17:02Z</time>
      </trkpt>
      <trkpt lat="45.80957" lon="5.03089">
        <ele>181.5</ele>
        <time>2011-06-13T08:17:03Z</time>
      </trkpt>
      <trkpt lat="45.80954" lon="5.03086">
        <ele>181.3</ele>
        <time>2011-06-13T08:17:04Z</time>
      </trkpt>
      <trkpt lat="45.80951" lon="5.03085">
        <ele>181.3</ele>
        <time>2011-06-13T08:17:05Z</time>
      </trkpt>
      <trkpt lat="45.80947" lon="5.03083">
        <ele>181.1</ele>
        <time>2011-06-13T08:17:06Z</time>
      </trkpt>
      <trkpt lat="45.80942" lon="5.03082">
        <ele>181.1</ele>
        <time>2011-06-13T08:17:07Z</time>
      </trkpt>
      <trkpt lat="45.80945" lon="5.03077">
        <ele>181.1</ele>
        <time>2011-06-13T08:17:08Z</time>
      </trkpt>
      <trkpt lat="45.80943" lon="5.03074">
        <ele>181.1</ele>
        <time>2011-06-13T08:17:09Z</time>
      </trkpt>
      <trkpt lat="45.80944" lon="5.03071">
        <ele>181.3</ele>
        <time>2011-06-13T08:17:10Z</time>
      </trkpt>
      <trkpt lat="45.80946" lon="5.03066">
        <ele>181.3</ele>
        <time>2011-06-13T08:17:11Z</time>
      </trkpt>
      <trkpt lat="45.80948" lon="5.03061">
        <ele>181.3</ele>
        <time>2011-06-13T08:17:12Z</time>
      </trkpt>
      <trkpt lat="45.80949" lon="5.03057">
        <ele>181.3</ele>
        <time>2011-06-13T08:17:13Z</time>
      </trkpt>
      <trkpt lat="45.80956" lon="5.0305">
        <ele>181.3</ele>
        <time>2011-06-13T08:17:14Z</time>
      </trkpt>
      <trkpt lat="45.80956" lon="5.03046">
        <ele>181.3</ele>
        <time>2011-06-13T08:17:15Z</time>
      </trkpt>
      <trkpt lat="45.80959" lon="5.03042">
        <ele>181.3</ele>
        <time>2011-06-13T08:17:16Z</time>
      </trkpt>
      <trkpt lat="45.8096" lon="5.03039">
        <ele>181.3</ele>
        <time>2011-06-13T08:17:17Z</time>
      </trkpt>
      <trkpt lat="45.80959" lon="5.03034">
        <ele>181.1</ele>
        <time>2011-06-13T08:17:19Z</time>
      </trkpt>
      <trkpt lat="45.80963" lon="5.03028">
        <ele>181.3</ele>
        <time>2011-06-13T08:17:20Z</time>
      </trkpt>
      <trkpt lat="45.8096" lon="5.03026">
        <ele>181.3</ele>
        <time>2011-06-13T08:17:21Z</time>
      </trkpt>
      <trkpt lat="45.80958" lon="5.03023">
        <ele>181.3</ele>
        <time>2011-06-13T08:17:22Z</time>
      </trkpt>
      <trkpt lat="45.80958" lon="5.0302">
        <ele>181.3</ele>
        <time>2011-06-13T08:17:23Z</time>
      </trkpt>
      <trkpt lat="45.80932" lon="5.03016">
        <ele>170.1</ele>
        <time>2011-06-13T08:17:28Z</time>
      </trkpt>
      <trkpt lat="45.80937" lon="5.03012">
        <ele>173.1</ele>
        <time>2011-06-13T08:17:29Z</time>
      </trkpt>
      <trkpt lat="45.80943" lon="5.03005">
        <ele>177.6</ele>
        <time>2011-06-13T08:17:30Z</time>
      </trkpt>
      <trkpt lat="45.80948" lon="5.02999">
        <ele>179.3</ele>
        <time>2011-06-13T08:17:31Z</time>
      </trkpt>
      <trkpt lat="45.80951" lon="5.02995">
        <ele>179.1</ele>
        <time>2011-06-13T08:17:32Z</time>
      </trkpt>
      <trkpt lat="45.80952" lon="5.02992">
        <ele>178.8</ele>
        <time>2011-06-13T08:17:33Z</time>
      </trkpt>
      <trkpt lat="45.80954" lon="5.02988">
        <ele>178.8</ele>
        <time>2011-06-13T08:17:34Z</time>
      </trkpt>
      <trkpt lat="45.80956" lon="5.02984">
        <ele>179</ele>
        <time>2011-06-13T08:17:35Z</time>
      </trkpt>
      <trkpt lat="45.80957" lon="5.02979">
        <ele>178.5</ele>
        <time>2011-06-13T08:17:36Z</time>
      </trkpt>
      <trkpt lat="45.80959" lon="5.02975">
        <ele>177.8</ele>
        <time>2011-06-13T08:17:37Z</time>
      </trkpt>
      <trkpt lat="45.80965" lon="5.02961">
        <ele>170</ele>
        <time>2011-06-13T08:17:42Z</time>
      </trkpt>
      <trkpt lat="45.80966" lon="5.02957">
        <ele>169.8</ele>
        <time>2011-06-13T08:17:43Z</time>
      </trkpt>
      <trkpt lat="45.80967" lon="5.02953">
        <ele>170.3</ele>
        <time>2011-06-13T08:17:44Z</time>
      </trkpt>
      <trkpt lat="45.80973" lon="5.02928">
        <ele>171.6</ele>
        <time>2011-06-13T08:17:51Z</time>
      </trkpt>
      <trkpt lat="45.80982" lon="5.02902">
        <ele>170.8</ele>
        <time>2011-06-13T08:17:57Z</time>
      </trkpt>
      <trkpt lat="45.80983" lon="5.02899">
        <ele>171.3</ele>
        <time>2011-06-13T08:17:58Z</time>
      </trkpt>
      <trkpt lat="45.80983" lon="5.02896">
        <ele>171</ele>
        <time>2011-06-13T08:17:59Z</time>
      </trkpt>
      <trkpt lat="45.80986" lon="5.02881">
        <ele>171.3</ele>
        <time>2011-06-13T08:18:04Z</time>
      </trkpt>
      <trkpt lat="45.80987" lon="5.02871">
        <ele>171.3</ele>
        <time>2011-06-13T08:18:07Z</time>
      </trkpt>
      <trkpt lat="45.80989" lon="5.02855">
        <ele>172.3</ele>
        <time>2011-06-13T08:18:11Z</time>
      </trkpt>
      <trkpt lat="45.80991" lon="5.02844">
        <ele>171.8</ele>
        <time>2011-06-13T08:18:14Z</time>
      </trkpt>
      <trkpt lat="45.80998" lon="5.02807">
        <ele>171.6</ele>
        <time>2011-06-13T08:18:24Z</time>
      </trkpt>
      <trkpt lat="45.80999" lon="5.02804">
        <ele>171.3</ele>
        <time>2011-06-13T08:18:25Z</time>
      </trkpt>
      <trkpt lat="45.81006" lon="5.02719">
        <ele>175.8</ele>
        <time>2011-06-13T08:18:48Z</time>
      </trkpt>
      <trkpt lat="45.8101" lon="5.02687">
        <ele>175.3</ele>
        <time>2011-06-13T08:18:56Z</time>
      </trkpt>
      <trkpt lat="45.8101" lon="5.02683">
        <ele>175.5</ele>
        <time>2011-06-13T08:18:57Z</time>
      </trkpt>
      <trkpt lat="45.81009" lon="5.02675">
        <ele>177.3</ele>
        <time>2011-06-13T08:18:59Z</time>
      </trkpt>
      <trkpt lat="45.81009" lon="5.02671">
        <ele>177.6</ele>
        <time>2011-06-13T08:19:00Z</time>
      </trkpt>
      <trkpt lat="45.8101" lon="5.02667">
        <ele>178.3</ele>
        <time>2011-06-13T08:19:01Z</time>
      </trkpt>
      <trkpt lat="45.8101" lon="5.02663">
        <ele>179</ele>
        <time>2011-06-13T08:19:02Z</time>
      </trkpt>
      <trkpt lat="45.81009" lon="5.02626">
        <ele>181.8</ele>
        <time>2011-06-13T08:19:11Z</time>
      </trkpt>
      <trkpt lat="45.81011" lon="5.02622">
        <ele>181.8</ele>
        <time>2011-06-13T08:19:12Z</time>
      </trkpt>
      <trkpt lat="45.8101" lon="5.02618">
        <ele>182.8</ele>
        <time>2011-06-13T08:19:13Z</time>
      </trkpt>
      <trkpt lat="45.81012" lon="5.02618">
        <ele>179.6</ele>
        <time>2011-06-13T08:19:14Z</time>
      </trkpt>
      <trkpt lat="45.81012" lon="5.02614">
        <ele>179.6</ele>
        <time>2011-06-13T08:19:15Z</time>
      </trkpt>
      <trkpt lat="45.8101" lon="5.02609">
        <ele>179.6</ele>
        <time>2011-06-13T08:19:16Z</time>
      </trkpt>
      <trkpt lat="45.81011" lon="5.02605">
        <ele>178.6</ele>
        <time>2011-06-13T08:19:17Z</time>
      </trkpt>
      <trkpt lat="45.81011" lon="5.02601">
        <ele>178.6</ele>
        <time>2011-06-13T08:19:18Z</time>
      </trkpt>
      <trkpt lat="45.81011" lon="5.02597">
        <ele>179.1</ele>
        <time>2011-06-13T08:19:19Z</time>
      </trkpt>
      <trkpt lat="45.81009" lon="5.02587">
        <ele>181.3</ele>
        <time>2011-06-13T08:19:21Z</time>
      </trkpt>
      <trkpt lat="45.81009" lon="5.02578">
        <ele>182</ele>
        <time>2011-06-13T08:19:23Z</time>
      </trkpt>
      <trkpt lat="45.81009" lon="5.02574">
        <ele>182</ele>
        <time>2011-06-13T08:19:24Z</time>
      </trkpt>
      <trkpt lat="45.81009" lon="5.02562">
        <ele>183.1</ele>
        <time>2011-06-13T08:19:27Z</time>
      </trkpt>
      <trkpt lat="45.8101" lon="5.02559">
        <ele>182</ele>
        <time>2011-06-13T08:19:28Z</time>
      </trkpt>
      <trkpt lat="45.81014" lon="5.02542">
        <ele>182.1</ele>
        <time>2011-06-13T08:19:32Z</time>
      </trkpt>
      <trkpt lat="45.81013" lon="5.02539">
        <ele>181.8</ele>
        <time>2011-06-13T08:19:33Z</time>
      </trkpt>
      <trkpt lat="45.81012" lon="5.02536">
        <ele>182.1</ele>
        <time>2011-06-13T08:19:34Z</time>
      </trkpt>
      <trkpt lat="45.81013" lon="5.02531">
        <ele>183</ele>
        <time>2011-06-13T08:19:35Z</time>
      </trkpt>
      <trkpt lat="45.81014" lon="5.02527">
        <ele>183.3</ele>
        <time>2011-06-13T08:19:36Z</time>
      </trkpt>
      <trkpt lat="45.81015" lon="5.02524">
        <ele>182.6</ele>
        <time>2011-06-13T08:19:37Z</time>
      </trkpt>
      <trkpt lat="45.81015" lon="5.02523">
        <ele>180.6</ele>
        <time>2011-06-13T08:19:38Z</time>
      </trkpt>
      <trkpt lat="45.81015" lon="5.0252">
        <ele>178</ele>
        <time>2011-06-13T08:19:39Z</time>
      </trkpt>
      <trkpt lat="45.81015" lon="5.02516">
        <ele>177.6</ele>
        <time>2011-06-13T08:19:40Z</time>
      </trkpt>
      <trkpt lat="45.81015" lon="5.02501">
        <ele>179.6</ele>
        <time>2011-06-13T08:19:44Z</time>
      </trkpt>
      <trkpt lat="45.81013" lon="5.02478">
        <ele>175.3</ele>
        <time>2011-06-13T08:19:51Z</time>
      </trkpt>
      <trkpt lat="45.81012" lon="5.02471">
        <ele>176.1</ele>
        <time>2011-06-13T08:19:53Z</time>
      </trkpt>
      <trkpt lat="45.81013" lon="5.02463">
        <ele>177.5</ele>
        <time>2011-06-13T08:19:55Z</time>
      </trkpt>
      <trkpt lat="45.81013" lon="5.02458">
        <ele>178.6</ele>
        <time>2011-06-13T08:19:56Z</time>
      </trkpt>
      <trkpt lat="45.81016" lon="5.02447">
        <ele>179.8</ele>
        <time>2011-06-13T08:19:59Z</time>
      </trkpt>
      <trkpt lat="45.81016" lon="5.02441">
        <ele>180.8</ele>
        <time>2011-06-13T08:20:00Z</time>
      </trkpt>
      <trkpt lat="45.81025" lon="5.0236">
        <ele>175.5</ele>
        <time>2011-06-13T08:20:23Z</time>
      </trkpt>
      <trkpt lat="45.81024" lon="5.02351">
        <ele>175</ele>
        <time>2011-06-13T08:20:25Z</time>
      </trkpt>
      <trkpt lat="45.81023" lon="5.02262">
        <ele>178.6</ele>
        <time>2011-06-13T08:20:48Z</time>
      </trkpt>
      <trkpt lat="45.81023" lon="5.02258">
        <ele>178.8</ele>
        <time>2011-06-13T08:20:49Z</time>
      </trkpt>
      <trkpt lat="45.81027" lon="5.02137">
        <ele>174.3</ele>
        <time>2011-06-13T08:21:21Z</time>
      </trkpt>
      <trkpt lat="45.81028" lon="5.02126">
        <ele>172.1</ele>
        <time>2011-06-13T08:21:24Z</time>
      </trkpt>
      <trkpt lat="45.81028" lon="5.02122">
        <ele>171.8</ele>
        <time>2011-06-13T08:21:25Z</time>
      </trkpt>
      <trkpt lat="45.81027" lon="5.02117">
        <ele>173.5</ele>
        <time>2011-06-13T08:21:26Z</time>
      </trkpt>
      <trkpt lat="45.81026" lon="5.02109">
        <ele>174.6</ele>
        <time>2011-06-13T08:21:28Z</time>
      </trkpt>
      <trkpt lat="45.81026" lon="5.02106">
        <ele>173.8</ele>
        <time>2011-06-13T08:21:29Z</time>
      </trkpt>
      <trkpt lat="45.81027" lon="5.02096">
        <ele>172.6</ele>
        <time>2011-06-13T08:21:32Z</time>
      </trkpt>
      <trkpt lat="45.81027" lon="5.02092">
        <ele>172.3</ele>
        <time>2011-06-13T08:21:33Z</time>
      </trkpt>
      <trkpt lat="45.81027" lon="5.02074">
        <ele>172.6</ele>
        <time>2011-06-13T08:21:38Z</time>
      </trkpt>
      <trkpt lat="45.81027" lon="5.0207">
        <ele>172.6</ele>
        <time>2011-06-13T08:21:39Z</time>
      </trkpt>
      <trkpt lat="45.81024" lon="5.02031">
        <ele>176</ele>
        <time>2011-06-13T08:21:49Z</time>
      </trkpt>
      <trkpt lat="45.81024" lon="5.02027">
        <ele>176.8</ele>
        <time>2011-06-13T08:21:50Z</time>
      </trkpt>
      <trkpt lat="45.81022" lon="5.01886">
        <ele>178.5</ele>
        <time>2011-06-13T08:22:27Z</time>
      </trkpt>
      <trkpt lat="45.81025" lon="5.01852">
        <ele>178</ele>
        <time>2011-06-13T08:22:36Z</time>
      </trkpt>
      <trkpt lat="45.81026" lon="5.01841">
        <ele>179.1</ele>
        <time>2011-06-13T08:22:39Z</time>
      </trkpt>
      <trkpt lat="45.81026" lon="5.01837">
        <ele>179.1</ele>
        <time>2011-06-13T08:22:40Z</time>
      </trkpt>
      <trkpt lat="45.81025" lon="5.01833">
        <ele>179.3</ele>
        <time>2011-06-13T08:22:41Z</time>
      </trkpt>
      <trkpt lat="45.81027" lon="5.01819">
        <ele>178.3</ele>
        <time>2011-06-13T08:22:45Z</time>
      </trkpt>
      <trkpt lat="45.81029" lon="5.01803">
        <ele>177.8</ele>
        <time>2011-06-13T08:22:49Z</time>
      </trkpt>
      <trkpt lat="45.81029" lon="5.01798">
        <ele>177.8</ele>
        <time>2011-06-13T08:22:50Z</time>
      </trkpt>
      <trkpt lat="45.81029" lon="5.01794">
        <ele>177.8</ele>
        <time>2011-06-13T08:22:51Z</time>
      </trkpt>
      <trkpt lat="45.81029" lon="5.0176">
        <ele>175.6</ele>
        <time>2011-06-13T08:23:01Z</time>
      </trkpt>
      <trkpt lat="45.81029" lon="5.01745">
        <ele>176.3</ele>
        <time>2011-06-13T08:23:05Z</time>
      </trkpt>
      <trkpt lat="45.81031" lon="5.01703">
        <ele>178.6</ele>
        <time>2011-06-13T08:23:16Z</time>
      </trkpt>
      <trkpt lat="45.81032" lon="5.017">
        <ele>178.1</ele>
        <time>2011-06-13T08:23:17Z</time>
      </trkpt>
      <trkpt lat="45.81032" lon="5.01694">
        <ele>178.8</ele>
        <time>2011-06-13T08:23:18Z</time>
      </trkpt>
      <trkpt lat="45.81042" lon="5.0161">
        <ele>175.1</ele>
        <time>2011-06-13T08:23:40Z</time>
      </trkpt>
      <trkpt lat="45.81051" lon="5.01539">
        <ele>174.1</ele>
        <time>2011-06-13T08:23:59Z</time>
      </trkpt>
      <trkpt lat="45.81052" lon="5.01535">
        <ele>173.6</ele>
        <time>2011-06-13T08:24:00Z</time>
      </trkpt>
      <trkpt lat="45.81067" lon="5.01402">
        <ele>180.8</ele>
        <time>2011-06-13T08:24:34Z</time>
      </trkpt>
      <trkpt lat="45.81071" lon="5.01333">
        <ele>181.6</ele>
        <time>2011-06-13T08:24:52Z</time>
      </trkpt>
      <trkpt lat="45.8107" lon="5.01329">
        <ele>181.6</ele>
        <time>2011-06-13T08:24:53Z</time>
      </trkpt>
      <trkpt lat="45.81069" lon="5.01318">
        <ele>183.6</ele>
        <time>2011-06-13T08:24:56Z</time>
      </trkpt>
      <trkpt lat="45.81069" lon="5.01315">
        <ele>183.6</ele>
        <time>2011-06-13T08:24:57Z</time>
      </trkpt>
      <trkpt lat="45.81068" lon="5.01311">
        <ele>184</ele>
        <time>2011-06-13T08:24:58Z</time>
      </trkpt>
      <trkpt lat="45.81063" lon="5.01301">
        <ele>184.8</ele>
        <time>2011-06-13T08:25:01Z</time>
      </trkpt>
      <trkpt lat="45.81062" lon="5.01297">
        <ele>185.1</ele>
        <time>2011-06-13T08:25:02Z</time>
      </trkpt>
      <trkpt lat="45.81062" lon="5.01292">
        <ele>186.3</ele>
        <time>2011-06-13T08:25:03Z</time>
      </trkpt>
      <trkpt lat="45.81064" lon="5.01283">
        <ele>186.8</ele>
        <time>2011-06-13T08:25:05Z</time>
      </trkpt>
      <trkpt lat="45.81066" lon="5.01279">
        <ele>186.8</ele>
        <time>2011-06-13T08:25:06Z</time>
      </trkpt>
      <trkpt lat="45.81072" lon="5.01272">
        <ele>187.1</ele>
        <time>2011-06-13T08:25:08Z</time>
      </trkpt>
      <trkpt lat="45.81075" lon="5.0127">
        <ele>186.3</ele>
        <time>2011-06-13T08:25:09Z</time>
      </trkpt>
      <trkpt lat="45.8108" lon="5.01266">
        <ele>186.3</ele>
        <time>2011-06-13T08:25:11Z</time>
      </trkpt>
      <trkpt lat="45.81083" lon="5.01264">
        <ele>186.3</ele>
        <time>2011-06-13T08:25:12Z</time>
      </trkpt>
      <trkpt lat="45.81084" lon="5.0126">
        <ele>186.3</ele>
        <time>2011-06-13T08:25:13Z</time>
      </trkpt>
      <trkpt lat="45.81086" lon="5.01258">
        <ele>185.8</ele>
        <time>2011-06-13T08:25:14Z</time>
      </trkpt>
      <trkpt lat="45.81088" lon="5.01255">
        <ele>185.1</ele>
        <time>2011-06-13T08:25:15Z</time>
      </trkpt>
      <trkpt lat="45.81088" lon="5.01251">
        <ele>187.6</ele>
        <time>2011-06-13T08:25:16Z</time>
      </trkpt>
      <trkpt lat="45.81093" lon="5.01221">
        <ele>183.8</ele>
        <time>2011-06-13T08:25:25Z</time>
      </trkpt>
      <trkpt lat="45.81094" lon="5.012">
        <ele>181.5</ele>
        <time>2011-06-13T08:25:31Z</time>
      </trkpt>
      <trkpt lat="45.81093" lon="5.01197">
        <ele>181.3</ele>
        <time>2011-06-13T08:25:32Z</time>
      </trkpt>
      <trkpt lat="45.81093" lon="5.01192">
        <ele>180.3</ele>
        <time>2011-06-13T08:25:33Z</time>
      </trkpt>
      <trkpt lat="45.81093" lon="5.01188">
        <ele>179.6</ele>
        <time>2011-06-13T08:25:34Z</time>
      </trkpt>
      <trkpt lat="45.81094" lon="5.01182">
        <ele>179.3</ele>
        <time>2011-06-13T08:25:35Z</time>
      </trkpt>
      <trkpt lat="45.81093" lon="5.01176">
        <ele>181.8</ele>
        <time>2011-06-13T08:25:36Z</time>
      </trkpt>
      <trkpt lat="45.81094" lon="5.01172">
        <ele>182.1</ele>
        <time>2011-06-13T08:25:37Z</time>
      </trkpt>
      <trkpt lat="45.81096" lon="5.01164">
        <ele>177.6</ele>
        <time>2011-06-13T08:25:40Z</time>
      </trkpt>
      <trkpt lat="45.81096" lon="5.0116">
        <ele>178.1</ele>
        <time>2011-06-13T08:25:41Z</time>
      </trkpt>
      <trkpt lat="45.81096" lon="5.01154">
        <ele>179</ele>
        <time>2011-06-13T08:25:43Z</time>
      </trkpt>
      <trkpt lat="45.81094" lon="5.01141">
        <ele>179.5</ele>
        <time>2011-06-13T08:25:47Z</time>
      </trkpt>
      <trkpt lat="45.81094" lon="5.01137">
        <ele>179.5</ele>
        <time>2011-06-13T08:25:48Z</time>
      </trkpt>
      <trkpt lat="45.81095" lon="5.01133">
        <ele>178.3</ele>
        <time>2011-06-13T08:25:49Z</time>
      </trkpt>
      <trkpt lat="45.81099" lon="5.01126">
        <ele>175.3</ele>
        <time>2011-06-13T08:25:51Z</time>
      </trkpt>
      <trkpt lat="45.81104" lon="5.0112">
        <ele>172.6</ele>
        <time>2011-06-13T08:25:53Z</time>
      </trkpt>
      <trkpt lat="45.81127" lon="5.01085">
        <ele>167</ele>
        <time>2011-06-13T08:26:05Z</time>
      </trkpt>
      <trkpt lat="45.81129" lon="5.01082">
        <ele>165.6</ele>
        <time>2011-06-13T08:26:06Z</time>
      </trkpt>
      <trkpt lat="45.81129" lon="5.01078">
        <ele>164.8</ele>
        <time>2011-06-13T08:26:07Z</time>
      </trkpt>
      <trkpt lat="45.81129" lon="5.01074">
        <ele>164.8</ele>
        <time>2011-06-13T08:26:08Z</time>
      </trkpt>
      <trkpt lat="45.81129" lon="5.01071">
        <ele>164.8</ele>
        <time>2011-06-13T08:26:09Z</time>
      </trkpt>
      <trkpt lat="45.81128" lon="5.01065">
        <ele>167</ele>
        <time>2011-06-13T08:26:10Z</time>
      </trkpt>
      <trkpt lat="45.81126" lon="5.01055">
        <ele>171.6</ele>
        <time>2011-06-13T08:26:12Z</time>
      </trkpt>
      <trkpt lat="45.81125" lon="5.0105">
        <ele>172.8</ele>
        <time>2011-06-13T08:26:13Z</time>
      </trkpt>
      <trkpt lat="45.81125" lon="5.01046">
        <ele>174</ele>
        <time>2011-06-13T08:26:14Z</time>
      </trkpt>
      <trkpt lat="45.81125" lon="5.01042">
        <ele>174.1</ele>
        <time>2011-06-13T08:26:15Z</time>
      </trkpt>
      <trkpt lat="45.81125" lon="5.01026">
        <ele>176</ele>
        <time>2011-06-13T08:26:19Z</time>
      </trkpt>
      <trkpt lat="45.81127" lon="5.01022">
        <ele>175.3</ele>
        <time>2011-06-13T08:26:20Z</time>
      </trkpt>
      <trkpt lat="45.81132" lon="5.01009">
        <ele>173.6</ele>
        <time>2011-06-13T08:26:24Z</time>
      </trkpt>
      <trkpt lat="45.81133" lon="5.01005">
        <ele>172.8</ele>
        <time>2011-06-13T08:26:25Z</time>
      </trkpt>
      <trkpt lat="45.81134" lon="5.01001">
        <ele>172.6</ele>
        <time>2011-06-13T08:26:26Z</time>
      </trkpt>
      <trkpt lat="45.81135" lon="5.00995">
        <ele>172.8</ele>
        <time>2011-06-13T08:26:28Z</time>
      </trkpt>
      <trkpt lat="45.81134" lon="5.00988">
        <ele>173.3</ele>
        <time>2011-06-13T08:26:30Z</time>
      </trkpt>
      <trkpt lat="45.81135" lon="5.00984">
        <ele>173.3</ele>
        <time>2011-06-13T08:26:31Z</time>
      </trkpt>
      <trkpt lat="45.81135" lon="5.00965">
        <ele>172.1</ele>
        <time>2011-06-13T08:26:36Z</time>
      </trkpt>
      <trkpt lat="45.81135" lon="5.00961">
        <ele>172.1</ele>
        <time>2011-06-13T08:26:37Z</time>
      </trkpt>
      <trkpt lat="45.81137" lon="5.00957">
        <ele>171.6</ele>
        <time>2011-06-13T08:26:38Z</time>
      </trkpt>
      <trkpt lat="45.81143" lon="5.00944">
        <ele>173</ele>
        <time>2011-06-13T08:26:42Z</time>
      </trkpt>
      <trkpt lat="45.81152" lon="5.0092">
        <ele>175.1</ele>
        <time>2011-06-13T08:26:49Z</time>
      </trkpt>
      <trkpt lat="45.81153" lon="5.00915">
        <ele>176</ele>
        <time>2011-06-13T08:26:50Z</time>
      </trkpt>
      <trkpt lat="45.81155" lon="5.00908">
        <ele>176.3</ele>
        <time>2011-06-13T08:26:52Z</time>
      </trkpt>
      <trkpt lat="45.81154" lon="5.00901">
        <ele>180.5</ele>
        <time>2011-06-13T08:26:53Z</time>
      </trkpt>
      <trkpt lat="45.81154" lon="5.00895">
        <ele>183.6</ele>
        <time>2011-06-13T08:26:54Z</time>
      </trkpt>
      <trkpt lat="45.81156" lon="5.00892">
        <ele>183.5</ele>
        <time>2011-06-13T08:26:55Z</time>
      </trkpt>
      <trkpt lat="45.81156" lon="5.00887">
        <ele>184.8</ele>
        <time>2011-06-13T08:26:56Z</time>
      </trkpt>
      <trkpt lat="45.8117" lon="5.00872">
        <ele>175</ele>
        <time>2011-06-13T08:27:03Z</time>
      </trkpt>
      <trkpt lat="45.81176" lon="5.00874">
        <ele>168.6</ele>
        <time>2011-06-13T08:27:05Z</time>
      </trkpt>
      <trkpt lat="45.81177" lon="5.0087">
        <ele>170.6</ele>
        <time>2011-06-13T08:27:06Z</time>
      </trkpt>
      <trkpt lat="45.81179" lon="5.00865">
        <ele>174.1</ele>
        <time>2011-06-13T08:27:07Z</time>
      </trkpt>
      <trkpt lat="45.81182" lon="5.00864">
        <ele>173</ele>
        <time>2011-06-13T08:27:08Z</time>
      </trkpt>
      <trkpt lat="45.81184" lon="5.0086">
        <ele>172.8</ele>
        <time>2011-06-13T08:27:09Z</time>
      </trkpt>
      <trkpt lat="45.81186" lon="5.00852">
        <ele>175.5</ele>
        <time>2011-06-13T08:27:11Z</time>
      </trkpt>
      <trkpt lat="45.81188" lon="5.00841">
        <ele>177.8</ele>
        <time>2011-06-13T08:27:14Z</time>
      </trkpt>
      <trkpt lat="45.81188" lon="5.00837">
        <ele>179.1</ele>
        <time>2011-06-13T08:27:15Z</time>
      </trkpt>
      <trkpt lat="45.81189" lon="5.00834">
        <ele>178.6</ele>
        <time>2011-06-13T08:27:16Z</time>
      </trkpt>
      <trkpt lat="45.8119" lon="5.0083">
        <ele>178.5</ele>
        <time>2011-06-13T08:27:17Z</time>
      </trkpt>
      <trkpt lat="45.81218" lon="5.00729">
        <ele>173.8</ele>
        <time>2011-06-13T08:27:45Z</time>
      </trkpt>
      <trkpt lat="45.81241" lon="5.00656">
        <ele>174.6</ele>
        <time>2011-06-13T08:28:06Z</time>
      </trkpt>
      <trkpt lat="45.81248" lon="5.00641">
        <ele>173.5</ele>
        <time>2011-06-13T08:28:11Z</time>
      </trkpt>
      <trkpt lat="45.81249" lon="5.00637">
        <ele>173.1</ele>
        <time>2011-06-13T08:28:12Z</time>
      </trkpt>
      <trkpt lat="45.81268" lon="5.00581">
        <ele>178.3</ele>
        <time>2011-06-13T08:28:27Z</time>
      </trkpt>
      <trkpt lat="45.81273" lon="5.00573">
        <ele>178</ele>
        <time>2011-06-13T08:28:30Z</time>
      </trkpt>
      <trkpt lat="45.81275" lon="5.00571">
        <ele>177.5</ele>
        <time>2011-06-13T08:28:31Z</time>
      </trkpt>
      <trkpt lat="45.81276" lon="5.00567">
        <ele>178.3</ele>
        <time>2011-06-13T08:28:32Z</time>
      </trkpt>
      <trkpt lat="45.81291" lon="5.00524">
        <ele>174.6</ele>
        <time>2011-06-13T08:28:45Z</time>
      </trkpt>
      <trkpt lat="45.81319" lon="5.00442">
        <ele>179.3</ele>
        <time>2011-06-13T08:29:08Z</time>
      </trkpt>
      <trkpt lat="45.8132" lon="5.00434">
        <ele>180.1</ele>
        <time>2011-06-13T08:29:10Z</time>
      </trkpt>
      <trkpt lat="45.81338" lon="5.00367">
        <ele>182.6</ele>
        <time>2011-06-13T08:29:28Z</time>
      </trkpt>
      <trkpt lat="45.81339" lon="5.00364">
        <ele>182.6</ele>
        <time>2011-06-13T08:29:29Z</time>
      </trkpt>
      <trkpt lat="45.81346" lon="5.00348">
        <ele>181.8</ele>
        <time>2011-06-13T08:29:34Z</time>
      </trkpt>
      <trkpt lat="45.8135" lon="5.00341">
        <ele>180.3</ele>
        <time>2011-06-13T08:29:36Z</time>
      </trkpt>
      <trkpt lat="45.81351" lon="5.00338">
        <ele>180.3</ele>
        <time>2011-06-13T08:29:37Z</time>
      </trkpt>
      <trkpt lat="45.81386" lon="5.00265">
        <ele>180.5</ele>
        <time>2011-06-13T08:30:00Z</time>
      </trkpt>
      <trkpt lat="45.81389" lon="5.00259">
        <ele>180.3</ele>
        <time>2011-06-13T08:30:02Z</time>
      </trkpt>
      <trkpt lat="45.81397" lon="5.00244">
        <ele>181.8</ele>
        <time>2011-06-13T08:30:07Z</time>
      </trkpt>
      <trkpt lat="45.81399" lon="5.00237">
        <ele>183.3</ele>
        <time>2011-06-13T08:30:09Z</time>
      </trkpt>
      <trkpt lat="45.81444" lon="5.00116">
        <ele>184.8</ele>
        <time>2011-06-13T08:30:45Z</time>
      </trkpt>
      <trkpt lat="45.81446" lon="5.00113">
        <ele>184.5</ele>
        <time>2011-06-13T08:30:46Z</time>
      </trkpt>
      <trkpt lat="45.81453" lon="5.00096">
        <ele>184.6</ele>
        <time>2011-06-13T08:30:51Z</time>
      </trkpt>
      <trkpt lat="45.81461" lon="5.00086">
        <ele>181.1</ele>
        <time>2011-06-13T08:30:55Z</time>
      </trkpt>
      <trkpt lat="45.81462" lon="5.00083">
        <ele>181.6</ele>
        <time>2011-06-13T08:30:56Z</time>
      </trkpt>
      <trkpt lat="45.81475" lon="5.00055">
        <ele>180.3</ele>
        <time>2011-06-13T08:31:05Z</time>
      </trkpt>
      <trkpt lat="45.81487" lon="5.00024">
        <ele>180.3</ele>
        <time>2011-06-13T08:31:14Z</time>
      </trkpt>
      <trkpt lat="45.81498" lon="5">
        <ele>178.6</ele>
        <time>2011-06-13T08:31:21Z</time>
      </trkpt>
      <trkpt lat="45.81503" lon="4.99986">
        <ele>178.3</ele>
        <time>2011-06-13T08:31:25Z</time>
      </trkpt>
      <trkpt lat="45.81506" lon="4.99977">
        <ele>180.5</ele>
        <time>2011-06-13T08:31:28Z</time>
      </trkpt>
      <trkpt lat="45.81537" lon="4.99888">
        <ele>181.6</ele>
        <time>2011-06-13T08:31:54Z</time>
      </trkpt>
      <trkpt lat="45.81538" lon="4.99885">
        <ele>181.3</ele>
        <time>2011-06-13T08:31:55Z</time>
      </trkpt>
      <trkpt lat="45.81601" lon="4.99698">
        <ele>182.8</ele>
        <time>2011-06-13T08:32:49Z</time>
      </trkpt>
      <trkpt lat="45.81602" lon="4.99696">
        <ele>182.6</ele>
        <time>2011-06-13T08:32:50Z</time>
      </trkpt>
      <trkpt lat="45.81604" lon="4.99692">
        <ele>181.8</ele>
        <time>2011-06-13T08:32:51Z</time>
      </trkpt>
      <trkpt lat="45.81608" lon="4.99681">
        <ele>181.1</ele>
        <time>2011-06-13T08:32:55Z</time>
      </trkpt>
      <trkpt lat="45.81608" lon="4.99678">
        <ele>181.1</ele>
        <time>2011-06-13T08:32:56Z</time>
      </trkpt>
      <trkpt lat="45.81618" lon="4.99623">
        <ele>180.8</ele>
        <time>2011-06-13T08:33:11Z</time>
      </trkpt>
      <trkpt lat="45.8162" lon="4.99614">
        <ele>180.6</ele>
        <time>2011-06-13T08:33:14Z</time>
      </trkpt>
      <trkpt lat="45.8162" lon="4.9961">
        <ele>180.3</ele>
        <time>2011-06-13T08:33:15Z</time>
      </trkpt>
      <trkpt lat="45.81624" lon="4.99559">
        <ele>178.3</ele>
        <time>2011-06-13T08:33:28Z</time>
      </trkpt>
      <trkpt lat="45.81626" lon="4.99522">
        <ele>181.6</ele>
        <time>2011-06-13T08:33:38Z</time>
      </trkpt>
      <trkpt lat="45.81631" lon="4.99415">
        <ele>178.1</ele>
        <time>2011-06-13T08:34:06Z</time>
      </trkpt>
      <trkpt lat="45.81631" lon="4.99412">
        <ele>177</ele>
        <time>2011-06-13T08:34:07Z</time>
      </trkpt>
      <trkpt lat="45.81632" lon="4.9941">
        <ele>175.3</ele>
        <time>2011-06-13T08:34:08Z</time>
      </trkpt>
      <trkpt lat="45.81632" lon="4.99406">
        <ele>174.8</ele>
        <time>2011-06-13T08:34:09Z</time>
      </trkpt>
      <trkpt lat="45.81632" lon="4.99403">
        <ele>174.6</ele>
        <time>2011-06-13T08:34:10Z</time>
      </trkpt>
      <trkpt lat="45.81628" lon="4.99355">
        <ele>174.6</ele>
        <time>2011-06-13T08:34:21Z</time>
      </trkpt>
      <trkpt lat="45.81628" lon="4.99352">
        <ele>173.1</ele>
        <time>2011-06-13T08:34:22Z</time>
      </trkpt>
      <trkpt lat="45.81628" lon="4.9935">
        <ele>172.1</ele>
        <time>2011-06-13T08:34:23Z</time>
      </trkpt>
      <trkpt lat="45.81628" lon="4.99348">
        <ele>171.5</ele>
        <time>2011-06-13T08:34:24Z</time>
      </trkpt>
      <trkpt lat="45.81623" lon="4.99298">
        <ele>165.3</ele>
        <time>2011-06-13T08:34:37Z</time>
      </trkpt>
      <trkpt lat="45.81621" lon="4.99293">
        <ele>165.3</ele>
        <time>2011-06-13T08:34:38Z</time>
      </trkpt>
      <trkpt lat="45.8162" lon="4.9929">
        <ele>167.6</ele>
        <time>2011-06-13T08:34:39Z</time>
      </trkpt>
      <trkpt lat="45.81617" lon="4.99284">
        <ele>168.1</ele>
        <time>2011-06-13T08:34:41Z</time>
      </trkpt>
      <trkpt lat="45.81617" lon="4.9928">
        <ele>168.1</ele>
        <time>2011-06-13T08:34:42Z</time>
      </trkpt>
      <trkpt lat="45.81616" lon="4.99277">
        <ele>167.8</ele>
        <time>2011-06-13T08:34:43Z</time>
      </trkpt>
      <trkpt lat="45.81608" lon="4.99248">
        <ele>167.8</ele>
        <time>2011-06-13T08:34:51Z</time>
      </trkpt>
      <trkpt lat="45.81608" lon="4.99242">
        <ele>168.1</ele>
        <time>2011-06-13T08:34:52Z</time>
      </trkpt>
      <trkpt lat="45.81608" lon="4.99237">
        <ele>168.6</ele>
        <time>2011-06-13T08:34:53Z</time>
      </trkpt>
      <trkpt lat="45.81607" lon="4.99233">
        <ele>169.5</ele>
        <time>2011-06-13T08:34:54Z</time>
      </trkpt>
      <trkpt lat="45.81608" lon="4.99226">
        <ele>168.3</ele>
        <time>2011-06-13T08:34:56Z</time>
      </trkpt>
      <trkpt lat="45.81607" lon="4.99222">
        <ele>169.3</ele>
        <time>2011-06-13T08:34:57Z</time>
      </trkpt>
      <trkpt lat="45.81605" lon="4.99209">
        <ele>166.3</ele>
        <time>2011-06-13T08:35:02Z</time>
      </trkpt>
      <trkpt lat="45.81603" lon="4.99208">
        <ele>166.3</ele>
        <time>2011-06-13T08:35:03Z</time>
      </trkpt>
      <trkpt lat="45.81603" lon="4.99204">
        <ele>166.3</ele>
        <time>2011-06-13T08:35:04Z</time>
      </trkpt>
      <trkpt lat="45.81603" lon="4.992">
        <ele>165.3</ele>
        <time>2011-06-13T08:35:05Z</time>
      </trkpt>
      <trkpt lat="45.81603" lon="4.99195">
        <ele>166.1</ele>
        <time>2011-06-13T08:35:06Z</time>
      </trkpt>
      <trkpt lat="45.81598" lon="4.99158">
        <ele>166.1</ele>
        <time>2011-06-13T08:35:14Z</time>
      </trkpt>
      <trkpt lat="45.81597" lon="4.99154">
        <ele>166.6</ele>
        <time>2011-06-13T08:35:15Z</time>
      </trkpt>
      <trkpt lat="45.81597" lon="4.99152">
        <ele>166.8</ele>
        <time>2011-06-13T08:35:16Z</time>
      </trkpt>
      <trkpt lat="45.81595" lon="4.99148">
        <ele>167.6</ele>
        <time>2011-06-13T08:35:17Z</time>
      </trkpt>
      <trkpt lat="45.81576" lon="4.99103">
        <ele>175.1</ele>
        <time>2011-06-13T08:35:30Z</time>
      </trkpt>
      <trkpt lat="45.81562" lon="4.99068">
        <ele>174</ele>
        <time>2011-06-13T08:35:41Z</time>
      </trkpt>
      <trkpt lat="45.81563" lon="4.99063">
        <ele>173.6</ele>
        <time>2011-06-13T08:35:42Z</time>
      </trkpt>
      <trkpt lat="45.81563" lon="4.99059">
        <ele>173.6</ele>
        <time>2011-06-13T08:35:43Z</time>
      </trkpt>
      <trkpt lat="45.81562" lon="4.99056">
        <ele>173.6</ele>
        <time>2011-06-13T08:35:44Z</time>
      </trkpt>
      <trkpt lat="45.81557" lon="4.99039">
        <ele>174</ele>
        <time>2011-06-13T08:35:49Z</time>
      </trkpt>
      <trkpt lat="45.81555" lon="4.99036">
        <ele>174.6</ele>
        <time>2011-06-13T08:35:50Z</time>
      </trkpt>
      <trkpt lat="45.81554" lon="4.99028">
        <ele>174.6</ele>
        <time>2011-06-13T08:35:52Z</time>
      </trkpt>
      <trkpt lat="45.81553" lon="4.99026">
        <ele>176.8</ele>
        <time>2011-06-13T08:35:53Z</time>
      </trkpt>
      <trkpt lat="45.81552" lon="4.99022">
        <ele>177.1</ele>
        <time>2011-06-13T08:35:54Z</time>
      </trkpt>
      <trkpt lat="45.81534" lon="4.98934">
        <ele>171.1</ele>
        <time>2011-06-13T08:36:18Z</time>
      </trkpt>
      <trkpt lat="45.81534" lon="4.98929">
        <ele>170.8</ele>
        <time>2011-06-13T08:36:19Z</time>
      </trkpt>
      <trkpt lat="45.81529" lon="4.98902">
        <ele>170.8</ele>
        <time>2011-06-13T08:36:26Z</time>
      </trkpt>
      <trkpt lat="45.81503" lon="4.98759">
        <ele>171.6</ele>
        <time>2011-06-13T08:37:04Z</time>
      </trkpt>
      <trkpt lat="45.81487" lon="4.98663">
        <ele>171.1</ele>
        <time>2011-06-13T08:37:30Z</time>
      </trkpt>
      <trkpt lat="45.81487" lon="4.98659">
        <ele>171.3</ele>
        <time>2011-06-13T08:37:31Z</time>
      </trkpt>
      <trkpt lat="45.81475" lon="4.98569">
        <ele>180.3</ele>
        <time>2011-06-13T08:37:53Z</time>
      </trkpt>
      <trkpt lat="45.81474" lon="4.98565">
        <ele>180.6</ele>
        <time>2011-06-13T08:37:54Z</time>
      </trkpt>
      <trkpt lat="45.81473" lon="4.98562">
        <ele>180.1</ele>
        <time>2011-06-13T08:37:55Z</time>
      </trkpt>
      <trkpt lat="45.81472" lon="4.9856">
        <ele>179.1</ele>
        <time>2011-06-13T08:37:56Z</time>
      </trkpt>
      <trkpt lat="45.81466" lon="4.9855">
        <ele>176.6</ele>
        <time>2011-06-13T08:38:00Z</time>
      </trkpt>
      <trkpt lat="45.81465" lon="4.98547">
        <ele>176.3</ele>
        <time>2011-06-13T08:38:01Z</time>
      </trkpt>
      <trkpt lat="45.81464" lon="4.98544">
        <ele>176.3</ele>
        <time>2011-06-13T08:38:02Z</time>
      </trkpt>
      <trkpt lat="45.81459" lon="4.9853">
        <ele>174.6</ele>
        <time>2011-06-13T08:38:07Z</time>
      </trkpt>
      <trkpt lat="45.81459" lon="4.98526">
        <ele>174</ele>
        <time>2011-06-13T08:38:08Z</time>
      </trkpt>
      <trkpt lat="45.81458" lon="4.98512">
        <ele>175.1</ele>
        <time>2011-06-13T08:38:12Z</time>
      </trkpt>
      <trkpt lat="45.81459" lon="4.98508">
        <ele>174.3</ele>
        <time>2011-06-13T08:38:13Z</time>
      </trkpt>
      <trkpt lat="45.81463" lon="4.98497">
        <ele>174.1</ele>
        <time>2011-06-13T08:38:16Z</time>
      </trkpt>
      <trkpt lat="45.81465" lon="4.98493">
        <ele>175.3</ele>
        <time>2011-06-13T08:38:17Z</time>
      </trkpt>
      <trkpt lat="45.81467" lon="4.98489">
        <ele>174.6</ele>
        <time>2011-06-13T08:38:18Z</time>
      </trkpt>
      <trkpt lat="45.81479" lon="4.98472">
        <ele>176.5</ele>
        <time>2011-06-13T08:38:24Z</time>
      </trkpt>
      <trkpt lat="45.8148" lon="4.98468">
        <ele>176.5</ele>
        <time>2011-06-13T08:38:25Z</time>
      </trkpt>
      <trkpt lat="45.81481" lon="4.98464">
        <ele>176</ele>
        <time>2011-06-13T08:38:26Z</time>
      </trkpt>
      <trkpt lat="45.81482" lon="4.98457">
        <ele>175.1</ele>
        <time>2011-06-13T08:38:28Z</time>
      </trkpt>
      <trkpt lat="45.81483" lon="4.98453">
        <ele>175.1</ele>
        <time>2011-06-13T08:38:29Z</time>
      </trkpt>
      <trkpt lat="45.81482" lon="4.98448">
        <ele>175.6</ele>
        <time>2011-06-13T08:38:30Z</time>
      </trkpt>
      <trkpt lat="45.81482" lon="4.98444">
        <ele>175.6</ele>
        <time>2011-06-13T08:38:31Z</time>
      </trkpt>
      <trkpt lat="45.81483" lon="4.98439">
        <ele>175.5</ele>
        <time>2011-06-13T08:38:33Z</time>
      </trkpt>
      <trkpt lat="45.81483" lon="4.98435">
        <ele>176.6</ele>
        <time>2011-06-13T08:38:34Z</time>
      </trkpt>
      <trkpt lat="45.81482" lon="4.98431">
        <ele>176.6</ele>
        <time>2011-06-13T08:38:35Z</time>
      </trkpt>
      <trkpt lat="45.81481" lon="4.98417">
        <ele>180.8</ele>
        <time>2011-06-13T08:38:40Z</time>
      </trkpt>
      <trkpt lat="45.81478" lon="4.98414">
        <ele>180.6</ele>
        <time>2011-06-13T08:38:41Z</time>
      </trkpt>
      <trkpt lat="45.81477" lon="4.98411">
        <ele>177.6</ele>
        <time>2011-06-13T08:38:42Z</time>
      </trkpt>
      <trkpt lat="45.81478" lon="4.98408">
        <ele>177.5</ele>
        <time>2011-06-13T08:38:43Z</time>
      </trkpt>
      <trkpt lat="45.81479" lon="4.98405">
        <ele>177.3</ele>
        <time>2011-06-13T08:38:44Z</time>
      </trkpt>
      <trkpt lat="45.8148" lon="4.98401">
        <ele>177.6</ele>
        <time>2011-06-13T08:38:45Z</time>
      </trkpt>
      <trkpt lat="45.8148" lon="4.98395">
        <ele>180.8</ele>
        <time>2011-06-13T08:38:46Z</time>
      </trkpt>
      <trkpt lat="45.81479" lon="4.98387">
        <ele>184.8</ele>
        <time>2011-06-13T08:38:47Z</time>
      </trkpt>
      <trkpt lat="45.8148" lon="4.98383">
        <ele>185.1</ele>
        <time>2011-06-13T08:38:48Z</time>
      </trkpt>
      <trkpt lat="45.81482" lon="4.98381">
        <ele>183.5</ele>
        <time>2011-06-13T08:38:49Z</time>
      </trkpt>
      <trkpt lat="45.81483" lon="4.98377">
        <ele>184.3</ele>
        <time>2011-06-13T08:38:50Z</time>
      </trkpt>
      <trkpt lat="45.81484" lon="4.98373">
        <ele>184</ele>
        <time>2011-06-13T08:38:51Z</time>
      </trkpt>
      <trkpt lat="45.81485" lon="4.98372">
        <ele>182.1</ele>
        <time>2011-06-13T08:38:52Z</time>
      </trkpt>
      <trkpt lat="45.81486" lon="4.9837">
        <ele>179.8</ele>
        <time>2011-06-13T08:38:53Z</time>
      </trkpt>
      <trkpt lat="45.81487" lon="4.98368">
        <ele>175.6</ele>
        <time>2011-06-13T08:38:54Z</time>
      </trkpt>
      <trkpt lat="45.81487" lon="4.98364">
        <ele>175</ele>
        <time>2011-06-13T08:38:55Z</time>
      </trkpt>
      <trkpt lat="45.81488" lon="4.98357">
        <ele>172.3</ele>
        <time>2011-06-13T08:38:57Z</time>
      </trkpt>
      <trkpt lat="45.8149" lon="4.98349">
        <ele>173.5</ele>
        <time>2011-06-13T08:38:59Z</time>
      </trkpt>
      <trkpt lat="45.8149" lon="4.98346">
        <ele>173.3</ele>
        <time>2011-06-13T08:39:00Z</time>
      </trkpt>
      <trkpt lat="45.81492" lon="4.98337">
        <ele>170.1</ele>
        <time>2011-06-13T08:39:03Z</time>
      </trkpt>
      <trkpt lat="45.81496" lon="4.98312">
        <ele>169.6</ele>
        <time>2011-06-13T08:39:09Z</time>
      </trkpt>
      <trkpt lat="45.81496" lon="4.983">
        <ele>171.8</ele>
        <time>2011-06-13T08:39:12Z</time>
      </trkpt>
      <trkpt lat="45.81498" lon="4.98281">
        <ele>167.8</ele>
        <time>2011-06-13T08:39:18Z</time>
      </trkpt>
      <trkpt lat="45.81501" lon="4.98275">
        <ele>171.3</ele>
        <time>2011-06-13T08:39:19Z</time>
      </trkpt>
      <trkpt lat="45.81502" lon="4.98271">
        <ele>171.3</ele>
        <time>2011-06-13T08:39:20Z</time>
      </trkpt>
      <trkpt lat="45.81502" lon="4.9827">
        <ele>170.8</ele>
        <time>2011-06-13T08:39:21Z</time>
      </trkpt>
      <trkpt lat="45.81501" lon="4.98269">
        <ele>169.6</ele>
        <time>2011-06-13T08:39:22Z</time>
      </trkpt>
      <trkpt lat="45.815" lon="4.98269">
        <ele>167.1</ele>
        <time>2011-06-13T08:39:23Z</time>
      </trkpt>
      <trkpt lat="45.815" lon="4.98267">
        <ele>163.6</ele>
        <time>2011-06-13T08:39:24Z</time>
      </trkpt>
      <trkpt lat="45.81499" lon="4.98258">
        <ele>162.5</ele>
        <time>2011-06-13T08:39:26Z</time>
      </trkpt>
      <trkpt lat="45.815" lon="4.98246">
        <ele>154.8</ele>
        <time>2011-06-13T08:39:30Z</time>
      </trkpt>
      <trkpt lat="45.81504" lon="4.98238">
        <ele>153.3</ele>
        <time>2011-06-13T08:39:33Z</time>
      </trkpt>
      <trkpt lat="45.81506" lon="4.98233">
        <ele>155.6</ele>
        <time>2011-06-13T08:39:34Z</time>
      </trkpt>
      <trkpt lat="45.81512" lon="4.98219">
        <ele>155.6</ele>
        <time>2011-06-13T08:39:38Z</time>
      </trkpt>
      <trkpt lat="45.81514" lon="4.98217">
        <ele>155.6</ele>
        <time>2011-06-13T08:39:39Z</time>
      </trkpt>
      <trkpt lat="45.81515" lon="4.98212">
        <ele>156.5</ele>
        <time>2011-06-13T08:39:40Z</time>
      </trkpt>
      <trkpt lat="45.81515" lon="4.9821">
        <ele>157</ele>
        <time>2011-06-13T08:39:41Z</time>
      </trkpt>
      <trkpt lat="45.81515" lon="4.98207">
        <ele>157</ele>
        <time>2011-06-13T08:39:42Z</time>
      </trkpt>
      <trkpt lat="45.81515" lon="4.98203">
        <ele>159.3</ele>
        <time>2011-06-13T08:39:43Z</time>
      </trkpt>
      <trkpt lat="45.81516" lon="4.98199">
        <ele>159.8</ele>
        <time>2011-06-13T08:39:44Z</time>
      </trkpt>
      <trkpt lat="45.81517" lon="4.98194">
        <ele>161.6</ele>
        <time>2011-06-13T08:39:45Z</time>
      </trkpt>
      <trkpt lat="45.81524" lon="4.98153">
        <ele>167.8</ele>
        <time>2011-06-13T08:39:55Z</time>
      </trkpt>
      <trkpt lat="45.81526" lon="4.9815">
        <ele>167.6</ele>
        <time>2011-06-13T08:39:56Z</time>
      </trkpt>
      <trkpt lat="45.81531" lon="4.98145">
        <ele>163.8</ele>
        <time>2011-06-13T08:39:58Z</time>
      </trkpt>
      <trkpt lat="45.81533" lon="4.98141">
        <ele>163.8</ele>
        <time>2011-06-13T08:39:59Z</time>
      </trkpt>
      <trkpt lat="45.81534" lon="4.98136">
        <ele>162.1</ele>
        <time>2011-06-13T08:40:00Z</time>
      </trkpt>
      <trkpt lat="45.81535" lon="4.9813">
        <ele>162.1</ele>
        <time>2011-06-13T08:40:01Z</time>
      </trkpt>
      <trkpt lat="45.81536" lon="4.98116">
        <ele>166.8</ele>
        <time>2011-06-13T08:40:04Z</time>
      </trkpt>
      <trkpt lat="45.81538" lon="4.98115">
        <ele>166.8</ele>
        <time>2011-06-13T08:40:05Z</time>
      </trkpt>
      <trkpt lat="45.8154" lon="4.98111">
        <ele>163.6</ele>
        <time>2011-06-13T08:40:06Z</time>
      </trkpt>
      <trkpt lat="45.81543" lon="4.98103">
        <ele>165.1</ele>
        <time>2011-06-13T08:40:08Z</time>
      </trkpt>
      <trkpt lat="45.81546" lon="4.98094">
        <ele>167.3</ele>
        <time>2011-06-13T08:40:11Z</time>
      </trkpt>
      <trkpt lat="45.81548" lon="4.98084">
        <ele>168.3</ele>
        <time>2011-06-13T08:40:15Z</time>
      </trkpt>
      <trkpt lat="45.81548" lon="4.98081">
        <ele>168.1</ele>
        <time>2011-06-13T08:40:16Z</time>
      </trkpt>
      <trkpt lat="45.81549" lon="4.98076">
        <ele>169.6</ele>
        <time>2011-06-13T08:40:17Z</time>
      </trkpt>
      <trkpt lat="45.8155" lon="4.98072">
        <ele>171.6</ele>
        <time>2011-06-13T08:40:18Z</time>
      </trkpt>
      <trkpt lat="45.81552" lon="4.98069">
        <ele>171</ele>
        <time>2011-06-13T08:40:19Z</time>
      </trkpt>
      <trkpt lat="45.81554" lon="4.98067">
        <ele>170.1</ele>
        <time>2011-06-13T08:40:20Z</time>
      </trkpt>
      <trkpt lat="45.81554" lon="4.98063">
        <ele>173</ele>
        <time>2011-06-13T08:40:21Z</time>
      </trkpt>
      <trkpt lat="45.81554" lon="4.98059">
        <ele>174.6</ele>
        <time>2011-06-13T08:40:22Z</time>
      </trkpt>
      <trkpt lat="45.81556" lon="4.98034">
        <ele>176.8</ele>
        <time>2011-06-13T08:40:28Z</time>
      </trkpt>
      <trkpt lat="45.81559" lon="4.98019">
        <ele>176.5</ele>
        <time>2011-06-13T08:40:32Z</time>
      </trkpt>
      <trkpt lat="45.81561" lon="4.98015">
        <ele>177</ele>
        <time>2011-06-13T08:40:33Z</time>
      </trkpt>
      <trkpt lat="45.81564" lon="4.98008">
        <ele>178.5</ele>
        <time>2011-06-13T08:40:35Z</time>
      </trkpt>
      <trkpt lat="45.81566" lon="4.98004">
        <ele>178.1</ele>
        <time>2011-06-13T08:40:36Z</time>
      </trkpt>
      <trkpt lat="45.8157" lon="4.97998">
        <ele>179.1</ele>
        <time>2011-06-13T08:40:38Z</time>
      </trkpt>
      <trkpt lat="45.81576" lon="4.97988">
        <ele>180.3</ele>
        <time>2011-06-13T08:40:41Z</time>
      </trkpt>
      <trkpt lat="45.8158" lon="4.97982">
        <ele>181.3</ele>
        <time>2011-06-13T08:40:43Z</time>
      </trkpt>
      <trkpt lat="45.81582" lon="4.97981">
        <ele>180.5</ele>
        <time>2011-06-13T08:40:44Z</time>
      </trkpt>
      <trkpt lat="45.81585" lon="4.97979">
        <ele>179.6</ele>
        <time>2011-06-13T08:40:45Z</time>
      </trkpt>
      <trkpt lat="45.81587" lon="4.97977">
        <ele>179.3</ele>
        <time>2011-06-13T08:40:46Z</time>
      </trkpt>
      <trkpt lat="45.81588" lon="4.97974">
        <ele>179.3</ele>
        <time>2011-06-13T08:40:47Z</time>
      </trkpt>
      <trkpt lat="45.8159" lon="4.97972">
        <ele>181</ele>
        <time>2011-06-13T08:40:48Z</time>
      </trkpt>
      <trkpt lat="45.81594" lon="4.97966">
        <ele>180.3</ele>
        <time>2011-06-13T08:40:50Z</time>
      </trkpt>
      <trkpt lat="45.81595" lon="4.97964">
        <ele>179.6</ele>
        <time>2011-06-13T08:40:51Z</time>
      </trkpt>
      <trkpt lat="45.81596" lon="4.97962">
        <ele>179.6</ele>
        <time>2011-06-13T08:40:52Z</time>
      </trkpt>
      <trkpt lat="45.81603" lon="4.97949">
        <ele>177.8</ele>
        <time>2011-06-13T08:40:57Z</time>
      </trkpt>
      <trkpt lat="45.81606" lon="4.97943">
        <ele>177.5</ele>
        <time>2011-06-13T08:40:59Z</time>
      </trkpt>
      <trkpt lat="45.81607" lon="4.97941">
        <ele>177.5</ele>
        <time>2011-06-13T08:41:00Z</time>
      </trkpt>
      <trkpt lat="45.81608" lon="4.97939">
        <ele>175.3</ele>
        <time>2011-06-13T08:41:01Z</time>
      </trkpt>
      <trkpt lat="45.81609" lon="4.97934">
        <ele>175.8</ele>
        <time>2011-06-13T08:41:02Z</time>
      </trkpt>
      <trkpt lat="45.8161" lon="4.97931">
        <ele>175.6</ele>
        <time>2011-06-13T08:41:03Z</time>
      </trkpt>
      <trkpt lat="45.81612" lon="4.97929">
        <ele>175.8</ele>
        <time>2011-06-13T08:41:04Z</time>
      </trkpt>
      <trkpt lat="45.81613" lon="4.97926">
        <ele>175.1</ele>
        <time>2011-06-13T08:41:05Z</time>
      </trkpt>
      <trkpt lat="45.81616" lon="4.97919">
        <ele>174.8</ele>
        <time>2011-06-13T08:41:06Z</time>
      </trkpt>
      <trkpt lat="45.81618" lon="4.97908">
        <ele>178.1</ele>
        <time>2011-06-13T08:41:08Z</time>
      </trkpt>
      <trkpt lat="45.81619" lon="4.97907">
        <ele>176.5</ele>
        <time>2011-06-13T08:41:09Z</time>
      </trkpt>
      <trkpt lat="45.8162" lon="4.97903">
        <ele>177.3</ele>
        <time>2011-06-13T08:41:10Z</time>
      </trkpt>
      <trkpt lat="45.81621" lon="4.97898">
        <ele>178.1</ele>
        <time>2011-06-13T08:41:11Z</time>
      </trkpt>
      <trkpt lat="45.81622" lon="4.97897">
        <ele>177.3</ele>
        <time>2011-06-13T08:41:12Z</time>
      </trkpt>
      <trkpt lat="45.81624" lon="4.97893">
        <ele>178</ele>
        <time>2011-06-13T08:41:13Z</time>
      </trkpt>
      <trkpt lat="45.81624" lon="4.97887">
        <ele>181.6</ele>
        <time>2011-06-13T08:41:15Z</time>
      </trkpt>
      <trkpt lat="45.81625" lon="4.97884">
        <ele>181.1</ele>
        <time>2011-06-13T08:41:16Z</time>
      </trkpt>
      <trkpt lat="45.81627" lon="4.97882">
        <ele>180.6</ele>
        <time>2011-06-13T08:41:17Z</time>
      </trkpt>
      <trkpt lat="45.81643" lon="4.97854">
        <ele>180.6</ele>
        <time>2011-06-13T08:41:26Z</time>
      </trkpt>
      <trkpt lat="45.81645" lon="4.97852">
        <ele>180.3</ele>
        <time>2011-06-13T08:41:27Z</time>
      </trkpt>
      <trkpt lat="45.81646" lon="4.97847">
        <ele>181.1</ele>
        <time>2011-06-13T08:41:28Z</time>
      </trkpt>
      <trkpt lat="45.81648" lon="4.97843">
        <ele>181.5</ele>
        <time>2011-06-13T08:41:29Z</time>
      </trkpt>
      <trkpt lat="45.81657" lon="4.97815">
        <ele>184.1</ele>
        <time>2011-06-13T08:41:36Z</time>
      </trkpt>
      <trkpt lat="45.81657" lon="4.97812">
        <ele>184.1</ele>
        <time>2011-06-13T08:41:37Z</time>
      </trkpt>
      <trkpt lat="45.81657" lon="4.97809">
        <ele>182.1</ele>
        <time>2011-06-13T08:41:38Z</time>
      </trkpt>
      <trkpt lat="45.81658" lon="4.97806">
        <ele>182.1</ele>
        <time>2011-06-13T08:41:39Z</time>
      </trkpt>
      <trkpt lat="45.81659" lon="4.97801">
        <ele>181.5</ele>
        <time>2011-06-13T08:41:40Z</time>
      </trkpt>
      <trkpt lat="45.81663" lon="4.97784">
        <ele>180.6</ele>
        <time>2011-06-13T08:41:44Z</time>
      </trkpt>
      <trkpt lat="45.81663" lon="4.97781">
        <ele>180.6</ele>
        <time>2011-06-13T08:41:45Z</time>
      </trkpt>
      <trkpt lat="45.8166" lon="4.97774">
        <ele>178.1</ele>
        <time>2011-06-13T08:41:47Z</time>
      </trkpt>
      <trkpt lat="45.8166" lon="4.97771">
        <ele>177.1</ele>
        <time>2011-06-13T08:41:48Z</time>
      </trkpt>
      <trkpt lat="45.8166" lon="4.97767">
        <ele>177.1</ele>
        <time>2011-06-13T08:41:49Z</time>
      </trkpt>
      <trkpt lat="45.81661" lon="4.97756">
        <ele>175.8</ele>
        <time>2011-06-13T08:41:52Z</time>
      </trkpt>
      <trkpt lat="45.81661" lon="4.97753">
        <ele>175.1</ele>
        <time>2011-06-13T08:41:53Z</time>
      </trkpt>
      <trkpt lat="45.81661" lon="4.97748">
        <ele>176.3</ele>
        <time>2011-06-13T08:41:54Z</time>
      </trkpt>
      <trkpt lat="45.8166" lon="4.97743">
        <ele>178.6</ele>
        <time>2011-06-13T08:41:55Z</time>
      </trkpt>
      <trkpt lat="45.81659" lon="4.9774">
        <ele>177.5</ele>
        <time>2011-06-13T08:41:56Z</time>
      </trkpt>
      <trkpt lat="45.81657" lon="4.97737">
        <ele>177.8</ele>
        <time>2011-06-13T08:41:57Z</time>
      </trkpt>
      <trkpt lat="45.81656" lon="4.97733">
        <ele>178.3</ele>
        <time>2011-06-13T08:41:58Z</time>
      </trkpt>
      <trkpt lat="45.81656" lon="4.9773">
        <ele>176.8</ele>
        <time>2011-06-13T08:41:59Z</time>
      </trkpt>
      <trkpt lat="45.81655" lon="4.97727">
        <ele>175.6</ele>
        <time>2011-06-13T08:42:00Z</time>
      </trkpt>
      <trkpt lat="45.81654" lon="4.9772">
        <ele>175.8</ele>
        <time>2011-06-13T08:42:02Z</time>
      </trkpt>
      <trkpt lat="45.81653" lon="4.97716">
        <ele>176.6</ele>
        <time>2011-06-13T08:42:03Z</time>
      </trkpt>
      <trkpt lat="45.8165" lon="4.9771">
        <ele>176.1</ele>
        <time>2011-06-13T08:42:05Z</time>
      </trkpt>
      <trkpt lat="45.81643" lon="4.97695">
        <ele>174.1</ele>
        <time>2011-06-13T08:42:10Z</time>
      </trkpt>
      <trkpt lat="45.81642" lon="4.97692">
        <ele>174.3</ele>
        <time>2011-06-13T08:42:11Z</time>
      </trkpt>
      <trkpt lat="45.8164" lon="4.97677">
        <ele>174.6</ele>
        <time>2011-06-13T08:42:15Z</time>
      </trkpt>
      <trkpt lat="45.8164" lon="4.97673">
        <ele>175.6</ele>
        <time>2011-06-13T08:42:16Z</time>
      </trkpt>
      <trkpt lat="45.81642" lon="4.97662">
        <ele>178.8</ele>
        <time>2011-06-13T08:42:19Z</time>
      </trkpt>
      <trkpt lat="45.81642" lon="4.97659">
        <ele>178.8</ele>
        <time>2011-06-13T08:42:20Z</time>
      </trkpt>
      <trkpt lat="45.81642" lon="4.97655">
        <ele>177.8</ele>
        <time>2011-06-13T08:42:21Z</time>
      </trkpt>
      <trkpt lat="45.81633" lon="4.97617">
        <ele>173.6</ele>
        <time>2011-06-13T08:42:31Z</time>
      </trkpt>
      <trkpt lat="45.81622" lon="4.97547">
        <ele>171.8</ele>
        <time>2011-06-13T08:42:49Z</time>
      </trkpt>
      <trkpt lat="45.81621" lon="4.97544">
        <ele>171.1</ele>
        <time>2011-06-13T08:42:50Z</time>
      </trkpt>
      <trkpt lat="45.81625" lon="4.97503">
        <ele>175.3</ele>
        <time>2011-06-13T08:43:01Z</time>
      </trkpt>
      <trkpt lat="45.81626" lon="4.97499">
        <ele>176.1</ele>
        <time>2011-06-13T08:43:02Z</time>
      </trkpt>
      <trkpt lat="45.81626" lon="4.97495">
        <ele>176.1</ele>
        <time>2011-06-13T08:43:03Z</time>
      </trkpt>
      <trkpt lat="45.81622" lon="4.97469">
        <ele>176.6</ele>
        <time>2011-06-13T08:43:10Z</time>
      </trkpt>
      <trkpt lat="45.81611" lon="4.97386">
        <ele>176.8</ele>
        <time>2011-06-13T08:43:32Z</time>
      </trkpt>
      <trkpt lat="45.81605" lon="4.97351">
        <ele>179.1</ele>
        <time>2011-06-13T08:43:41Z</time>
      </trkpt>
      <trkpt lat="45.81602" lon="4.97324">
        <ele>182</ele>
        <time>2011-06-13T08:43:48Z</time>
      </trkpt>
      <trkpt lat="45.81602" lon="4.9732">
        <ele>182.3</ele>
        <time>2011-06-13T08:43:49Z</time>
      </trkpt>
      <trkpt lat="45.81602" lon="4.97317">
        <ele>181.6</ele>
        <time>2011-06-13T08:43:50Z</time>
      </trkpt>
      <trkpt lat="45.816" lon="4.97313">
        <ele>181.1</ele>
        <time>2011-06-13T08:43:51Z</time>
      </trkpt>
      <trkpt lat="45.816" lon="4.97301">
        <ele>178</ele>
        <time>2011-06-13T08:43:54Z</time>
      </trkpt>
      <trkpt lat="45.81599" lon="4.97297">
        <ele>177.5</ele>
        <time>2011-06-13T08:43:55Z</time>
      </trkpt>
      <trkpt lat="45.81596" lon="4.97294">
        <ele>178.8</ele>
        <time>2011-06-13T08:43:56Z</time>
      </trkpt>
      <trkpt lat="45.81601" lon="4.9729">
        <ele>177.3</ele>
        <time>2011-06-13T08:43:57Z</time>
      </trkpt>
      <trkpt lat="45.81603" lon="4.97287">
        <ele>176.5</ele>
        <time>2011-06-13T08:43:58Z</time>
      </trkpt>
      <trkpt lat="45.81604" lon="4.97283">
        <ele>176</ele>
        <time>2011-06-13T08:43:59Z</time>
      </trkpt>
      <trkpt lat="45.81598" lon="4.97279">
        <ele>177</ele>
        <time>2011-06-13T08:44:00Z</time>
      </trkpt>
      <trkpt lat="45.81597" lon="4.97275">
        <ele>175.8</ele>
        <time>2011-06-13T08:44:01Z</time>
      </trkpt>
      <trkpt lat="45.81596" lon="4.97268">
        <ele>177.3</ele>
        <time>2011-06-13T08:44:03Z</time>
      </trkpt>
      <trkpt lat="45.81598" lon="4.97265">
        <ele>176.8</ele>
        <time>2011-06-13T08:44:04Z</time>
      </trkpt>
      <trkpt lat="45.81601" lon="4.9726">
        <ele>176.8</ele>
        <time>2011-06-13T08:44:05Z</time>
      </trkpt>
      <trkpt lat="45.81602" lon="4.97256">
        <ele>176.8</ele>
        <time>2011-06-13T08:44:06Z</time>
      </trkpt>
      <trkpt lat="45.81602" lon="4.97251">
        <ele>177.6</ele>
        <time>2011-06-13T08:44:07Z</time>
      </trkpt>
      <trkpt lat="45.81602" lon="4.97248">
        <ele>176.1</ele>
        <time>2011-06-13T08:44:08Z</time>
      </trkpt>
      <trkpt lat="45.81601" lon="4.97244">
        <ele>175.3</ele>
        <time>2011-06-13T08:44:09Z</time>
      </trkpt>
      <trkpt lat="45.81597" lon="4.97225">
        <ele>176</ele>
        <time>2011-06-13T08:44:14Z</time>
      </trkpt>
      <trkpt lat="45.81597" lon="4.97222">
        <ele>174.3</ele>
        <time>2011-06-13T08:44:15Z</time>
      </trkpt>
      <trkpt lat="45.81597" lon="4.97218">
        <ele>175</ele>
        <time>2011-06-13T08:44:16Z</time>
      </trkpt>
      <trkpt lat="45.81596" lon="4.97215">
        <ele>175</ele>
        <time>2011-06-13T08:44:17Z</time>
      </trkpt>
      <trkpt lat="45.81596" lon="4.97211">
        <ele>174.8</ele>
        <time>2011-06-13T08:44:18Z</time>
      </trkpt>
      <trkpt lat="45.81579" lon="4.9707">
        <ele>171.8</ele>
        <time>2011-06-13T08:44:55Z</time>
      </trkpt>
      <trkpt lat="45.81579" lon="4.97067">
        <ele>172.1</ele>
        <time>2011-06-13T08:44:56Z</time>
      </trkpt>
      <trkpt lat="45.81566" lon="4.96996">
        <ele>169.8</ele>
        <time>2011-06-13T08:45:15Z</time>
      </trkpt>
      <trkpt lat="45.81556" lon="4.96904">
        <ele>169.5</ele>
        <time>2011-06-13T08:45:39Z</time>
      </trkpt>
      <trkpt lat="45.81554" lon="4.96901">
        <ele>169.5</ele>
        <time>2011-06-13T08:45:40Z</time>
      </trkpt>
      <trkpt lat="45.81553" lon="4.96898">
        <ele>169.1</ele>
        <time>2011-06-13T08:45:41Z</time>
      </trkpt>
      <trkpt lat="45.81553" lon="4.96895">
        <ele>167.8</ele>
        <time>2011-06-13T08:45:42Z</time>
      </trkpt>
      <trkpt lat="45.81552" lon="4.96891">
        <ele>167.1</ele>
        <time>2011-06-13T08:45:43Z</time>
      </trkpt>
      <trkpt lat="45.81551" lon="4.96888">
        <ele>166.6</ele>
        <time>2011-06-13T08:45:44Z</time>
      </trkpt>
      <trkpt lat="45.81551" lon="4.96868">
        <ele>169.5</ele>
        <time>2011-06-13T08:45:49Z</time>
      </trkpt>
      <trkpt lat="45.81552" lon="4.96849">
        <ele>171.1</ele>
        <time>2011-06-13T08:45:54Z</time>
      </trkpt>
      <trkpt lat="45.81551" lon="4.96846">
        <ele>171.1</ele>
        <time>2011-06-13T08:45:55Z</time>
      </trkpt>
      <trkpt lat="45.8155" lon="4.96842">
        <ele>171.6</ele>
        <time>2011-06-13T08:45:56Z</time>
      </trkpt>
      <trkpt lat="45.81549" lon="4.96838">
        <ele>171.6</ele>
        <time>2011-06-13T08:45:57Z</time>
      </trkpt>
      <trkpt lat="45.8155" lon="4.9682">
        <ele>172.3</ele>
        <time>2011-06-13T08:46:02Z</time>
      </trkpt>
      <trkpt lat="45.81549" lon="4.96816">
        <ele>172.3</ele>
        <time>2011-06-13T08:46:03Z</time>
      </trkpt>
      <trkpt lat="45.81541" lon="4.96772">
        <ele>169.8</ele>
        <time>2011-06-13T08:46:15Z</time>
      </trkpt>
      <trkpt lat="45.81542" lon="4.96765">
        <ele>169.3</ele>
        <time>2011-06-13T08:46:17Z</time>
      </trkpt>
      <trkpt lat="45.81542" lon="4.9675">
        <ele>171</ele>
        <time>2011-06-13T08:46:21Z</time>
      </trkpt>
      <trkpt lat="45.81541" lon="4.96747">
        <ele>169.8</ele>
        <time>2011-06-13T08:46:22Z</time>
      </trkpt>
      <trkpt lat="45.81542" lon="4.96743">
        <ele>169.3</ele>
        <time>2011-06-13T08:46:23Z</time>
      </trkpt>
      <trkpt lat="45.81542" lon="4.96739">
        <ele>169.1</ele>
        <time>2011-06-13T08:46:24Z</time>
      </trkpt>
      <trkpt lat="45.81542" lon="4.96736">
        <ele>169.5</ele>
        <time>2011-06-13T08:46:25Z</time>
      </trkpt>
      <trkpt lat="45.81542" lon="4.96732">
        <ele>169.3</ele>
        <time>2011-06-13T08:46:26Z</time>
      </trkpt>
      <trkpt lat="45.81541" lon="4.96709">
        <ele>169.6</ele>
        <time>2011-06-13T08:46:32Z</time>
      </trkpt>
      <trkpt lat="45.81539" lon="4.96704">
        <ele>169.8</ele>
        <time>2011-06-13T08:46:33Z</time>
      </trkpt>
      <trkpt lat="45.81539" lon="4.96701">
        <ele>169.6</ele>
        <time>2011-06-13T08:46:34Z</time>
      </trkpt>
      <trkpt lat="45.81538" lon="4.96697">
        <ele>169.6</ele>
        <time>2011-06-13T08:46:35Z</time>
      </trkpt>
      <trkpt lat="45.81535" lon="4.96686">
        <ele>169.6</ele>
        <time>2011-06-13T08:46:38Z</time>
      </trkpt>
      <trkpt lat="45.81534" lon="4.96682">
        <ele>169.6</ele>
        <time>2011-06-13T08:46:39Z</time>
      </trkpt>
      <trkpt lat="45.81534" lon="4.96631">
        <ele>171</ele>
        <time>2011-06-13T08:46:52Z</time>
      </trkpt>
      <trkpt lat="45.8153" lon="4.96621">
        <ele>168.1</ele>
        <time>2011-06-13T08:46:55Z</time>
      </trkpt>
      <trkpt lat="45.81527" lon="4.96617">
        <ele>165.1</ele>
        <time>2011-06-13T08:46:56Z</time>
      </trkpt>
      <trkpt lat="45.81528" lon="4.96613">
        <ele>164.6</ele>
        <time>2011-06-13T08:46:57Z</time>
      </trkpt>
      <trkpt lat="45.81527" lon="4.96609">
        <ele>163.3</ele>
        <time>2011-06-13T08:46:58Z</time>
      </trkpt>
      <trkpt lat="45.81527" lon="4.96605">
        <ele>162.3</ele>
        <time>2011-06-13T08:46:59Z</time>
      </trkpt>
      <trkpt lat="45.81528" lon="4.96601">
        <ele>162.5</ele>
        <time>2011-06-13T08:47:00Z</time>
      </trkpt>
      <trkpt lat="45.81528" lon="4.96597">
        <ele>162.5</ele>
        <time>2011-06-13T08:47:01Z</time>
      </trkpt>
      <trkpt lat="45.81528" lon="4.96593">
        <ele>160.6</ele>
        <time>2011-06-13T08:47:02Z</time>
      </trkpt>
      <trkpt lat="45.81526" lon="4.96557">
        <ele>162.8</ele>
        <time>2011-06-13T08:47:11Z</time>
      </trkpt>
      <trkpt lat="45.81526" lon="4.96545">
        <ele>162.1</ele>
        <time>2011-06-13T08:47:14Z</time>
      </trkpt>
      <trkpt lat="45.81525" lon="4.96529">
        <ele>163.6</ele>
        <time>2011-06-13T08:47:18Z</time>
      </trkpt>
      <trkpt lat="45.81519" lon="4.96428">
        <ele>174.8</ele>
        <time>2011-06-13T08:47:45Z</time>
      </trkpt>
      <trkpt lat="45.81519" lon="4.96424">
        <ele>175.6</ele>
        <time>2011-06-13T08:47:46Z</time>
      </trkpt>
      <trkpt lat="45.81519" lon="4.96421">
        <ele>175.6</ele>
        <time>2011-06-13T08:47:47Z</time>
      </trkpt>
      <trkpt lat="45.81519" lon="4.96416">
        <ele>176.3</ele>
        <time>2011-06-13T08:47:48Z</time>
      </trkpt>
      <trkpt lat="45.81518" lon="4.96412">
        <ele>176</ele>
        <time>2011-06-13T08:47:49Z</time>
      </trkpt>
      <trkpt lat="45.81518" lon="4.96399">
        <ele>176.3</ele>
        <time>2011-06-13T08:47:53Z</time>
      </trkpt>
      <trkpt lat="45.81519" lon="4.96376">
        <ele>173.8</ele>
        <time>2011-06-13T08:47:59Z</time>
      </trkpt>
      <trkpt lat="45.81518" lon="4.96373">
        <ele>173.8</ele>
        <time>2011-06-13T08:48:00Z</time>
      </trkpt>
      <trkpt lat="45.81519" lon="4.96369">
        <ele>172.6</ele>
        <time>2011-06-13T08:48:01Z</time>
      </trkpt>
      <trkpt lat="45.81519" lon="4.96364">
        <ele>172.6</ele>
        <time>2011-06-13T08:48:02Z</time>
      </trkpt>
      <trkpt lat="45.81519" lon="4.96361">
        <ele>172.5</ele>
        <time>2011-06-13T08:48:03Z</time>
      </trkpt>
      <trkpt lat="45.81518" lon="4.96332">
        <ele>173.3</ele>
        <time>2011-06-13T08:48:10Z</time>
      </trkpt>
      <trkpt lat="45.81515" lon="4.96288">
        <ele>173.6</ele>
        <time>2011-06-13T08:48:21Z</time>
      </trkpt>
      <trkpt lat="45.81515" lon="4.96277">
        <ele>173.8</ele>
        <time>2011-06-13T08:48:24Z</time>
      </trkpt>
      <trkpt lat="45.81514" lon="4.96273">
        <ele>174.1</ele>
        <time>2011-06-13T08:48:25Z</time>
      </trkpt>
      <trkpt lat="45.81512" lon="4.96266">
        <ele>173.1</ele>
        <time>2011-06-13T08:48:27Z</time>
      </trkpt>
      <trkpt lat="45.81488" lon="4.96152">
        <ele>174.3</ele>
        <time>2011-06-13T08:48:57Z</time>
      </trkpt>
      <trkpt lat="45.81486" lon="4.96143">
        <ele>174.5</ele>
        <time>2011-06-13T08:49:00Z</time>
      </trkpt>
      <trkpt lat="45.81485" lon="4.9614">
        <ele>174.1</ele>
        <time>2011-06-13T08:49:01Z</time>
      </trkpt>
      <trkpt lat="45.81484" lon="4.96137">
        <ele>173.5</ele>
        <time>2011-06-13T08:49:02Z</time>
      </trkpt>
      <trkpt lat="45.81482" lon="4.9613">
        <ele>173</ele>
        <time>2011-06-13T08:49:04Z</time>
      </trkpt>
      <trkpt lat="45.8148" lon="4.96127">
        <ele>173.1</ele>
        <time>2011-06-13T08:49:05Z</time>
      </trkpt>
      <trkpt lat="45.81478" lon="4.96124">
        <ele>173.5</ele>
        <time>2011-06-13T08:49:06Z</time>
      </trkpt>
      <trkpt lat="45.81476" lon="4.96122">
        <ele>173.5</ele>
        <time>2011-06-13T08:49:07Z</time>
      </trkpt>
      <trkpt lat="45.81473" lon="4.9612">
        <ele>173.6</ele>
        <time>2011-06-13T08:49:08Z</time>
      </trkpt>
      <trkpt lat="45.81453" lon="4.96106">
        <ele>172.8</ele>
        <time>2011-06-13T08:49:16Z</time>
      </trkpt>
      <trkpt lat="45.81447" lon="4.961">
        <ele>172.1</ele>
        <time>2011-06-13T08:49:20Z</time>
      </trkpt>
      <trkpt lat="45.81446" lon="4.96098">
        <ele>171.6</ele>
        <time>2011-06-13T08:49:21Z</time>
      </trkpt>
      <trkpt lat="45.8144" lon="4.96096">
        <ele>171.1</ele>
        <time>2011-06-13T08:49:24Z</time>
      </trkpt>
      <trkpt lat="45.81428" lon="4.96091">
        <ele>170.8</ele>
        <time>2011-06-13T08:49:30Z</time>
      </trkpt>
      <trkpt lat="45.81425" lon="4.9609">
        <ele>170.6</ele>
        <time>2011-06-13T08:49:31Z</time>
      </trkpt>
      <trkpt lat="45.81414" lon="4.96089">
        <ele>171.8</ele>
        <time>2011-06-13T08:49:34Z</time>
      </trkpt>
      <trkpt lat="45.814" lon="4.96088">
        <ele>173.1</ele>
        <time>2011-06-13T08:49:38Z</time>
      </trkpt>
      <trkpt lat="45.81397" lon="4.96087">
        <ele>173.8</ele>
        <time>2011-06-13T08:49:39Z</time>
      </trkpt>
      <trkpt lat="45.81395" lon="4.96087">
        <ele>174.8</ele>
        <time>2011-06-13T08:49:40Z</time>
      </trkpt>
      <trkpt lat="45.81389" lon="4.96087">
        <ele>174.8</ele>
        <time>2011-06-13T08:49:42Z</time>
      </trkpt>
      <trkpt lat="45.81385" lon="4.96088">
        <ele>175.1</ele>
        <time>2011-06-13T08:49:43Z</time>
      </trkpt>
      <trkpt lat="45.81382" lon="4.96087">
        <ele>175.1</ele>
        <time>2011-06-13T08:49:44Z</time>
      </trkpt>
      <trkpt lat="45.81381" lon="4.96086">
        <ele>175.3</ele>
        <time>2011-06-13T08:49:45Z</time>
      </trkpt>
      <trkpt lat="45.8138" lon="4.96085">
        <ele>176.1</ele>
        <time>2011-06-13T08:49:46Z</time>
      </trkpt>
      <trkpt lat="45.81378" lon="4.96086">
        <ele>176.8</ele>
        <time>2011-06-13T08:49:47Z</time>
      </trkpt>
      <trkpt lat="45.81376" lon="4.96085">
        <ele>176.8</ele>
        <time>2011-06-13T08:49:48Z</time>
      </trkpt>
      <trkpt lat="45.81367" lon="4.96085">
        <ele>179.3</ele>
        <time>2011-06-13T08:49:52Z</time>
      </trkpt>
      <trkpt lat="45.81366" lon="4.96084">
        <ele>180.6</ele>
        <time>2011-06-13T08:49:53Z</time>
      </trkpt>
      <trkpt lat="45.81363" lon="4.96083">
        <ele>181.6</ele>
        <time>2011-06-13T08:49:54Z</time>
      </trkpt>
      <trkpt lat="45.8136" lon="4.96082">
        <ele>182.6</ele>
        <time>2011-06-13T08:49:55Z</time>
      </trkpt>
      <trkpt lat="45.81356" lon="4.96082">
        <ele>182.3</ele>
        <time>2011-06-13T08:49:57Z</time>
      </trkpt>
      <trkpt lat="45.81355" lon="4.9608">
        <ele>182.5</ele>
        <time>2011-06-13T08:49:58Z</time>
      </trkpt>
      <trkpt lat="45.81349" lon="4.96077">
        <ele>183</ele>
        <time>2011-06-13T08:50:02Z</time>
      </trkpt>
      <trkpt lat="45.81348" lon="4.96077">
        <ele>183.8</ele>
        <time>2011-06-13T08:50:03Z</time>
      </trkpt>
      <trkpt lat="45.81346" lon="4.96076">
        <ele>184.8</ele>
        <time>2011-06-13T08:50:04Z</time>
      </trkpt>
      <trkpt lat="45.81344" lon="4.96076">
        <ele>184.8</ele>
        <time>2011-06-13T08:50:05Z</time>
      </trkpt>
      <trkpt lat="45.81341" lon="4.96077">
        <ele>184.8</ele>
        <time>2011-06-13T08:50:06Z</time>
      </trkpt>
      <trkpt lat="45.81338" lon="4.96078">
        <ele>186.6</ele>
        <time>2011-06-13T08:50:07Z</time>
      </trkpt>
      <trkpt lat="45.81337" lon="4.96079">
        <ele>189.1</ele>
        <time>2011-06-13T08:50:08Z</time>
      </trkpt>
      <trkpt lat="45.81336" lon="4.9608">
        <ele>190.8</ele>
        <time>2011-06-13T08:50:09Z</time>
      </trkpt>
      <trkpt lat="45.8133" lon="4.96082">
        <ele>199.1</ele>
        <time>2011-06-13T08:50:16Z</time>
      </trkpt>
      <trkpt lat="45.81329" lon="4.96084">
        <ele>201.1</ele>
        <time>2011-06-13T08:50:17Z</time>
      </trkpt>
      <trkpt lat="45.81327" lon="4.96085">
        <ele>202</ele>
        <time>2011-06-13T08:50:18Z</time>
      </trkpt>
      <trkpt lat="45.81317" lon="4.96089">
        <ele>204.5</ele>
        <time>2011-06-13T08:50:22Z</time>
      </trkpt>
      <trkpt lat="45.81314" lon="4.96088">
        <ele>204.3</ele>
        <time>2011-06-13T08:50:23Z</time>
      </trkpt>
      <trkpt lat="45.81312" lon="4.96088">
        <ele>204.8</ele>
        <time>2011-06-13T08:50:24Z</time>
      </trkpt>
      <trkpt lat="45.81304" lon="4.96091">
        <ele>207.3</ele>
        <time>2011-06-13T08:50:28Z</time>
      </trkpt>
      <trkpt lat="45.81303" lon="4.96095">
        <ele>209.3</ele>
        <time>2011-06-13T08:50:29Z</time>
      </trkpt>
      <trkpt lat="45.81296" lon="4.96117">
        <ele>203.3</ele>
        <time>2011-06-13T08:50:35Z</time>
      </trkpt>
      <trkpt lat="45.81294" lon="4.96122">
        <ele>203.8</ele>
        <time>2011-06-13T08:50:36Z</time>
      </trkpt>
      <trkpt lat="45.81292" lon="4.96127">
        <ele>203.1</ele>
        <time>2011-06-13T08:50:37Z</time>
      </trkpt>
      <trkpt lat="45.81291" lon="4.9613">
        <ele>201.3</ele>
        <time>2011-06-13T08:50:38Z</time>
      </trkpt>
      <trkpt lat="45.81286" lon="4.96146">
        <ele>195.3</ele>
        <time>2011-06-13T08:50:42Z</time>
      </trkpt>
      <trkpt lat="45.81264" lon="4.96186">
        <ele>176</ele>
        <time>2011-06-13T08:50:52Z</time>
      </trkpt>
      <trkpt lat="45.81261" lon="4.96189">
        <ele>173.3</ele>
        <time>2011-06-13T08:50:53Z</time>
      </trkpt>
      <trkpt lat="45.81236" lon="4.96213">
        <ele>162.8</ele>
        <time>2011-06-13T08:51:03Z</time>
      </trkpt>
      <trkpt lat="45.8123" lon="4.96222">
        <ele>164.8</ele>
        <time>2011-06-13T08:51:06Z</time>
      </trkpt>
      <trkpt lat="45.81227" lon="4.96224">
        <ele>164.1</ele>
        <time>2011-06-13T08:51:07Z</time>
      </trkpt>
      <trkpt lat="45.81213" lon="4.96243">
        <ele>161.5</ele>
        <time>2011-06-13T08:51:13Z</time>
      </trkpt>
      <trkpt lat="45.8121" lon="4.96244">
        <ele>161.1</ele>
        <time>2011-06-13T08:51:14Z</time>
      </trkpt>
      <trkpt lat="45.81179" lon="4.9626">
        <ele>164.6</ele>
        <time>2011-06-13T08:51:24Z</time>
      </trkpt>
      <trkpt lat="45.81138" lon="4.96299">
        <ele>169.1</ele>
        <time>2011-06-13T08:51:38Z</time>
      </trkpt>
      <trkpt lat="45.81147" lon="4.96301">
        <ele>171.1</ele>
        <time>2011-06-13T08:51:39Z</time>
      </trkpt>
      <trkpt lat="45.81152" lon="4.96301">
        <ele>172</ele>
        <time>2011-06-13T08:51:40Z</time>
      </trkpt>
      <trkpt lat="45.81158" lon="4.96298">
        <ele>173.8</ele>
        <time>2011-06-13T08:51:41Z</time>
      </trkpt>
      <trkpt lat="45.8116" lon="4.963">
        <ele>174</ele>
        <time>2011-06-13T08:51:42Z</time>
      </trkpt>
      <trkpt lat="45.81156" lon="4.96304">
        <ele>173.8</ele>
        <time>2011-06-13T08:51:43Z</time>
      </trkpt>
      <trkpt lat="45.81149" lon="4.9631">
        <ele>174.5</ele>
        <time>2011-06-13T08:51:46Z</time>
      </trkpt>
      <trkpt lat="45.81147" lon="4.96314">
        <ele>174.5</ele>
        <time>2011-06-13T08:51:47Z</time>
      </trkpt>
      <trkpt lat="45.81134" lon="4.96343">
        <ele>179.6</ele>
        <time>2011-06-13T08:51:54Z</time>
      </trkpt>
      <trkpt lat="45.81137" lon="4.96345">
        <ele>178.8</ele>
        <time>2011-06-13T08:51:55Z</time>
      </trkpt>
      <trkpt lat="45.81137" lon="4.96349">
        <ele>177.8</ele>
        <time>2011-06-13T08:51:56Z</time>
      </trkpt>
      <trkpt lat="45.8114" lon="4.9636">
        <ele>176</ele>
        <time>2011-06-13T08:51:59Z</time>
      </trkpt>
      <trkpt lat="45.81138" lon="4.96364">
        <ele>177.1</ele>
        <time>2011-06-13T08:52:00Z</time>
      </trkpt>
      <trkpt lat="45.81139" lon="4.9637">
        <ele>178.1</ele>
        <time>2011-06-13T08:52:02Z</time>
      </trkpt>
      <trkpt lat="45.8114" lon="4.96373">
        <ele>179.3</ele>
        <time>2011-06-13T08:52:03Z</time>
      </trkpt>
      <trkpt lat="45.81141" lon="4.96377">
        <ele>179.1</ele>
        <time>2011-06-13T08:52:04Z</time>
      </trkpt>
      <trkpt lat="45.81142" lon="4.96381">
        <ele>179.8</ele>
        <time>2011-06-13T08:52:05Z</time>
      </trkpt>
      <trkpt lat="45.81142" lon="4.96385">
        <ele>179</ele>
        <time>2011-06-13T08:52:06Z</time>
      </trkpt>
      <trkpt lat="45.81142" lon="4.9639">
        <ele>179.3</ele>
        <time>2011-06-13T08:52:07Z</time>
      </trkpt>
      <trkpt lat="45.81142" lon="4.96395">
        <ele>179.6</ele>
        <time>2011-06-13T08:52:08Z</time>
      </trkpt>
      <trkpt lat="45.81144" lon="4.96419">
        <ele>177.3</ele>
        <time>2011-06-13T08:52:14Z</time>
      </trkpt>
      <trkpt lat="45.81144" lon="4.96424">
        <ele>176.5</ele>
        <time>2011-06-13T08:52:15Z</time>
      </trkpt>
      <trkpt lat="45.81144" lon="4.96428">
        <ele>177</ele>
        <time>2011-06-13T08:52:16Z</time>
      </trkpt>
      <trkpt lat="45.8114" lon="4.96443">
        <ele>180.5</ele>
        <time>2011-06-13T08:52:20Z</time>
      </trkpt>
      <trkpt lat="45.81139" lon="4.96447">
        <ele>180.1</ele>
        <time>2011-06-13T08:52:21Z</time>
      </trkpt>
      <trkpt lat="45.81128" lon="4.96473">
        <ele>177.3</ele>
        <time>2011-06-13T08:52:29Z</time>
      </trkpt>
      <trkpt lat="45.81123" lon="4.9648">
        <ele>175.5</ele>
        <time>2011-06-13T08:52:32Z</time>
      </trkpt>
      <trkpt lat="45.81116" lon="4.96496">
        <ele>178</ele>
        <time>2011-06-13T08:52:36Z</time>
      </trkpt>
      <trkpt lat="45.81112" lon="4.96507">
        <ele>179.8</ele>
        <time>2011-06-13T08:52:40Z</time>
      </trkpt>
      <trkpt lat="45.81111" lon="4.9651">
        <ele>179.6</ele>
        <time>2011-06-13T08:52:41Z</time>
      </trkpt>
      <trkpt lat="45.81111" lon="4.96514">
        <ele>180.1</ele>
        <time>2011-06-13T08:52:43Z</time>
      </trkpt>
      <trkpt lat="45.81109" lon="4.96516">
        <ele>179.6</ele>
        <time>2011-06-13T08:52:44Z</time>
      </trkpt>
      <trkpt lat="45.81107" lon="4.96524">
        <ele>179.3</ele>
        <time>2011-06-13T08:52:47Z</time>
      </trkpt>
      <trkpt lat="45.81103" lon="4.9653">
        <ele>179.5</ele>
        <time>2011-06-13T08:52:49Z</time>
      </trkpt>
      <trkpt lat="45.81101" lon="4.96533">
        <ele>179.3</ele>
        <time>2011-06-13T08:52:50Z</time>
      </trkpt>
      <trkpt lat="45.81095" lon="4.96547">
        <ele>178.1</ele>
        <time>2011-06-13T08:52:54Z</time>
      </trkpt>
      <trkpt lat="45.81092" lon="4.96549">
        <ele>177.8</ele>
        <time>2011-06-13T08:52:55Z</time>
      </trkpt>
      <trkpt lat="45.81087" lon="4.96558">
        <ele>177.6</ele>
        <time>2011-06-13T08:52:57Z</time>
      </trkpt>
      <trkpt lat="45.81079" lon="4.96574">
        <ele>177.1</ele>
        <time>2011-06-13T08:53:00Z</time>
      </trkpt>
      <trkpt lat="45.81071" lon="4.96582">
        <ele>175.1</ele>
        <time>2011-06-13T08:53:03Z</time>
      </trkpt>
      <trkpt lat="45.8107" lon="4.96583">
        <ele>174</ele>
        <time>2011-06-13T08:53:04Z</time>
      </trkpt>
      <trkpt lat="45.81066" lon="4.96592">
        <ele>174.8</ele>
        <time>2011-06-13T08:53:07Z</time>
      </trkpt>
      <trkpt lat="45.81051" lon="4.96633">
        <ele>180.3</ele>
        <time>2011-06-13T08:53:20Z</time>
      </trkpt>
      <trkpt lat="45.8105" lon="4.96636">
        <ele>181.3</ele>
        <time>2011-06-13T08:53:21Z</time>
      </trkpt>
      <trkpt lat="45.81037" lon="4.96659">
        <ele>182.1</ele>
        <time>2011-06-13T08:53:28Z</time>
      </trkpt>
      <trkpt lat="45.81035" lon="4.96665">
        <ele>180.6</ele>
        <time>2011-06-13T08:53:31Z</time>
      </trkpt>
      <trkpt lat="45.81034" lon="4.96667">
        <ele>180.3</ele>
        <time>2011-06-13T08:53:32Z</time>
      </trkpt>
      <trkpt lat="45.81033" lon="4.9667">
        <ele>180.5</ele>
        <time>2011-06-13T08:53:33Z</time>
      </trkpt>
      <trkpt lat="45.81029" lon="4.9668">
        <ele>180.8</ele>
        <time>2011-06-13T08:53:36Z</time>
      </trkpt>
      <trkpt lat="45.81027" lon="4.96684">
        <ele>180.5</ele>
        <time>2011-06-13T08:53:37Z</time>
      </trkpt>
      <trkpt lat="45.81025" lon="4.96686">
        <ele>180.5</ele>
        <time>2011-06-13T08:53:38Z</time>
      </trkpt>
      <trkpt lat="45.8102" lon="4.96693">
        <ele>180.1</ele>
        <time>2011-06-13T08:53:41Z</time>
      </trkpt>
      <trkpt lat="45.81018" lon="4.96697">
        <ele>180.1</ele>
        <time>2011-06-13T08:53:42Z</time>
      </trkpt>
      <trkpt lat="45.81015" lon="4.96702">
        <ele>178.5</ele>
        <time>2011-06-13T08:53:44Z</time>
      </trkpt>
      <trkpt lat="45.81012" lon="4.96706">
        <ele>178.6</ele>
        <time>2011-06-13T08:53:45Z</time>
      </trkpt>
      <trkpt lat="45.81008" lon="4.96712">
        <ele>177.3</ele>
        <time>2011-06-13T08:53:47Z</time>
      </trkpt>
      <trkpt lat="45.81005" lon="4.9672">
        <ele>176.1</ele>
        <time>2011-06-13T08:53:50Z</time>
      </trkpt>
      <trkpt lat="45.81003" lon="4.96728">
        <ele>179.3</ele>
        <time>2011-06-13T08:53:52Z</time>
      </trkpt>
      <trkpt lat="45.81" lon="4.96735">
        <ele>181</ele>
        <time>2011-06-13T08:53:54Z</time>
      </trkpt>
      <trkpt lat="45.80989" lon="4.96753">
        <ele>184.6</ele>
        <time>2011-06-13T08:53:59Z</time>
      </trkpt>
      <trkpt lat="45.80983" lon="4.96761">
        <ele>185.8</ele>
        <time>2011-06-13T08:54:01Z</time>
      </trkpt>
      <trkpt lat="45.8098" lon="4.96765">
        <ele>185.3</ele>
        <time>2011-06-13T08:54:02Z</time>
      </trkpt>
      <trkpt lat="45.80975" lon="4.96771">
        <ele>185.3</ele>
        <time>2011-06-13T08:54:04Z</time>
      </trkpt>
      <trkpt lat="45.80973" lon="4.96775">
        <ele>184.8</ele>
        <time>2011-06-13T08:54:05Z</time>
      </trkpt>
      <trkpt lat="45.80963" lon="4.96789">
        <ele>184.1</ele>
        <time>2011-06-13T08:54:09Z</time>
      </trkpt>
      <trkpt lat="45.8095" lon="4.96802">
        <ele>184.3</ele>
        <time>2011-06-13T08:54:13Z</time>
      </trkpt>
      <trkpt lat="45.80921" lon="4.96832">
        <ele>183</ele>
        <time>2011-06-13T08:54:21Z</time>
      </trkpt>
      <trkpt lat="45.80919" lon="4.96837">
        <ele>183</ele>
        <time>2011-06-13T08:54:22Z</time>
      </trkpt>
      <trkpt lat="45.80927" lon="4.96846">
        <ele>181.5</ele>
        <time>2011-06-13T08:54:24Z</time>
      </trkpt>
      <trkpt lat="45.80925" lon="4.96849">
        <ele>181.1</ele>
        <time>2011-06-13T08:54:25Z</time>
      </trkpt>
      <trkpt lat="45.80928" lon="4.96853">
        <ele>180.1</ele>
        <time>2011-06-13T08:54:26Z</time>
      </trkpt>
      <trkpt lat="45.80923" lon="4.96857">
        <ele>180.1</ele>
        <time>2011-06-13T08:54:27Z</time>
      </trkpt>
      <trkpt lat="45.80919" lon="4.96861">
        <ele>180.6</ele>
        <time>2011-06-13T08:54:28Z</time>
      </trkpt>
      <trkpt lat="45.80918" lon="4.96866">
        <ele>180.8</ele>
        <time>2011-06-13T08:54:29Z</time>
      </trkpt>
      <trkpt lat="45.80917" lon="4.96878">
        <ele>179.5</ele>
        <time>2011-06-13T08:54:32Z</time>
      </trkpt>
      <trkpt lat="45.80916" lon="4.96883">
        <ele>179.1</ele>
        <time>2011-06-13T08:54:33Z</time>
      </trkpt>
      <trkpt lat="45.80915" lon="4.96887">
        <ele>179.6</ele>
        <time>2011-06-13T08:54:34Z</time>
      </trkpt>
      <trkpt lat="45.80914" lon="4.96891">
        <ele>179.6</ele>
        <time>2011-06-13T08:54:35Z</time>
      </trkpt>
      <trkpt lat="45.80914" lon="4.96902">
        <ele>177.5</ele>
        <time>2011-06-13T08:54:38Z</time>
      </trkpt>
      <trkpt lat="45.80912" lon="4.96907">
        <ele>177.5</ele>
        <time>2011-06-13T08:54:39Z</time>
      </trkpt>
      <trkpt lat="45.80912" lon="4.9691">
        <ele>178.6</ele>
        <time>2011-06-13T08:54:40Z</time>
      </trkpt>
      <trkpt lat="45.80912" lon="4.96913">
        <ele>178.6</ele>
        <time>2011-06-13T08:54:41Z</time>
      </trkpt>
      <trkpt lat="45.80912" lon="4.96917">
        <ele>178</ele>
        <time>2011-06-13T08:54:42Z</time>
      </trkpt>
      <trkpt lat="45.8091" lon="4.96921">
        <ele>177.6</ele>
        <time>2011-06-13T08:54:43Z</time>
      </trkpt>
      <trkpt lat="45.8091" lon="4.96924">
        <ele>176.8</ele>
        <time>2011-06-13T08:54:44Z</time>
      </trkpt>
      <trkpt lat="45.80907" lon="4.96932">
        <ele>176.6</ele>
        <time>2011-06-13T08:54:46Z</time>
      </trkpt>
      <trkpt lat="45.80907" lon="4.96935">
        <ele>176.1</ele>
        <time>2011-06-13T08:54:47Z</time>
      </trkpt>
      <trkpt lat="45.80908" lon="4.96939">
        <ele>175.5</ele>
        <time>2011-06-13T08:54:48Z</time>
      </trkpt>
      <trkpt lat="45.80907" lon="4.96943">
        <ele>175.6</ele>
        <time>2011-06-13T08:54:49Z</time>
      </trkpt>
      <trkpt lat="45.80905" lon="4.96964">
        <ele>175</ele>
        <time>2011-06-13T08:54:55Z</time>
      </trkpt>
      <trkpt lat="45.80904" lon="4.96967">
        <ele>174.8</ele>
        <time>2011-06-13T08:54:56Z</time>
      </trkpt>
      <trkpt lat="45.80896" lon="4.96994">
        <ele>172</ele>
        <time>2011-06-13T08:55:04Z</time>
      </trkpt>
      <trkpt lat="45.80896" lon="4.96998">
        <ele>171.5</ele>
        <time>2011-06-13T08:55:05Z</time>
      </trkpt>
      <trkpt lat="45.80896" lon="4.97001">
        <ele>170.8</ele>
        <time>2011-06-13T08:55:06Z</time>
      </trkpt>
      <trkpt lat="45.80889" lon="4.9702">
        <ele>169.3</ele>
        <time>2011-06-13T08:55:11Z</time>
      </trkpt>
      <trkpt lat="45.80887" lon="4.97027">
        <ele>169.6</ele>
        <time>2011-06-13T08:55:13Z</time>
      </trkpt>
      <trkpt lat="45.80887" lon="4.9703">
        <ele>169.3</ele>
        <time>2011-06-13T08:55:14Z</time>
      </trkpt>
      <trkpt lat="45.80886" lon="4.97034">
        <ele>170</ele>
        <time>2011-06-13T08:55:15Z</time>
      </trkpt>
      <trkpt lat="45.80886" lon="4.97038">
        <ele>170.5</ele>
        <time>2011-06-13T08:55:16Z</time>
      </trkpt>
      <trkpt lat="45.80884" lon="4.97044">
        <ele>170.8</ele>
        <time>2011-06-13T08:55:18Z</time>
      </trkpt>
      <trkpt lat="45.80883" lon="4.97047">
        <ele>170.8</ele>
        <time>2011-06-13T08:55:19Z</time>
      </trkpt>
      <trkpt lat="45.80871" lon="4.97072">
        <ele>171.8</ele>
        <time>2011-06-13T08:55:27Z</time>
      </trkpt>
      <trkpt lat="45.80869" lon="4.97076">
        <ele>171.8</ele>
        <time>2011-06-13T08:55:28Z</time>
      </trkpt>
      <trkpt lat="45.80867" lon="4.9708">
        <ele>172.5</ele>
        <time>2011-06-13T08:55:29Z</time>
      </trkpt>
      <trkpt lat="45.80849" lon="4.9711">
        <ele>174.6</ele>
        <time>2011-06-13T08:55:39Z</time>
      </trkpt>
      <trkpt lat="45.80844" lon="4.97118">
        <ele>174</ele>
        <time>2011-06-13T08:55:42Z</time>
      </trkpt>
      <trkpt lat="45.80838" lon="4.97124">
        <ele>173.8</ele>
        <time>2011-06-13T08:55:45Z</time>
      </trkpt>
      <trkpt lat="45.80833" lon="4.97128">
        <ele>173.8</ele>
        <time>2011-06-13T08:55:47Z</time>
      </trkpt>
      <trkpt lat="45.8083" lon="4.9713">
        <ele>173.6</ele>
        <time>2011-06-13T08:55:48Z</time>
      </trkpt>
      <trkpt lat="45.80825" lon="4.97131">
        <ele>173.5</ele>
        <time>2011-06-13T08:55:50Z</time>
      </trkpt>
      <trkpt lat="45.80822" lon="4.97131">
        <ele>173.5</ele>
        <time>2011-06-13T08:55:51Z</time>
      </trkpt>
      <trkpt lat="45.80816" lon="4.97132">
        <ele>172.6</ele>
        <time>2011-06-13T08:55:53Z</time>
      </trkpt>
      <trkpt lat="45.80814" lon="4.97132">
        <ele>171.1</ele>
        <time>2011-06-13T08:55:54Z</time>
      </trkpt>
      <trkpt lat="45.80811" lon="4.97131">
        <ele>170.6</ele>
        <time>2011-06-13T08:55:55Z</time>
      </trkpt>
      <trkpt lat="45.80806" lon="4.97128">
        <ele>169.3</ele>
        <time>2011-06-13T08:55:57Z</time>
      </trkpt>
      <trkpt lat="45.80804" lon="4.97126">
        <ele>169</ele>
        <time>2011-06-13T08:55:58Z</time>
      </trkpt>
      <trkpt lat="45.80802" lon="4.97125">
        <ele>169</ele>
        <time>2011-06-13T08:55:59Z</time>
      </trkpt>
      <trkpt lat="45.80799" lon="4.97122">
        <ele>169.1</ele>
        <time>2011-06-13T08:56:00Z</time>
      </trkpt>
      <trkpt lat="45.80791" lon="4.97119">
        <ele>167.6</ele>
        <time>2011-06-13T08:56:03Z</time>
      </trkpt>
      <trkpt lat="45.80788" lon="4.97117">
        <ele>167.1</ele>
        <time>2011-06-13T08:56:04Z</time>
      </trkpt>
      <trkpt lat="45.80786" lon="4.97116">
        <ele>166.6</ele>
        <time>2011-06-13T08:56:05Z</time>
      </trkpt>
      <trkpt lat="45.8075" lon="4.97099">
        <ele>167.5</ele>
        <time>2011-06-13T08:56:18Z</time>
      </trkpt>
      <trkpt lat="45.80746" lon="4.97099">
        <ele>167.5</ele>
        <time>2011-06-13T08:56:19Z</time>
      </trkpt>
      <trkpt lat="45.80737" lon="4.97097">
        <ele>172.6</ele>
        <time>2011-06-13T08:56:22Z</time>
      </trkpt>
      <trkpt lat="45.80735" lon="4.97099">
        <ele>172.3</ele>
        <time>2011-06-13T08:56:23Z</time>
      </trkpt>
      <trkpt lat="45.80731" lon="4.97104">
        <ele>171.8</ele>
        <time>2011-06-13T08:56:25Z</time>
      </trkpt>
      <trkpt lat="45.80724" lon="4.97111">
        <ele>173.5</ele>
        <time>2011-06-13T08:56:28Z</time>
      </trkpt>
      <trkpt lat="45.80723" lon="4.97114">
        <ele>173.1</ele>
        <time>2011-06-13T08:56:29Z</time>
      </trkpt>
      <trkpt lat="45.80721" lon="4.97117">
        <ele>173.3</ele>
        <time>2011-06-13T08:56:30Z</time>
      </trkpt>
      <trkpt lat="45.80709" lon="4.97136">
        <ele>172.3</ele>
        <time>2011-06-13T08:56:36Z</time>
      </trkpt>
      <trkpt lat="45.80702" lon="4.97149">
        <ele>170.1</ele>
        <time>2011-06-13T08:56:40Z</time>
      </trkpt>
      <trkpt lat="45.80701" lon="4.97151">
        <ele>170</ele>
        <time>2011-06-13T08:56:41Z</time>
      </trkpt>
      <trkpt lat="45.80692" lon="4.97175">
        <ele>166.6</ele>
        <time>2011-06-13T08:56:49Z</time>
      </trkpt>
      <trkpt lat="45.8069" lon="4.97182">
        <ele>166.3</ele>
        <time>2011-06-13T08:56:51Z</time>
      </trkpt>
      <trkpt lat="45.80689" lon="4.97185">
        <ele>166.5</ele>
        <time>2011-06-13T08:56:52Z</time>
      </trkpt>
      <trkpt lat="45.80688" lon="4.97188">
        <ele>166.3</ele>
        <time>2011-06-13T08:56:53Z</time>
      </trkpt>
      <trkpt lat="45.80682" lon="4.97202">
        <ele>166.8</ele>
        <time>2011-06-13T08:56:57Z</time>
      </trkpt>
      <trkpt lat="45.8068" lon="4.97205">
        <ele>167.5</ele>
        <time>2011-06-13T08:56:58Z</time>
      </trkpt>
      <trkpt lat="45.80679" lon="4.97209">
        <ele>167.1</ele>
        <time>2011-06-13T08:56:59Z</time>
      </trkpt>
      <trkpt lat="45.80677" lon="4.97216">
        <ele>166.8</ele>
        <time>2011-06-13T08:57:01Z</time>
      </trkpt>
      <trkpt lat="45.80677" lon="4.97224">
        <ele>166.3</ele>
        <time>2011-06-13T08:57:03Z</time>
      </trkpt>
      <trkpt lat="45.80676" lon="4.97229">
        <ele>167.6</ele>
        <time>2011-06-13T08:57:04Z</time>
      </trkpt>
      <trkpt lat="45.80675" lon="4.97233">
        <ele>167.8</ele>
        <time>2011-06-13T08:57:05Z</time>
      </trkpt>
      <trkpt lat="45.8067" lon="4.9724">
        <ele>167.8</ele>
        <time>2011-06-13T08:57:07Z</time>
      </trkpt>
      <trkpt lat="45.80659" lon="4.97254">
        <ele>170.5</ele>
        <time>2011-06-13T08:57:11Z</time>
      </trkpt>
      <trkpt lat="45.80657" lon="4.97255">
        <ele>170.1</ele>
        <time>2011-06-13T08:57:12Z</time>
      </trkpt>
      <trkpt lat="45.80652" lon="4.97259">
        <ele>170.8</ele>
        <time>2011-06-13T08:57:14Z</time>
      </trkpt>
      <trkpt lat="45.80649" lon="4.97261">
        <ele>170.6</ele>
        <time>2011-06-13T08:57:15Z</time>
      </trkpt>
      <trkpt lat="45.80641" lon="4.97266">
        <ele>169.8</ele>
        <time>2011-06-13T08:57:19Z</time>
      </trkpt>
      <trkpt lat="45.80638" lon="4.97268">
        <ele>169.6</ele>
        <time>2011-06-13T08:57:20Z</time>
      </trkpt>
      <trkpt lat="45.80622" lon="4.97276">
        <ele>169.1</ele>
        <time>2011-06-13T08:57:26Z</time>
      </trkpt>
      <trkpt lat="45.80618" lon="4.97277">
        <ele>169.1</ele>
        <time>2011-06-13T08:57:28Z</time>
      </trkpt>
      <trkpt lat="45.80612" lon="4.97278">
        <ele>168.6</ele>
        <time>2011-06-13T08:57:30Z</time>
      </trkpt>
      <trkpt lat="45.80609" lon="4.97278">
        <ele>169</ele>
        <time>2011-06-13T08:57:31Z</time>
      </trkpt>
      <trkpt lat="45.80598" lon="4.97277">
        <ele>169.3</ele>
        <time>2011-06-13T08:57:35Z</time>
      </trkpt>
      <trkpt lat="45.80587" lon="4.97272">
        <ele>171.6</ele>
        <time>2011-06-13T08:57:39Z</time>
      </trkpt>
      <trkpt lat="45.8057" lon="4.9726">
        <ele>170</ele>
        <time>2011-06-13T08:57:46Z</time>
      </trkpt>
      <trkpt lat="45.80549" lon="4.97247">
        <ele>169.8</ele>
        <time>2011-06-13T08:57:54Z</time>
      </trkpt>
      <trkpt lat="45.80529" lon="4.97235">
        <ele>166</ele>
        <time>2011-06-13T08:58:01Z</time>
      </trkpt>
      <trkpt lat="45.80501" lon="4.97222">
        <ele>162.6</ele>
        <time>2011-06-13T08:58:10Z</time>
      </trkpt>
      <trkpt lat="45.80463" lon="4.97202">
        <ele>160.3</ele>
        <time>2011-06-13T08:58:22Z</time>
      </trkpt>
      <trkpt lat="45.80452" lon="4.97194">
        <ele>160.1</ele>
        <time>2011-06-13T08:58:26Z</time>
      </trkpt>
      <trkpt lat="45.80437" lon="4.97186">
        <ele>159.6</ele>
        <time>2011-06-13T08:58:31Z</time>
      </trkpt>
      <trkpt lat="45.80434" lon="4.97185">
        <ele>159.6</ele>
        <time>2011-06-13T08:58:32Z</time>
      </trkpt>
      <trkpt lat="45.80283" lon="4.97106">
        <ele>161.8</ele>
        <time>2011-06-13T08:59:29Z</time>
      </trkpt>
      <trkpt lat="45.8028" lon="4.97104">
        <ele>162.6</ele>
        <time>2011-06-13T08:59:30Z</time>
      </trkpt>
      <trkpt lat="45.80275" lon="4.971">
        <ele>163.1</ele>
        <time>2011-06-13T08:59:32Z</time>
      </trkpt>
      <trkpt lat="45.80272" lon="4.97098">
        <ele>163.1</ele>
        <time>2011-06-13T08:59:33Z</time>
      </trkpt>
      <trkpt lat="45.80259" lon="4.97082">
        <ele>162.1</ele>
        <time>2011-06-13T08:59:39Z</time>
      </trkpt>
      <trkpt lat="45.80248" lon="4.97068">
        <ele>164.1</ele>
        <time>2011-06-13T08:59:44Z</time>
      </trkpt>
      <trkpt lat="45.80243" lon="4.97061">
        <ele>167.8</ele>
        <time>2011-06-13T08:59:46Z</time>
      </trkpt>
      <trkpt lat="45.80241" lon="4.97058">
        <ele>168.3</ele>
        <time>2011-06-13T08:59:47Z</time>
      </trkpt>
      <trkpt lat="45.80236" lon="4.97047">
        <ele>170.3</ele>
        <time>2011-06-13T08:59:50Z</time>
      </trkpt>
      <trkpt lat="45.80235" lon="4.97043">
        <ele>169.8</ele>
        <time>2011-06-13T08:59:51Z</time>
      </trkpt>
      <trkpt lat="45.80236" lon="4.97031">
        <ele>168.6</ele>
        <time>2011-06-13T08:59:54Z</time>
      </trkpt>
      <trkpt lat="45.80236" lon="4.97026">
        <ele>169.6</ele>
        <time>2011-06-13T08:59:55Z</time>
      </trkpt>
      <trkpt lat="45.80236" lon="4.97022">
        <ele>171.3</ele>
        <time>2011-06-13T08:59:56Z</time>
      </trkpt>
      <trkpt lat="45.80237" lon="4.97019">
        <ele>172.6</ele>
        <time>2011-06-13T08:59:57Z</time>
      </trkpt>
      <trkpt lat="45.80239" lon="4.97017">
        <ele>173</ele>
        <time>2011-06-13T08:59:58Z</time>
      </trkpt>
      <trkpt lat="45.80242" lon="4.97012">
        <ele>173.6</ele>
        <time>2011-06-13T09:00:00Z</time>
      </trkpt>
      <trkpt lat="45.80246" lon="4.97007">
        <ele>174.6</ele>
        <time>2011-06-13T09:00:02Z</time>
      </trkpt>
      <trkpt lat="45.80248" lon="4.97004">
        <ele>175.3</ele>
        <time>2011-06-13T09:00:03Z</time>
      </trkpt>
      <trkpt lat="45.80253" lon="4.96998">
        <ele>174.3</ele>
        <time>2011-06-13T09:00:05Z</time>
      </trkpt>
      <trkpt lat="45.80255" lon="4.96996">
        <ele>174.3</ele>
        <time>2011-06-13T09:00:06Z</time>
      </trkpt>
      <trkpt lat="45.80257" lon="4.96992">
        <ele>172.8</ele>
        <time>2011-06-13T09:00:07Z</time>
      </trkpt>
      <trkpt lat="45.80258" lon="4.96989">
        <ele>172.8</ele>
        <time>2011-06-13T09:00:08Z</time>
      </trkpt>
      <trkpt lat="45.80263" lon="4.96978">
        <ele>170.3</ele>
        <time>2011-06-13T09:00:11Z</time>
      </trkpt>
      <trkpt lat="45.80281" lon="4.96928">
        <ele>168.1</ele>
        <time>2011-06-13T09:00:25Z</time>
      </trkpt>
      <trkpt lat="45.80281" lon="4.96925">
        <ele>167.8</ele>
        <time>2011-06-13T09:00:26Z</time>
      </trkpt>
      <trkpt lat="45.80282" lon="4.96918">
        <ele>168.1</ele>
        <time>2011-06-13T09:00:28Z</time>
      </trkpt>
      <trkpt lat="45.80283" lon="4.9691">
        <ele>165.6</ele>
        <time>2011-06-13T09:00:30Z</time>
      </trkpt>
      <trkpt lat="45.80283" lon="4.96907">
        <ele>165.1</ele>
        <time>2011-06-13T09:00:31Z</time>
      </trkpt>
      <trkpt lat="45.80282" lon="4.96898">
        <ele>165.8</ele>
        <time>2011-06-13T09:00:33Z</time>
      </trkpt>
      <trkpt lat="45.80281" lon="4.96894">
        <ele>166.5</ele>
        <time>2011-06-13T09:00:34Z</time>
      </trkpt>
      <trkpt lat="45.80282" lon="4.9689">
        <ele>165.1</ele>
        <time>2011-06-13T09:00:35Z</time>
      </trkpt>
      <trkpt lat="45.80283" lon="4.96875">
        <ele>165.6</ele>
        <time>2011-06-13T09:00:39Z</time>
      </trkpt>
      <trkpt lat="45.80287" lon="4.96837">
        <ele>163.3</ele>
        <time>2011-06-13T09:00:48Z</time>
      </trkpt>
      <trkpt lat="45.80288" lon="4.96833">
        <ele>162.3</ele>
        <time>2011-06-13T09:00:49Z</time>
      </trkpt>
      <trkpt lat="45.80294" lon="4.96791">
        <ele>162.8</ele>
        <time>2011-06-13T09:00:58Z</time>
      </trkpt>
      <trkpt lat="45.80295" lon="4.96787">
        <ele>162.8</ele>
        <time>2011-06-13T09:00:59Z</time>
      </trkpt>
      <trkpt lat="45.80296" lon="4.96783">
        <ele>164.1</ele>
        <time>2011-06-13T09:01:00Z</time>
      </trkpt>
      <trkpt lat="45.80298" lon="4.9678">
        <ele>164.1</ele>
        <time>2011-06-13T09:01:01Z</time>
      </trkpt>
      <trkpt lat="45.803" lon="4.96776">
        <ele>164.8</ele>
        <time>2011-06-13T09:01:02Z</time>
      </trkpt>
      <trkpt lat="45.80302" lon="4.96773">
        <ele>164.8</ele>
        <time>2011-06-13T09:01:03Z</time>
      </trkpt>
      <trkpt lat="45.80304" lon="4.9677">
        <ele>165.3</ele>
        <time>2011-06-13T09:01:04Z</time>
      </trkpt>
      <trkpt lat="45.80307" lon="4.96767">
        <ele>165.3</ele>
        <time>2011-06-13T09:01:05Z</time>
      </trkpt>
      <trkpt lat="45.80309" lon="4.96763">
        <ele>165.3</ele>
        <time>2011-06-13T09:01:06Z</time>
      </trkpt>
      <trkpt lat="45.80311" lon="4.9676">
        <ele>165.3</ele>
        <time>2011-06-13T09:01:07Z</time>
      </trkpt>
      <trkpt lat="45.80313" lon="4.96757">
        <ele>168.8</ele>
        <time>2011-06-13T09:01:08Z</time>
      </trkpt>
      <trkpt lat="45.80315" lon="4.96756">
        <ele>170</ele>
        <time>2011-06-13T09:01:09Z</time>
      </trkpt>
      <trkpt lat="45.80318" lon="4.96754">
        <ele>170.1</ele>
        <time>2011-06-13T09:01:10Z</time>
      </trkpt>
      <trkpt lat="45.80323" lon="4.96748">
        <ele>173.6</ele>
        <time>2011-06-13T09:01:13Z</time>
      </trkpt>
      <trkpt lat="45.80326" lon="4.96746">
        <ele>173.6</ele>
        <time>2011-06-13T09:01:14Z</time>
      </trkpt>
      <trkpt lat="45.80328" lon="4.96744">
        <ele>173.8</ele>
        <time>2011-06-13T09:01:15Z</time>
      </trkpt>
      <trkpt lat="45.80331" lon="4.96741">
        <ele>173.5</ele>
        <time>2011-06-13T09:01:16Z</time>
      </trkpt>
      <trkpt lat="45.80334" lon="4.96738">
        <ele>173.1</ele>
        <time>2011-06-13T09:01:17Z</time>
      </trkpt>
      <trkpt lat="45.80337" lon="4.96737">
        <ele>173</ele>
        <time>2011-06-13T09:01:18Z</time>
      </trkpt>
      <trkpt lat="45.80339" lon="4.96734">
        <ele>171.6</ele>
        <time>2011-06-13T09:01:19Z</time>
      </trkpt>
      <trkpt lat="45.80342" lon="4.96732">
        <ele>170.6</ele>
        <time>2011-06-13T09:01:20Z</time>
      </trkpt>
      <trkpt lat="45.80369" lon="4.96704">
        <ele>170</ele>
        <time>2011-06-13T09:01:33Z</time>
      </trkpt>
      <trkpt lat="45.80384" lon="4.96685">
        <ele>171.8</ele>
        <time>2011-06-13T09:01:40Z</time>
      </trkpt>
      <trkpt lat="45.80385" lon="4.96683">
        <ele>171.1</ele>
        <time>2011-06-13T09:01:41Z</time>
      </trkpt>
      <trkpt lat="45.80391" lon="4.96675">
        <ele>172.5</ele>
        <time>2011-06-13T09:01:44Z</time>
      </trkpt>
      <trkpt lat="45.80393" lon="4.96673">
        <ele>172.3</ele>
        <time>2011-06-13T09:01:45Z</time>
      </trkpt>
      <trkpt lat="45.80396" lon="4.96667">
        <ele>172.1</ele>
        <time>2011-06-13T09:01:47Z</time>
      </trkpt>
      <trkpt lat="45.80399" lon="4.96654">
        <ele>173.6</ele>
        <time>2011-06-13T09:01:51Z</time>
      </trkpt>
      <trkpt lat="45.804" lon="4.96645">
        <ele>176</ele>
        <time>2011-06-13T09:01:54Z</time>
      </trkpt>
      <trkpt lat="45.80399" lon="4.96641">
        <ele>178.1</ele>
        <time>2011-06-13T09:01:55Z</time>
      </trkpt>
      <trkpt lat="45.80399" lon="4.96635">
        <ele>178.8</ele>
        <time>2011-06-13T09:01:57Z</time>
      </trkpt>
      <trkpt lat="45.804" lon="4.96631">
        <ele>178.8</ele>
        <time>2011-06-13T09:01:58Z</time>
      </trkpt>
      <trkpt lat="45.80402" lon="4.9662">
        <ele>177.8</ele>
        <time>2011-06-13T09:02:01Z</time>
      </trkpt>
      <trkpt lat="45.80403" lon="4.96613">
        <ele>176.6</ele>
        <time>2011-06-13T09:02:03Z</time>
      </trkpt>
      <trkpt lat="45.80409" lon="4.96595">
        <ele>166.1</ele>
        <time>2011-06-13T09:02:08Z</time>
      </trkpt>
      <trkpt lat="45.80411" lon="4.96583">
        <ele>163.8</ele>
        <time>2011-06-13T09:02:12Z</time>
      </trkpt>
      <trkpt lat="45.80413" lon="4.96568">
        <ele>161.3</ele>
        <time>2011-06-13T09:02:16Z</time>
      </trkpt>
      <trkpt lat="45.80413" lon="4.96564">
        <ele>161.1</ele>
        <time>2011-06-13T09:02:17Z</time>
      </trkpt>
      <trkpt lat="45.80411" lon="4.96561">
        <ele>161.6</ele>
        <time>2011-06-13T09:02:18Z</time>
      </trkpt>
      <trkpt lat="45.80407" lon="4.96549">
        <ele>161.6</ele>
        <time>2011-06-13T09:02:21Z</time>
      </trkpt>
      <trkpt lat="45.80405" lon="4.96545">
        <ele>161.8</ele>
        <time>2011-06-13T09:02:22Z</time>
      </trkpt>
      <trkpt lat="45.80396" lon="4.96529">
        <ele>161.8</ele>
        <time>2011-06-13T09:02:26Z</time>
      </trkpt>
      <trkpt lat="45.80395" lon="4.96526">
        <ele>161.8</ele>
        <time>2011-06-13T09:02:27Z</time>
      </trkpt>
      <trkpt lat="45.80393" lon="4.96522">
        <ele>161.6</ele>
        <time>2011-06-13T09:02:28Z</time>
      </trkpt>
      <trkpt lat="45.80391" lon="4.96513">
        <ele>162.3</ele>
        <time>2011-06-13T09:02:30Z</time>
      </trkpt>
      <trkpt lat="45.80384" lon="4.96485">
        <ele>165.6</ele>
        <time>2011-06-13T09:02:37Z</time>
      </trkpt>
      <trkpt lat="45.80382" lon="4.96482">
        <ele>166.5</ele>
        <time>2011-06-13T09:02:38Z</time>
      </trkpt>
      <trkpt lat="45.80371" lon="4.96464">
        <ele>166.3</ele>
        <time>2011-06-13T09:02:44Z</time>
      </trkpt>
      <trkpt lat="45.80369" lon="4.96461">
        <ele>166.3</ele>
        <time>2011-06-13T09:02:45Z</time>
      </trkpt>
      <trkpt lat="45.80334" lon="4.96409">
        <ele>166</ele>
        <time>2011-06-13T09:03:04Z</time>
      </trkpt>
      <trkpt lat="45.80332" lon="4.96407">
        <ele>166.3</ele>
        <time>2011-06-13T09:03:05Z</time>
      </trkpt>
      <trkpt lat="45.80313" lon="4.96392">
        <ele>167.1</ele>
        <time>2011-06-13T09:03:13Z</time>
      </trkpt>
      <trkpt lat="45.8031" lon="4.96391">
        <ele>167.1</ele>
        <time>2011-06-13T09:03:14Z</time>
      </trkpt>
      <trkpt lat="45.80295" lon="4.96381">
        <ele>166.6</ele>
        <time>2011-06-13T09:03:21Z</time>
      </trkpt>
      <trkpt lat="45.80279" lon="4.9637">
        <ele>165</ele>
        <time>2011-06-13T09:03:28Z</time>
      </trkpt>
      <trkpt lat="45.80276" lon="4.9637">
        <ele>165.3</ele>
        <time>2011-06-13T09:03:29Z</time>
      </trkpt>
      <trkpt lat="45.80271" lon="4.96367">
        <ele>164.8</ele>
        <time>2011-06-13T09:03:31Z</time>
      </trkpt>
      <trkpt lat="45.80266" lon="4.96365">
        <ele>165.6</ele>
        <time>2011-06-13T09:03:33Z</time>
      </trkpt>
      <trkpt lat="45.80263" lon="4.96363">
        <ele>167.3</ele>
        <time>2011-06-13T09:03:34Z</time>
      </trkpt>
      <trkpt lat="45.80261" lon="4.96361">
        <ele>165.6</ele>
        <time>2011-06-13T09:03:35Z</time>
      </trkpt>
      <trkpt lat="45.80237" lon="4.9633">
        <ele>166.3</ele>
        <time>2011-06-13T09:03:47Z</time>
      </trkpt>
      <trkpt lat="45.80234" lon="4.96328">
        <ele>167.1</ele>
        <time>2011-06-13T09:03:48Z</time>
      </trkpt>
      <trkpt lat="45.80231" lon="4.96325">
        <ele>168</ele>
        <time>2011-06-13T09:03:49Z</time>
      </trkpt>
      <trkpt lat="45.80229" lon="4.96323">
        <ele>168.1</ele>
        <time>2011-06-13T09:03:50Z</time>
      </trkpt>
      <trkpt lat="45.80223" lon="4.96316">
        <ele>169</ele>
        <time>2011-06-13T09:03:53Z</time>
      </trkpt>
      <trkpt lat="45.80212" lon="4.96301">
        <ele>167.3</ele>
        <time>2011-06-13T09:03:59Z</time>
      </trkpt>
      <trkpt lat="45.80191" lon="4.96274">
        <ele>164.3</ele>
        <time>2011-06-13T09:04:10Z</time>
      </trkpt>
      <trkpt lat="45.80188" lon="4.96272">
        <ele>164.3</ele>
        <time>2011-06-13T09:04:11Z</time>
      </trkpt>
      <trkpt lat="45.80186" lon="4.96272">
        <ele>166.5</ele>
        <time>2011-06-13T09:04:12Z</time>
      </trkpt>
      <trkpt lat="45.8018" lon="4.96273">
        <ele>166.8</ele>
        <time>2011-06-13T09:04:14Z</time>
      </trkpt>
      <trkpt lat="45.80178" lon="4.96275">
        <ele>166.8</ele>
        <time>2011-06-13T09:04:15Z</time>
      </trkpt>
      <trkpt lat="45.8017" lon="4.96281">
        <ele>166.8</ele>
        <time>2011-06-13T09:04:18Z</time>
      </trkpt>
      <trkpt lat="45.80164" lon="4.96284">
        <ele>165.8</ele>
        <time>2011-06-13T09:04:20Z</time>
      </trkpt>
      <trkpt lat="45.80155" lon="4.96288">
        <ele>166.8</ele>
        <time>2011-06-13T09:04:24Z</time>
      </trkpt>
      <trkpt lat="45.80149" lon="4.96291">
        <ele>168.6</ele>
        <time>2011-06-13T09:04:26Z</time>
      </trkpt>
      <trkpt lat="45.80147" lon="4.96293">
        <ele>169.1</ele>
        <time>2011-06-13T09:04:27Z</time>
      </trkpt>
      <trkpt lat="45.80144" lon="4.96292">
        <ele>169.3</ele>
        <time>2011-06-13T09:04:28Z</time>
      </trkpt>
      <trkpt lat="45.80142" lon="4.96292">
        <ele>169.6</ele>
        <time>2011-06-13T09:04:29Z</time>
      </trkpt>
      <trkpt lat="45.80139" lon="4.96291">
        <ele>169.6</ele>
        <time>2011-06-13T09:04:30Z</time>
      </trkpt>
      <trkpt lat="45.80137" lon="4.96287">
        <ele>168.8</ele>
        <time>2011-06-13T09:04:31Z</time>
      </trkpt>
      <trkpt lat="45.80135" lon="4.96285">
        <ele>168.1</ele>
        <time>2011-06-13T09:04:32Z</time>
      </trkpt>
      <trkpt lat="45.80125" lon="4.96275">
        <ele>166.6</ele>
        <time>2011-06-13T09:04:36Z</time>
      </trkpt>
      <trkpt lat="45.80122" lon="4.96273">
        <ele>167.1</ele>
        <time>2011-06-13T09:04:37Z</time>
      </trkpt>
      <trkpt lat="45.80121" lon="4.9627">
        <ele>167.1</ele>
        <time>2011-06-13T09:04:38Z</time>
      </trkpt>
      <trkpt lat="45.80118" lon="4.96259">
        <ele>166.8</ele>
        <time>2011-06-13T09:04:41Z</time>
      </trkpt>
      <trkpt lat="45.80117" lon="4.96256">
        <ele>166.3</ele>
        <time>2011-06-13T09:04:42Z</time>
      </trkpt>
      <trkpt lat="45.80115" lon="4.96253">
        <ele>166.3</ele>
        <time>2011-06-13T09:04:43Z</time>
      </trkpt>
      <trkpt lat="45.80114" lon="4.96252">
        <ele>165.3</ele>
        <time>2011-06-13T09:04:44Z</time>
      </trkpt>
      <trkpt lat="45.80113" lon="4.9625">
        <ele>166</ele>
        <time>2011-06-13T09:04:45Z</time>
      </trkpt>
      <trkpt lat="45.80107" lon="4.96238">
        <ele>170.8</ele>
        <time>2011-06-13T09:04:48Z</time>
      </trkpt>
      <trkpt lat="45.80106" lon="4.96235">
        <ele>169.6</ele>
        <time>2011-06-13T09:04:49Z</time>
      </trkpt>
      <trkpt lat="45.80107" lon="4.96232">
        <ele>168.8</ele>
        <time>2011-06-13T09:04:50Z</time>
      </trkpt>
      <trkpt lat="45.80106" lon="4.96227">
        <ele>170</ele>
        <time>2011-06-13T09:04:51Z</time>
      </trkpt>
      <trkpt lat="45.80106" lon="4.96223">
        <ele>170.1</ele>
        <time>2011-06-13T09:04:52Z</time>
      </trkpt>
      <trkpt lat="45.80106" lon="4.96219">
        <ele>170</ele>
        <time>2011-06-13T09:04:53Z</time>
      </trkpt>
      <trkpt lat="45.80108" lon="4.96217">
        <ele>168.8</ele>
        <time>2011-06-13T09:04:54Z</time>
      </trkpt>
      <trkpt lat="45.80109" lon="4.96213">
        <ele>169.3</ele>
        <time>2011-06-13T09:04:55Z</time>
      </trkpt>
      <trkpt lat="45.80109" lon="4.96209">
        <ele>170.8</ele>
        <time>2011-06-13T09:04:56Z</time>
      </trkpt>
      <trkpt lat="45.80107" lon="4.96203">
        <ele>171.8</ele>
        <time>2011-06-13T09:04:58Z</time>
      </trkpt>
      <trkpt lat="45.80104" lon="4.96201">
        <ele>172.5</ele>
        <time>2011-06-13T09:04:59Z</time>
      </trkpt>
      <trkpt lat="45.80089" lon="4.96194">
        <ele>169.8</ele>
        <time>2011-06-13T09:05:05Z</time>
      </trkpt>
      <trkpt lat="45.80086" lon="4.96191">
        <ele>169.1</ele>
        <time>2011-06-13T09:05:06Z</time>
      </trkpt>
      <trkpt lat="45.80084" lon="4.96187">
        <ele>166.3</ele>
        <time>2011-06-13T09:05:08Z</time>
      </trkpt>
      <trkpt lat="45.80079" lon="4.96182">
        <ele>167.3</ele>
        <time>2011-06-13T09:05:10Z</time>
      </trkpt>
      <trkpt lat="45.80066" lon="4.96178">
        <ele>170.1</ele>
        <time>2011-06-13T09:05:16Z</time>
      </trkpt>
      <trkpt lat="45.80063" lon="4.96176">
        <ele>169.5</ele>
        <time>2011-06-13T09:05:17Z</time>
      </trkpt>
      <trkpt lat="45.80055" lon="4.96162">
        <ele>169</ele>
        <time>2011-06-13T09:05:21Z</time>
      </trkpt>
      <trkpt lat="45.80053" lon="4.9616">
        <ele>168.3</ele>
        <time>2011-06-13T09:05:22Z</time>
      </trkpt>
      <trkpt lat="45.80049" lon="4.96154">
        <ele>169.1</ele>
        <time>2011-06-13T09:05:24Z</time>
      </trkpt>
      <trkpt lat="45.80043" lon="4.96144">
        <ele>167.1</ele>
        <time>2011-06-13T09:05:28Z</time>
      </trkpt>
      <trkpt lat="45.80039" lon="4.96138">
        <ele>169.8</ele>
        <time>2011-06-13T09:05:30Z</time>
      </trkpt>
      <trkpt lat="45.80039" lon="4.96134">
        <ele>170.5</ele>
        <time>2011-06-13T09:05:31Z</time>
      </trkpt>
      <trkpt lat="45.80038" lon="4.9613">
        <ele>171.3</ele>
        <time>2011-06-13T09:05:32Z</time>
      </trkpt>
      <trkpt lat="45.80038" lon="4.96126">
        <ele>171.6</ele>
        <time>2011-06-13T09:05:33Z</time>
      </trkpt>
      <trkpt lat="45.80038" lon="4.96119">
        <ele>170.5</ele>
        <time>2011-06-13T09:05:35Z</time>
      </trkpt>
      <trkpt lat="45.80038" lon="4.96115">
        <ele>170.6</ele>
        <time>2011-06-13T09:05:36Z</time>
      </trkpt>
      <trkpt lat="45.80036" lon="4.96113">
        <ele>169.6</ele>
        <time>2011-06-13T09:05:37Z</time>
      </trkpt>
      <trkpt lat="45.80034" lon="4.9611">
        <ele>170.1</ele>
        <time>2011-06-13T09:05:38Z</time>
      </trkpt>
      <trkpt lat="45.80017" lon="4.96088">
        <ele>172.3</ele>
        <time>2011-06-13T09:05:45Z</time>
      </trkpt>
      <trkpt lat="45.80014" lon="4.96086">
        <ele>172.3</ele>
        <time>2011-06-13T09:05:46Z</time>
      </trkpt>
      <trkpt lat="45.80011" lon="4.96084">
        <ele>174.1</ele>
        <time>2011-06-13T09:05:47Z</time>
      </trkpt>
      <trkpt lat="45.80008" lon="4.96084">
        <ele>174.1</ele>
        <time>2011-06-13T09:05:48Z</time>
      </trkpt>
      <trkpt lat="45.80004" lon="4.96084">
        <ele>174.1</ele>
        <time>2011-06-13T09:05:49Z</time>
      </trkpt>
      <trkpt lat="45.80001" lon="4.96084">
        <ele>174.1</ele>
        <time>2011-06-13T09:05:50Z</time>
      </trkpt>
      <trkpt lat="45.79999" lon="4.96085">
        <ele>174.1</ele>
        <time>2011-06-13T09:05:51Z</time>
      </trkpt>
      <trkpt lat="45.79997" lon="4.96088">
        <ele>174.1</ele>
        <time>2011-06-13T09:05:52Z</time>
      </trkpt>
      <trkpt lat="45.79995" lon="4.9609">
        <ele>174.1</ele>
        <time>2011-06-13T09:05:53Z</time>
      </trkpt>
      <trkpt lat="45.79985" lon="4.96098">
        <ele>175.1</ele>
        <time>2011-06-13T09:05:56Z</time>
      </trkpt>
      <trkpt lat="45.79978" lon="4.96102">
        <ele>176.1</ele>
        <time>2011-06-13T09:05:58Z</time>
      </trkpt>
      <trkpt lat="45.79971" lon="4.96111">
        <ele>173.6</ele>
        <time>2011-06-13T09:06:00Z</time>
      </trkpt>
      <trkpt lat="45.79967" lon="4.96112">
        <ele>171.6</ele>
        <time>2011-06-13T09:06:01Z</time>
      </trkpt>
      <trkpt lat="45.79961" lon="4.9611">
        <ele>170.5</ele>
        <time>2011-06-13T09:06:04Z</time>
      </trkpt>
      <trkpt lat="45.79959" lon="4.96106">
        <ele>168.1</ele>
        <time>2011-06-13T09:06:06Z</time>
      </trkpt>
      <trkpt lat="45.79955" lon="4.96104">
        <ele>168.1</ele>
        <time>2011-06-13T09:06:07Z</time>
      </trkpt>
      <trkpt lat="45.79948" lon="4.96099">
        <ele>166.6</ele>
        <time>2011-06-13T09:06:09Z</time>
      </trkpt>
      <trkpt lat="45.79916" lon="4.96083">
        <ele>167.3</ele>
        <time>2011-06-13T09:06:20Z</time>
      </trkpt>
      <trkpt lat="45.79913" lon="4.96083">
        <ele>166.8</ele>
        <time>2011-06-13T09:06:21Z</time>
      </trkpt>
      <trkpt lat="45.79911" lon="4.96082">
        <ele>167.1</ele>
        <time>2011-06-13T09:06:22Z</time>
      </trkpt>
      <trkpt lat="45.79908" lon="4.96083">
        <ele>167.3</ele>
        <time>2011-06-13T09:06:23Z</time>
      </trkpt>
      <trkpt lat="45.79905" lon="4.96084">
        <ele>167.5</ele>
        <time>2011-06-13T09:06:24Z</time>
      </trkpt>
      <trkpt lat="45.79902" lon="4.96085">
        <ele>167.8</ele>
        <time>2011-06-13T09:06:25Z</time>
      </trkpt>
      <trkpt lat="45.79898" lon="4.96086">
        <ele>168.6</ele>
        <time>2011-06-13T09:06:26Z</time>
      </trkpt>
      <trkpt lat="45.79888" lon="4.96089">
        <ele>169.1</ele>
        <time>2011-06-13T09:06:31Z</time>
      </trkpt>
      <trkpt lat="45.79882" lon="4.96091">
        <ele>172.1</ele>
        <time>2011-06-13T09:06:33Z</time>
      </trkpt>
      <trkpt lat="45.7988" lon="4.96091">
        <ele>172.1</ele>
        <time>2011-06-13T09:06:34Z</time>
      </trkpt>
      <trkpt lat="45.79866" lon="4.96086">
        <ele>170.6</ele>
        <time>2011-06-13T09:06:41Z</time>
      </trkpt>
      <trkpt lat="45.79863" lon="4.96084">
        <ele>170.8</ele>
        <time>2011-06-13T09:06:42Z</time>
      </trkpt>
      <trkpt lat="45.79861" lon="4.9608">
        <ele>170</ele>
        <time>2011-06-13T09:06:43Z</time>
      </trkpt>
      <trkpt lat="45.79858" lon="4.96077">
        <ele>169.8</ele>
        <time>2011-06-13T09:06:44Z</time>
      </trkpt>
      <trkpt lat="45.79857" lon="4.96072">
        <ele>170.3</ele>
        <time>2011-06-13T09:06:45Z</time>
      </trkpt>
      <trkpt lat="45.79856" lon="4.96065">
        <ele>173.6</ele>
        <time>2011-06-13T09:06:47Z</time>
      </trkpt>
      <trkpt lat="45.79854" lon="4.96062">
        <ele>175.6</ele>
        <time>2011-06-13T09:06:48Z</time>
      </trkpt>
      <trkpt lat="45.79853" lon="4.96059">
        <ele>175.6</ele>
        <time>2011-06-13T09:06:49Z</time>
      </trkpt>
      <trkpt lat="45.7985" lon="4.96054">
        <ele>174.8</ele>
        <time>2011-06-13T09:06:51Z</time>
      </trkpt>
      <trkpt lat="45.79847" lon="4.96053">
        <ele>174</ele>
        <time>2011-06-13T09:06:52Z</time>
      </trkpt>
      <trkpt lat="45.79842" lon="4.96053">
        <ele>172.8</ele>
        <time>2011-06-13T09:06:54Z</time>
      </trkpt>
      <trkpt lat="45.79838" lon="4.96053">
        <ele>173.1</ele>
        <time>2011-06-13T09:06:55Z</time>
      </trkpt>
      <trkpt lat="45.79832" lon="4.96051">
        <ele>172.1</ele>
        <time>2011-06-13T09:06:58Z</time>
      </trkpt>
      <trkpt lat="45.7983" lon="4.9605">
        <ele>171</ele>
        <time>2011-06-13T09:06:59Z</time>
      </trkpt>
      <trkpt lat="45.79812" lon="4.96047">
        <ele>166.5</ele>
        <time>2011-06-13T09:07:06Z</time>
      </trkpt>
      <trkpt lat="45.7981" lon="4.96047">
        <ele>167.5</ele>
        <time>2011-06-13T09:07:07Z</time>
      </trkpt>
      <trkpt lat="45.79806" lon="4.96045">
        <ele>167.8</ele>
        <time>2011-06-13T09:07:08Z</time>
      </trkpt>
      <trkpt lat="45.79802" lon="4.96045">
        <ele>166.3</ele>
        <time>2011-06-13T09:07:10Z</time>
      </trkpt>
      <trkpt lat="45.798" lon="4.96045">
        <ele>166.6</ele>
        <time>2011-06-13T09:07:11Z</time>
      </trkpt>
      <trkpt lat="45.79791" lon="4.96044">
        <ele>165.6</ele>
        <time>2011-06-13T09:07:16Z</time>
      </trkpt>
      <trkpt lat="45.79785" lon="4.96045">
        <ele>164.6</ele>
        <time>2011-06-13T09:07:17Z</time>
      </trkpt>
      <trkpt lat="45.79783" lon="4.96046">
        <ele>164.1</ele>
        <time>2011-06-13T09:07:18Z</time>
      </trkpt>
      <trkpt lat="45.79781" lon="4.9605">
        <ele>162.3</ele>
        <time>2011-06-13T09:07:19Z</time>
      </trkpt>
      <trkpt lat="45.79779" lon="4.96049">
        <ele>162.3</ele>
        <time>2011-06-13T09:07:20Z</time>
      </trkpt>
      <trkpt lat="45.79777" lon="4.96048">
        <ele>162.3</ele>
        <time>2011-06-13T09:07:21Z</time>
      </trkpt>
      <trkpt lat="45.79775" lon="4.96049">
        <ele>161.8</ele>
        <time>2011-06-13T09:07:22Z</time>
      </trkpt>
      <trkpt lat="45.79775" lon="4.96048">
        <ele>158.3</ele>
        <time>2011-06-13T09:07:23Z</time>
      </trkpt>
      <trkpt lat="45.79774" lon="4.96049">
        <ele>158.6</ele>
        <time>2011-06-13T09:07:24Z</time>
      </trkpt>
      <trkpt lat="45.79769" lon="4.96059">
        <ele>163.3</ele>
        <time>2011-06-13T09:07:30Z</time>
      </trkpt>
      <trkpt lat="45.79769" lon="4.96061">
        <ele>163.6</ele>
        <time>2011-06-13T09:07:31Z</time>
      </trkpt>
      <trkpt lat="45.79768" lon="4.96063">
        <ele>163.6</ele>
        <time>2011-06-13T09:07:32Z</time>
      </trkpt>
      <trkpt lat="45.79765" lon="4.96066">
        <ele>163.6</ele>
        <time>2011-06-13T09:07:33Z</time>
      </trkpt>
      <trkpt lat="45.79763" lon="4.96071">
        <ele>164.8</ele>
        <time>2011-06-13T09:07:36Z</time>
      </trkpt>
      <trkpt lat="45.79764" lon="4.96073">
        <ele>164.8</ele>
        <time>2011-06-13T09:07:37Z</time>
      </trkpt>
      <trkpt lat="45.79764" lon="4.96075">
        <ele>164.8</ele>
        <time>2011-06-13T09:07:38Z</time>
      </trkpt>
      <trkpt lat="45.79764" lon="4.96077">
        <ele>165.1</ele>
        <time>2011-06-13T09:07:39Z</time>
      </trkpt>
      <trkpt lat="45.79763" lon="4.96078">
        <ele>165.5</ele>
        <time>2011-06-13T09:07:40Z</time>
      </trkpt>
      <trkpt lat="45.79763" lon="4.96078">
        <ele>164.3</ele>
        <time>2011-06-13T09:07:41Z</time>
      </trkpt>
      <trkpt lat="45.79764" lon="4.96079">
        <ele>163</ele>
        <time>2011-06-13T09:07:42Z</time>
      </trkpt>
      <trkpt lat="45.79763" lon="4.9608">
        <ele>165.1</ele>
        <time>2011-06-13T09:07:43Z</time>
      </trkpt>
      <trkpt lat="45.79762" lon="4.96081">
        <ele>165.6</ele>
        <time>2011-06-13T09:07:44Z</time>
      </trkpt>
      <trkpt lat="45.79754" lon="4.96091">
        <ele>168.6</ele>
        <time>2011-06-13T09:07:51Z</time>
      </trkpt>
      <trkpt lat="45.79753" lon="4.96093">
        <ele>169.1</ele>
        <time>2011-06-13T09:07:52Z</time>
      </trkpt>
      <trkpt lat="45.79752" lon="4.96098">
        <ele>169</ele>
        <time>2011-06-13T09:07:55Z</time>
      </trkpt>
      <trkpt lat="45.79753" lon="4.961">
        <ele>169.5</ele>
        <time>2011-06-13T09:07:56Z</time>
      </trkpt>
      <trkpt lat="45.79752" lon="4.96101">
        <ele>169.1</ele>
        <time>2011-06-13T09:07:57Z</time>
      </trkpt>
      <trkpt lat="45.79752" lon="4.96103">
        <ele>171.1</ele>
        <time>2011-06-13T09:07:58Z</time>
      </trkpt>
      <trkpt lat="45.79751" lon="4.96105">
        <ele>170.5</ele>
        <time>2011-06-13T09:07:59Z</time>
      </trkpt>
      <trkpt lat="45.79749" lon="4.96107">
        <ele>170.5</ele>
        <time>2011-06-13T09:08:00Z</time>
      </trkpt>
      <trkpt lat="45.79747" lon="4.96109">
        <ele>170.5</ele>
        <time>2011-06-13T09:08:01Z</time>
      </trkpt>
      <trkpt lat="45.79745" lon="4.96112">
        <ele>169.6</ele>
        <time>2011-06-13T09:08:02Z</time>
      </trkpt>
      <trkpt lat="45.79752" lon="4.96126">
        <ele>164.1</ele>
        <time>2011-06-13T09:08:18Z</time>
      </trkpt>
      <trkpt lat="45.79752" lon="4.96128">
        <ele>164</ele>
        <time>2011-06-13T09:08:19Z</time>
      </trkpt>
      <trkpt lat="45.7975" lon="4.96127">
        <ele>164</ele>
        <time>2011-06-13T09:08:20Z</time>
      </trkpt>
      <trkpt lat="45.79746" lon="4.9613">
        <ele>164</ele>
        <time>2011-06-13T09:08:21Z</time>
      </trkpt>
      <trkpt lat="45.79748" lon="4.96134">
        <ele>164</ele>
        <time>2011-06-13T09:08:22Z</time>
      </trkpt>
      <trkpt lat="45.79747" lon="4.96136">
        <ele>162.5</ele>
        <time>2011-06-13T09:08:23Z</time>
      </trkpt>
      <trkpt lat="45.79745" lon="4.96138">
        <ele>162.6</ele>
        <time>2011-06-13T09:08:24Z</time>
      </trkpt>
      <trkpt lat="45.79744" lon="4.9614">
        <ele>162.6</ele>
        <time>2011-06-13T09:08:25Z</time>
      </trkpt>
      <trkpt lat="45.79743" lon="4.96144">
        <ele>155.1</ele>
        <time>2011-06-13T09:08:26Z</time>
      </trkpt>
      <trkpt lat="45.79744" lon="4.96145">
        <ele>156.8</ele>
        <time>2011-06-13T09:08:27Z</time>
      </trkpt>
      <trkpt lat="45.79743" lon="4.96147">
        <ele>157.3</ele>
        <time>2011-06-13T09:08:28Z</time>
      </trkpt>
      <trkpt lat="45.79742" lon="4.96151">
        <ele>160.1</ele>
        <time>2011-06-13T09:08:30Z</time>
      </trkpt>
      <trkpt lat="45.79741" lon="4.96155">
        <ele>166.3</ele>
        <time>2011-06-13T09:08:37Z</time>
      </trkpt>
      <trkpt lat="45.79739" lon="4.96174">
        <ele>171</ele>
        <time>2011-06-13T09:08:48Z</time>
      </trkpt>
      <trkpt lat="45.79738" lon="4.96176">
        <ele>174</ele>
        <time>2011-06-13T09:08:50Z</time>
      </trkpt>
      <trkpt lat="45.79738" lon="4.96177">
        <ele>172.8</ele>
        <time>2011-06-13T09:08:51Z</time>
      </trkpt>
      <trkpt lat="45.79738" lon="4.96179">
        <ele>172.6</ele>
        <time>2011-06-13T09:08:52Z</time>
      </trkpt>
      <trkpt lat="45.7974" lon="4.96183">
        <ele>175.8</ele>
        <time>2011-06-13T09:08:54Z</time>
      </trkpt>
      <trkpt lat="45.79741" lon="4.96184">
        <ele>176.5</ele>
        <time>2011-06-13T09:08:55Z</time>
      </trkpt>
      <trkpt lat="45.79743" lon="4.96185">
        <ele>178.8</ele>
        <time>2011-06-13T09:08:56Z</time>
      </trkpt>
      <trkpt lat="45.79743" lon="4.96185">
        <ele>181.3</ele>
        <time>2011-06-13T09:08:57Z</time>
      </trkpt>
      <trkpt lat="45.79744" lon="4.96188">
        <ele>181.8</ele>
        <time>2011-06-13T09:08:58Z</time>
      </trkpt>
      <trkpt lat="45.79742" lon="4.96189">
        <ele>181.1</ele>
        <time>2011-06-13T09:08:59Z</time>
      </trkpt>
      <trkpt lat="45.79741" lon="4.96191">
        <ele>180.8</ele>
        <time>2011-06-13T09:09:00Z</time>
      </trkpt>
      <trkpt lat="45.79739" lon="4.96194">
        <ele>179.1</ele>
        <time>2011-06-13T09:09:01Z</time>
      </trkpt>
      <trkpt lat="45.79738" lon="4.96195">
        <ele>179.1</ele>
        <time>2011-06-13T09:09:02Z</time>
      </trkpt>
      <trkpt lat="45.79737" lon="4.96197">
        <ele>179.6</ele>
        <time>2011-06-13T09:09:03Z</time>
      </trkpt>
      <trkpt lat="45.79736" lon="4.96198">
        <ele>182.3</ele>
        <time>2011-06-13T09:09:04Z</time>
      </trkpt>
      <trkpt lat="45.79736" lon="4.96199">
        <ele>184.1</ele>
        <time>2011-06-13T09:09:05Z</time>
      </trkpt>
      <trkpt lat="45.79737" lon="4.962">
        <ele>184.3</ele>
        <time>2011-06-13T09:09:06Z</time>
      </trkpt>
      <trkpt lat="45.79738" lon="4.96201">
        <ele>185.8</ele>
        <time>2011-06-13T09:09:07Z</time>
      </trkpt>
      <trkpt lat="45.79736" lon="4.962">
        <ele>187.6</ele>
        <time>2011-06-13T09:09:08Z</time>
      </trkpt>
      <trkpt lat="45.79738" lon="4.96201">
        <ele>187.1</ele>
        <time>2011-06-13T09:09:09Z</time>
      </trkpt>
      <trkpt lat="45.79738" lon="4.96203">
        <ele>185</ele>
        <time>2011-06-13T09:09:10Z</time>
      </trkpt>
      <trkpt lat="45.79739" lon="4.96204">
        <ele>182.6</ele>
        <time>2011-06-13T09:09:11Z</time>
      </trkpt>
      <trkpt lat="45.79738" lon="4.96207">
        <ele>180.3</ele>
        <time>2011-06-13T09:09:12Z</time>
      </trkpt>
      <trkpt lat="45.79739" lon="4.96212">
        <ele>176</ele>
        <time>2011-06-13T09:09:14Z</time>
      </trkpt>
      <trkpt lat="45.79739" lon="4.96214">
        <ele>176.6</ele>
        <time>2011-06-13T09:09:15Z</time>
      </trkpt>
      <trkpt lat="45.79738" lon="4.96216">
        <ele>177.1</ele>
        <time>2011-06-13T09:09:16Z</time>
      </trkpt>
      <trkpt lat="45.79739" lon="4.96218">
        <ele>177.6</ele>
        <time>2011-06-13T09:09:17Z</time>
      </trkpt>
      <trkpt lat="45.79739" lon="4.96221">
        <ele>178.1</ele>
        <time>2011-06-13T09:09:18Z</time>
      </trkpt>
      <trkpt lat="45.79739" lon="4.96234">
        <ele>176.5</ele>
        <time>2011-06-13T09:09:26Z</time>
      </trkpt>
      <trkpt lat="45.79741" lon="4.9624">
        <ele>176.8</ele>
        <time>2011-06-13T09:09:27Z</time>
      </trkpt>
      <trkpt lat="45.79742" lon="4.96246">
        <ele>177</ele>
        <time>2011-06-13T09:09:29Z</time>
      </trkpt>
      <trkpt lat="45.79741" lon="4.96251">
        <ele>176.6</ele>
        <time>2011-06-13T09:09:31Z</time>
      </trkpt>
      <trkpt lat="45.7974" lon="4.96268">
        <ele>176.3</ele>
        <time>2011-06-13T09:09:36Z</time>
      </trkpt>
      <trkpt lat="45.79742" lon="4.96273">
        <ele>176.1</ele>
        <time>2011-06-13T09:09:37Z</time>
      </trkpt>
      <trkpt lat="45.79742" lon="4.96277">
        <ele>176.3</ele>
        <time>2011-06-13T09:09:38Z</time>
      </trkpt>
      <trkpt lat="45.79741" lon="4.96296">
        <ele>176.1</ele>
        <time>2011-06-13T09:09:43Z</time>
      </trkpt>
      <trkpt lat="45.79739" lon="4.96328">
        <ele>175.5</ele>
        <time>2011-06-13T09:09:51Z</time>
      </trkpt>
      <trkpt lat="45.79736" lon="4.96339">
        <ele>175.3</ele>
        <time>2011-06-13T09:09:54Z</time>
      </trkpt>
      <trkpt lat="45.79736" lon="4.96342">
        <ele>175.3</ele>
        <time>2011-06-13T09:09:55Z</time>
      </trkpt>
      <trkpt lat="45.79735" lon="4.96346">
        <ele>175.3</ele>
        <time>2011-06-13T09:09:56Z</time>
      </trkpt>
      <trkpt lat="45.79734" lon="4.9636">
        <ele>175</ele>
        <time>2011-06-13T09:09:59Z</time>
      </trkpt>
      <trkpt lat="45.79733" lon="4.96364">
        <ele>175</ele>
        <time>2011-06-13T09:10:00Z</time>
      </trkpt>
      <trkpt lat="45.79731" lon="4.96368">
        <ele>175</ele>
        <time>2011-06-13T09:10:01Z</time>
      </trkpt>
      <trkpt lat="45.7973" lon="4.96373">
        <ele>174.8</ele>
        <time>2011-06-13T09:10:02Z</time>
      </trkpt>
      <trkpt lat="45.79727" lon="4.96381">
        <ele>174.5</ele>
        <time>2011-06-13T09:10:04Z</time>
      </trkpt>
      <trkpt lat="45.79725" lon="4.9639">
        <ele>174.1</ele>
        <time>2011-06-13T09:10:06Z</time>
      </trkpt>
      <trkpt lat="45.79716" lon="4.9643">
        <ele>173.8</ele>
        <time>2011-06-13T09:10:15Z</time>
      </trkpt>
      <trkpt lat="45.79715" lon="4.96434">
        <ele>173.8</ele>
        <time>2011-06-13T09:10:16Z</time>
      </trkpt>
      <trkpt lat="45.79715" lon="4.96443">
        <ele>189.3</ele>
        <time>2011-06-13T09:10:19Z</time>
      </trkpt>
      <trkpt lat="45.79714" lon="4.96445">
        <ele>189.3</ele>
        <time>2011-06-13T09:10:20Z</time>
      </trkpt>
      <trkpt lat="45.79713" lon="4.96452">
        <ele>190.3</ele>
        <time>2011-06-13T09:10:22Z</time>
      </trkpt>
      <trkpt lat="45.79712" lon="4.96456">
        <ele>189</ele>
        <time>2011-06-13T09:10:23Z</time>
      </trkpt>
      <trkpt lat="45.79691" lon="4.96511">
        <ele>188.5</ele>
        <time>2011-06-13T09:10:36Z</time>
      </trkpt>
      <trkpt lat="45.79689" lon="4.96514">
        <ele>188.5</ele>
        <time>2011-06-13T09:10:37Z</time>
      </trkpt>
      <trkpt lat="45.79696" lon="4.96537">
        <ele>190.3</ele>
        <time>2011-06-13T09:10:40Z</time>
      </trkpt>
      <trkpt lat="45.79695" lon="4.96542">
        <ele>190.5</ele>
        <time>2011-06-13T09:10:41Z</time>
      </trkpt>
      <trkpt lat="45.79679" lon="4.96597">
        <ele>191.5</ele>
        <time>2011-06-13T09:10:54Z</time>
      </trkpt>
      <trkpt lat="45.79672" lon="4.96621">
        <ele>191.3</ele>
        <time>2011-06-13T09:11:01Z</time>
      </trkpt>
      <trkpt lat="45.79674" lon="4.96624">
        <ele>188.3</ele>
        <time>2011-06-13T09:11:03Z</time>
      </trkpt>
      <trkpt lat="45.79697" lon="4.96627">
        <ele>198.3</ele>
        <time>2011-06-13T09:11:04Z</time>
      </trkpt>
      <trkpt lat="45.79695" lon="4.96632">
        <ele>198.3</ele>
        <time>2011-06-13T09:11:05Z</time>
      </trkpt>
      <trkpt lat="45.79694" lon="4.96634">
        <ele>198.3</ele>
        <time>2011-06-13T09:11:06Z</time>
      </trkpt>
      <trkpt lat="45.7969" lon="4.96637">
        <ele>198.3</ele>
        <time>2011-06-13T09:11:07Z</time>
      </trkpt>
      <trkpt lat="45.79691" lon="4.9664">
        <ele>194.1</ele>
        <time>2011-06-13T09:11:08Z</time>
      </trkpt>
      <trkpt lat="45.79693" lon="4.96643">
        <ele>191.6</ele>
        <time>2011-06-13T09:11:09Z</time>
      </trkpt>
      <trkpt lat="45.79695" lon="4.96648">
        <ele>183.8</ele>
        <time>2011-06-13T09:11:10Z</time>
      </trkpt>
      <trkpt lat="45.79694" lon="4.96652">
        <ele>176.8</ele>
        <time>2011-06-13T09:11:11Z</time>
      </trkpt>
      <trkpt lat="45.79694" lon="4.96657">
        <ele>175.3</ele>
        <time>2011-06-13T09:11:12Z</time>
      </trkpt>
      <trkpt lat="45.79693" lon="4.96669">
        <ele>179</ele>
        <time>2011-06-13T09:11:15Z</time>
      </trkpt>
      <trkpt lat="45.79695" lon="4.96672">
        <ele>179.8</ele>
        <time>2011-06-13T09:11:16Z</time>
      </trkpt>
      <trkpt lat="45.79696" lon="4.96676">
        <ele>180.5</ele>
        <time>2011-06-13T09:11:17Z</time>
      </trkpt>
      <trkpt lat="45.79697" lon="4.96679">
        <ele>181.6</ele>
        <time>2011-06-13T09:11:18Z</time>
      </trkpt>
      <trkpt lat="45.79699" lon="4.96683">
        <ele>182.3</ele>
        <time>2011-06-13T09:11:19Z</time>
      </trkpt>
      <trkpt lat="45.79699" lon="4.96687">
        <ele>182.5</ele>
        <time>2011-06-13T09:11:20Z</time>
      </trkpt>
      <trkpt lat="45.79697" lon="4.96691">
        <ele>184.1</ele>
        <time>2011-06-13T09:11:21Z</time>
      </trkpt>
      <trkpt lat="45.79695" lon="4.96694">
        <ele>184.1</ele>
        <time>2011-06-13T09:11:22Z</time>
      </trkpt>
      <trkpt lat="45.79692" lon="4.96698">
        <ele>186.3</ele>
        <time>2011-06-13T09:11:23Z</time>
      </trkpt>
      <trkpt lat="45.7969" lon="4.96701">
        <ele>186.5</ele>
        <time>2011-06-13T09:11:24Z</time>
      </trkpt>
      <trkpt lat="45.79688" lon="4.96705">
        <ele>186.5</ele>
        <time>2011-06-13T09:11:25Z</time>
      </trkpt>
      <trkpt lat="45.79686" lon="4.96709">
        <ele>186.5</ele>
        <time>2011-06-13T09:11:26Z</time>
      </trkpt>
      <trkpt lat="45.79685" lon="4.96712">
        <ele>186.8</ele>
        <time>2011-06-13T09:11:27Z</time>
      </trkpt>
      <trkpt lat="45.79683" lon="4.96716">
        <ele>186.6</ele>
        <time>2011-06-13T09:11:28Z</time>
      </trkpt>
      <trkpt lat="45.79682" lon="4.9672">
        <ele>186.6</ele>
        <time>2011-06-13T09:11:29Z</time>
      </trkpt>
      <trkpt lat="45.79683" lon="4.96721">
        <ele>187.3</ele>
        <time>2011-06-13T09:11:30Z</time>
      </trkpt>
      <trkpt lat="45.79682" lon="4.96724">
        <ele>187.8</ele>
        <time>2011-06-13T09:11:31Z</time>
      </trkpt>
      <trkpt lat="45.79683" lon="4.96726">
        <ele>184.1</ele>
        <time>2011-06-13T09:11:32Z</time>
      </trkpt>
      <trkpt lat="45.79683" lon="4.9673">
        <ele>185.3</ele>
        <time>2011-06-13T09:11:33Z</time>
      </trkpt>
      <trkpt lat="45.79683" lon="4.96735">
        <ele>187.8</ele>
        <time>2011-06-13T09:11:34Z</time>
      </trkpt>
      <trkpt lat="45.79682" lon="4.96741">
        <ele>189.3</ele>
        <time>2011-06-13T09:11:35Z</time>
      </trkpt>
      <trkpt lat="45.79683" lon="4.96745">
        <ele>189.6</ele>
        <time>2011-06-13T09:11:36Z</time>
      </trkpt>
      <trkpt lat="45.79683" lon="4.96748">
        <ele>189.5</ele>
        <time>2011-06-13T09:11:37Z</time>
      </trkpt>
      <trkpt lat="45.79682" lon="4.96753">
        <ele>188.1</ele>
        <time>2011-06-13T09:11:38Z</time>
      </trkpt>
      <trkpt lat="45.79682" lon="4.96758">
        <ele>188.3</ele>
        <time>2011-06-13T09:11:39Z</time>
      </trkpt>
      <trkpt lat="45.7968" lon="4.96766">
        <ele>190.3</ele>
        <time>2011-06-13T09:11:41Z</time>
      </trkpt>
      <trkpt lat="45.79676" lon="4.96775">
        <ele>191.5</ele>
        <time>2011-06-13T09:11:43Z</time>
      </trkpt>
      <trkpt lat="45.79675" lon="4.96779">
        <ele>191.5</ele>
        <time>2011-06-13T09:11:44Z</time>
      </trkpt>
      <trkpt lat="45.79673" lon="4.96783">
        <ele>192.5</ele>
        <time>2011-06-13T09:11:45Z</time>
      </trkpt>
      <trkpt lat="45.79672" lon="4.96786">
        <ele>192.5</ele>
        <time>2011-06-13T09:11:46Z</time>
      </trkpt>
      <trkpt lat="45.79671" lon="4.96789">
        <ele>191.8</ele>
        <time>2011-06-13T09:11:47Z</time>
      </trkpt>
      <trkpt lat="45.7967" lon="4.96796">
        <ele>188.8</ele>
        <time>2011-06-13T09:11:49Z</time>
      </trkpt>
      <trkpt lat="45.79669" lon="4.96801">
        <ele>188.8</ele>
        <time>2011-06-13T09:11:50Z</time>
      </trkpt>
      <trkpt lat="45.7967" lon="4.96805">
        <ele>185.3</ele>
        <time>2011-06-13T09:11:51Z</time>
      </trkpt>
      <trkpt lat="45.79671" lon="4.9681">
        <ele>185.3</ele>
        <time>2011-06-13T09:11:52Z</time>
      </trkpt>
      <trkpt lat="45.79671" lon="4.96819">
        <ele>180.6</ele>
        <time>2011-06-13T09:11:55Z</time>
      </trkpt>
      <trkpt lat="45.79672" lon="4.96822">
        <ele>180.1</ele>
        <time>2011-06-13T09:11:56Z</time>
      </trkpt>
      <trkpt lat="45.79672" lon="4.96825">
        <ele>179.6</ele>
        <time>2011-06-13T09:11:57Z</time>
      </trkpt>
      <trkpt lat="45.79672" lon="4.96828">
        <ele>179.3</ele>
        <time>2011-06-13T09:11:58Z</time>
      </trkpt>
      <trkpt lat="45.79677" lon="4.96838">
        <ele>177.5</ele>
        <time>2011-06-13T09:12:02Z</time>
      </trkpt>
      <trkpt lat="45.79677" lon="4.96841">
        <ele>177.6</ele>
        <time>2011-06-13T09:12:03Z</time>
      </trkpt>
      <trkpt lat="45.79676" lon="4.96844">
        <ele>177.5</ele>
        <time>2011-06-13T09:12:04Z</time>
      </trkpt>
      <trkpt lat="45.79675" lon="4.96849">
        <ele>178</ele>
        <time>2011-06-13T09:12:05Z</time>
      </trkpt>
      <trkpt lat="45.7967" lon="4.96861">
        <ele>178.8</ele>
        <time>2011-06-13T09:12:08Z</time>
      </trkpt>
      <trkpt lat="45.79661" lon="4.96878">
        <ele>176.1</ele>
        <time>2011-06-13T09:12:12Z</time>
      </trkpt>
      <trkpt lat="45.79661" lon="4.96882">
        <ele>174.8</ele>
        <time>2011-06-13T09:12:13Z</time>
      </trkpt>
      <trkpt lat="45.79661" lon="4.96886">
        <ele>175.3</ele>
        <time>2011-06-13T09:12:14Z</time>
      </trkpt>
      <trkpt lat="45.79662" lon="4.96897">
        <ele>176.3</ele>
        <time>2011-06-13T09:12:17Z</time>
      </trkpt>
      <trkpt lat="45.7966" lon="4.96903">
        <ele>176.5</ele>
        <time>2011-06-13T09:12:18Z</time>
      </trkpt>
      <trkpt lat="45.79659" lon="4.96906">
        <ele>175.8</ele>
        <time>2011-06-13T09:12:19Z</time>
      </trkpt>
      <trkpt lat="45.79657" lon="4.9691">
        <ele>173.6</ele>
        <time>2011-06-13T09:12:20Z</time>
      </trkpt>
      <trkpt lat="45.79656" lon="4.96914">
        <ele>171.3</ele>
        <time>2011-06-13T09:12:21Z</time>
      </trkpt>
      <trkpt lat="45.79656" lon="4.96917">
        <ele>169.1</ele>
        <time>2011-06-13T09:12:22Z</time>
      </trkpt>
      <trkpt lat="45.79656" lon="4.9692">
        <ele>166.6</ele>
        <time>2011-06-13T09:12:23Z</time>
      </trkpt>
      <trkpt lat="45.7966" lon="4.96935">
        <ele>161.3</ele>
        <time>2011-06-13T09:12:28Z</time>
      </trkpt>
      <trkpt lat="45.79662" lon="4.96938">
        <ele>161.3</ele>
        <time>2011-06-13T09:12:29Z</time>
      </trkpt>
      <trkpt lat="45.79664" lon="4.96939">
        <ele>161.8</ele>
        <time>2011-06-13T09:12:30Z</time>
      </trkpt>
      <trkpt lat="45.79666" lon="4.96937">
        <ele>161.8</ele>
        <time>2011-06-13T09:12:31Z</time>
      </trkpt>
      <trkpt lat="45.79665" lon="4.9695">
        <ele>165.5</ele>
        <time>2011-06-13T09:12:32Z</time>
      </trkpt>
      <trkpt lat="45.79667" lon="4.96952">
        <ele>165.5</ele>
        <time>2011-06-13T09:12:33Z</time>
      </trkpt>
      <trkpt lat="45.79668" lon="4.96954">
        <ele>166.1</ele>
        <time>2011-06-13T09:12:34Z</time>
      </trkpt>
      <trkpt lat="45.79669" lon="4.96958">
        <ele>166.1</ele>
        <time>2011-06-13T09:12:35Z</time>
      </trkpt>
      <trkpt lat="45.79669" lon="4.96962">
        <ele>171.3</ele>
        <time>2011-06-13T09:12:36Z</time>
      </trkpt>
      <trkpt lat="45.79668" lon="4.96967">
        <ele>171.3</ele>
        <time>2011-06-13T09:12:37Z</time>
      </trkpt>
      <trkpt lat="45.79668" lon="4.9697">
        <ele>173</ele>
        <time>2011-06-13T09:12:38Z</time>
      </trkpt>
      <trkpt lat="45.79672" lon="4.97002">
        <ele>177</ele>
        <time>2011-06-13T09:12:51Z</time>
      </trkpt>
      <trkpt lat="45.79682" lon="4.97009">
        <ele>177</ele>
        <time>2011-06-13T09:12:55Z</time>
      </trkpt>
      <trkpt lat="45.79693" lon="4.97027">
        <ele>177</ele>
        <time>2011-06-13T09:12:56Z</time>
      </trkpt>
      <trkpt lat="45.79694" lon="4.97026">
        <ele>177</ele>
        <time>2011-06-13T09:12:57Z</time>
      </trkpt>
      <trkpt lat="45.79694" lon="4.97029">
        <ele>177</ele>
        <time>2011-06-13T09:12:58Z</time>
      </trkpt>
      <trkpt lat="45.79695" lon="4.97032">
        <ele>177</ele>
        <time>2011-06-13T09:12:59Z</time>
      </trkpt>
      <trkpt lat="45.79691" lon="4.97036">
        <ele>181.6</ele>
        <time>2011-06-13T09:13:00Z</time>
      </trkpt>
      <trkpt lat="45.7969" lon="4.9704">
        <ele>181.8</ele>
        <time>2011-06-13T09:13:01Z</time>
      </trkpt>
      <trkpt lat="45.79686" lon="4.97043">
        <ele>181.3</ele>
        <time>2011-06-13T09:13:02Z</time>
      </trkpt>
      <trkpt lat="45.79686" lon="4.97046">
        <ele>179.1</ele>
        <time>2011-06-13T09:13:03Z</time>
      </trkpt>
      <trkpt lat="45.79685" lon="4.9705">
        <ele>176.5</ele>
        <time>2011-06-13T09:13:04Z</time>
      </trkpt>
      <trkpt lat="45.7968" lon="4.97057">
        <ele>175.5</ele>
        <time>2011-06-13T09:13:06Z</time>
      </trkpt>
      <trkpt lat="45.79678" lon="4.9706">
        <ele>175</ele>
        <time>2011-06-13T09:13:07Z</time>
      </trkpt>
      <trkpt lat="45.79678" lon="4.97065">
        <ele>176.5</ele>
        <time>2011-06-13T09:13:08Z</time>
      </trkpt>
      <trkpt lat="45.79674" lon="4.97085">
        <ele>179</ele>
        <time>2011-06-13T09:13:14Z</time>
      </trkpt>
      <trkpt lat="45.79673" lon="4.97089">
        <ele>178.6</ele>
        <time>2011-06-13T09:13:15Z</time>
      </trkpt>
      <trkpt lat="45.79672" lon="4.97092">
        <ele>177.8</ele>
        <time>2011-06-13T09:13:16Z</time>
      </trkpt>
      <trkpt lat="45.79662" lon="4.97112">
        <ele>183.3</ele>
        <time>2011-06-13T09:13:22Z</time>
      </trkpt>
      <trkpt lat="45.79659" lon="4.97116">
        <ele>185.1</ele>
        <time>2011-06-13T09:13:23Z</time>
      </trkpt>
      <trkpt lat="45.79658" lon="4.97118">
        <ele>185.1</ele>
        <time>2011-06-13T09:13:24Z</time>
      </trkpt>
      <trkpt lat="45.79656" lon="4.9712">
        <ele>187.1</ele>
        <time>2011-06-13T09:13:25Z</time>
      </trkpt>
      <trkpt lat="45.79654" lon="4.97123">
        <ele>187.6</ele>
        <time>2011-06-13T09:13:26Z</time>
      </trkpt>
      <trkpt lat="45.79651" lon="4.97125">
        <ele>189.8</ele>
        <time>2011-06-13T09:13:27Z</time>
      </trkpt>
      <trkpt lat="45.79649" lon="4.97127">
        <ele>191.5</ele>
        <time>2011-06-13T09:13:28Z</time>
      </trkpt>
      <trkpt lat="45.79647" lon="4.9713">
        <ele>193.3</ele>
        <time>2011-06-13T09:13:29Z</time>
      </trkpt>
      <trkpt lat="45.79647" lon="4.97132">
        <ele>192.1</ele>
        <time>2011-06-13T09:13:30Z</time>
      </trkpt>
      <trkpt lat="45.79647" lon="4.97136">
        <ele>192.6</ele>
        <time>2011-06-13T09:13:31Z</time>
      </trkpt>
      <trkpt lat="45.79649" lon="4.97138">
        <ele>194.1</ele>
        <time>2011-06-13T09:13:32Z</time>
      </trkpt>
      <trkpt lat="45.79654" lon="4.97142">
        <ele>195.3</ele>
        <time>2011-06-13T09:13:34Z</time>
      </trkpt>
      <trkpt lat="45.79656" lon="4.97145">
        <ele>195.3</ele>
        <time>2011-06-13T09:13:35Z</time>
      </trkpt>
      <trkpt lat="45.79658" lon="4.97148">
        <ele>190.1</ele>
        <time>2011-06-13T09:13:36Z</time>
      </trkpt>
      <trkpt lat="45.79659" lon="4.97149">
        <ele>188.1</ele>
        <time>2011-06-13T09:13:37Z</time>
      </trkpt>
      <trkpt lat="45.7966" lon="4.97152">
        <ele>186.8</ele>
        <time>2011-06-13T09:13:38Z</time>
      </trkpt>
      <trkpt lat="45.79663" lon="4.97163">
        <ele>186.8</ele>
        <time>2011-06-13T09:13:41Z</time>
      </trkpt>
      <trkpt lat="45.79663" lon="4.97165">
        <ele>186.5</ele>
        <time>2011-06-13T09:13:42Z</time>
      </trkpt>
      <trkpt lat="45.79663" lon="4.97165">
        <ele>186.3</ele>
        <time>2011-06-13T09:13:43Z</time>
      </trkpt>
      <trkpt lat="45.79663" lon="4.97165">
        <ele>183.1</ele>
        <time>2011-06-13T09:13:44Z</time>
      </trkpt>
      <trkpt lat="45.79666" lon="4.97168">
        <ele>182.1</ele>
        <time>2011-06-13T09:13:45Z</time>
      </trkpt>
      <trkpt lat="45.79667" lon="4.97169">
        <ele>181.5</ele>
        <time>2011-06-13T09:13:46Z</time>
      </trkpt>
      <trkpt lat="45.79667" lon="4.97171">
        <ele>182.3</ele>
        <time>2011-06-13T09:13:47Z</time>
      </trkpt>
      <trkpt lat="45.79667" lon="4.97174">
        <ele>184.1</ele>
        <time>2011-06-13T09:13:48Z</time>
      </trkpt>
      <trkpt lat="45.79667" lon="4.97177">
        <ele>181.5</ele>
        <time>2011-06-13T09:13:49Z</time>
      </trkpt>
      <trkpt lat="45.79668" lon="4.97184">
        <ele>182.6</ele>
        <time>2011-06-13T09:13:51Z</time>
      </trkpt>
      <trkpt lat="45.79669" lon="4.97188">
        <ele>183.5</ele>
        <time>2011-06-13T09:13:52Z</time>
      </trkpt>
      <trkpt lat="45.79669" lon="4.97191">
        <ele>183.5</ele>
        <time>2011-06-13T09:13:53Z</time>
      </trkpt>
      <trkpt lat="45.79668" lon="4.97196">
        <ele>182.6</ele>
        <time>2011-06-13T09:13:54Z</time>
      </trkpt>
      <trkpt lat="45.79667" lon="4.972">
        <ele>182.6</ele>
        <time>2011-06-13T09:13:55Z</time>
      </trkpt>
      <trkpt lat="45.79666" lon="4.97213">
        <ele>185.6</ele>
        <time>2011-06-13T09:13:58Z</time>
      </trkpt>
      <trkpt lat="45.79665" lon="4.97219">
        <ele>184.5</ele>
        <time>2011-06-13T09:14:00Z</time>
      </trkpt>
      <trkpt lat="45.79669" lon="4.97221">
        <ele>184.5</ele>
        <time>2011-06-13T09:14:01Z</time>
      </trkpt>
      <trkpt lat="45.79669" lon="4.97225">
        <ele>185.1</ele>
        <time>2011-06-13T09:14:02Z</time>
      </trkpt>
      <trkpt lat="45.7967" lon="4.97228">
        <ele>185.1</ele>
        <time>2011-06-13T09:14:03Z</time>
      </trkpt>
      <trkpt lat="45.79674" lon="4.97238">
        <ele>187.3</ele>
        <time>2011-06-13T09:14:06Z</time>
      </trkpt>
      <trkpt lat="45.79674" lon="4.97243">
        <ele>186</ele>
        <time>2011-06-13T09:14:07Z</time>
      </trkpt>
      <trkpt lat="45.79678" lon="4.9725">
        <ele>191.3</ele>
        <time>2011-06-13T09:14:10Z</time>
      </trkpt>
      <trkpt lat="45.7968" lon="4.97253">
        <ele>192.8</ele>
        <time>2011-06-13T09:14:11Z</time>
      </trkpt>
      <trkpt lat="45.79685" lon="4.97267">
        <ele>186.6</ele>
        <time>2011-06-13T09:14:16Z</time>
      </trkpt>
      <trkpt lat="45.79686" lon="4.9727">
        <ele>186.8</ele>
        <time>2011-06-13T09:14:17Z</time>
      </trkpt>
      <trkpt lat="45.79686" lon="4.97273">
        <ele>186.1</ele>
        <time>2011-06-13T09:14:18Z</time>
      </trkpt>
      <trkpt lat="45.79687" lon="4.97277">
        <ele>184.5</ele>
        <time>2011-06-13T09:14:19Z</time>
      </trkpt>
      <trkpt lat="45.79691" lon="4.97291">
        <ele>180.6</ele>
        <time>2011-06-13T09:14:24Z</time>
      </trkpt>
      <trkpt lat="45.79691" lon="4.97295">
        <ele>179.8</ele>
        <time>2011-06-13T09:14:25Z</time>
      </trkpt>
      <trkpt lat="45.7969" lon="4.97298">
        <ele>180</ele>
        <time>2011-06-13T09:14:26Z</time>
      </trkpt>
      <trkpt lat="45.79689" lon="4.9731">
        <ele>182.5</ele>
        <time>2011-06-13T09:14:29Z</time>
      </trkpt>
      <trkpt lat="45.7969" lon="4.97319">
        <ele>181.5</ele>
        <time>2011-06-13T09:14:31Z</time>
      </trkpt>
      <trkpt lat="45.7969" lon="4.97322">
        <ele>182.1</ele>
        <time>2011-06-13T09:14:32Z</time>
      </trkpt>
      <trkpt lat="45.7969" lon="4.97326">
        <ele>182.1</ele>
        <time>2011-06-13T09:14:33Z</time>
      </trkpt>
      <trkpt lat="45.79691" lon="4.97334">
        <ele>183.8</ele>
        <time>2011-06-13T09:14:35Z</time>
      </trkpt>
      <trkpt lat="45.79694" lon="4.9734">
        <ele>186.1</ele>
        <time>2011-06-13T09:14:38Z</time>
      </trkpt>
      <trkpt lat="45.79694" lon="4.97343">
        <ele>185.6</ele>
        <time>2011-06-13T09:14:39Z</time>
      </trkpt>
      <trkpt lat="45.79694" lon="4.97347">
        <ele>185.1</ele>
        <time>2011-06-13T09:14:40Z</time>
      </trkpt>
      <trkpt lat="45.79695" lon="4.9735">
        <ele>182.6</ele>
        <time>2011-06-13T09:14:41Z</time>
      </trkpt>
      <trkpt lat="45.79696" lon="4.97354">
        <ele>179.6</ele>
        <time>2011-06-13T09:14:42Z</time>
      </trkpt>
      <trkpt lat="45.79695" lon="4.97373">
        <ele>179.5</ele>
        <time>2011-06-13T09:14:47Z</time>
      </trkpt>
      <trkpt lat="45.79695" lon="4.97377">
        <ele>180.3</ele>
        <time>2011-06-13T09:14:48Z</time>
      </trkpt>
      <trkpt lat="45.79695" lon="4.97381">
        <ele>180.8</ele>
        <time>2011-06-13T09:14:49Z</time>
      </trkpt>
      <trkpt lat="45.79695" lon="4.97384">
        <ele>181.8</ele>
        <time>2011-06-13T09:14:50Z</time>
      </trkpt>
      <trkpt lat="45.79694" lon="4.97387">
        <ele>182.3</ele>
        <time>2011-06-13T09:14:51Z</time>
      </trkpt>
      <trkpt lat="45.79693" lon="4.9739">
        <ele>182.8</ele>
        <time>2011-06-13T09:14:52Z</time>
      </trkpt>
      <trkpt lat="45.79694" lon="4.97395">
        <ele>183.8</ele>
        <time>2011-06-13T09:14:53Z</time>
      </trkpt>
      <trkpt lat="45.79693" lon="4.97415">
        <ele>187.1</ele>
        <time>2011-06-13T09:14:57Z</time>
      </trkpt>
      <trkpt lat="45.79691" lon="4.97421">
        <ele>187.8</ele>
        <time>2011-06-13T09:14:58Z</time>
      </trkpt>
      <trkpt lat="45.79691" lon="4.97427">
        <ele>187.5</ele>
        <time>2011-06-13T09:14:59Z</time>
      </trkpt>
      <trkpt lat="45.79693" lon="4.9743">
        <ele>186.8</ele>
        <time>2011-06-13T09:15:00Z</time>
      </trkpt>
      <trkpt lat="45.79697" lon="4.97432">
        <ele>184.6</ele>
        <time>2011-06-13T09:15:01Z</time>
      </trkpt>
      <trkpt lat="45.79695" lon="4.97433">
        <ele>184.1</ele>
        <time>2011-06-13T09:15:02Z</time>
      </trkpt>
      <trkpt lat="45.79694" lon="4.97436">
        <ele>184.6</ele>
        <time>2011-06-13T09:15:03Z</time>
      </trkpt>
      <trkpt lat="45.79694" lon="4.97438">
        <ele>184.6</ele>
        <time>2011-06-13T09:15:04Z</time>
      </trkpt>
      <trkpt lat="45.79695" lon="4.97441">
        <ele>184.6</ele>
        <time>2011-06-13T09:15:05Z</time>
      </trkpt>
      <trkpt lat="45.79696" lon="4.97449">
        <ele>186.6</ele>
        <time>2011-06-13T09:15:07Z</time>
      </trkpt>
      <trkpt lat="45.79697" lon="4.97454">
        <ele>185.6</ele>
        <time>2011-06-13T09:15:08Z</time>
      </trkpt>
      <trkpt lat="45.79699" lon="4.9746">
        <ele>186.3</ele>
        <time>2011-06-13T09:15:09Z</time>
      </trkpt>
      <trkpt lat="45.79702" lon="4.97469">
        <ele>185</ele>
        <time>2011-06-13T09:15:13Z</time>
      </trkpt>
      <trkpt lat="45.79703" lon="4.97472">
        <ele>185.6</ele>
        <time>2011-06-13T09:15:14Z</time>
      </trkpt>
      <trkpt lat="45.79704" lon="4.97475">
        <ele>183.8</ele>
        <time>2011-06-13T09:15:15Z</time>
      </trkpt>
      <trkpt lat="45.797" lon="4.97484">
        <ele>182.3</ele>
        <time>2011-06-13T09:15:17Z</time>
      </trkpt>
      <trkpt lat="45.79697" lon="4.97489">
        <ele>182.3</ele>
        <time>2011-06-13T09:15:18Z</time>
      </trkpt>
      <trkpt lat="45.79698" lon="4.97493">
        <ele>181.6</ele>
        <time>2011-06-13T09:15:19Z</time>
      </trkpt>
      <trkpt lat="45.79696" lon="4.97496">
        <ele>179.8</ele>
        <time>2011-06-13T09:15:20Z</time>
      </trkpt>
      <trkpt lat="45.79696" lon="4.975">
        <ele>179.6</ele>
        <time>2011-06-13T09:15:21Z</time>
      </trkpt>
      <trkpt lat="45.79694" lon="4.97504">
        <ele>181.3</ele>
        <time>2011-06-13T09:15:22Z</time>
      </trkpt>
      <trkpt lat="45.79694" lon="4.97508">
        <ele>180.8</ele>
        <time>2011-06-13T09:15:23Z</time>
      </trkpt>
      <trkpt lat="45.79696" lon="4.97519">
        <ele>181.6</ele>
        <time>2011-06-13T09:15:26Z</time>
      </trkpt>
      <trkpt lat="45.79696" lon="4.97523">
        <ele>180.8</ele>
        <time>2011-06-13T09:15:27Z</time>
      </trkpt>
      <trkpt lat="45.79696" lon="4.97526">
        <ele>180.6</ele>
        <time>2011-06-13T09:15:28Z</time>
      </trkpt>
      <trkpt lat="45.79697" lon="4.97529">
        <ele>180.6</ele>
        <time>2011-06-13T09:15:29Z</time>
      </trkpt>
      <trkpt lat="45.797" lon="4.97537">
        <ele>179.6</ele>
        <time>2011-06-13T09:15:31Z</time>
      </trkpt>
      <trkpt lat="45.79699" lon="4.97541">
        <ele>181.3</ele>
        <time>2011-06-13T09:15:32Z</time>
      </trkpt>
      <trkpt lat="45.79698" lon="4.97543">
        <ele>181.3</ele>
        <time>2011-06-13T09:15:33Z</time>
      </trkpt>
      <trkpt lat="45.79697" lon="4.97546">
        <ele>181.8</ele>
        <time>2011-06-13T09:15:34Z</time>
      </trkpt>
      <trkpt lat="45.79697" lon="4.9755">
        <ele>181.8</ele>
        <time>2011-06-13T09:15:35Z</time>
      </trkpt>
      <trkpt lat="45.79694" lon="4.97571">
        <ele>183.3</ele>
        <time>2011-06-13T09:15:41Z</time>
      </trkpt>
      <trkpt lat="45.79693" lon="4.97578">
        <ele>185.6</ele>
        <time>2011-06-13T09:15:43Z</time>
      </trkpt>
      <trkpt lat="45.79692" lon="4.97582">
        <ele>186.1</ele>
        <time>2011-06-13T09:15:44Z</time>
      </trkpt>
      <trkpt lat="45.79689" lon="4.97596">
        <ele>185.3</ele>
        <time>2011-06-13T09:15:48Z</time>
      </trkpt>
      <trkpt lat="45.79687" lon="4.97598">
        <ele>182.8</ele>
        <time>2011-06-13T09:15:49Z</time>
      </trkpt>
      <trkpt lat="45.79682" lon="4.97608">
        <ele>186.1</ele>
        <time>2011-06-13T09:15:52Z</time>
      </trkpt>
      <trkpt lat="45.79677" lon="4.97611">
        <ele>185.5</ele>
        <time>2011-06-13T09:15:54Z</time>
      </trkpt>
      <trkpt lat="45.79676" lon="4.97612">
        <ele>184</ele>
        <time>2011-06-13T09:15:55Z</time>
      </trkpt>
      <trkpt lat="45.79674" lon="4.97616">
        <ele>183.1</ele>
        <time>2011-06-13T09:15:56Z</time>
      </trkpt>
      <trkpt lat="45.79674" lon="4.9762">
        <ele>181.1</ele>
        <time>2011-06-13T09:15:57Z</time>
      </trkpt>
      <trkpt lat="45.79673" lon="4.97626">
        <ele>180.1</ele>
        <time>2011-06-13T09:15:58Z</time>
      </trkpt>
      <trkpt lat="45.79671" lon="4.97629">
        <ele>179.6</ele>
        <time>2011-06-13T09:15:59Z</time>
      </trkpt>
      <trkpt lat="45.79667" lon="4.97638">
        <ele>175.8</ele>
        <time>2011-06-13T09:16:02Z</time>
      </trkpt>
      <trkpt lat="45.79647" lon="4.97685">
        <ele>179.8</ele>
        <time>2011-06-13T09:16:16Z</time>
      </trkpt>
      <trkpt lat="45.79647" lon="4.97688">
        <ele>180.6</ele>
        <time>2011-06-13T09:16:17Z</time>
      </trkpt>
      <trkpt lat="45.79646" lon="4.97691">
        <ele>181</ele>
        <time>2011-06-13T09:16:18Z</time>
      </trkpt>
      <trkpt lat="45.79641" lon="4.97703">
        <ele>178.6</ele>
        <time>2011-06-13T09:16:21Z</time>
      </trkpt>
      <trkpt lat="45.79637" lon="4.9771">
        <ele>178.3</ele>
        <time>2011-06-13T09:16:23Z</time>
      </trkpt>
      <trkpt lat="45.79631" lon="4.97718">
        <ele>177.3</ele>
        <time>2011-06-13T09:16:26Z</time>
      </trkpt>
      <trkpt lat="45.79619" lon="4.97732">
        <ele>177.8</ele>
        <time>2011-06-13T09:16:31Z</time>
      </trkpt>
      <trkpt lat="45.79602" lon="4.97755">
        <ele>179.3</ele>
        <time>2011-06-13T09:16:40Z</time>
      </trkpt>
      <trkpt lat="45.796" lon="4.97758">
        <ele>178.8</ele>
        <time>2011-06-13T09:16:41Z</time>
      </trkpt>
      <trkpt lat="45.79598" lon="4.97761">
        <ele>177.6</ele>
        <time>2011-06-13T09:16:42Z</time>
      </trkpt>
      <trkpt lat="45.79597" lon="4.97764">
        <ele>177.1</ele>
        <time>2011-06-13T09:16:43Z</time>
      </trkpt>
      <trkpt lat="45.79595" lon="4.97767">
        <ele>177.3</ele>
        <time>2011-06-13T09:16:44Z</time>
      </trkpt>
      <trkpt lat="45.79593" lon="4.9777">
        <ele>176.3</ele>
        <time>2011-06-13T09:16:45Z</time>
      </trkpt>
      <trkpt lat="45.79592" lon="4.97773">
        <ele>175.3</ele>
        <time>2011-06-13T09:16:46Z</time>
      </trkpt>
      <trkpt lat="45.79588" lon="4.97782">
        <ele>177.1</ele>
        <time>2011-06-13T09:16:48Z</time>
      </trkpt>
      <trkpt lat="45.79588" lon="4.97786">
        <ele>176</ele>
        <time>2011-06-13T09:16:49Z</time>
      </trkpt>
      <trkpt lat="45.79588" lon="4.97791">
        <ele>175.6</ele>
        <time>2011-06-13T09:16:50Z</time>
      </trkpt>
      <trkpt lat="45.79591" lon="4.97796">
        <ele>173.5</ele>
        <time>2011-06-13T09:16:52Z</time>
      </trkpt>
      <trkpt lat="45.79592" lon="4.97799">
        <ele>173.1</ele>
        <time>2011-06-13T09:16:53Z</time>
      </trkpt>
      <trkpt lat="45.79594" lon="4.97803">
        <ele>173.1</ele>
        <time>2011-06-13T09:16:54Z</time>
      </trkpt>
      <trkpt lat="45.79599" lon="4.97816">
        <ele>170.8</ele>
        <time>2011-06-13T09:16:57Z</time>
      </trkpt>
      <trkpt lat="45.79599" lon="4.97822">
        <ele>172.6</ele>
        <time>2011-06-13T09:16:58Z</time>
      </trkpt>
      <trkpt lat="45.796" lon="4.97826">
        <ele>172.1</ele>
        <time>2011-06-13T09:16:59Z</time>
      </trkpt>
      <trkpt lat="45.79623" lon="4.97896">
        <ele>174.1</ele>
        <time>2011-06-13T09:17:16Z</time>
      </trkpt>
      <trkpt lat="45.79624" lon="4.979">
        <ele>174.1</ele>
        <time>2011-06-13T09:17:17Z</time>
      </trkpt>
      <trkpt lat="45.79625" lon="4.97911">
        <ele>176.1</ele>
        <time>2011-06-13T09:17:20Z</time>
      </trkpt>
      <trkpt lat="45.79626" lon="4.97914">
        <ele>176.1</ele>
        <time>2011-06-13T09:17:21Z</time>
      </trkpt>
      <trkpt lat="45.7963" lon="4.97924">
        <ele>178.1</ele>
        <time>2011-06-13T09:17:24Z</time>
      </trkpt>
      <trkpt lat="45.79632" lon="4.97931">
        <ele>179.6</ele>
        <time>2011-06-13T09:17:26Z</time>
      </trkpt>
      <trkpt lat="45.79633" lon="4.97935">
        <ele>180.3</ele>
        <time>2011-06-13T09:17:28Z</time>
      </trkpt>
      <trkpt lat="45.79634" lon="4.97938">
        <ele>180.8</ele>
        <time>2011-06-13T09:17:29Z</time>
      </trkpt>
      <trkpt lat="45.79636" lon="4.9794">
        <ele>180.8</ele>
        <time>2011-06-13T09:17:30Z</time>
      </trkpt>
      <trkpt lat="45.79651" lon="4.97959">
        <ele>182.1</ele>
        <time>2011-06-13T09:17:38Z</time>
      </trkpt>
      <trkpt lat="45.79657" lon="4.97965">
        <ele>182.3</ele>
        <time>2011-06-13T09:17:39Z</time>
      </trkpt>
      <trkpt lat="45.79678" lon="4.9798">
        <ele>182.3</ele>
        <time>2011-06-13T09:17:44Z</time>
      </trkpt>
      <trkpt lat="45.79677" lon="4.97975">
        <ele>182</ele>
        <time>2011-06-13T09:17:46Z</time>
      </trkpt>
      <trkpt lat="45.79678" lon="4.97973">
        <ele>182</ele>
        <time>2011-06-13T09:17:47Z</time>
      </trkpt>
      <trkpt lat="45.79683" lon="4.97975">
        <ele>181.8</ele>
        <time>2011-06-13T09:17:48Z</time>
      </trkpt>
      <trkpt lat="45.79687" lon="4.97976">
        <ele>181.8</ele>
        <time>2011-06-13T09:17:49Z</time>
      </trkpt>
      <trkpt lat="45.79687" lon="4.97973">
        <ele>181.8</ele>
        <time>2011-06-13T09:17:50Z</time>
      </trkpt>
      <trkpt lat="45.7969" lon="4.97973">
        <ele>181.8</ele>
        <time>2011-06-13T09:17:51Z</time>
      </trkpt>
      <trkpt lat="45.79695" lon="4.97976">
        <ele>181.6</ele>
        <time>2011-06-13T09:17:52Z</time>
      </trkpt>
      <trkpt lat="45.79705" lon="4.97982">
        <ele>183.6</ele>
        <time>2011-06-13T09:17:56Z</time>
      </trkpt>
      <trkpt lat="45.79706" lon="4.97983">
        <ele>183.6</ele>
        <time>2011-06-13T09:17:57Z</time>
      </trkpt>
      <trkpt lat="45.79709" lon="4.97987">
        <ele>183.5</ele>
        <time>2011-06-13T09:17:58Z</time>
      </trkpt>
      <trkpt lat="45.79711" lon="4.98003">
        <ele>182.6</ele>
        <time>2011-06-13T09:18:02Z</time>
      </trkpt>
      <trkpt lat="45.79707" lon="4.98016">
        <ele>180</ele>
        <time>2011-06-13T09:18:05Z</time>
      </trkpt>
      <trkpt lat="45.79708" lon="4.98019">
        <ele>180</ele>
        <time>2011-06-13T09:18:06Z</time>
      </trkpt>
      <trkpt lat="45.79708" lon="4.98022">
        <ele>179.6</ele>
        <time>2011-06-13T09:18:07Z</time>
      </trkpt>
      <trkpt lat="45.79709" lon="4.98025">
        <ele>179.6</ele>
        <time>2011-06-13T09:18:08Z</time>
      </trkpt>
      <trkpt lat="45.79711" lon="4.98028">
        <ele>181.1</ele>
        <time>2011-06-13T09:18:09Z</time>
      </trkpt>
      <trkpt lat="45.79711" lon="4.98033">
        <ele>181.1</ele>
        <time>2011-06-13T09:18:10Z</time>
      </trkpt>
      <trkpt lat="45.79711" lon="4.98044">
        <ele>180.8</ele>
        <time>2011-06-13T09:18:13Z</time>
      </trkpt>
      <trkpt lat="45.79712" lon="4.98048">
        <ele>180.1</ele>
        <time>2011-06-13T09:18:14Z</time>
      </trkpt>
      <trkpt lat="45.79714" lon="4.9805">
        <ele>180.5</ele>
        <time>2011-06-13T09:18:15Z</time>
      </trkpt>
      <trkpt lat="45.79717" lon="4.98053">
        <ele>181</ele>
        <time>2011-06-13T09:18:16Z</time>
      </trkpt>
      <trkpt lat="45.79718" lon="4.98057">
        <ele>182.1</ele>
        <time>2011-06-13T09:18:17Z</time>
      </trkpt>
      <trkpt lat="45.79722" lon="4.98069">
        <ele>181.6</ele>
        <time>2011-06-13T09:18:21Z</time>
      </trkpt>
      <trkpt lat="45.79722" lon="4.98073">
        <ele>181.6</ele>
        <time>2011-06-13T09:18:22Z</time>
      </trkpt>
      <trkpt lat="45.79721" lon="4.98076">
        <ele>181.8</ele>
        <time>2011-06-13T09:18:23Z</time>
      </trkpt>
      <trkpt lat="45.79724" lon="4.98078">
        <ele>181.8</ele>
        <time>2011-06-13T09:18:24Z</time>
      </trkpt>
      <trkpt lat="45.79726" lon="4.98081">
        <ele>182.3</ele>
        <time>2011-06-13T09:18:25Z</time>
      </trkpt>
      <trkpt lat="45.79727" lon="4.98089">
        <ele>180.3</ele>
        <time>2011-06-13T09:18:27Z</time>
      </trkpt>
      <trkpt lat="45.79732" lon="4.98099">
        <ele>176.6</ele>
        <time>2011-06-13T09:18:30Z</time>
      </trkpt>
      <trkpt lat="45.79733" lon="4.98102">
        <ele>177.8</ele>
        <time>2011-06-13T09:18:31Z</time>
      </trkpt>
      <trkpt lat="45.79734" lon="4.98105">
        <ele>177.8</ele>
        <time>2011-06-13T09:18:32Z</time>
      </trkpt>
      <trkpt lat="45.79735" lon="4.98108">
        <ele>177.1</ele>
        <time>2011-06-13T09:18:33Z</time>
      </trkpt>
      <trkpt lat="45.79737" lon="4.98112">
        <ele>177.1</ele>
        <time>2011-06-13T09:18:34Z</time>
      </trkpt>
      <trkpt lat="45.79738" lon="4.98115">
        <ele>176.1</ele>
        <time>2011-06-13T09:18:35Z</time>
      </trkpt>
      <trkpt lat="45.79739" lon="4.98118">
        <ele>174.6</ele>
        <time>2011-06-13T09:18:36Z</time>
      </trkpt>
      <trkpt lat="45.79741" lon="4.9812">
        <ele>177.3</ele>
        <time>2011-06-13T09:18:37Z</time>
      </trkpt>
      <trkpt lat="45.79741" lon="4.98123">
        <ele>178.3</ele>
        <time>2011-06-13T09:18:38Z</time>
      </trkpt>
      <trkpt lat="45.79742" lon="4.98124">
        <ele>178.8</ele>
        <time>2011-06-13T09:18:39Z</time>
      </trkpt>
      <trkpt lat="45.79742" lon="4.98127">
        <ele>176.6</ele>
        <time>2011-06-13T09:18:40Z</time>
      </trkpt>
      <trkpt lat="45.79749" lon="4.98148">
        <ele>180.6</ele>
        <time>2011-06-13T09:18:46Z</time>
      </trkpt>
      <trkpt lat="45.7975" lon="4.98153">
        <ele>180.6</ele>
        <time>2011-06-13T09:18:47Z</time>
      </trkpt>
      <trkpt lat="45.7975" lon="4.98158">
        <ele>175.1</ele>
        <time>2011-06-13T09:18:48Z</time>
      </trkpt>
      <trkpt lat="45.79748" lon="4.98168">
        <ele>175.6</ele>
        <time>2011-06-13T09:18:50Z</time>
      </trkpt>
      <trkpt lat="45.79745" lon="4.98185">
        <ele>177.3</ele>
        <time>2011-06-13T09:18:54Z</time>
      </trkpt>
      <trkpt lat="45.79744" lon="4.98192">
        <ele>178.1</ele>
        <time>2011-06-13T09:18:56Z</time>
      </trkpt>
      <trkpt lat="45.79738" lon="4.98211">
        <ele>173.3</ele>
        <time>2011-06-13T09:19:01Z</time>
      </trkpt>
      <trkpt lat="45.79728" lon="4.98245">
        <ele>175.6</ele>
        <time>2011-06-13T09:19:10Z</time>
      </trkpt>
      <trkpt lat="45.79726" lon="4.98253">
        <ele>176.3</ele>
        <time>2011-06-13T09:19:12Z</time>
      </trkpt>
      <trkpt lat="45.79725" lon="4.98255">
        <ele>176.1</ele>
        <time>2011-06-13T09:19:13Z</time>
      </trkpt>
      <trkpt lat="45.79722" lon="4.98261">
        <ele>176</ele>
        <time>2011-06-13T09:19:15Z</time>
      </trkpt>
      <trkpt lat="45.79722" lon="4.98264">
        <ele>174.8</ele>
        <time>2011-06-13T09:19:16Z</time>
      </trkpt>
      <trkpt lat="45.79722" lon="4.98267">
        <ele>173.8</ele>
        <time>2011-06-13T09:19:17Z</time>
      </trkpt>
      <trkpt lat="45.79722" lon="4.9827">
        <ele>175.8</ele>
        <time>2011-06-13T09:19:18Z</time>
      </trkpt>
      <trkpt lat="45.79723" lon="4.98274">
        <ele>175.8</ele>
        <time>2011-06-13T09:19:19Z</time>
      </trkpt>
      <trkpt lat="45.79735" lon="4.98306">
        <ele>176.3</ele>
        <time>2011-06-13T09:19:29Z</time>
      </trkpt>
      <trkpt lat="45.79737" lon="4.98309">
        <ele>175.8</ele>
        <time>2011-06-13T09:19:30Z</time>
      </trkpt>
      <trkpt lat="45.7974" lon="4.98324">
        <ele>177.8</ele>
        <time>2011-06-13T09:19:34Z</time>
      </trkpt>
      <trkpt lat="45.79742" lon="4.98331">
        <ele>177.8</ele>
        <time>2011-06-13T09:19:36Z</time>
      </trkpt>
      <trkpt lat="45.79748" lon="4.9835">
        <ele>177.3</ele>
        <time>2011-06-13T09:19:41Z</time>
      </trkpt>
      <trkpt lat="45.79748" lon="4.98354">
        <ele>179.1</ele>
        <time>2011-06-13T09:19:42Z</time>
      </trkpt>
      <trkpt lat="45.79751" lon="4.98361">
        <ele>179.3</ele>
        <time>2011-06-13T09:19:44Z</time>
      </trkpt>
      <trkpt lat="45.79755" lon="4.98375">
        <ele>180.5</ele>
        <time>2011-06-13T09:19:48Z</time>
      </trkpt>
      <trkpt lat="45.79756" lon="4.98379">
        <ele>180.5</ele>
        <time>2011-06-13T09:19:49Z</time>
      </trkpt>
      <trkpt lat="45.79757" lon="4.98389">
        <ele>182.6</ele>
        <time>2011-06-13T09:19:52Z</time>
      </trkpt>
      <trkpt lat="45.79758" lon="4.98393">
        <ele>182.6</ele>
        <time>2011-06-13T09:19:53Z</time>
      </trkpt>
      <trkpt lat="45.79759" lon="4.98397">
        <ele>182.8</ele>
        <time>2011-06-13T09:19:54Z</time>
      </trkpt>
      <trkpt lat="45.79767" lon="4.98422">
        <ele>182.5</ele>
        <time>2011-06-13T09:20:01Z</time>
      </trkpt>
      <trkpt lat="45.79771" lon="4.98438">
        <ele>186.6</ele>
        <time>2011-06-13T09:20:05Z</time>
      </trkpt>
      <trkpt lat="45.79783" lon="4.98467">
        <ele>189</ele>
        <time>2011-06-13T09:20:13Z</time>
      </trkpt>
      <trkpt lat="45.79788" lon="4.98478">
        <ele>190.8</ele>
        <time>2011-06-13T09:20:16Z</time>
      </trkpt>
      <trkpt lat="45.79789" lon="4.98483">
        <ele>191.5</ele>
        <time>2011-06-13T09:20:17Z</time>
      </trkpt>
      <trkpt lat="45.79802" lon="4.9853">
        <ele>183.6</ele>
        <time>2011-06-13T09:20:29Z</time>
      </trkpt>
      <trkpt lat="45.79803" lon="4.98534">
        <ele>182.3</ele>
        <time>2011-06-13T09:20:30Z</time>
      </trkpt>
      <trkpt lat="45.79802" lon="4.98538">
        <ele>180.3</ele>
        <time>2011-06-13T09:20:31Z</time>
      </trkpt>
      <trkpt lat="45.79797" lon="4.98555">
        <ele>174.1</ele>
        <time>2011-06-13T09:20:34Z</time>
      </trkpt>
      <trkpt lat="45.79794" lon="4.98561">
        <ele>174</ele>
        <time>2011-06-13T09:20:35Z</time>
      </trkpt>
      <trkpt lat="45.7979" lon="4.98575">
        <ele>178.6</ele>
        <time>2011-06-13T09:20:37Z</time>
      </trkpt>
      <trkpt lat="45.79771" lon="4.98631">
        <ele>184.8</ele>
        <time>2011-06-13T09:20:49Z</time>
      </trkpt>
      <trkpt lat="45.7977" lon="4.98636">
        <ele>184.3</ele>
        <time>2011-06-13T09:20:50Z</time>
      </trkpt>
      <trkpt lat="45.79767" lon="4.98656">
        <ele>186.8</ele>
        <time>2011-06-13T09:20:55Z</time>
      </trkpt>
      <trkpt lat="45.79767" lon="4.98662">
        <ele>184.3</ele>
        <time>2011-06-13T09:20:57Z</time>
      </trkpt>
      <trkpt lat="45.79767" lon="4.98665">
        <ele>184.1</ele>
        <time>2011-06-13T09:20:58Z</time>
      </trkpt>
      <trkpt lat="45.79768" lon="4.98668">
        <ele>185.1</ele>
        <time>2011-06-13T09:20:59Z</time>
      </trkpt>
      <trkpt lat="45.79773" lon="4.98683">
        <ele>187.6</ele>
        <time>2011-06-13T09:21:03Z</time>
      </trkpt>
      <trkpt lat="45.79775" lon="4.98688">
        <ele>188</ele>
        <time>2011-06-13T09:21:04Z</time>
      </trkpt>
      <trkpt lat="45.79776" lon="4.98691">
        <ele>189.3</ele>
        <time>2011-06-13T09:21:05Z</time>
      </trkpt>
      <trkpt lat="45.79778" lon="4.98695">
        <ele>191.1</ele>
        <time>2011-06-13T09:21:06Z</time>
      </trkpt>
      <trkpt lat="45.79779" lon="4.98699">
        <ele>190.5</ele>
        <time>2011-06-13T09:21:07Z</time>
      </trkpt>
      <trkpt lat="45.79779" lon="4.98703">
        <ele>190.5</ele>
        <time>2011-06-13T09:21:08Z</time>
      </trkpt>
      <trkpt lat="45.7978" lon="4.98707">
        <ele>190.6</ele>
        <time>2011-06-13T09:21:09Z</time>
      </trkpt>
      <trkpt lat="45.79781" lon="4.98715">
        <ele>190.8</ele>
        <time>2011-06-13T09:21:11Z</time>
      </trkpt>
      <trkpt lat="45.79782" lon="4.98729">
        <ele>188</ele>
        <time>2011-06-13T09:21:15Z</time>
      </trkpt>
      <trkpt lat="45.79783" lon="4.98732">
        <ele>187.8</ele>
        <time>2011-06-13T09:21:16Z</time>
      </trkpt>
      <trkpt lat="45.79784" lon="4.98735">
        <ele>187.1</ele>
        <time>2011-06-13T09:21:17Z</time>
      </trkpt>
      <trkpt lat="45.79786" lon="4.98737">
        <ele>187.1</ele>
        <time>2011-06-13T09:21:18Z</time>
      </trkpt>
      <trkpt lat="45.79789" lon="4.98742">
        <ele>186.8</ele>
        <time>2011-06-13T09:21:20Z</time>
      </trkpt>
      <trkpt lat="45.79793" lon="4.98751">
        <ele>186.5</ele>
        <time>2011-06-13T09:21:24Z</time>
      </trkpt>
      <trkpt lat="45.79798" lon="4.98762">
        <ele>186.5</ele>
        <time>2011-06-13T09:21:25Z</time>
      </trkpt>
      <trkpt lat="45.79803" lon="4.98765">
        <ele>184.8</ele>
        <time>2011-06-13T09:21:26Z</time>
      </trkpt>
      <trkpt lat="45.79808" lon="4.98772">
        <ele>184.1</ele>
        <time>2011-06-13T09:21:28Z</time>
      </trkpt>
      <trkpt lat="45.79808" lon="4.98776">
        <ele>184.1</ele>
        <time>2011-06-13T09:21:29Z</time>
      </trkpt>
      <trkpt lat="45.79808" lon="4.98779">
        <ele>184.6</ele>
        <time>2011-06-13T09:21:30Z</time>
      </trkpt>
      <trkpt lat="45.79806" lon="4.98793">
        <ele>185.5</ele>
        <time>2011-06-13T09:21:33Z</time>
      </trkpt>
      <trkpt lat="45.79808" lon="4.98797">
        <ele>185</ele>
        <time>2011-06-13T09:21:34Z</time>
      </trkpt>
      <trkpt lat="45.79808" lon="4.98801">
        <ele>185.6</ele>
        <time>2011-06-13T09:21:35Z</time>
      </trkpt>
      <trkpt lat="45.79811" lon="4.98804">
        <ele>184.8</ele>
        <time>2011-06-13T09:21:36Z</time>
      </trkpt>
      <trkpt lat="45.79814" lon="4.98807">
        <ele>185.3</ele>
        <time>2011-06-13T09:21:37Z</time>
      </trkpt>
      <trkpt lat="45.79812" lon="4.98812">
        <ele>183.1</ele>
        <time>2011-06-13T09:21:38Z</time>
      </trkpt>
      <trkpt lat="45.79814" lon="4.98815">
        <ele>182.8</ele>
        <time>2011-06-13T09:21:39Z</time>
      </trkpt>
      <trkpt lat="45.79813" lon="4.98823">
        <ele>184.1</ele>
        <time>2011-06-13T09:21:41Z</time>
      </trkpt>
      <trkpt lat="45.79814" lon="4.98827">
        <ele>185.8</ele>
        <time>2011-06-13T09:21:42Z</time>
      </trkpt>
      <trkpt lat="45.79814" lon="4.98831">
        <ele>187</ele>
        <time>2011-06-13T09:21:43Z</time>
      </trkpt>
      <trkpt lat="45.79813" lon="4.98835">
        <ele>185.5</ele>
        <time>2011-06-13T09:21:44Z</time>
      </trkpt>
      <trkpt lat="45.79813" lon="4.98839">
        <ele>184.8</ele>
        <time>2011-06-13T09:21:45Z</time>
      </trkpt>
      <trkpt lat="45.79813" lon="4.98847">
        <ele>186.6</ele>
        <time>2011-06-13T09:21:47Z</time>
      </trkpt>
      <trkpt lat="45.79813" lon="4.98851">
        <ele>188.8</ele>
        <time>2011-06-13T09:21:48Z</time>
      </trkpt>
      <trkpt lat="45.79813" lon="4.98854">
        <ele>188.8</ele>
        <time>2011-06-13T09:21:49Z</time>
      </trkpt>
      <trkpt lat="45.79804" lon="4.98877">
        <ele>189.3</ele>
        <time>2011-06-13T09:21:55Z</time>
      </trkpt>
      <trkpt lat="45.79802" lon="4.98885">
        <ele>186.8</ele>
        <time>2011-06-13T09:21:57Z</time>
      </trkpt>
      <trkpt lat="45.79801" lon="4.98889">
        <ele>186.3</ele>
        <time>2011-06-13T09:21:58Z</time>
      </trkpt>
      <trkpt lat="45.79797" lon="4.98901">
        <ele>184.8</ele>
        <time>2011-06-13T09:22:02Z</time>
      </trkpt>
      <trkpt lat="45.79796" lon="4.98905">
        <ele>185.3</ele>
        <time>2011-06-13T09:22:03Z</time>
      </trkpt>
      <trkpt lat="45.79791" lon="4.98938">
        <ele>180.6</ele>
        <time>2011-06-13T09:22:11Z</time>
      </trkpt>
      <trkpt lat="45.79791" lon="4.98943">
        <ele>181.1</ele>
        <time>2011-06-13T09:22:12Z</time>
      </trkpt>
      <trkpt lat="45.79791" lon="4.98945">
        <ele>180.3</ele>
        <time>2011-06-13T09:22:13Z</time>
      </trkpt>
      <trkpt lat="45.79794" lon="4.98952">
        <ele>180.3</ele>
        <time>2011-06-13T09:22:14Z</time>
      </trkpt>
      <trkpt lat="45.79799" lon="4.98959">
        <ele>175</ele>
        <time>2011-06-13T09:22:17Z</time>
      </trkpt>
      <trkpt lat="45.79802" lon="4.98961">
        <ele>175</ele>
        <time>2011-06-13T09:22:18Z</time>
      </trkpt>
      <trkpt lat="45.79812" lon="4.98963">
        <ele>174.8</ele>
        <time>2011-06-13T09:22:20Z</time>
      </trkpt>
      <trkpt lat="45.79823" lon="4.98962">
        <ele>173.8</ele>
        <time>2011-06-13T09:22:23Z</time>
      </trkpt>
      <trkpt lat="45.79826" lon="4.98962">
        <ele>173.6</ele>
        <time>2011-06-13T09:22:24Z</time>
      </trkpt>
      <trkpt lat="45.79834" lon="4.98965">
        <ele>174.3</ele>
        <time>2011-06-13T09:22:25Z</time>
      </trkpt>
      <trkpt lat="45.79839" lon="4.98967">
        <ele>174.6</ele>
        <time>2011-06-13T09:22:26Z</time>
      </trkpt>
      <trkpt lat="45.79841" lon="4.98963">
        <ele>174.3</ele>
        <time>2011-06-13T09:22:27Z</time>
      </trkpt>
      <trkpt lat="45.79841" lon="4.9896">
        <ele>174.1</ele>
        <time>2011-06-13T09:22:28Z</time>
      </trkpt>
      <trkpt lat="45.79843" lon="4.98958">
        <ele>174.1</ele>
        <time>2011-06-13T09:22:29Z</time>
      </trkpt>
      <trkpt lat="45.79839" lon="4.98948">
        <ele>175.8</ele>
        <time>2011-06-13T09:22:30Z</time>
      </trkpt>
      <trkpt lat="45.79837" lon="4.98942">
        <ele>177.3</ele>
        <time>2011-06-13T09:22:31Z</time>
      </trkpt>
      <trkpt lat="45.79839" lon="4.9894">
        <ele>177.6</ele>
        <time>2011-06-13T09:22:32Z</time>
      </trkpt>
      <trkpt lat="45.79849" lon="4.98935">
        <ele>180</ele>
        <time>2011-06-13T09:22:36Z</time>
      </trkpt>
      <trkpt lat="45.79852" lon="4.98934">
        <ele>180.3</ele>
        <time>2011-06-13T09:22:37Z</time>
      </trkpt>
      <trkpt lat="45.79862" lon="4.9893">
        <ele>180.1</ele>
        <time>2011-06-13T09:22:41Z</time>
      </trkpt>
      <trkpt lat="45.79872" lon="4.98929">
        <ele>180</ele>
        <time>2011-06-13T09:22:44Z</time>
      </trkpt>
      <trkpt lat="45.79878" lon="4.98931">
        <ele>180.1</ele>
        <time>2011-06-13T09:22:45Z</time>
      </trkpt>
      <trkpt lat="45.79881" lon="4.98929">
        <ele>179.6</ele>
        <time>2011-06-13T09:22:46Z</time>
      </trkpt>
      <trkpt lat="45.79886" lon="4.9893">
        <ele>180.3</ele>
        <time>2011-06-13T09:22:47Z</time>
      </trkpt>
      <trkpt lat="45.79889" lon="4.98929">
        <ele>180.1</ele>
        <time>2011-06-13T09:22:48Z</time>
      </trkpt>
      <trkpt lat="45.79892" lon="4.9893">
        <ele>179.6</ele>
        <time>2011-06-13T09:22:49Z</time>
      </trkpt>
      <trkpt lat="45.79896" lon="4.9893">
        <ele>180.1</ele>
        <time>2011-06-13T09:22:50Z</time>
      </trkpt>
      <trkpt lat="45.79897" lon="4.98927">
        <ele>179.8</ele>
        <time>2011-06-13T09:22:51Z</time>
      </trkpt>
      <trkpt lat="45.79899" lon="4.98924">
        <ele>179.8</ele>
        <time>2011-06-13T09:22:52Z</time>
      </trkpt>
      <trkpt lat="45.79904" lon="4.98925">
        <ele>179.8</ele>
        <time>2011-06-13T09:22:53Z</time>
      </trkpt>
      <trkpt lat="45.7991" lon="4.98926">
        <ele>179.8</ele>
        <time>2011-06-13T09:22:54Z</time>
      </trkpt>
      <trkpt lat="45.79907" lon="4.98918">
        <ele>179.1</ele>
        <time>2011-06-13T09:22:55Z</time>
      </trkpt>
      <trkpt lat="45.79914" lon="4.98923">
        <ele>179.3</ele>
        <time>2011-06-13T09:22:56Z</time>
      </trkpt>
      <trkpt lat="45.79918" lon="4.98923">
        <ele>179.3</ele>
        <time>2011-06-13T09:22:57Z</time>
      </trkpt>
      <trkpt lat="45.79923" lon="4.98923">
        <ele>179.3</ele>
        <time>2011-06-13T09:22:58Z</time>
      </trkpt>
      <trkpt lat="45.79925" lon="4.98921">
        <ele>179.1</ele>
        <time>2011-06-13T09:22:59Z</time>
      </trkpt>
      <trkpt lat="45.79927" lon="4.98918">
        <ele>179.1</ele>
        <time>2011-06-13T09:23:00Z</time>
      </trkpt>
      <trkpt lat="45.79931" lon="4.98919">
        <ele>179.1</ele>
        <time>2011-06-13T09:23:01Z</time>
      </trkpt>
      <trkpt lat="45.79932" lon="4.98915">
        <ele>179.1</ele>
        <time>2011-06-13T09:23:02Z</time>
      </trkpt>
      <trkpt lat="45.79935" lon="4.98913">
        <ele>179.1</ele>
        <time>2011-06-13T09:23:03Z</time>
      </trkpt>
      <trkpt lat="45.79939" lon="4.98912">
        <ele>179.1</ele>
        <time>2011-06-13T09:23:04Z</time>
      </trkpt>
      <trkpt lat="45.8" lon="4.98881">
        <ele>178.1</ele>
        <time>2011-06-13T09:23:23Z</time>
      </trkpt>
      <trkpt lat="45.80008" lon="4.98877">
        <ele>178.1</ele>
        <time>2011-06-13T09:23:26Z</time>
      </trkpt>
      <trkpt lat="45.80074" lon="4.98825">
        <ele>177.8</ele>
        <time>2011-06-13T09:23:52Z</time>
      </trkpt>
      <trkpt lat="45.80078" lon="4.98824">
        <ele>178.1</ele>
        <time>2011-06-13T09:23:53Z</time>
      </trkpt>
      <trkpt lat="45.80083" lon="4.98818">
        <ele>178</ele>
        <time>2011-06-13T09:23:56Z</time>
      </trkpt>
      <trkpt lat="45.80086" lon="4.98816">
        <ele>178</ele>
        <time>2011-06-13T09:23:57Z</time>
      </trkpt>
      <trkpt lat="45.80088" lon="4.98815">
        <ele>178.3</ele>
        <time>2011-06-13T09:23:58Z</time>
      </trkpt>
      <trkpt lat="45.8009" lon="4.98813">
        <ele>178.6</ele>
        <time>2011-06-13T09:23:59Z</time>
      </trkpt>
      <trkpt lat="45.8009" lon="4.9881">
        <ele>178.6</ele>
        <time>2011-06-13T09:24:00Z</time>
      </trkpt>
      <trkpt lat="45.80092" lon="4.98809">
        <ele>178.3</ele>
        <time>2011-06-13T09:24:01Z</time>
      </trkpt>
      <trkpt lat="45.80095" lon="4.98808">
        <ele>178.5</ele>
        <time>2011-06-13T09:24:02Z</time>
      </trkpt>
      <trkpt lat="45.80105" lon="4.98802">
        <ele>178.8</ele>
        <time>2011-06-13T09:24:06Z</time>
      </trkpt>
      <trkpt lat="45.80112" lon="4.98791">
        <ele>181</ele>
        <time>2011-06-13T09:24:11Z</time>
      </trkpt>
      <trkpt lat="45.8012" lon="4.98796">
        <ele>180.5</ele>
        <time>2011-06-13T09:24:12Z</time>
      </trkpt>
      <trkpt lat="45.80129" lon="4.98801">
        <ele>179.5</ele>
        <time>2011-06-13T09:24:13Z</time>
      </trkpt>
      <trkpt lat="45.80139" lon="4.98807">
        <ele>178.1</ele>
        <time>2011-06-13T09:24:14Z</time>
      </trkpt>
      <trkpt lat="45.80145" lon="4.98809">
        <ele>177.1</ele>
        <time>2011-06-13T09:24:15Z</time>
      </trkpt>
      <trkpt lat="45.80146" lon="4.98806">
        <ele>177.6</ele>
        <time>2011-06-13T09:24:16Z</time>
      </trkpt>
      <trkpt lat="45.8015" lon="4.98806">
        <ele>177</ele>
        <time>2011-06-13T09:24:17Z</time>
      </trkpt>
      <trkpt lat="45.80146" lon="4.98798">
        <ele>177.8</ele>
        <time>2011-06-13T09:24:18Z</time>
      </trkpt>
      <trkpt lat="45.80147" lon="4.98795">
        <ele>178</ele>
        <time>2011-06-13T09:24:19Z</time>
      </trkpt>
      <trkpt lat="45.80149" lon="4.98791">
        <ele>179.1</ele>
        <time>2011-06-13T09:24:20Z</time>
      </trkpt>
      <trkpt lat="45.80149" lon="4.98785">
        <ele>180.3</ele>
        <time>2011-06-13T09:24:21Z</time>
      </trkpt>
      <trkpt lat="45.80151" lon="4.98783">
        <ele>180.8</ele>
        <time>2011-06-13T09:24:22Z</time>
      </trkpt>
      <trkpt lat="45.80155" lon="4.98783">
        <ele>180.6</ele>
        <time>2011-06-13T09:24:23Z</time>
      </trkpt>
      <trkpt lat="45.8016" lon="4.98784">
        <ele>179.6</ele>
        <time>2011-06-13T09:24:24Z</time>
      </trkpt>
      <trkpt lat="45.80163" lon="4.98782">
        <ele>179.6</ele>
        <time>2011-06-13T09:24:25Z</time>
      </trkpt>
      <trkpt lat="45.80172" lon="4.98788">
        <ele>177.6</ele>
        <time>2011-06-13T09:24:26Z</time>
      </trkpt>
      <trkpt lat="45.8018" lon="4.98793">
        <ele>176.5</ele>
        <time>2011-06-13T09:24:27Z</time>
      </trkpt>
      <trkpt lat="45.80186" lon="4.98796">
        <ele>176</ele>
        <time>2011-06-13T09:24:28Z</time>
      </trkpt>
      <trkpt lat="45.80187" lon="4.98793">
        <ele>176</ele>
        <time>2011-06-13T09:24:29Z</time>
      </trkpt>
      <trkpt lat="45.80191" lon="4.98793">
        <ele>175.8</ele>
        <time>2011-06-13T09:24:30Z</time>
      </trkpt>
      <trkpt lat="45.80202" lon="4.98797">
        <ele>174.8</ele>
        <time>2011-06-13T09:24:33Z</time>
      </trkpt>
      <trkpt lat="45.80199" lon="4.98791">
        <ele>175.6</ele>
        <time>2011-06-13T09:24:34Z</time>
      </trkpt>
      <trkpt lat="45.80184" lon="4.98772">
        <ele>179</ele>
        <time>2011-06-13T09:24:35Z</time>
      </trkpt>
      <trkpt lat="45.80184" lon="4.98769">
        <ele>180.3</ele>
        <time>2011-06-13T09:24:36Z</time>
      </trkpt>
      <trkpt lat="45.80185" lon="4.98769">
        <ele>180.8</ele>
        <time>2011-06-13T09:24:37Z</time>
      </trkpt>
      <trkpt lat="45.80188" lon="4.98772">
        <ele>182</ele>
        <time>2011-06-13T09:24:38Z</time>
      </trkpt>
      <trkpt lat="45.8019" lon="4.98775">
        <ele>181.6</ele>
        <time>2011-06-13T09:24:39Z</time>
      </trkpt>
      <trkpt lat="45.80189" lon="4.9878">
        <ele>182.5</ele>
        <time>2011-06-13T09:24:40Z</time>
      </trkpt>
      <trkpt lat="45.80188" lon="4.98785">
        <ele>183.3</ele>
        <time>2011-06-13T09:24:41Z</time>
      </trkpt>
      <trkpt lat="45.80189" lon="4.98789">
        <ele>183.5</ele>
        <time>2011-06-13T09:24:42Z</time>
      </trkpt>
      <trkpt lat="45.80195" lon="4.9881">
        <ele>183.8</ele>
        <time>2011-06-13T09:24:47Z</time>
      </trkpt>
      <trkpt lat="45.80195" lon="4.98809">
        <ele>184</ele>
        <time>2011-06-13T09:24:48Z</time>
      </trkpt>
      <trkpt lat="45.80194" lon="4.98809">
        <ele>184.1</ele>
        <time>2011-06-13T09:24:49Z</time>
      </trkpt>
      <trkpt lat="45.80197" lon="4.98811">
        <ele>184</ele>
        <time>2011-06-13T09:24:50Z</time>
      </trkpt>
      <trkpt lat="45.80201" lon="4.98813">
        <ele>184</ele>
        <time>2011-06-13T09:24:51Z</time>
      </trkpt>
      <trkpt lat="45.80202" lon="4.98817">
        <ele>183.5</ele>
        <time>2011-06-13T09:24:52Z</time>
      </trkpt>
      <trkpt lat="45.80207" lon="4.98819">
        <ele>183.5</ele>
        <time>2011-06-13T09:24:53Z</time>
      </trkpt>
      <trkpt lat="45.8021" lon="4.98822">
        <ele>183.1</ele>
        <time>2011-06-13T09:24:54Z</time>
      </trkpt>
      <trkpt lat="45.80217" lon="4.98856">
        <ele>183.8</ele>
        <time>2011-06-13T09:25:04Z</time>
      </trkpt>
      <trkpt lat="45.80201" lon="4.98867">
        <ele>183.1</ele>
        <time>2011-06-13T09:25:05Z</time>
      </trkpt>
      <trkpt lat="45.80206" lon="4.98868">
        <ele>187.3</ele>
        <time>2011-06-13T09:25:06Z</time>
      </trkpt>
      <trkpt lat="45.80208" lon="4.98872">
        <ele>183.3</ele>
        <time>2011-06-13T09:25:07Z</time>
      </trkpt>
      <trkpt lat="45.80207" lon="4.98875">
        <ele>183.1</ele>
        <time>2011-06-13T09:25:08Z</time>
      </trkpt>
      <trkpt lat="45.80208" lon="4.98879">
        <ele>183.3</ele>
        <time>2011-06-13T09:25:09Z</time>
      </trkpt>
      <trkpt lat="45.80208" lon="4.98883">
        <ele>183.6</ele>
        <time>2011-06-13T09:25:10Z</time>
      </trkpt>
      <trkpt lat="45.80207" lon="4.98888">
        <ele>187.3</ele>
        <time>2011-06-13T09:25:11Z</time>
      </trkpt>
      <trkpt lat="45.80207" lon="4.98893">
        <ele>190.1</ele>
        <time>2011-06-13T09:25:12Z</time>
      </trkpt>
      <trkpt lat="45.80207" lon="4.98917">
        <ele>193</ele>
        <time>2011-06-13T09:25:17Z</time>
      </trkpt>
      <trkpt lat="45.80206" lon="4.98933">
        <ele>185.8</ele>
        <time>2011-06-13T09:25:22Z</time>
      </trkpt>
      <trkpt lat="45.80206" lon="4.98938">
        <ele>189</ele>
        <time>2011-06-13T09:25:23Z</time>
      </trkpt>
      <trkpt lat="45.80206" lon="4.9895">
        <ele>191.5</ele>
        <time>2011-06-13T09:25:26Z</time>
      </trkpt>
      <trkpt lat="45.80207" lon="4.98961">
        <ele>193.8</ele>
        <time>2011-06-13T09:25:29Z</time>
      </trkpt>
      <trkpt lat="45.80208" lon="4.9899">
        <ele>183.5</ele>
        <time>2011-06-13T09:25:37Z</time>
      </trkpt>
      <trkpt lat="45.80209" lon="4.99005">
        <ele>182.8</ele>
        <time>2011-06-13T09:25:40Z</time>
      </trkpt>
      <trkpt lat="45.80208" lon="4.9901">
        <ele>182.1</ele>
        <time>2011-06-13T09:25:41Z</time>
      </trkpt>
      <trkpt lat="45.80207" lon="4.99014">
        <ele>182.1</ele>
        <time>2011-06-13T09:25:42Z</time>
      </trkpt>
      <trkpt lat="45.80206" lon="4.9902">
        <ele>180.8</ele>
        <time>2011-06-13T09:25:43Z</time>
      </trkpt>
      <trkpt lat="45.80205" lon="4.99034">
        <ele>182.6</ele>
        <time>2011-06-13T09:25:46Z</time>
      </trkpt>
      <trkpt lat="45.80204" lon="4.99037">
        <ele>184.3</ele>
        <time>2011-06-13T09:25:47Z</time>
      </trkpt>
      <trkpt lat="45.80204" lon="4.99052">
        <ele>184.5</ele>
        <time>2011-06-13T09:25:51Z</time>
      </trkpt>
      <trkpt lat="45.80203" lon="4.99064">
        <ele>182.1</ele>
        <time>2011-06-13T09:25:54Z</time>
      </trkpt>
      <trkpt lat="45.80202" lon="4.99068">
        <ele>178.6</ele>
        <time>2011-06-13T09:25:55Z</time>
      </trkpt>
      <trkpt lat="45.80194" lon="4.99091">
        <ele>182.6</ele>
        <time>2011-06-13T09:26:01Z</time>
      </trkpt>
      <trkpt lat="45.80187" lon="4.99107">
        <ele>189.8</ele>
        <time>2011-06-13T09:26:06Z</time>
      </trkpt>
      <trkpt lat="45.80186" lon="4.9911">
        <ele>191.6</ele>
        <time>2011-06-13T09:26:07Z</time>
      </trkpt>
      <trkpt lat="45.80184" lon="4.99118">
        <ele>189.6</ele>
        <time>2011-06-13T09:26:09Z</time>
      </trkpt>
      <trkpt lat="45.80181" lon="4.99125">
        <ele>191.3</ele>
        <time>2011-06-13T09:26:11Z</time>
      </trkpt>
      <trkpt lat="45.80179" lon="4.9913">
        <ele>190.3</ele>
        <time>2011-06-13T09:26:12Z</time>
      </trkpt>
      <trkpt lat="45.80179" lon="4.99135">
        <ele>187.8</ele>
        <time>2011-06-13T09:26:13Z</time>
      </trkpt>
      <trkpt lat="45.80174" lon="4.99157">
        <ele>185.1</ele>
        <time>2011-06-13T09:26:18Z</time>
      </trkpt>
      <trkpt lat="45.80175" lon="4.99162">
        <ele>184.6</ele>
        <time>2011-06-13T09:26:19Z</time>
      </trkpt>
      <trkpt lat="45.80174" lon="4.99167">
        <ele>184.8</ele>
        <time>2011-06-13T09:26:20Z</time>
      </trkpt>
      <trkpt lat="45.80174" lon="4.99171">
        <ele>186.8</ele>
        <time>2011-06-13T09:26:21Z</time>
      </trkpt>
      <trkpt lat="45.80173" lon="4.99175">
        <ele>186</ele>
        <time>2011-06-13T09:26:22Z</time>
      </trkpt>
      <trkpt lat="45.80172" lon="4.99179">
        <ele>186.6</ele>
        <time>2011-06-13T09:26:23Z</time>
      </trkpt>
      <trkpt lat="45.80171" lon="4.99202">
        <ele>183.1</ele>
        <time>2011-06-13T09:26:28Z</time>
      </trkpt>
      <trkpt lat="45.80169" lon="4.99205">
        <ele>183.1</ele>
        <time>2011-06-13T09:26:29Z</time>
      </trkpt>
      <trkpt lat="45.80168" lon="4.99208">
        <ele>180.5</ele>
        <time>2011-06-13T09:26:30Z</time>
      </trkpt>
      <trkpt lat="45.80168" lon="4.99211">
        <ele>180.5</ele>
        <time>2011-06-13T09:26:31Z</time>
      </trkpt>
      <trkpt lat="45.80166" lon="4.99214">
        <ele>181.1</ele>
        <time>2011-06-13T09:26:32Z</time>
      </trkpt>
      <trkpt lat="45.80169" lon="4.99223">
        <ele>181.1</ele>
        <time>2011-06-13T09:26:33Z</time>
      </trkpt>
      <trkpt lat="45.80169" lon="4.99228">
        <ele>178.6</ele>
        <time>2011-06-13T09:26:34Z</time>
      </trkpt>
      <trkpt lat="45.8017" lon="4.99238">
        <ele>177.3</ele>
        <time>2011-06-13T09:26:36Z</time>
      </trkpt>
      <trkpt lat="45.80165" lon="4.99238">
        <ele>177.6</ele>
        <time>2011-06-13T09:26:37Z</time>
      </trkpt>
      <trkpt lat="45.8016" lon="4.99237">
        <ele>177.1</ele>
        <time>2011-06-13T09:26:38Z</time>
      </trkpt>
      <trkpt lat="45.80152" lon="4.99235">
        <ele>177.3</ele>
        <time>2011-06-13T09:26:39Z</time>
      </trkpt>
      <trkpt lat="45.8015" lon="4.99238">
        <ele>176.6</ele>
        <time>2011-06-13T09:26:40Z</time>
      </trkpt>
      <trkpt lat="45.80143" lon="4.99236">
        <ele>176.8</ele>
        <time>2011-06-13T09:26:41Z</time>
      </trkpt>
      <trkpt lat="45.80141" lon="4.99238">
        <ele>175.3</ele>
        <time>2011-06-13T09:26:42Z</time>
      </trkpt>
      <trkpt lat="45.80143" lon="4.99246">
        <ele>174.6</ele>
        <time>2011-06-13T09:26:43Z</time>
      </trkpt>
      <trkpt lat="45.80141" lon="4.99248">
        <ele>175.6</ele>
        <time>2011-06-13T09:26:44Z</time>
      </trkpt>
      <trkpt lat="45.80137" lon="4.99248">
        <ele>177.8</ele>
        <time>2011-06-13T09:26:45Z</time>
      </trkpt>
      <trkpt lat="45.80122" lon="4.99254">
        <ele>180</ele>
        <time>2011-06-13T09:26:50Z</time>
      </trkpt>
      <trkpt lat="45.8012" lon="4.99256">
        <ele>179</ele>
        <time>2011-06-13T09:26:51Z</time>
      </trkpt>
      <trkpt lat="45.8012" lon="4.9926">
        <ele>178.6</ele>
        <time>2011-06-13T09:26:52Z</time>
      </trkpt>
      <trkpt lat="45.80121" lon="4.99265">
        <ele>177.3</ele>
        <time>2011-06-13T09:26:53Z</time>
      </trkpt>
      <trkpt lat="45.80121" lon="4.9927">
        <ele>176.6</ele>
        <time>2011-06-13T09:26:54Z</time>
      </trkpt>
      <trkpt lat="45.80121" lon="4.99273">
        <ele>176.6</ele>
        <time>2011-06-13T09:26:55Z</time>
      </trkpt>
      <trkpt lat="45.80119" lon="4.99276">
        <ele>175.5</ele>
        <time>2011-06-13T09:26:56Z</time>
      </trkpt>
      <trkpt lat="45.80113" lon="4.99288">
        <ele>174.3</ele>
        <time>2011-06-13T09:27:00Z</time>
      </trkpt>
      <trkpt lat="45.80112" lon="4.9929">
        <ele>175.6</ele>
        <time>2011-06-13T09:27:01Z</time>
      </trkpt>
      <trkpt lat="45.80107" lon="4.99299">
        <ele>176.5</ele>
        <time>2011-06-13T09:27:04Z</time>
      </trkpt>
      <trkpt lat="45.80103" lon="4.99305">
        <ele>173.3</ele>
        <time>2011-06-13T09:27:06Z</time>
      </trkpt>
      <trkpt lat="45.80097" lon="4.99309">
        <ele>170.8</ele>
        <time>2011-06-13T09:27:08Z</time>
      </trkpt>
      <trkpt lat="45.80095" lon="4.99309">
        <ele>171.5</ele>
        <time>2011-06-13T09:27:09Z</time>
      </trkpt>
      <trkpt lat="45.80085" lon="4.9931">
        <ele>171</ele>
        <time>2011-06-13T09:27:12Z</time>
      </trkpt>
      <trkpt lat="45.80083" lon="4.99312">
        <ele>169.5</ele>
        <time>2011-06-13T09:27:13Z</time>
      </trkpt>
      <trkpt lat="45.80082" lon="4.99314">
        <ele>168.6</ele>
        <time>2011-06-13T09:27:14Z</time>
      </trkpt>
      <trkpt lat="45.80081" lon="4.99319">
        <ele>168.3</ele>
        <time>2011-06-13T09:27:15Z</time>
      </trkpt>
      <trkpt lat="45.8008" lon="4.99323">
        <ele>169.6</ele>
        <time>2011-06-13T09:27:16Z</time>
      </trkpt>
      <trkpt lat="45.80078" lon="4.99327">
        <ele>170.1</ele>
        <time>2011-06-13T09:27:17Z</time>
      </trkpt>
      <trkpt lat="45.80074" lon="4.99333">
        <ele>172</ele>
        <time>2011-06-13T09:27:18Z</time>
      </trkpt>
      <trkpt lat="45.80069" lon="4.99336">
        <ele>171</ele>
        <time>2011-06-13T09:27:19Z</time>
      </trkpt>
      <trkpt lat="45.80065" lon="4.99339">
        <ele>168.6</ele>
        <time>2011-06-13T09:27:21Z</time>
      </trkpt>
      <trkpt lat="45.80063" lon="4.99342">
        <ele>168.6</ele>
        <time>2011-06-13T09:27:22Z</time>
      </trkpt>
      <trkpt lat="45.80052" lon="4.99359">
        <ele>168.3</ele>
        <time>2011-06-13T09:27:27Z</time>
      </trkpt>
      <trkpt lat="45.80049" lon="4.99364">
        <ele>168.3</ele>
        <time>2011-06-13T09:27:28Z</time>
      </trkpt>
      <trkpt lat="45.80043" lon="4.99375">
        <ele>167.1</ele>
        <time>2011-06-13T09:27:32Z</time>
      </trkpt>
      <trkpt lat="45.80041" lon="4.99377">
        <ele>166</ele>
        <time>2011-06-13T09:27:33Z</time>
      </trkpt>
      <trkpt lat="45.80035" lon="4.99384">
        <ele>165.8</ele>
        <time>2011-06-13T09:27:36Z</time>
      </trkpt>
      <trkpt lat="45.80012" lon="4.99415">
        <ele>162.8</ele>
        <time>2011-06-13T09:27:49Z</time>
      </trkpt>
      <trkpt lat="45.8001" lon="4.99419">
        <ele>162.3</ele>
        <time>2011-06-13T09:27:50Z</time>
      </trkpt>
      <trkpt lat="45.80009" lon="4.99422">
        <ele>161.3</ele>
        <time>2011-06-13T09:27:51Z</time>
      </trkpt>
      <trkpt lat="45.80006" lon="4.99424">
        <ele>161.5</ele>
        <time>2011-06-13T09:27:52Z</time>
      </trkpt>
      <trkpt lat="45.80004" lon="4.99427">
        <ele>161.6</ele>
        <time>2011-06-13T09:27:53Z</time>
      </trkpt>
      <trkpt lat="45.79997" lon="4.99436">
        <ele>161</ele>
        <time>2011-06-13T09:27:56Z</time>
      </trkpt>
      <trkpt lat="45.79995" lon="4.99437">
        <ele>160.8</ele>
        <time>2011-06-13T09:27:57Z</time>
      </trkpt>
      <trkpt lat="45.79949" lon="4.99484">
        <ele>160.8</ele>
        <time>2011-06-13T09:28:18Z</time>
      </trkpt>
      <trkpt lat="45.79942" lon="4.99493">
        <ele>163.5</ele>
        <time>2011-06-13T09:28:21Z</time>
      </trkpt>
      <trkpt lat="45.7994" lon="4.99496">
        <ele>164.8</ele>
        <time>2011-06-13T09:28:22Z</time>
      </trkpt>
      <trkpt lat="45.79937" lon="4.99498">
        <ele>166.3</ele>
        <time>2011-06-13T09:28:23Z</time>
      </trkpt>
      <trkpt lat="45.79915" lon="4.99523">
        <ele>172.3</ele>
        <time>2011-06-13T09:28:32Z</time>
      </trkpt>
      <trkpt lat="45.79911" lon="4.99528">
        <ele>173.5</ele>
        <time>2011-06-13T09:28:34Z</time>
      </trkpt>
      <trkpt lat="45.79909" lon="4.9953">
        <ele>174.3</ele>
        <time>2011-06-13T09:28:35Z</time>
      </trkpt>
      <trkpt lat="45.79901" lon="4.99538">
        <ele>174.8</ele>
        <time>2011-06-13T09:28:39Z</time>
      </trkpt>
      <trkpt lat="45.79896" lon="4.99544">
        <ele>173.8</ele>
        <time>2011-06-13T09:28:42Z</time>
      </trkpt>
      <trkpt lat="45.79894" lon="4.99547">
        <ele>172.3</ele>
        <time>2011-06-13T09:28:43Z</time>
      </trkpt>
      <trkpt lat="45.79891" lon="4.99554">
        <ele>170.6</ele>
        <time>2011-06-13T09:28:45Z</time>
      </trkpt>
      <trkpt lat="45.79889" lon="4.99557">
        <ele>170.3</ele>
        <time>2011-06-13T09:28:46Z</time>
      </trkpt>
      <trkpt lat="45.79887" lon="4.99561">
        <ele>171.1</ele>
        <time>2011-06-13T09:28:47Z</time>
      </trkpt>
      <trkpt lat="45.79885" lon="4.99563">
        <ele>168.3</ele>
        <time>2011-06-13T09:28:48Z</time>
      </trkpt>
      <trkpt lat="45.79874" lon="4.99574">
        <ele>168.8</ele>
        <time>2011-06-13T09:28:53Z</time>
      </trkpt>
      <trkpt lat="45.79874" lon="4.99576">
        <ele>167.8</ele>
        <time>2011-06-13T09:28:54Z</time>
      </trkpt>
      <trkpt lat="45.79873" lon="4.99579">
        <ele>167.6</ele>
        <time>2011-06-13T09:28:55Z</time>
      </trkpt>
      <trkpt lat="45.79873" lon="4.99581">
        <ele>167.3</ele>
        <time>2011-06-13T09:28:56Z</time>
      </trkpt>
      <trkpt lat="45.79872" lon="4.99584">
        <ele>166.8</ele>
        <time>2011-06-13T09:28:57Z</time>
      </trkpt>
      <trkpt lat="45.7987" lon="4.99587">
        <ele>166.8</ele>
        <time>2011-06-13T09:28:58Z</time>
      </trkpt>
      <trkpt lat="45.79868" lon="4.99589">
        <ele>166.3</ele>
        <time>2011-06-13T09:28:59Z</time>
      </trkpt>
      <trkpt lat="45.79864" lon="4.99593">
        <ele>162.8</ele>
        <time>2011-06-13T09:29:01Z</time>
      </trkpt>
      <trkpt lat="45.79832" lon="4.99621">
        <ele>148.1</ele>
        <time>2011-06-13T09:29:14Z</time>
      </trkpt>
      <trkpt lat="45.79829" lon="4.99631">
        <ele>145.8</ele>
        <time>2011-06-13T09:29:16Z</time>
      </trkpt>
      <trkpt lat="45.79827" lon="4.99633">
        <ele>145.1</ele>
        <time>2011-06-13T09:29:17Z</time>
      </trkpt>
      <trkpt lat="45.79825" lon="4.99635">
        <ele>144.6</ele>
        <time>2011-06-13T09:29:18Z</time>
      </trkpt>
      <trkpt lat="45.79822" lon="4.99639">
        <ele>144.3</ele>
        <time>2011-06-13T09:29:19Z</time>
      </trkpt>
      <trkpt lat="45.7982" lon="4.99642">
        <ele>144.5</ele>
        <time>2011-06-13T09:29:20Z</time>
      </trkpt>
      <trkpt lat="45.79816" lon="4.99647">
        <ele>144.8</ele>
        <time>2011-06-13T09:29:22Z</time>
      </trkpt>
      <trkpt lat="45.79806" lon="4.99657">
        <ele>145.6</ele>
        <time>2011-06-13T09:29:26Z</time>
      </trkpt>
      <trkpt lat="45.79805" lon="4.99659">
        <ele>145</ele>
        <time>2011-06-13T09:29:27Z</time>
      </trkpt>
      <trkpt lat="45.79778" lon="4.99717">
        <ele>177.3</ele>
        <time>2011-06-13T09:29:43Z</time>
      </trkpt>
      <trkpt lat="45.79772" lon="4.99733">
        <ele>171.1</ele>
        <time>2011-06-13T09:29:48Z</time>
      </trkpt>
      <trkpt lat="45.79757" lon="4.99771">
        <ele>174.3</ele>
        <time>2011-06-13T09:29:58Z</time>
      </trkpt>
      <trkpt lat="45.79755" lon="4.99773">
        <ele>174.3</ele>
        <time>2011-06-13T09:29:59Z</time>
      </trkpt>
      <trkpt lat="45.79749" lon="4.99779">
        <ele>173.5</ele>
        <time>2011-06-13T09:30:02Z</time>
      </trkpt>
      <trkpt lat="45.79748" lon="4.99782">
        <ele>172.5</ele>
        <time>2011-06-13T09:30:03Z</time>
      </trkpt>
      <trkpt lat="45.79747" lon="4.99784">
        <ele>171.6</ele>
        <time>2011-06-13T09:30:04Z</time>
      </trkpt>
      <trkpt lat="45.79743" lon="4.99788">
        <ele>171.1</ele>
        <time>2011-06-13T09:30:06Z</time>
      </trkpt>
      <trkpt lat="45.79741" lon="4.99794">
        <ele>173.8</ele>
        <time>2011-06-13T09:30:07Z</time>
      </trkpt>
      <trkpt lat="45.79738" lon="4.99797">
        <ele>174.5</ele>
        <time>2011-06-13T09:30:08Z</time>
      </trkpt>
      <trkpt lat="45.79735" lon="4.998">
        <ele>175.3</ele>
        <time>2011-06-13T09:30:09Z</time>
      </trkpt>
      <trkpt lat="45.79733" lon="4.99802">
        <ele>173.1</ele>
        <time>2011-06-13T09:30:10Z</time>
      </trkpt>
      <trkpt lat="45.79731" lon="4.99805">
        <ele>173.3</ele>
        <time>2011-06-13T09:30:11Z</time>
      </trkpt>
      <trkpt lat="45.79728" lon="4.99806">
        <ele>172.1</ele>
        <time>2011-06-13T09:30:12Z</time>
      </trkpt>
      <trkpt lat="45.79727" lon="4.9981">
        <ele>172.3</ele>
        <time>2011-06-13T09:30:13Z</time>
      </trkpt>
      <trkpt lat="45.79725" lon="4.99813">
        <ele>172.1</ele>
        <time>2011-06-13T09:30:14Z</time>
      </trkpt>
      <trkpt lat="45.79723" lon="4.99816">
        <ele>174.6</ele>
        <time>2011-06-13T09:30:15Z</time>
      </trkpt>
      <trkpt lat="45.79712" lon="4.99825">
        <ele>175</ele>
        <time>2011-06-13T09:30:19Z</time>
      </trkpt>
      <trkpt lat="45.79709" lon="4.99829">
        <ele>176</ele>
        <time>2011-06-13T09:30:21Z</time>
      </trkpt>
      <trkpt lat="45.79706" lon="4.99835">
        <ele>176.1</ele>
        <time>2011-06-13T09:30:23Z</time>
      </trkpt>
      <trkpt lat="45.79684" lon="4.9989">
        <ele>177.1</ele>
        <time>2011-06-13T09:30:40Z</time>
      </trkpt>
      <trkpt lat="45.79679" lon="4.99906">
        <ele>179.3</ele>
        <time>2011-06-13T09:30:44Z</time>
      </trkpt>
      <trkpt lat="45.79678" lon="4.9991">
        <ele>178.3</ele>
        <time>2011-06-13T09:30:45Z</time>
      </trkpt>
      <trkpt lat="45.79676" lon="4.99917">
        <ele>176</ele>
        <time>2011-06-13T09:30:47Z</time>
      </trkpt>
      <trkpt lat="45.79674" lon="4.99919">
        <ele>176.5</ele>
        <time>2011-06-13T09:30:48Z</time>
      </trkpt>
      <trkpt lat="45.79672" lon="4.99922">
        <ele>175.3</ele>
        <time>2011-06-13T09:30:49Z</time>
      </trkpt>
      <trkpt lat="45.79671" lon="4.99924">
        <ele>175</ele>
        <time>2011-06-13T09:30:50Z</time>
      </trkpt>
      <trkpt lat="45.7967" lon="4.99927">
        <ele>173.3</ele>
        <time>2011-06-13T09:30:51Z</time>
      </trkpt>
      <trkpt lat="45.79669" lon="4.9993">
        <ele>172.3</ele>
        <time>2011-06-13T09:30:52Z</time>
      </trkpt>
      <trkpt lat="45.79668" lon="4.99934">
        <ele>170.6</ele>
        <time>2011-06-13T09:30:53Z</time>
      </trkpt>
      <trkpt lat="45.79662" lon="4.99946">
        <ele>170.6</ele>
        <time>2011-06-13T09:30:56Z</time>
      </trkpt>
      <trkpt lat="45.79662" lon="4.99947">
        <ele>170.6</ele>
        <time>2011-06-13T09:30:57Z</time>
      </trkpt>
      <trkpt lat="45.7966" lon="4.99956">
        <ele>169.8</ele>
        <time>2011-06-13T09:31:00Z</time>
      </trkpt>
      <trkpt lat="45.7966" lon="4.99959">
        <ele>169.6</ele>
        <time>2011-06-13T09:31:01Z</time>
      </trkpt>
      <trkpt lat="45.79658" lon="4.99963">
        <ele>169.3</ele>
        <time>2011-06-13T09:31:02Z</time>
      </trkpt>
      <trkpt lat="45.79658" lon="4.99968">
        <ele>169</ele>
        <time>2011-06-13T09:31:03Z</time>
      </trkpt>
      <trkpt lat="45.7966" lon="4.99972">
        <ele>168.8</ele>
        <time>2011-06-13T09:31:04Z</time>
      </trkpt>
      <trkpt lat="45.79659" lon="4.99974">
        <ele>169</ele>
        <time>2011-06-13T09:31:05Z</time>
      </trkpt>
      <trkpt lat="45.79658" lon="4.99983">
        <ele>168.6</ele>
        <time>2011-06-13T09:31:08Z</time>
      </trkpt>
      <trkpt lat="45.79659" lon="4.99988">
        <ele>168.6</ele>
        <time>2011-06-13T09:31:09Z</time>
      </trkpt>
      <trkpt lat="45.79661" lon="4.99993">
        <ele>168.6</ele>
        <time>2011-06-13T09:31:10Z</time>
      </trkpt>
      <trkpt lat="45.79661" lon="4.99996">
        <ele>168.6</ele>
        <time>2011-06-13T09:31:11Z</time>
      </trkpt>
      <trkpt lat="45.79661" lon="4.99999">
        <ele>168.6</ele>
        <time>2011-06-13T09:31:12Z</time>
      </trkpt>
      <trkpt lat="45.79658" lon="5.00007">
        <ele>168.5</ele>
        <time>2011-06-13T09:31:15Z</time>
      </trkpt>
      <trkpt lat="45.79656" lon="5.00012">
        <ele>168.5</ele>
        <time>2011-06-13T09:31:16Z</time>
      </trkpt>
      <trkpt lat="45.79655" lon="5.00017">
        <ele>168.6</ele>
        <time>2011-06-13T09:31:17Z</time>
      </trkpt>
      <trkpt lat="45.79653" lon="5.00021">
        <ele>168.6</ele>
        <time>2011-06-13T09:31:18Z</time>
      </trkpt>
      <trkpt lat="45.79652" lon="5.00025">
        <ele>168.8</ele>
        <time>2011-06-13T09:31:19Z</time>
      </trkpt>
      <trkpt lat="45.7965" lon="5.00039">
        <ele>168.8</ele>
        <time>2011-06-13T09:31:22Z</time>
      </trkpt>
      <trkpt lat="45.79651" lon="5.00046">
        <ele>168.8</ele>
        <time>2011-06-13T09:31:24Z</time>
      </trkpt>
      <trkpt lat="45.79651" lon="5.00048">
        <ele>168.8</ele>
        <time>2011-06-13T09:31:25Z</time>
      </trkpt>
      <trkpt lat="45.7965" lon="5.0006">
        <ele>168.8</ele>
        <time>2011-06-13T09:31:26Z</time>
      </trkpt>
      <trkpt lat="45.79645" lon="5.00088">
        <ele>178.3</ele>
        <time>2011-06-13T09:31:33Z</time>
      </trkpt>
      <trkpt lat="45.79647" lon="5.00091">
        <ele>178.3</ele>
        <time>2011-06-13T09:31:34Z</time>
      </trkpt>
      <trkpt lat="45.7965" lon="5.00093">
        <ele>176.6</ele>
        <time>2011-06-13T09:31:35Z</time>
      </trkpt>
      <trkpt lat="45.7965" lon="5.00098">
        <ele>176.6</ele>
        <time>2011-06-13T09:31:36Z</time>
      </trkpt>
      <trkpt lat="45.79647" lon="5.00103">
        <ele>180.3</ele>
        <time>2011-06-13T09:31:37Z</time>
      </trkpt>
      <trkpt lat="45.79646" lon="5.00107">
        <ele>181</ele>
        <time>2011-06-13T09:31:38Z</time>
      </trkpt>
      <trkpt lat="45.79646" lon="5.0011">
        <ele>182.5</ele>
        <time>2011-06-13T09:31:39Z</time>
      </trkpt>
      <trkpt lat="45.79644" lon="5.00117">
        <ele>180.8</ele>
        <time>2011-06-13T09:31:41Z</time>
      </trkpt>
      <trkpt lat="45.79643" lon="5.00121">
        <ele>181.6</ele>
        <time>2011-06-13T09:31:42Z</time>
      </trkpt>
      <trkpt lat="45.7964" lon="5.00131">
        <ele>182.1</ele>
        <time>2011-06-13T09:31:45Z</time>
      </trkpt>
      <trkpt lat="45.79637" lon="5.00131">
        <ele>182.8</ele>
        <time>2011-06-13T09:31:46Z</time>
      </trkpt>
      <trkpt lat="45.79634" lon="5.00133">
        <ele>184.6</ele>
        <time>2011-06-13T09:31:47Z</time>
      </trkpt>
      <trkpt lat="45.79632" lon="5.00136">
        <ele>185</ele>
        <time>2011-06-13T09:31:48Z</time>
      </trkpt>
      <trkpt lat="45.79631" lon="5.0014">
        <ele>186.1</ele>
        <time>2011-06-13T09:31:49Z</time>
      </trkpt>
      <trkpt lat="45.79623" lon="5.00156">
        <ele>186.5</ele>
        <time>2011-06-13T09:31:54Z</time>
      </trkpt>
      <trkpt lat="45.79619" lon="5.00159">
        <ele>183.1</ele>
        <time>2011-06-13T09:31:56Z</time>
      </trkpt>
      <trkpt lat="45.79618" lon="5.00161">
        <ele>181.8</ele>
        <time>2011-06-13T09:31:57Z</time>
      </trkpt>
      <trkpt lat="45.79612" lon="5.00168">
        <ele>180.3</ele>
        <time>2011-06-13T09:32:00Z</time>
      </trkpt>
      <trkpt lat="45.79607" lon="5.00171">
        <ele>177.5</ele>
        <time>2011-06-13T09:32:02Z</time>
      </trkpt>
      <trkpt lat="45.79606" lon="5.00173">
        <ele>177</ele>
        <time>2011-06-13T09:32:03Z</time>
      </trkpt>
      <trkpt lat="45.79601" lon="5.00179">
        <ele>178.6</ele>
        <time>2011-06-13T09:32:05Z</time>
      </trkpt>
      <trkpt lat="45.7959" lon="5.00194">
        <ele>181.6</ele>
        <time>2011-06-13T09:32:10Z</time>
      </trkpt>
      <trkpt lat="45.79585" lon="5.00201">
        <ele>178.8</ele>
        <time>2011-06-13T09:32:13Z</time>
      </trkpt>
      <trkpt lat="45.79583" lon="5.00203">
        <ele>179.1</ele>
        <time>2011-06-13T09:32:14Z</time>
      </trkpt>
      <trkpt lat="45.79578" lon="5.00206">
        <ele>181</ele>
        <time>2011-06-13T09:32:16Z</time>
      </trkpt>
      <trkpt lat="45.79568" lon="5.00213">
        <ele>181.6</ele>
        <time>2011-06-13T09:32:20Z</time>
      </trkpt>
      <trkpt lat="45.79567" lon="5.00213">
        <ele>183.5</ele>
        <time>2011-06-13T09:32:21Z</time>
      </trkpt>
      <trkpt lat="45.79566" lon="5.00214">
        <ele>183.1</ele>
        <time>2011-06-13T09:32:22Z</time>
      </trkpt>
      <trkpt lat="45.79565" lon="5.00215">
        <ele>183.1</ele>
        <time>2011-06-13T09:32:23Z</time>
      </trkpt>
      <trkpt lat="45.79565" lon="5.00217">
        <ele>183.3</ele>
        <time>2011-06-13T09:32:24Z</time>
      </trkpt>
      <trkpt lat="45.79564" lon="5.0022">
        <ele>184.1</ele>
        <time>2011-06-13T09:32:25Z</time>
      </trkpt>
      <trkpt lat="45.79563" lon="5.00221">
        <ele>185.3</ele>
        <time>2011-06-13T09:32:26Z</time>
      </trkpt>
      <trkpt lat="45.79562" lon="5.00221">
        <ele>185.3</ele>
        <time>2011-06-13T09:32:27Z</time>
      </trkpt>
      <trkpt lat="45.7956" lon="5.00221">
        <ele>186.6</ele>
        <time>2011-06-13T09:32:28Z</time>
      </trkpt>
      <trkpt lat="45.7956" lon="5.00223">
        <ele>186.6</ele>
        <time>2011-06-13T09:32:29Z</time>
      </trkpt>
      <trkpt lat="45.79556" lon="5.0022">
        <ele>187.8</ele>
        <time>2011-06-13T09:32:30Z</time>
      </trkpt>
      <trkpt lat="45.79553" lon="5.00219">
        <ele>187.8</ele>
        <time>2011-06-13T09:32:31Z</time>
      </trkpt>
      <trkpt lat="45.79536" lon="5.00206">
        <ele>186.8</ele>
        <time>2011-06-13T09:32:34Z</time>
      </trkpt>
      <trkpt lat="45.79536" lon="5.00213">
        <ele>184.6</ele>
        <time>2011-06-13T09:32:36Z</time>
      </trkpt>
      <trkpt lat="45.79538" lon="5.0022">
        <ele>183.8</ele>
        <time>2011-06-13T09:32:37Z</time>
      </trkpt>
      <trkpt lat="45.79535" lon="5.0022">
        <ele>182.8</ele>
        <time>2011-06-13T09:32:38Z</time>
      </trkpt>
      <trkpt lat="45.79536" lon="5.00226">
        <ele>182.1</ele>
        <time>2011-06-13T09:32:39Z</time>
      </trkpt>
      <trkpt lat="45.7953" lon="5.00224">
        <ele>182</ele>
        <time>2011-06-13T09:32:40Z</time>
      </trkpt>
      <trkpt lat="45.79531" lon="5.0023">
        <ele>181.1</ele>
        <time>2011-06-13T09:32:41Z</time>
      </trkpt>
      <trkpt lat="45.79538" lon="5.00241">
        <ele>182.6</ele>
        <time>2011-06-13T09:32:42Z</time>
      </trkpt>
      <trkpt lat="45.7954" lon="5.00248">
        <ele>181.6</ele>
        <time>2011-06-13T09:32:43Z</time>
      </trkpt>
      <trkpt lat="45.79545" lon="5.00259">
        <ele>181.6</ele>
        <time>2011-06-13T09:32:44Z</time>
      </trkpt>
      <trkpt lat="45.79548" lon="5.00268">
        <ele>181.6</ele>
        <time>2011-06-13T09:32:45Z</time>
      </trkpt>
      <trkpt lat="45.79544" lon="5.00269">
        <ele>181.6</ele>
        <time>2011-06-13T09:32:46Z</time>
      </trkpt>
      <trkpt lat="45.7954" lon="5.00268">
        <ele>179.1</ele>
        <time>2011-06-13T09:32:47Z</time>
      </trkpt>
      <trkpt lat="45.79543" lon="5.00275">
        <ele>179.1</ele>
        <time>2011-06-13T09:32:48Z</time>
      </trkpt>
      <trkpt lat="45.79551" lon="5.00289">
        <ele>178.8</ele>
        <time>2011-06-13T09:32:49Z</time>
      </trkpt>
      <trkpt lat="45.79554" lon="5.00296">
        <ele>179.1</ele>
        <time>2011-06-13T09:32:50Z</time>
      </trkpt>
      <trkpt lat="45.79559" lon="5.00307">
        <ele>180.8</ele>
        <time>2011-06-13T09:32:51Z</time>
      </trkpt>
      <trkpt lat="45.79559" lon="5.00311">
        <ele>180.3</ele>
        <time>2011-06-13T09:32:52Z</time>
      </trkpt>
      <trkpt lat="45.79559" lon="5.00317">
        <ele>180.1</ele>
        <time>2011-06-13T09:32:53Z</time>
      </trkpt>
      <trkpt lat="45.7955" lon="5.00325">
        <ele>180.3</ele>
        <time>2011-06-13T09:32:57Z</time>
      </trkpt>
      <trkpt lat="45.79547" lon="5.00328">
        <ele>181.8</ele>
        <time>2011-06-13T09:32:58Z</time>
      </trkpt>
      <trkpt lat="45.7955" lon="5.00335">
        <ele>182.3</ele>
        <time>2011-06-13T09:32:59Z</time>
      </trkpt>
      <trkpt lat="45.79544" lon="5.00334">
        <ele>182.8</ele>
        <time>2011-06-13T09:33:00Z</time>
      </trkpt>
      <trkpt lat="45.79537" lon="5.00331">
        <ele>182.1</ele>
        <time>2011-06-13T09:33:01Z</time>
      </trkpt>
      <trkpt lat="45.79528" lon="5.00326">
        <ele>181.3</ele>
        <time>2011-06-13T09:33:02Z</time>
      </trkpt>
      <trkpt lat="45.7952" lon="5.00323">
        <ele>180.8</ele>
        <time>2011-06-13T09:33:03Z</time>
      </trkpt>
      <trkpt lat="45.79511" lon="5.00319">
        <ele>179.6</ele>
        <time>2011-06-13T09:33:04Z</time>
      </trkpt>
      <trkpt lat="45.79504" lon="5.00317">
        <ele>180.1</ele>
        <time>2011-06-13T09:33:05Z</time>
      </trkpt>
      <trkpt lat="45.79498" lon="5.00317">
        <ele>180.8</ele>
        <time>2011-06-13T09:33:06Z</time>
      </trkpt>
      <trkpt lat="45.79494" lon="5.00319">
        <ele>181.1</ele>
        <time>2011-06-13T09:33:07Z</time>
      </trkpt>
      <trkpt lat="45.79482" lon="5.00309">
        <ele>181.1</ele>
        <time>2011-06-13T09:33:08Z</time>
      </trkpt>
      <trkpt lat="45.79478" lon="5.00308">
        <ele>179.8</ele>
        <time>2011-06-13T09:33:09Z</time>
      </trkpt>
      <trkpt lat="45.79477" lon="5.00312">
        <ele>179.8</ele>
        <time>2011-06-13T09:33:10Z</time>
      </trkpt>
      <trkpt lat="45.79475" lon="5.00315">
        <ele>182</ele>
        <time>2011-06-13T09:33:11Z</time>
      </trkpt>
      <trkpt lat="45.79472" lon="5.00315">
        <ele>182</ele>
        <time>2011-06-13T09:33:12Z</time>
      </trkpt>
      <trkpt lat="45.79468" lon="5.00314">
        <ele>183.1</ele>
        <time>2011-06-13T09:33:13Z</time>
      </trkpt>
      <trkpt lat="45.79463" lon="5.00314">
        <ele>183.1</ele>
        <time>2011-06-13T09:33:14Z</time>
      </trkpt>
      <trkpt lat="45.79461" lon="5.00317">
        <ele>185.1</ele>
        <time>2011-06-13T09:33:15Z</time>
      </trkpt>
      <trkpt lat="45.79461" lon="5.00321">
        <ele>185.1</ele>
        <time>2011-06-13T09:33:16Z</time>
      </trkpt>
      <trkpt lat="45.7946" lon="5.00324">
        <ele>183.8</ele>
        <time>2011-06-13T09:33:17Z</time>
      </trkpt>
      <trkpt lat="45.7946" lon="5.00329">
        <ele>185.8</ele>
        <time>2011-06-13T09:33:18Z</time>
      </trkpt>
      <trkpt lat="45.79456" lon="5.00328">
        <ele>184.8</ele>
        <time>2011-06-13T09:33:19Z</time>
      </trkpt>
      <trkpt lat="45.79449" lon="5.00325">
        <ele>186</ele>
        <time>2011-06-13T09:33:20Z</time>
      </trkpt>
      <trkpt lat="45.79447" lon="5.00329">
        <ele>185.8</ele>
        <time>2011-06-13T09:33:21Z</time>
      </trkpt>
      <trkpt lat="45.79446" lon="5.00332">
        <ele>185</ele>
        <time>2011-06-13T09:33:22Z</time>
      </trkpt>
      <trkpt lat="45.79442" lon="5.00333">
        <ele>183.8</ele>
        <time>2011-06-13T09:33:23Z</time>
      </trkpt>
      <trkpt lat="45.79439" lon="5.00334">
        <ele>184.3</ele>
        <time>2011-06-13T09:33:24Z</time>
      </trkpt>
      <trkpt lat="45.79436" lon="5.00336">
        <ele>185.8</ele>
        <time>2011-06-13T09:33:25Z</time>
      </trkpt>
      <trkpt lat="45.79432" lon="5.00343">
        <ele>186.5</ele>
        <time>2011-06-13T09:33:27Z</time>
      </trkpt>
      <trkpt lat="45.7943" lon="5.00345">
        <ele>185</ele>
        <time>2011-06-13T09:33:28Z</time>
      </trkpt>
      <trkpt lat="45.79428" lon="5.00348">
        <ele>182.6</ele>
        <time>2011-06-13T09:33:29Z</time>
      </trkpt>
      <trkpt lat="45.79423" lon="5.00358">
        <ele>184.1</ele>
        <time>2011-06-13T09:33:32Z</time>
      </trkpt>
      <trkpt lat="45.79411" lon="5.00376">
        <ele>185.8</ele>
        <time>2011-06-13T09:33:38Z</time>
      </trkpt>
      <trkpt lat="45.79407" lon="5.00383">
        <ele>184.5</ele>
        <time>2011-06-13T09:33:41Z</time>
      </trkpt>
      <trkpt lat="45.79397" lon="5.00399">
        <ele>181.1</ele>
        <time>2011-06-13T09:33:46Z</time>
      </trkpt>
      <trkpt lat="45.79392" lon="5.00403">
        <ele>180.1</ele>
        <time>2011-06-13T09:33:49Z</time>
      </trkpt>
      <trkpt lat="45.79391" lon="5.00406">
        <ele>182.6</ele>
        <time>2011-06-13T09:33:51Z</time>
      </trkpt>
      <trkpt lat="45.7939" lon="5.00408">
        <ele>182.6</ele>
        <time>2011-06-13T09:33:52Z</time>
      </trkpt>
      <trkpt lat="45.79389" lon="5.00408">
        <ele>182.8</ele>
        <time>2011-06-13T09:33:53Z</time>
      </trkpt>
      <trkpt lat="45.79387" lon="5.00411">
        <ele>182.6</ele>
        <time>2011-06-13T09:33:54Z</time>
      </trkpt>
      <trkpt lat="45.79378" lon="5.0042">
        <ele>182</ele>
        <time>2011-06-13T09:33:58Z</time>
      </trkpt>
      <trkpt lat="45.79376" lon="5.00422">
        <ele>182</ele>
        <time>2011-06-13T09:33:59Z</time>
      </trkpt>
      <trkpt lat="45.79364" lon="5.00434">
        <ele>178.8</ele>
        <time>2011-06-13T09:34:03Z</time>
      </trkpt>
      <trkpt lat="45.79362" lon="5.00437">
        <ele>178.6</ele>
        <time>2011-06-13T09:34:04Z</time>
      </trkpt>
      <trkpt lat="45.7936" lon="5.00438">
        <ele>178.6</ele>
        <time>2011-06-13T09:34:05Z</time>
      </trkpt>
      <trkpt lat="45.79351" lon="5.00444">
        <ele>179.1</ele>
        <time>2011-06-13T09:34:09Z</time>
      </trkpt>
      <trkpt lat="45.79349" lon="5.00446">
        <ele>179.1</ele>
        <time>2011-06-13T09:34:10Z</time>
      </trkpt>
      <trkpt lat="45.79346" lon="5.00448">
        <ele>179.3</ele>
        <time>2011-06-13T09:34:11Z</time>
      </trkpt>
      <trkpt lat="45.79341" lon="5.00448">
        <ele>179.1</ele>
        <time>2011-06-13T09:34:13Z</time>
      </trkpt>
      <trkpt lat="45.79339" lon="5.00449">
        <ele>179.1</ele>
        <time>2011-06-13T09:34:14Z</time>
      </trkpt>
      <trkpt lat="45.79334" lon="5.0045">
        <ele>178.8</ele>
        <time>2011-06-13T09:34:16Z</time>
      </trkpt>
      <trkpt lat="45.79323" lon="5.00458">
        <ele>179.3</ele>
        <time>2011-06-13T09:34:20Z</time>
      </trkpt>
      <trkpt lat="45.79321" lon="5.00458">
        <ele>179.3</ele>
        <time>2011-06-13T09:34:21Z</time>
      </trkpt>
      <trkpt lat="45.79318" lon="5.00459">
        <ele>179.5</ele>
        <time>2011-06-13T09:34:22Z</time>
      </trkpt>
      <trkpt lat="45.79313" lon="5.00462">
        <ele>180.1</ele>
        <time>2011-06-13T09:34:24Z</time>
      </trkpt>
      <trkpt lat="45.79301" lon="5.00473">
        <ele>180.5</ele>
        <time>2011-06-13T09:34:29Z</time>
      </trkpt>
      <trkpt lat="45.79301" lon="5.0048">
        <ele>179.8</ele>
        <time>2011-06-13T09:34:30Z</time>
      </trkpt>
      <trkpt lat="45.79297" lon="5.0048">
        <ele>179.3</ele>
        <time>2011-06-13T09:34:31Z</time>
      </trkpt>
      <trkpt lat="45.79293" lon="5.00478">
        <ele>179</ele>
        <time>2011-06-13T09:34:32Z</time>
      </trkpt>
      <trkpt lat="45.79291" lon="5.0048">
        <ele>179</ele>
        <time>2011-06-13T09:34:33Z</time>
      </trkpt>
      <trkpt lat="45.79287" lon="5.00485">
        <ele>178.1</ele>
        <time>2011-06-13T09:34:35Z</time>
      </trkpt>
      <trkpt lat="45.79284" lon="5.00487">
        <ele>178</ele>
        <time>2011-06-13T09:34:36Z</time>
      </trkpt>
      <trkpt lat="45.79278" lon="5.00504">
        <ele>177.1</ele>
        <time>2011-06-13T09:34:41Z</time>
      </trkpt>
      <trkpt lat="45.79278" lon="5.00507">
        <ele>177.1</ele>
        <time>2011-06-13T09:34:42Z</time>
      </trkpt>
      <trkpt lat="45.79273" lon="5.00506">
        <ele>177.1</ele>
        <time>2011-06-13T09:34:43Z</time>
      </trkpt>
      <trkpt lat="45.79268" lon="5.00502">
        <ele>177.3</ele>
        <time>2011-06-13T09:34:44Z</time>
      </trkpt>
      <trkpt lat="45.79261" lon="5.00496">
        <ele>177.1</ele>
        <time>2011-06-13T09:34:45Z</time>
      </trkpt>
      <trkpt lat="45.79255" lon="5.00493">
        <ele>177.1</ele>
        <time>2011-06-13T09:34:46Z</time>
      </trkpt>
      <trkpt lat="45.79252" lon="5.00495">
        <ele>177</ele>
        <time>2011-06-13T09:34:47Z</time>
      </trkpt>
      <trkpt lat="45.79242" lon="5.00504">
        <ele>178.1</ele>
        <time>2011-06-13T09:34:52Z</time>
      </trkpt>
      <trkpt lat="45.79236" lon="5.00508">
        <ele>178.6</ele>
        <time>2011-06-13T09:34:54Z</time>
      </trkpt>
      <trkpt lat="45.79215" lon="5.00518">
        <ele>179.3</ele>
        <time>2011-06-13T09:35:02Z</time>
      </trkpt>
      <trkpt lat="45.79213" lon="5.00522">
        <ele>179.3</ele>
        <time>2011-06-13T09:35:03Z</time>
      </trkpt>
      <trkpt lat="45.7921" lon="5.00524">
        <ele>179.5</ele>
        <time>2011-06-13T09:35:04Z</time>
      </trkpt>
      <trkpt lat="45.79208" lon="5.00525">
        <ele>179.5</ele>
        <time>2011-06-13T09:35:05Z</time>
      </trkpt>
      <trkpt lat="45.79191" lon="5.00533">
        <ele>180</ele>
        <time>2011-06-13T09:35:12Z</time>
      </trkpt>
      <trkpt lat="45.79189" lon="5.00536">
        <ele>180</ele>
        <time>2011-06-13T09:35:13Z</time>
      </trkpt>
      <trkpt lat="45.79186" lon="5.00538">
        <ele>179.3</ele>
        <time>2011-06-13T09:35:14Z</time>
      </trkpt>
      <trkpt lat="45.79182" lon="5.0054">
        <ele>179</ele>
        <time>2011-06-13T09:35:16Z</time>
      </trkpt>
      <trkpt lat="45.79179" lon="5.00543">
        <ele>179</ele>
        <time>2011-06-13T09:35:17Z</time>
      </trkpt>
      <trkpt lat="45.79172" lon="5.00556">
        <ele>185.5</ele>
        <time>2011-06-13T09:35:20Z</time>
      </trkpt>
      <trkpt lat="45.79168" lon="5.00557">
        <ele>185.5</ele>
        <time>2011-06-13T09:35:21Z</time>
      </trkpt>
      <trkpt lat="45.79149" lon="5.00566">
        <ele>182.5</ele>
        <time>2011-06-13T09:35:28Z</time>
      </trkpt>
      <trkpt lat="45.79142" lon="5.00567">
        <ele>181.6</ele>
        <time>2011-06-13T09:35:30Z</time>
      </trkpt>
      <trkpt lat="45.79136" lon="5.0057">
        <ele>180.3</ele>
        <time>2011-06-13T09:35:32Z</time>
      </trkpt>
      <trkpt lat="45.79129" lon="5.0057">
        <ele>180.3</ele>
        <time>2011-06-13T09:35:34Z</time>
      </trkpt>
      <trkpt lat="45.79126" lon="5.00574">
        <ele>179.6</ele>
        <time>2011-06-13T09:35:35Z</time>
      </trkpt>
      <trkpt lat="45.79126" lon="5.00578">
        <ele>179.6</ele>
        <time>2011-06-13T09:35:36Z</time>
      </trkpt>
      <trkpt lat="45.79124" lon="5.00583">
        <ele>179.1</ele>
        <time>2011-06-13T09:35:37Z</time>
      </trkpt>
      <trkpt lat="45.79122" lon="5.00587">
        <ele>182</ele>
        <time>2011-06-13T09:35:38Z</time>
      </trkpt>
      <trkpt lat="45.79119" lon="5.0059">
        <ele>183.8</ele>
        <time>2011-06-13T09:35:39Z</time>
      </trkpt>
      <trkpt lat="45.79113" lon="5.00596">
        <ele>184.5</ele>
        <time>2011-06-13T09:35:42Z</time>
      </trkpt>
      <trkpt lat="45.7911" lon="5.00605">
        <ele>184.5</ele>
        <time>2011-06-13T09:35:45Z</time>
      </trkpt>
      <trkpt lat="45.79108" lon="5.00608">
        <ele>184.1</ele>
        <time>2011-06-13T09:35:46Z</time>
      </trkpt>
      <trkpt lat="45.79108" lon="5.00612">
        <ele>182.1</ele>
        <time>2011-06-13T09:35:47Z</time>
      </trkpt>
      <trkpt lat="45.79109" lon="5.00617">
        <ele>181.1</ele>
        <time>2011-06-13T09:35:48Z</time>
      </trkpt>
      <trkpt lat="45.79108" lon="5.0062">
        <ele>181.6</ele>
        <time>2011-06-13T09:35:49Z</time>
      </trkpt>
      <trkpt lat="45.79105" lon="5.0062">
        <ele>180.6</ele>
        <time>2011-06-13T09:35:50Z</time>
      </trkpt>
      <trkpt lat="45.79098" lon="5.00617">
        <ele>180.3</ele>
        <time>2011-06-13T09:35:51Z</time>
      </trkpt>
      <trkpt lat="45.79094" lon="5.00618">
        <ele>180</ele>
        <time>2011-06-13T09:35:52Z</time>
      </trkpt>
      <trkpt lat="45.79091" lon="5.00619">
        <ele>179.8</ele>
        <time>2011-06-13T09:35:53Z</time>
      </trkpt>
      <trkpt lat="45.79089" lon="5.00621">
        <ele>178.6</ele>
        <time>2011-06-13T09:35:54Z</time>
      </trkpt>
      <trkpt lat="45.79058" lon="5.00645">
        <ele>174.6</ele>
        <time>2011-06-13T09:36:07Z</time>
      </trkpt>
      <trkpt lat="45.79056" lon="5.00648">
        <ele>174.6</ele>
        <time>2011-06-13T09:36:08Z</time>
      </trkpt>
      <trkpt lat="45.79054" lon="5.00651">
        <ele>174.8</ele>
        <time>2011-06-13T09:36:09Z</time>
      </trkpt>
      <trkpt lat="45.79046" lon="5.00657">
        <ele>175.6</ele>
        <time>2011-06-13T09:36:12Z</time>
      </trkpt>
      <trkpt lat="45.79018" lon="5.0068">
        <ele>179</ele>
        <time>2011-06-13T09:36:24Z</time>
      </trkpt>
      <trkpt lat="45.79016" lon="5.00684">
        <ele>178.5</ele>
        <time>2011-06-13T09:36:25Z</time>
      </trkpt>
      <trkpt lat="45.79009" lon="5.00692">
        <ele>180.1</ele>
        <time>2011-06-13T09:36:28Z</time>
      </trkpt>
      <trkpt lat="45.79007" lon="5.00695">
        <ele>180.1</ele>
        <time>2011-06-13T09:36:29Z</time>
      </trkpt>
      <trkpt lat="45.79004" lon="5.00702">
        <ele>177.1</ele>
        <time>2011-06-13T09:36:31Z</time>
      </trkpt>
      <trkpt lat="45.79001" lon="5.00705">
        <ele>175.3</ele>
        <time>2011-06-13T09:36:32Z</time>
      </trkpt>
      <trkpt lat="45.79" lon="5.0071">
        <ele>176.3</ele>
        <time>2011-06-13T09:36:33Z</time>
      </trkpt>
      <trkpt lat="45.78998" lon="5.00712">
        <ele>175.5</ele>
        <time>2011-06-13T09:36:34Z</time>
      </trkpt>
      <trkpt lat="45.78997" lon="5.00717">
        <ele>177.3</ele>
        <time>2011-06-13T09:36:35Z</time>
      </trkpt>
      <trkpt lat="45.78996" lon="5.00721">
        <ele>177.3</ele>
        <time>2011-06-13T09:36:36Z</time>
      </trkpt>
      <trkpt lat="45.78994" lon="5.00723">
        <ele>175.6</ele>
        <time>2011-06-13T09:36:37Z</time>
      </trkpt>
      <trkpt lat="45.78992" lon="5.00727">
        <ele>178.3</ele>
        <time>2011-06-13T09:36:38Z</time>
      </trkpt>
      <trkpt lat="45.78987" lon="5.00735">
        <ele>178.3</ele>
        <time>2011-06-13T09:36:41Z</time>
      </trkpt>
      <trkpt lat="45.78984" lon="5.00737">
        <ele>177.3</ele>
        <time>2011-06-13T09:36:42Z</time>
      </trkpt>
      <trkpt lat="45.78982" lon="5.0074">
        <ele>177.8</ele>
        <time>2011-06-13T09:36:43Z</time>
      </trkpt>
      <trkpt lat="45.78977" lon="5.00745">
        <ele>177.1</ele>
        <time>2011-06-13T09:36:45Z</time>
      </trkpt>
      <trkpt lat="45.7896" lon="5.00745">
        <ele>180.5</ele>
        <time>2011-06-13T09:36:49Z</time>
      </trkpt>
      <trkpt lat="45.78957" lon="5.00745">
        <ele>181.1</ele>
        <time>2011-06-13T09:36:50Z</time>
      </trkpt>
      <trkpt lat="45.78955" lon="5.00748">
        <ele>180.6</ele>
        <time>2011-06-13T09:36:51Z</time>
      </trkpt>
      <trkpt lat="45.78953" lon="5.00751">
        <ele>178.3</ele>
        <time>2011-06-13T09:36:52Z</time>
      </trkpt>
      <trkpt lat="45.78951" lon="5.00754">
        <ele>177.1</ele>
        <time>2011-06-13T09:36:53Z</time>
      </trkpt>
      <trkpt lat="45.78949" lon="5.00757">
        <ele>177.8</ele>
        <time>2011-06-13T09:36:54Z</time>
      </trkpt>
      <trkpt lat="45.78947" lon="5.0076">
        <ele>178.6</ele>
        <time>2011-06-13T09:36:55Z</time>
      </trkpt>
      <trkpt lat="45.78944" lon="5.00767">
        <ele>177.6</ele>
        <time>2011-06-13T09:36:57Z</time>
      </trkpt>
      <trkpt lat="45.78943" lon="5.00771">
        <ele>177.3</ele>
        <time>2011-06-13T09:36:58Z</time>
      </trkpt>
      <trkpt lat="45.78942" lon="5.00774">
        <ele>178.1</ele>
        <time>2011-06-13T09:36:59Z</time>
      </trkpt>
      <trkpt lat="45.78942" lon="5.00778">
        <ele>178.1</ele>
        <time>2011-06-13T09:37:00Z</time>
      </trkpt>
      <trkpt lat="45.7894" lon="5.0078">
        <ele>178.1</ele>
        <time>2011-06-13T09:37:01Z</time>
      </trkpt>
      <trkpt lat="45.78935" lon="5.00784">
        <ele>177.5</ele>
        <time>2011-06-13T09:37:03Z</time>
      </trkpt>
      <trkpt lat="45.78931" lon="5.00791">
        <ele>177.6</ele>
        <time>2011-06-13T09:37:05Z</time>
      </trkpt>
      <trkpt lat="45.78928" lon="5.00793">
        <ele>177.6</ele>
        <time>2011-06-13T09:37:06Z</time>
      </trkpt>
      <trkpt lat="45.78926" lon="5.00797">
        <ele>176.8</ele>
        <time>2011-06-13T09:37:07Z</time>
      </trkpt>
      <trkpt lat="45.78924" lon="5.00799">
        <ele>176.6</ele>
        <time>2011-06-13T09:37:08Z</time>
      </trkpt>
      <trkpt lat="45.78921" lon="5.00802">
        <ele>177.1</ele>
        <time>2011-06-13T09:37:09Z</time>
      </trkpt>
      <trkpt lat="45.7892" lon="5.00812">
        <ele>176.3</ele>
        <time>2011-06-13T09:37:11Z</time>
      </trkpt>
      <trkpt lat="45.78917" lon="5.00813">
        <ele>176.8</ele>
        <time>2011-06-13T09:37:12Z</time>
      </trkpt>
      <trkpt lat="45.78915" lon="5.00816">
        <ele>177.3</ele>
        <time>2011-06-13T09:37:13Z</time>
      </trkpt>
      <trkpt lat="45.78913" lon="5.00821">
        <ele>179.6</ele>
        <time>2011-06-13T09:37:15Z</time>
      </trkpt>
      <trkpt lat="45.78913" lon="5.00825">
        <ele>180.1</ele>
        <time>2011-06-13T09:37:16Z</time>
      </trkpt>
      <trkpt lat="45.78912" lon="5.00828">
        <ele>179.1</ele>
        <time>2011-06-13T09:37:17Z</time>
      </trkpt>
      <trkpt lat="45.78913" lon="5.00833">
        <ele>178.1</ele>
        <time>2011-06-13T09:37:18Z</time>
      </trkpt>
      <trkpt lat="45.78911" lon="5.00836">
        <ele>176.5</ele>
        <time>2011-06-13T09:37:19Z</time>
      </trkpt>
      <trkpt lat="45.78909" lon="5.00837">
        <ele>175.8</ele>
        <time>2011-06-13T09:37:20Z</time>
      </trkpt>
      <trkpt lat="45.78906" lon="5.00838">
        <ele>175.8</ele>
        <time>2011-06-13T09:37:21Z</time>
      </trkpt>
      <trkpt lat="45.78902" lon="5.00838">
        <ele>174.8</ele>
        <time>2011-06-13T09:37:22Z</time>
      </trkpt>
      <trkpt lat="45.78892" lon="5.00834">
        <ele>173.6</ele>
        <time>2011-06-13T09:37:23Z</time>
      </trkpt>
      <trkpt lat="45.78885" lon="5.00832">
        <ele>172.3</ele>
        <time>2011-06-13T09:37:24Z</time>
      </trkpt>
      <trkpt lat="45.78884" lon="5.00835">
        <ele>171.6</ele>
        <time>2011-06-13T09:37:25Z</time>
      </trkpt>
      <trkpt lat="45.78883" lon="5.00838">
        <ele>170.6</ele>
        <time>2011-06-13T09:37:26Z</time>
      </trkpt>
      <trkpt lat="45.78881" lon="5.00839">
        <ele>171.6</ele>
        <time>2011-06-13T09:37:27Z</time>
      </trkpt>
      <trkpt lat="45.78879" lon="5.00844">
        <ele>168.6</ele>
        <time>2011-06-13T09:37:29Z</time>
      </trkpt>
      <trkpt lat="45.78878" lon="5.00847">
        <ele>167.5</ele>
        <time>2011-06-13T09:37:30Z</time>
      </trkpt>
      <trkpt lat="45.78876" lon="5.0085">
        <ele>167.1</ele>
        <time>2011-06-13T09:37:31Z</time>
      </trkpt>
      <trkpt lat="45.78873" lon="5.00853">
        <ele>167.1</ele>
        <time>2011-06-13T09:37:32Z</time>
      </trkpt>
      <trkpt lat="45.78853" lon="5.00873">
        <ele>163.3</ele>
        <time>2011-06-13T09:37:41Z</time>
      </trkpt>
      <trkpt lat="45.78851" lon="5.00875">
        <ele>163</ele>
        <time>2011-06-13T09:37:42Z</time>
      </trkpt>
      <trkpt lat="45.78843" lon="5.00887">
        <ele>161.1</ele>
        <time>2011-06-13T09:37:46Z</time>
      </trkpt>
      <trkpt lat="45.78841" lon="5.00891">
        <ele>160.8</ele>
        <time>2011-06-13T09:37:47Z</time>
      </trkpt>
      <trkpt lat="45.7882" lon="5.00925">
        <ele>165.6</ele>
        <time>2011-06-13T09:37:57Z</time>
      </trkpt>
      <trkpt lat="45.78817" lon="5.00933">
        <ele>168.1</ele>
        <time>2011-06-13T09:38:00Z</time>
      </trkpt>
      <trkpt lat="45.7881" lon="5.00945">
        <ele>172.3</ele>
        <time>2011-06-13T09:38:04Z</time>
      </trkpt>
      <trkpt lat="45.78807" lon="5.0095">
        <ele>174.6</ele>
        <time>2011-06-13T09:38:05Z</time>
      </trkpt>
      <trkpt lat="45.78805" lon="5.00952">
        <ele>177.1</ele>
        <time>2011-06-13T09:38:06Z</time>
      </trkpt>
      <trkpt lat="45.78802" lon="5.00955">
        <ele>176.8</ele>
        <time>2011-06-13T09:38:07Z</time>
      </trkpt>
      <trkpt lat="45.788" lon="5.00959">
        <ele>177.5</ele>
        <time>2011-06-13T09:38:08Z</time>
      </trkpt>
      <trkpt lat="45.78799" lon="5.00964">
        <ele>177.1</ele>
        <time>2011-06-13T09:38:09Z</time>
      </trkpt>
      <trkpt lat="45.78797" lon="5.00968">
        <ele>177.6</ele>
        <time>2011-06-13T09:38:10Z</time>
      </trkpt>
      <trkpt lat="45.78795" lon="5.00972">
        <ele>178.5</ele>
        <time>2011-06-13T09:38:11Z</time>
      </trkpt>
      <trkpt lat="45.78793" lon="5.00975">
        <ele>180.6</ele>
        <time>2011-06-13T09:38:12Z</time>
      </trkpt>
      <trkpt lat="45.78792" lon="5.0098">
        <ele>181.6</ele>
        <time>2011-06-13T09:38:13Z</time>
      </trkpt>
      <trkpt lat="45.78789" lon="5.01006">
        <ele>180.3</ele>
        <time>2011-06-13T09:38:19Z</time>
      </trkpt>
      <trkpt lat="45.78788" lon="5.01026">
        <ele>182.3</ele>
        <time>2011-06-13T09:38:24Z</time>
      </trkpt>
      <trkpt lat="45.78789" lon="5.01031">
        <ele>181.1</ele>
        <time>2011-06-13T09:38:25Z</time>
      </trkpt>
      <trkpt lat="45.78789" lon="5.01036">
        <ele>181.6</ele>
        <time>2011-06-13T09:38:26Z</time>
      </trkpt>
      <trkpt lat="45.7879" lon="5.0104">
        <ele>181.6</ele>
        <time>2011-06-13T09:38:27Z</time>
      </trkpt>
    </trkseg>
  </trk>
</gpx>